<?xml version="1.0" encoding="UTF-8" standalone="no" ?>
<gpx xmlns="http://www.topografix.com/GPX/1/1" xmlns:xsi="http://www.w3.org/2001/XMLSchema-instance" xsi:schemaLocation="http://www.topografix.com/GPX/1/1 http://www.topografix.com/GPX/1/1/gpx.xsd" version="1.1" creator="VisuGPX - https://www.visugpx.com">
  <metadata>
    <name>rando molkenrain</name>
    <desc><![CDATA[randonnée pédestre du molkenrain]]></desc>
  </metadata>
  <wpt lat="47.82099" lon="7.17496">
    <ele>377.1</ele>
    <name><![CDATA[09/02/2014 11:01 (départ)]]></name>
  </wpt>
  <wpt lat="47.80825" lon="7.1756">
    <ele>351.5</ele>
    <name><![CDATA[09/02/2014 11:01 (fin)]]></name>
    <desc><![CDATA[Créé par Google Mes parcours sur Android  Nom : 09/02/2014 11:01 Type d'activité : marche Description : - Distance totale : 17,59 km (10,9 mi) Durée totale : 5:52:02 Durée du déplacement : 4:16:03 Vitesse moyenne : 3,00 km/h (1,9 mi/h) Vitesse moyenne de déplacement : 4,12 km/h (2,6 mi/h) Vitesse max. : 43,70 km/h (27,2 mi/h) Vitesse moyenne : 20:01 min/km (32:12 min/mi) Allure moyenne : 14:33 min/km (23:25 min/mi) Vitesse maximale : 1:22 min/km (2:13 min/mi) Élévation max. : 1209 m (3965 pi) Élévation min. : 341 m (1119 pi) Dénivelé : 2453 m (8048 pi) Inclinaison max. : 51 % Inclinaison min. : -36 % Date d'enregistrement : 09/02/2014 11:01]]></desc>
  </wpt>
  <trk>
    <name><![CDATA[09/02/2014 11:01]]></name>
    <trkseg>
      <trkpt lat="47.82099" lon="7.17496">
        <ele>377.059997559</ele>
        <time>2014-02-09T10:06:55.848Z</time>
      </trkpt>
      <trkpt lat="47.82101" lon="7.17495">
        <ele>403.747039795</ele>
        <time>2014-02-09T10:07:00.388Z</time>
      </trkpt>
      <trkpt lat="47.82102" lon="7.17481">
        <ele>405.480529785</ele>
        <time>2014-02-09T10:07:01.39Z</time>
      </trkpt>
      <trkpt lat="47.82103" lon="7.17477">
        <ele>389.877593994</ele>
        <time>2014-02-09T10:07:06.429Z</time>
      </trkpt>
      <trkpt lat="47.82101" lon="7.17465">
        <ele>383.640991211</ele>
        <time>2014-02-09T10:07:07.417Z</time>
      </trkpt>
      <trkpt lat="47.82106" lon="7.17456">
        <ele>397.180145264</ele>
        <time>2014-02-09T10:07:15.424Z</time>
      </trkpt>
      <trkpt lat="47.82108" lon="7.17451">
        <ele>399.163360596</ele>
        <time>2014-02-09T10:07:16.418Z</time>
      </trkpt>
      <trkpt lat="47.82109" lon="7.17439">
        <ele>397.701263428</ele>
        <time>2014-02-09T10:07:30.415Z</time>
      </trkpt>
      <trkpt lat="47.82109" lon="7.17436">
        <ele>397.539886475</ele>
        <time>2014-02-09T10:07:31.411Z</time>
      </trkpt>
      <trkpt lat="47.82112" lon="7.17424">
        <ele>396.843017578</ele>
        <time>2014-02-09T10:07:37.416Z</time>
      </trkpt>
      <trkpt lat="47.82112" lon="7.17421">
        <ele>396.403717041</ele>
        <time>2014-02-09T10:07:38.431Z</time>
      </trkpt>
      <trkpt lat="47.82113" lon="7.17408">
        <ele>393.327362061</ele>
        <time>2014-02-09T10:07:44.41Z</time>
      </trkpt>
      <trkpt lat="47.82114" lon="7.17405">
        <ele>392.78515625</ele>
        <time>2014-02-09T10:07:45.422Z</time>
      </trkpt>
      <trkpt lat="47.82116" lon="7.17394">
        <ele>390.669403076</ele>
        <time>2014-02-09T10:07:49.422Z</time>
      </trkpt>
      <trkpt lat="47.82116" lon="7.17392">
        <ele>390.13494873</ele>
        <time>2014-02-09T10:07:50.434Z</time>
      </trkpt>
      <trkpt lat="47.8212" lon="7.1738">
        <ele>386.393768311</ele>
        <time>2014-02-09T10:07:58.426Z</time>
      </trkpt>
      <trkpt lat="47.82119" lon="7.17379">
        <ele>385.902801514</ele>
        <time>2014-02-09T10:07:59.4Z</time>
      </trkpt>
      <trkpt lat="47.82121" lon="7.17368">
        <ele>381.982818604</ele>
        <time>2014-02-09T10:08:09.423Z</time>
      </trkpt>
      <trkpt lat="47.82122" lon="7.17366">
        <ele>381.665130615</ele>
        <time>2014-02-09T10:08:10.424Z</time>
      </trkpt>
      <trkpt lat="47.82126" lon="7.17355">
        <ele>379.405731201</ele>
        <time>2014-02-09T10:08:16.416Z</time>
      </trkpt>
      <trkpt lat="47.82126" lon="7.17354">
        <ele>379.076568604</ele>
        <time>2014-02-09T10:08:17.432Z</time>
      </trkpt>
      <trkpt lat="47.82131" lon="7.17343">
        <ele>376.881652832</ele>
        <time>2014-02-09T10:08:24.415Z</time>
      </trkpt>
      <trkpt lat="47.82131" lon="7.17342">
        <ele>376.563598633</ele>
        <time>2014-02-09T10:08:25.413Z</time>
      </trkpt>
      <trkpt lat="47.82138" lon="7.17334">
        <ele>374.809814453</ele>
        <time>2014-02-09T10:08:33.422Z</time>
      </trkpt>
      <trkpt lat="47.82139" lon="7.17333">
        <ele>374.645721436</ele>
        <time>2014-02-09T10:08:34.402Z</time>
      </trkpt>
      <trkpt lat="47.82142" lon="7.17321">
        <ele>373.580291748</ele>
        <time>2014-02-09T10:08:42.436Z</time>
      </trkpt>
      <trkpt lat="47.82142" lon="7.1732">
        <ele>373.480773926</ele>
        <time>2014-02-09T10:08:43.423Z</time>
      </trkpt>
      <trkpt lat="47.82144" lon="7.17309">
        <ele>372.074707031</ele>
        <time>2014-02-09T10:08:51.424Z</time>
      </trkpt>
      <trkpt lat="47.82145" lon="7.17307">
        <ele>371.851989746</ele>
        <time>2014-02-09T10:08:52.414Z</time>
      </trkpt>
      <trkpt lat="47.82148" lon="7.17297">
        <ele>370.535552979</ele>
        <time>2014-02-09T10:08:57.448Z</time>
      </trkpt>
      <trkpt lat="47.82149" lon="7.17295">
        <ele>370.267730713</ele>
        <time>2014-02-09T10:08:58.43Z</time>
      </trkpt>
      <trkpt lat="47.82151" lon="7.17283">
        <ele>369.031219482</ele>
        <time>2014-02-09T10:09:05.422Z</time>
      </trkpt>
      <trkpt lat="47.82152" lon="7.17281">
        <ele>368.896209717</ele>
        <time>2014-02-09T10:09:06.423Z</time>
      </trkpt>
      <trkpt lat="47.82156" lon="7.17269">
        <ele>367.311187744</ele>
        <time>2014-02-09T10:09:18.425Z</time>
      </trkpt>
      <trkpt lat="47.82157" lon="7.17268">
        <ele>367.23034668</ele>
        <time>2014-02-09T10:09:19.421Z</time>
      </trkpt>
      <trkpt lat="47.8216" lon="7.17257">
        <ele>367.21383667</ele>
        <time>2014-02-09T10:09:28.416Z</time>
      </trkpt>
      <trkpt lat="47.82161" lon="7.17255">
        <ele>367.252929688</ele>
        <time>2014-02-09T10:09:29.422Z</time>
      </trkpt>
      <trkpt lat="47.82163" lon="7.17243">
        <ele>368.083618164</ele>
        <time>2014-02-09T10:09:37.407Z</time>
      </trkpt>
      <trkpt lat="47.82164" lon="7.17242">
        <ele>368.19732666</ele>
        <time>2014-02-09T10:09:38.426Z</time>
      </trkpt>
      <trkpt lat="47.82167" lon="7.1723">
        <ele>368.531433105</ele>
        <time>2014-02-09T10:09:44.408Z</time>
      </trkpt>
      <trkpt lat="47.82168" lon="7.17229">
        <ele>368.591369629</ele>
        <time>2014-02-09T10:09:45.405Z</time>
      </trkpt>
      <trkpt lat="47.82169" lon="7.17217">
        <ele>369.652252197</ele>
        <time>2014-02-09T10:09:56.413Z</time>
      </trkpt>
      <trkpt lat="47.82169" lon="7.17215">
        <ele>369.692749023</ele>
        <time>2014-02-09T10:09:57.41Z</time>
      </trkpt>
      <trkpt lat="47.82164" lon="7.17204">
        <ele>369.999359131</ele>
        <time>2014-02-09T10:10:05.42Z</time>
      </trkpt>
      <trkpt lat="47.82164" lon="7.17203">
        <ele>370.004119873</ele>
        <time>2014-02-09T10:10:06.398Z</time>
      </trkpt>
      <trkpt lat="47.8216" lon="7.17192">
        <ele>370.291717529</ele>
        <time>2014-02-09T10:10:12.417Z</time>
      </trkpt>
      <trkpt lat="47.8216" lon="7.1719">
        <ele>370.421600342</ele>
        <time>2014-02-09T10:10:13.417Z</time>
      </trkpt>
      <trkpt lat="47.82162" lon="7.17179">
        <ele>371.114654541</ele>
        <time>2014-02-09T10:10:21.417Z</time>
      </trkpt>
      <trkpt lat="47.82162" lon="7.17177">
        <ele>371.194671631</ele>
        <time>2014-02-09T10:10:22.415Z</time>
      </trkpt>
      <trkpt lat="47.82163" lon="7.17165">
        <ele>371.483337402</ele>
        <time>2014-02-09T10:10:29.417Z</time>
      </trkpt>
      <trkpt lat="47.82163" lon="7.17163">
        <ele>371.507080078</ele>
        <time>2014-02-09T10:10:30.42Z</time>
      </trkpt>
      <trkpt lat="47.82164" lon="7.17152">
        <ele>371.611419678</ele>
        <time>2014-02-09T10:10:37.408Z</time>
      </trkpt>
      <trkpt lat="47.82164" lon="7.1715">
        <ele>371.634277344</ele>
        <time>2014-02-09T10:10:38.423Z</time>
      </trkpt>
      <trkpt lat="47.82164" lon="7.17137">
        <ele>371.664642334</ele>
        <time>2014-02-09T10:10:45.409Z</time>
      </trkpt>
      <trkpt lat="47.82164" lon="7.17134">
        <ele>371.77532959</ele>
        <time>2014-02-09T10:10:46.406Z</time>
      </trkpt>
      <trkpt lat="47.82166" lon="7.17122">
        <ele>372.529449463</ele>
        <time>2014-02-09T10:10:54.409Z</time>
      </trkpt>
      <trkpt lat="47.82166" lon="7.1712">
        <ele>372.619445801</ele>
        <time>2014-02-09T10:10:55.406Z</time>
      </trkpt>
      <trkpt lat="47.82169" lon="7.17108">
        <ele>373.300140381</ele>
        <time>2014-02-09T10:11:03.406Z</time>
      </trkpt>
      <trkpt lat="47.8217" lon="7.17106">
        <ele>373.433563232</ele>
        <time>2014-02-09T10:11:04.407Z</time>
      </trkpt>
      <trkpt lat="47.8217" lon="7.17093">
        <ele>373.891876221</ele>
        <time>2014-02-09T10:11:10.425Z</time>
      </trkpt>
      <trkpt lat="47.8217" lon="7.17092">
        <ele>373.981872559</ele>
        <time>2014-02-09T10:11:11.414Z</time>
      </trkpt>
      <trkpt lat="47.82173" lon="7.1708">
        <ele>374.267364502</ele>
        <time>2014-02-09T10:11:18.422Z</time>
      </trkpt>
      <trkpt lat="47.82173" lon="7.17078">
        <ele>374.244659424</ele>
        <time>2014-02-09T10:11:19.403Z</time>
      </trkpt>
      <trkpt lat="47.82176" lon="7.17067">
        <ele>374.368530273</ele>
        <time>2014-02-09T10:11:26.406Z</time>
      </trkpt>
      <trkpt lat="47.82177" lon="7.17065">
        <ele>374.355834961</ele>
        <time>2014-02-09T10:11:27.408Z</time>
      </trkpt>
      <trkpt lat="47.82178" lon="7.17053">
        <ele>374.52633667</ele>
        <time>2014-02-09T10:11:33.407Z</time>
      </trkpt>
      <trkpt lat="47.82179" lon="7.17052">
        <ele>374.58480835</ele>
        <time>2014-02-09T10:11:34.401Z</time>
      </trkpt>
      <trkpt lat="47.8218" lon="7.1704">
        <ele>374.827453613</ele>
        <time>2014-02-09T10:11:40.401Z</time>
      </trkpt>
      <trkpt lat="47.82181" lon="7.17038">
        <ele>374.830627441</ele>
        <time>2014-02-09T10:11:41.409Z</time>
      </trkpt>
      <trkpt lat="47.82184" lon="7.17027">
        <ele>374.991973877</ele>
        <time>2014-02-09T10:11:47.406Z</time>
      </trkpt>
      <trkpt lat="47.82184" lon="7.17025">
        <ele>375.000457764</ele>
        <time>2014-02-09T10:11:48.41Z</time>
      </trkpt>
      <trkpt lat="47.82185" lon="7.17012">
        <ele>375.194763184</ele>
        <time>2014-02-09T10:11:56.415Z</time>
      </trkpt>
      <trkpt lat="47.82185" lon="7.17011">
        <ele>375.235321045</ele>
        <time>2014-02-09T10:11:57.416Z</time>
      </trkpt>
      <trkpt lat="47.82188" lon="7.17">
        <ele>375.761657715</ele>
        <time>2014-02-09T10:12:04.414Z</time>
      </trkpt>
      <trkpt lat="47.82189" lon="7.16998">
        <ele>375.77444458</ele>
        <time>2014-02-09T10:12:05.415Z</time>
      </trkpt>
      <trkpt lat="47.82192" lon="7.16986">
        <ele>375.913482666</ele>
        <time>2014-02-09T10:12:12.385Z</time>
      </trkpt>
      <trkpt lat="47.82192" lon="7.16984">
        <ele>375.958404541</ele>
        <time>2014-02-09T10:12:13.402Z</time>
      </trkpt>
      <trkpt lat="47.82195" lon="7.16972">
        <ele>376.962921143</ele>
        <time>2014-02-09T10:12:21.403Z</time>
      </trkpt>
      <trkpt lat="47.82195" lon="7.16971">
        <ele>377.148773193</ele>
        <time>2014-02-09T10:12:22.404Z</time>
      </trkpt>
      <trkpt lat="47.82196" lon="7.16958">
        <ele>378.523651123</ele>
        <time>2014-02-09T10:12:30.406Z</time>
      </trkpt>
      <trkpt lat="47.82197" lon="7.16956">
        <ele>378.686950684</ele>
        <time>2014-02-09T10:12:31.403Z</time>
      </trkpt>
      <trkpt lat="47.82201" lon="7.16944">
        <ele>379.136169434</ele>
        <time>2014-02-09T10:12:37.407Z</time>
      </trkpt>
      <trkpt lat="47.82202" lon="7.16941">
        <ele>379.209655762</ele>
        <time>2014-02-09T10:12:38.424Z</time>
      </trkpt>
      <trkpt lat="47.82205" lon="7.16929">
        <ele>379.91595459</ele>
        <time>2014-02-09T10:12:45.402Z</time>
      </trkpt>
      <trkpt lat="47.82205" lon="7.16927">
        <ele>380.015838623</ele>
        <time>2014-02-09T10:12:46.399Z</time>
      </trkpt>
      <trkpt lat="47.82207" lon="7.16914">
        <ele>380.440948486</ele>
        <time>2014-02-09T10:12:52.401Z</time>
      </trkpt>
      <trkpt lat="47.82207" lon="7.16913">
        <ele>380.48828125</ele>
        <time>2014-02-09T10:12:53.412Z</time>
      </trkpt>
      <trkpt lat="47.82208" lon="7.169">
        <ele>380.274749756</ele>
        <time>2014-02-09T10:13:01.396Z</time>
      </trkpt>
      <trkpt lat="47.82209" lon="7.16898">
        <ele>380.269622803</ele>
        <time>2014-02-09T10:13:02.395Z</time>
      </trkpt>
      <trkpt lat="47.8221" lon="7.16886">
        <ele>380.50592041</ele>
        <time>2014-02-09T10:13:10.401Z</time>
      </trkpt>
      <trkpt lat="47.8221" lon="7.16884">
        <ele>380.576171875</ele>
        <time>2014-02-09T10:13:11.403Z</time>
      </trkpt>
      <trkpt lat="47.82212" lon="7.16873">
        <ele>381.137756348</ele>
        <time>2014-02-09T10:13:19.401Z</time>
      </trkpt>
      <trkpt lat="47.82213" lon="7.16872">
        <ele>381.181365967</ele>
        <time>2014-02-09T10:13:20.399Z</time>
      </trkpt>
      <trkpt lat="47.82215" lon="7.16859">
        <ele>381.699615479</ele>
        <time>2014-02-09T10:13:27.401Z</time>
      </trkpt>
      <trkpt lat="47.82216" lon="7.16857">
        <ele>381.779052734</ele>
        <time>2014-02-09T10:13:28.406Z</time>
      </trkpt>
      <trkpt lat="47.82219" lon="7.16845">
        <ele>382.395446777</ele>
        <time>2014-02-09T10:13:35.391Z</time>
      </trkpt>
      <trkpt lat="47.82219" lon="7.16844">
        <ele>382.53994751</ele>
        <time>2014-02-09T10:13:36.4Z</time>
      </trkpt>
      <trkpt lat="47.8222" lon="7.16832">
        <ele>383.398162842</ele>
        <time>2014-02-09T10:13:42.402Z</time>
      </trkpt>
      <trkpt lat="47.8222" lon="7.1683">
        <ele>383.486022949</ele>
        <time>2014-02-09T10:13:43.401Z</time>
      </trkpt>
      <trkpt lat="47.82222" lon="7.16818">
        <ele>384.376190186</ele>
        <time>2014-02-09T10:13:50.399Z</time>
      </trkpt>
      <trkpt lat="47.82223" lon="7.16816">
        <ele>384.436126709</ele>
        <time>2014-02-09T10:13:51.4Z</time>
      </trkpt>
      <trkpt lat="47.82226" lon="7.16805">
        <ele>384.770385742</ele>
        <time>2014-02-09T10:13:58.405Z</time>
      </trkpt>
      <trkpt lat="47.82227" lon="7.16804">
        <ele>384.809661865</ele>
        <time>2014-02-09T10:13:59.425Z</time>
      </trkpt>
      <trkpt lat="47.82229" lon="7.16792">
        <ele>385.36907959</ele>
        <time>2014-02-09T10:14:06.389Z</time>
      </trkpt>
      <trkpt lat="47.82229" lon="7.1679">
        <ele>385.420318604</ele>
        <time>2014-02-09T10:14:07.404Z</time>
      </trkpt>
      <trkpt lat="47.82231" lon="7.16778">
        <ele>385.885528564</ele>
        <time>2014-02-09T10:14:13.4Z</time>
      </trkpt>
      <trkpt lat="47.82231" lon="7.16775">
        <ele>385.964996338</ele>
        <time>2014-02-09T10:14:14.405Z</time>
      </trkpt>
      <trkpt lat="47.82233" lon="7.16763">
        <ele>386.490570068</ele>
        <time>2014-02-09T10:14:21.386Z</time>
      </trkpt>
      <trkpt lat="47.82234" lon="7.16761">
        <ele>386.640197754</ele>
        <time>2014-02-09T10:14:22.407Z</time>
      </trkpt>
      <trkpt lat="47.82235" lon="7.16748">
        <ele>387.457183838</ele>
        <time>2014-02-09T10:14:30.405Z</time>
      </trkpt>
      <trkpt lat="47.82236" lon="7.16747">
        <ele>387.475799561</ele>
        <time>2014-02-09T10:14:31.404Z</time>
      </trkpt>
      <trkpt lat="47.82238" lon="7.16735">
        <ele>387.492248535</ele>
        <time>2014-02-09T10:14:37.405Z</time>
      </trkpt>
      <trkpt lat="47.82238" lon="7.16734">
        <ele>387.407684326</ele>
        <time>2014-02-09T10:14:38.427Z</time>
      </trkpt>
      <trkpt lat="47.82241" lon="7.16721">
        <ele>387.07522583</ele>
        <time>2014-02-09T10:14:47.404Z</time>
      </trkpt>
      <trkpt lat="47.82241" lon="7.16719">
        <ele>387.063995361</ele>
        <time>2014-02-09T10:14:48.401Z</time>
      </trkpt>
      <trkpt lat="47.82244" lon="7.16707">
        <ele>386.94430542</ele>
        <time>2014-02-09T10:14:56.396Z</time>
      </trkpt>
      <trkpt lat="47.82244" lon="7.16705">
        <ele>387.001251221</ele>
        <time>2014-02-09T10:14:57.399Z</time>
      </trkpt>
      <trkpt lat="47.82246" lon="7.16693">
        <ele>387.418701172</ele>
        <time>2014-02-09T10:15:04.399Z</time>
      </trkpt>
      <trkpt lat="47.82247" lon="7.16692">
        <ele>387.469940186</ele>
        <time>2014-02-09T10:15:05.398Z</time>
      </trkpt>
      <trkpt lat="47.82249" lon="7.1668">
        <ele>387.993652344</ele>
        <time>2014-02-09T10:15:12.397Z</time>
      </trkpt>
      <trkpt lat="47.82249" lon="7.16678">
        <ele>388.044830322</ele>
        <time>2014-02-09T10:15:13.398Z</time>
      </trkpt>
      <trkpt lat="47.8225" lon="7.16666">
        <ele>388.727752686</ele>
        <time>2014-02-09T10:15:22.397Z</time>
      </trkpt>
      <trkpt lat="47.82251" lon="7.16664">
        <ele>388.802825928</ele>
        <time>2014-02-09T10:15:23.404Z</time>
      </trkpt>
      <trkpt lat="47.82253" lon="7.16653">
        <ele>389.098114014</ele>
        <time>2014-02-09T10:15:29.396Z</time>
      </trkpt>
      <trkpt lat="47.82254" lon="7.16651">
        <ele>389.134979248</ele>
        <time>2014-02-09T10:15:30.397Z</time>
      </trkpt>
      <trkpt lat="47.82255" lon="7.16638">
        <ele>389.310180664</ele>
        <time>2014-02-09T10:15:37.399Z</time>
      </trkpt>
      <trkpt lat="47.82255" lon="7.16636">
        <ele>389.34576416</ele>
        <time>2014-02-09T10:15:38.404Z</time>
      </trkpt>
      <trkpt lat="47.82258" lon="7.16624">
        <ele>389.679412842</ele>
        <time>2014-02-09T10:15:46.399Z</time>
      </trkpt>
      <trkpt lat="47.82259" lon="7.16622">
        <ele>389.725372314</ele>
        <time>2014-02-09T10:15:47.396Z</time>
      </trkpt>
      <trkpt lat="47.82261" lon="7.1661">
        <ele>389.679351807</ele>
        <time>2014-02-09T10:15:54.399Z</time>
      </trkpt>
      <trkpt lat="47.82261" lon="7.16609">
        <ele>389.684967041</ele>
        <time>2014-02-09T10:15:55.41Z</time>
      </trkpt>
      <trkpt lat="47.82263" lon="7.16596">
        <ele>390.080841064</ele>
        <time>2014-02-09T10:16:03.405Z</time>
      </trkpt>
      <trkpt lat="47.82264" lon="7.16595">
        <ele>390.139923096</ele>
        <time>2014-02-09T10:16:04.402Z</time>
      </trkpt>
      <trkpt lat="47.82266" lon="7.16583">
        <ele>390.854705811</ele>
        <time>2014-02-09T10:16:13.403Z</time>
      </trkpt>
      <trkpt lat="47.82266" lon="7.16582">
        <ele>390.935089111</ele>
        <time>2014-02-09T10:16:14.392Z</time>
      </trkpt>
      <trkpt lat="47.82269" lon="7.1657">
        <ele>391.310668945</ele>
        <time>2014-02-09T10:16:20.409Z</time>
      </trkpt>
      <trkpt lat="47.8227" lon="7.16568">
        <ele>391.3565979</ele>
        <time>2014-02-09T10:16:21.405Z</time>
      </trkpt>
      <trkpt lat="47.82273" lon="7.16556">
        <ele>391.613372803</ele>
        <time>2014-02-09T10:16:28.411Z</time>
      </trkpt>
      <trkpt lat="47.82274" lon="7.16554">
        <ele>391.669067383</ele>
        <time>2014-02-09T10:16:29.397Z</time>
      </trkpt>
      <trkpt lat="47.82276" lon="7.16541">
        <ele>392.271789551</ele>
        <time>2014-02-09T10:16:37.405Z</time>
      </trkpt>
      <trkpt lat="47.82277" lon="7.1654">
        <ele>392.350616455</ele>
        <time>2014-02-09T10:16:38.412Z</time>
      </trkpt>
      <trkpt lat="47.8228" lon="7.16527">
        <ele>392.929199219</ele>
        <time>2014-02-09T10:16:46.405Z</time>
      </trkpt>
      <trkpt lat="47.8228" lon="7.16526">
        <ele>392.966064453</ele>
        <time>2014-02-09T10:16:47.405Z</time>
      </trkpt>
      <trkpt lat="47.82282" lon="7.16514">
        <ele>393.082427979</ele>
        <time>2014-02-09T10:16:53.406Z</time>
      </trkpt>
      <trkpt lat="47.82282" lon="7.16512">
        <ele>393.065551758</ele>
        <time>2014-02-09T10:16:54.406Z</time>
      </trkpt>
      <trkpt lat="47.82282" lon="7.16499">
        <ele>393.499328613</ele>
        <time>2014-02-09T10:17:03.403Z</time>
      </trkpt>
      <trkpt lat="47.82282" lon="7.16497">
        <ele>393.575805664</ele>
        <time>2014-02-09T10:17:04.402Z</time>
      </trkpt>
      <trkpt lat="47.82282" lon="7.16484">
        <ele>394.449554443</ele>
        <time>2014-02-09T10:17:12.406Z</time>
      </trkpt>
      <trkpt lat="47.82282" lon="7.16482">
        <ele>394.588745117</ele>
        <time>2014-02-09T10:17:13.404Z</time>
      </trkpt>
      <trkpt lat="47.82282" lon="7.1647">
        <ele>395.466491699</ele>
        <time>2014-02-09T10:17:20.39Z</time>
      </trkpt>
      <trkpt lat="47.82282" lon="7.16467">
        <ele>395.55355835</ele>
        <time>2014-02-09T10:17:21.403Z</time>
      </trkpt>
      <trkpt lat="47.82283" lon="7.16455">
        <ele>396.261535645</ele>
        <time>2014-02-09T10:17:28.408Z</time>
      </trkpt>
      <trkpt lat="47.82284" lon="7.16454">
        <ele>396.367340088</ele>
        <time>2014-02-09T10:17:29.401Z</time>
      </trkpt>
      <trkpt lat="47.82288" lon="7.16445">
        <ele>397.249572754</ele>
        <time>2014-02-09T10:17:37.406Z</time>
      </trkpt>
      <trkpt lat="47.82289" lon="7.16443">
        <ele>397.366546631</ele>
        <time>2014-02-09T10:17:38.392Z</time>
      </trkpt>
      <trkpt lat="47.82294" lon="7.16434">
        <ele>397.694152832</ele>
        <time>2014-02-09T10:17:44.415Z</time>
      </trkpt>
      <trkpt lat="47.82295" lon="7.16433">
        <ele>397.712097168</ele>
        <time>2014-02-09T10:17:45.394Z</time>
      </trkpt>
      <trkpt lat="47.82302" lon="7.16427">
        <ele>397.560791016</ele>
        <time>2014-02-09T10:17:51.396Z</time>
      </trkpt>
      <trkpt lat="47.82303" lon="7.16426">
        <ele>397.558868408</ele>
        <time>2014-02-09T10:17:52.399Z</time>
      </trkpt>
      <trkpt lat="47.8231" lon="7.16418">
        <ele>397.631439209</ele>
        <time>2014-02-09T10:17:59.4Z</time>
      </trkpt>
      <trkpt lat="47.82311" lon="7.16417">
        <ele>397.722717285</ele>
        <time>2014-02-09T10:18:00.4Z</time>
      </trkpt>
      <trkpt lat="47.82317" lon="7.16409">
        <ele>397.95526123</ele>
        <time>2014-02-09T10:18:08.41Z</time>
      </trkpt>
      <trkpt lat="47.82318" lon="7.16408">
        <ele>398.005737305</ele>
        <time>2014-02-09T10:18:09.392Z</time>
      </trkpt>
      <trkpt lat="47.82326" lon="7.16403">
        <ele>398.161224365</ele>
        <time>2014-02-09T10:18:16.389Z</time>
      </trkpt>
      <trkpt lat="47.82327" lon="7.16402">
        <ele>398.199737549</ele>
        <time>2014-02-09T10:18:17.399Z</time>
      </trkpt>
      <trkpt lat="47.82335" lon="7.16399">
        <ele>398.768432617</ele>
        <time>2014-02-09T10:18:25.421Z</time>
      </trkpt>
      <trkpt lat="47.82336" lon="7.16398">
        <ele>398.886749268</ele>
        <time>2014-02-09T10:18:26.4Z</time>
      </trkpt>
      <trkpt lat="47.82345" lon="7.16399">
        <ele>399.158294678</ele>
        <time>2014-02-09T10:18:33.39Z</time>
      </trkpt>
      <trkpt lat="47.82346" lon="7.16399">
        <ele>399.128417969</ele>
        <time>2014-02-09T10:18:34.404Z</time>
      </trkpt>
      <trkpt lat="47.82354" lon="7.16395">
        <ele>398.970916748</ele>
        <time>2014-02-09T10:18:42.394Z</time>
      </trkpt>
      <trkpt lat="47.82354" lon="7.16394">
        <ele>398.895874023</ele>
        <time>2014-02-09T10:18:43.4Z</time>
      </trkpt>
      <trkpt lat="47.82362" lon="7.16388">
        <ele>399.573486328</ele>
        <time>2014-02-09T10:20:20.387Z</time>
      </trkpt>
      <trkpt lat="47.82362" lon="7.16388">
        <ele>399.568115234</ele>
        <time>2014-02-09T10:20:21.397Z</time>
      </trkpt>
      <trkpt lat="47.82366" lon="7.16379">
        <ele>399.641174316</ele>
        <time>2014-02-09T10:20:59.386Z</time>
      </trkpt>
      <trkpt lat="47.82368" lon="7.16377">
        <ele>399.628570557</ele>
        <time>2014-02-09T10:21:00.392Z</time>
      </trkpt>
      <trkpt lat="47.82375" lon="7.16371">
        <ele>399.843078613</ele>
        <time>2014-02-09T10:21:08.402Z</time>
      </trkpt>
      <trkpt lat="47.82376" lon="7.16371">
        <ele>399.961120605</ele>
        <time>2014-02-09T10:21:09.397Z</time>
      </trkpt>
      <trkpt lat="47.82384" lon="7.16367">
        <ele>400.36315918</ele>
        <time>2014-02-09T10:21:17.401Z</time>
      </trkpt>
      <trkpt lat="47.82385" lon="7.16366">
        <ele>400.418792725</ele>
        <time>2014-02-09T10:21:18.391Z</time>
      </trkpt>
      <trkpt lat="47.82392" lon="7.16359">
        <ele>401.82220459</ele>
        <time>2014-02-09T10:21:26.402Z</time>
      </trkpt>
      <trkpt lat="47.82393" lon="7.16358">
        <ele>402.092224121</ele>
        <time>2014-02-09T10:21:27.398Z</time>
      </trkpt>
      <trkpt lat="47.824" lon="7.1635">
        <ele>403.818969727</ele>
        <time>2014-02-09T10:21:36.391Z</time>
      </trkpt>
      <trkpt lat="47.824" lon="7.16349">
        <ele>404.003234863</ele>
        <time>2014-02-09T10:21:37.389Z</time>
      </trkpt>
      <trkpt lat="47.82407" lon="7.16341">
        <ele>405.549072266</ele>
        <time>2014-02-09T10:21:45.385Z</time>
      </trkpt>
      <trkpt lat="47.82407" lon="7.1634">
        <ele>405.64642334</ele>
        <time>2014-02-09T10:21:46.387Z</time>
      </trkpt>
      <trkpt lat="47.82413" lon="7.16331">
        <ele>407.006011963</ele>
        <time>2014-02-09T10:22:00.375Z</time>
      </trkpt>
      <trkpt lat="47.82413" lon="7.1633">
        <ele>407.108856201</ele>
        <time>2014-02-09T10:22:01.386Z</time>
      </trkpt>
      <trkpt lat="47.8242" lon="7.16321">
        <ele>408.953308105</ele>
        <time>2014-02-09T10:22:12.417Z</time>
      </trkpt>
      <trkpt lat="47.8242" lon="7.16321">
        <ele>409.141540527</ele>
        <time>2014-02-09T10:22:13.387Z</time>
      </trkpt>
      <trkpt lat="47.82426" lon="7.16311">
        <ele>409.847930908</ele>
        <time>2014-02-09T10:22:20.387Z</time>
      </trkpt>
      <trkpt lat="47.82427" lon="7.1631">
        <ele>409.962585449</ele>
        <time>2014-02-09T10:22:21.388Z</time>
      </trkpt>
      <trkpt lat="47.82433" lon="7.16301">
        <ele>411.380371094</ele>
        <time>2014-02-09T10:22:34.39Z</time>
      </trkpt>
      <trkpt lat="47.82434" lon="7.163">
        <ele>411.488891602</ele>
        <time>2014-02-09T10:22:35.387Z</time>
      </trkpt>
      <trkpt lat="47.8244" lon="7.16291">
        <ele>411.444122314</ele>
        <time>2014-02-09T10:22:45.375Z</time>
      </trkpt>
      <trkpt lat="47.82441" lon="7.1629">
        <ele>411.335510254</ele>
        <time>2014-02-09T10:22:46.392Z</time>
      </trkpt>
      <trkpt lat="47.82447" lon="7.16281">
        <ele>410.935119629</ele>
        <time>2014-02-09T10:22:54.391Z</time>
      </trkpt>
      <trkpt lat="47.82447" lon="7.16281">
        <ele>410.941040039</ele>
        <time>2014-02-09T10:22:55.411Z</time>
      </trkpt>
      <trkpt lat="47.82454" lon="7.16273">
        <ele>411.828887939</ele>
        <time>2014-02-09T10:23:06.396Z</time>
      </trkpt>
      <trkpt lat="47.82455" lon="7.16272">
        <ele>412.058410645</ele>
        <time>2014-02-09T10:23:07.389Z</time>
      </trkpt>
      <trkpt lat="47.82463" lon="7.16266">
        <ele>414.709777832</ele>
        <time>2014-02-09T10:23:20.387Z</time>
      </trkpt>
      <trkpt lat="47.82464" lon="7.16266">
        <ele>414.955291748</ele>
        <time>2014-02-09T10:23:21.388Z</time>
      </trkpt>
      <trkpt lat="47.82471" lon="7.1626">
        <ele>416.541259766</ele>
        <time>2014-02-09T10:23:29.387Z</time>
      </trkpt>
      <trkpt lat="47.82472" lon="7.16259">
        <ele>416.611297607</ele>
        <time>2014-02-09T10:23:30.386Z</time>
      </trkpt>
      <trkpt lat="47.8248" lon="7.16254">
        <ele>418.219482422</ele>
        <time>2014-02-09T10:23:39.385Z</time>
      </trkpt>
      <trkpt lat="47.82481" lon="7.16253">
        <ele>418.395263672</ele>
        <time>2014-02-09T10:23:40.391Z</time>
      </trkpt>
      <trkpt lat="47.82488" lon="7.16248">
        <ele>419.868438721</ele>
        <time>2014-02-09T10:23:49.388Z</time>
      </trkpt>
      <trkpt lat="47.82489" lon="7.16247">
        <ele>420.083496094</ele>
        <time>2014-02-09T10:23:50.386Z</time>
      </trkpt>
      <trkpt lat="47.82497" lon="7.16242">
        <ele>422.947814941</ele>
        <time>2014-02-09T10:24:02.41Z</time>
      </trkpt>
      <trkpt lat="47.82498" lon="7.16242">
        <ele>423.222747803</ele>
        <time>2014-02-09T10:24:03.384Z</time>
      </trkpt>
      <trkpt lat="47.82505" lon="7.16236">
        <ele>424.920623779</ele>
        <time>2014-02-09T10:24:13.386Z</time>
      </trkpt>
      <trkpt lat="47.82506" lon="7.16235">
        <ele>425.09085083</ele>
        <time>2014-02-09T10:24:14.389Z</time>
      </trkpt>
      <trkpt lat="47.82514" lon="7.16228">
        <ele>426.170532227</ele>
        <time>2014-02-09T10:24:23.384Z</time>
      </trkpt>
      <trkpt lat="47.82514" lon="7.16227">
        <ele>426.253814697</ele>
        <time>2014-02-09T10:24:24.383Z</time>
      </trkpt>
      <trkpt lat="47.82522" lon="7.1622">
        <ele>427.43157959</ele>
        <time>2014-02-09T10:24:35.388Z</time>
      </trkpt>
      <trkpt lat="47.82522" lon="7.16219">
        <ele>427.509094238</ele>
        <time>2014-02-09T10:24:36.387Z</time>
      </trkpt>
      <trkpt lat="47.82528" lon="7.1621">
        <ele>428.266387939</ele>
        <time>2014-02-09T10:24:48.388Z</time>
      </trkpt>
      <trkpt lat="47.82529" lon="7.16209">
        <ele>428.395355225</ele>
        <time>2014-02-09T10:24:49.37Z</time>
      </trkpt>
      <trkpt lat="47.82536" lon="7.16201">
        <ele>430.234985352</ele>
        <time>2014-02-09T10:25:00.375Z</time>
      </trkpt>
      <trkpt lat="47.82536" lon="7.162">
        <ele>430.473724365</ele>
        <time>2014-02-09T10:25:01.372Z</time>
      </trkpt>
      <trkpt lat="47.82543" lon="7.16192">
        <ele>433.434906006</ele>
        <time>2014-02-09T10:25:14.378Z</time>
      </trkpt>
      <trkpt lat="47.82544" lon="7.16192">
        <ele>433.462799072</ele>
        <time>2014-02-09T10:25:15.367Z</time>
      </trkpt>
      <trkpt lat="47.82551" lon="7.16186">
        <ele>435.10067749</ele>
        <time>2014-02-09T10:25:22.384Z</time>
      </trkpt>
      <trkpt lat="47.82552" lon="7.16185">
        <ele>435.278533936</ele>
        <time>2014-02-09T10:25:23.383Z</time>
      </trkpt>
      <trkpt lat="47.82559" lon="7.16179">
        <ele>436.912078857</ele>
        <time>2014-02-09T10:25:35.373Z</time>
      </trkpt>
      <trkpt lat="47.8256" lon="7.16178">
        <ele>436.935821533</ele>
        <time>2014-02-09T10:25:36.382Z</time>
      </trkpt>
      <trkpt lat="47.82567" lon="7.16171">
        <ele>437.364959717</ele>
        <time>2014-02-09T10:25:45.378Z</time>
      </trkpt>
      <trkpt lat="47.82567" lon="7.1617">
        <ele>437.436645508</ele>
        <time>2014-02-09T10:25:46.366Z</time>
      </trkpt>
      <trkpt lat="47.82573" lon="7.16162">
        <ele>438.131439209</ele>
        <time>2014-02-09T10:26:01.379Z</time>
      </trkpt>
      <trkpt lat="47.82574" lon="7.16161">
        <ele>438.314086914</ele>
        <time>2014-02-09T10:26:02.383Z</time>
      </trkpt>
      <trkpt lat="47.8258" lon="7.16153">
        <ele>439.402862549</ele>
        <time>2014-02-09T10:26:06.389Z</time>
      </trkpt>
      <trkpt lat="47.82581" lon="7.1615">
        <ele>439.67880249</ele>
        <time>2014-02-09T10:26:07.381Z</time>
      </trkpt>
      <trkpt lat="47.82587" lon="7.1614">
        <ele>440.123016357</ele>
        <time>2014-02-09T10:26:15.384Z</time>
      </trkpt>
      <trkpt lat="47.82587" lon="7.16139">
        <ele>440.097503662</ele>
        <time>2014-02-09T10:26:16.383Z</time>
      </trkpt>
      <trkpt lat="47.82594" lon="7.16132">
        <ele>438.746673584</ele>
        <time>2014-02-09T10:26:25.386Z</time>
      </trkpt>
      <trkpt lat="47.82594" lon="7.16132">
        <ele>438.730407715</ele>
        <time>2014-02-09T10:26:26.388Z</time>
      </trkpt>
      <trkpt lat="47.82601" lon="7.16124">
        <ele>442.43157959</ele>
        <time>2014-02-09T10:26:42.391Z</time>
      </trkpt>
      <trkpt lat="47.82601" lon="7.16123">
        <ele>442.630249023</ele>
        <time>2014-02-09T10:26:43.385Z</time>
      </trkpt>
      <trkpt lat="47.82609" lon="7.16117">
        <ele>445.465484619</ele>
        <time>2014-02-09T10:26:54.383Z</time>
      </trkpt>
      <trkpt lat="47.8261" lon="7.16115">
        <ele>445.770202637</ele>
        <time>2014-02-09T10:26:55.392Z</time>
      </trkpt>
      <trkpt lat="47.82618" lon="7.16109">
        <ele>447.065002441</ele>
        <time>2014-02-09T10:27:14.38Z</time>
      </trkpt>
      <trkpt lat="47.82618" lon="7.16109">
        <ele>447.080474854</ele>
        <time>2014-02-09T10:27:15.401Z</time>
      </trkpt>
      <trkpt lat="47.82625" lon="7.16102">
        <ele>447.396514893</ele>
        <time>2014-02-09T10:27:37.38Z</time>
      </trkpt>
      <trkpt lat="47.82626" lon="7.161">
        <ele>447.204833984</ele>
        <time>2014-02-09T10:27:38.385Z</time>
      </trkpt>
      <trkpt lat="47.82632" lon="7.16096">
        <ele>447.000183105</ele>
        <time>2014-02-09T10:27:42.38Z</time>
      </trkpt>
      <trkpt lat="47.82634" lon="7.16095">
        <ele>447.135314941</ele>
        <time>2014-02-09T10:27:43.377Z</time>
      </trkpt>
      <trkpt lat="47.82641" lon="7.16091">
        <ele>447.740203857</ele>
        <time>2014-02-09T10:27:46.378Z</time>
      </trkpt>
      <trkpt lat="47.82643" lon="7.16089">
        <ele>448.01159668</ele>
        <time>2014-02-09T10:27:47.376Z</time>
      </trkpt>
      <trkpt lat="47.8265" lon="7.16084">
        <ele>448.699615479</ele>
        <time>2014-02-09T10:27:51.379Z</time>
      </trkpt>
      <trkpt lat="47.82651" lon="7.16082">
        <ele>448.772521973</ele>
        <time>2014-02-09T10:27:52.377Z</time>
      </trkpt>
      <trkpt lat="47.82658" lon="7.16074">
        <ele>449.107757568</ele>
        <time>2014-02-09T10:27:59.366Z</time>
      </trkpt>
      <trkpt lat="47.82658" lon="7.16074">
        <ele>449.12210083</ele>
        <time>2014-02-09T10:28:00.375Z</time>
      </trkpt>
      <trkpt lat="47.82664" lon="7.16064">
        <ele>449.846923828</ele>
        <time>2014-02-09T10:28:11.376Z</time>
      </trkpt>
      <trkpt lat="47.82665" lon="7.16063">
        <ele>449.925872803</ele>
        <time>2014-02-09T10:28:12.379Z</time>
      </trkpt>
      <trkpt lat="47.82672" lon="7.16055">
        <ele>449.95904541</ele>
        <time>2014-02-09T10:28:19.376Z</time>
      </trkpt>
      <trkpt lat="47.82672" lon="7.16054">
        <ele>449.895050049</ele>
        <time>2014-02-09T10:28:20.377Z</time>
      </trkpt>
      <trkpt lat="47.82681" lon="7.1605">
        <ele>451.165222168</ele>
        <time>2014-02-09T10:28:31.376Z</time>
      </trkpt>
      <trkpt lat="47.82682" lon="7.1605">
        <ele>451.271209717</ele>
        <time>2014-02-09T10:28:32.364Z</time>
      </trkpt>
      <trkpt lat="47.8269" lon="7.16049">
        <ele>452.899261475</ele>
        <time>2014-02-09T10:28:44.375Z</time>
      </trkpt>
      <trkpt lat="47.82691" lon="7.16048">
        <ele>453.237365723</ele>
        <time>2014-02-09T10:28:45.376Z</time>
      </trkpt>
      <trkpt lat="47.82699" lon="7.16042">
        <ele>456.207275391</ele>
        <time>2014-02-09T10:29:00.361Z</time>
      </trkpt>
      <trkpt lat="47.82699" lon="7.16041">
        <ele>456.533813477</ele>
        <time>2014-02-09T10:29:01.392Z</time>
      </trkpt>
      <trkpt lat="47.82701" lon="7.16029">
        <ele>459.971740723</ele>
        <time>2014-02-09T10:29:18.38Z</time>
      </trkpt>
      <trkpt lat="47.82701" lon="7.16028">
        <ele>460.281402588</ele>
        <time>2014-02-09T10:29:19.381Z</time>
      </trkpt>
      <trkpt lat="47.827" lon="7.16015">
        <ele>464.054290771</ele>
        <time>2014-02-09T10:29:50.376Z</time>
      </trkpt>
      <trkpt lat="47.82701" lon="7.16014">
        <ele>464.065032959</ele>
        <time>2014-02-09T10:29:51.373Z</time>
      </trkpt>
      <trkpt lat="47.82706" lon="7.16004">
        <ele>464.391571045</ele>
        <time>2014-02-09T10:29:59.356Z</time>
      </trkpt>
      <trkpt lat="47.82707" lon="7.16003">
        <ele>464.410308838</ele>
        <time>2014-02-09T10:30:00.368Z</time>
      </trkpt>
      <trkpt lat="47.82714" lon="7.15997">
        <ele>464.977478027</ele>
        <time>2014-02-09T10:30:08.382Z</time>
      </trkpt>
      <trkpt lat="47.82715" lon="7.15996">
        <ele>465.108215332</ele>
        <time>2014-02-09T10:30:09.376Z</time>
      </trkpt>
      <trkpt lat="47.82721" lon="7.15987">
        <ele>465.746551514</ele>
        <time>2014-02-09T10:30:21.381Z</time>
      </trkpt>
      <trkpt lat="47.82722" lon="7.15987">
        <ele>465.816925049</ele>
        <time>2014-02-09T10:30:22.377Z</time>
      </trkpt>
      <trkpt lat="47.82727" lon="7.15976">
        <ele>466.069122314</ele>
        <time>2014-02-09T10:30:30.377Z</time>
      </trkpt>
      <trkpt lat="47.82728" lon="7.15975">
        <ele>466.081878662</ele>
        <time>2014-02-09T10:30:31.378Z</time>
      </trkpt>
      <trkpt lat="47.82732" lon="7.15964">
        <ele>466.38494873</ele>
        <time>2014-02-09T10:30:41.372Z</time>
      </trkpt>
      <trkpt lat="47.82733" lon="7.15962">
        <ele>466.578216553</ele>
        <time>2014-02-09T10:30:42.379Z</time>
      </trkpt>
      <trkpt lat="47.8274" lon="7.15956">
        <ele>467.573242188</ele>
        <time>2014-02-09T10:30:54.385Z</time>
      </trkpt>
      <trkpt lat="47.82741" lon="7.15957">
        <ele>467.914398193</ele>
        <time>2014-02-09T10:30:55.372Z</time>
      </trkpt>
      <trkpt lat="47.82749" lon="7.1595">
        <ele>469.145721436</ele>
        <time>2014-02-09T10:31:05.371Z</time>
      </trkpt>
      <trkpt lat="47.82749" lon="7.1595">
        <ele>469.191955566</ele>
        <time>2014-02-09T10:31:06.38Z</time>
      </trkpt>
      <trkpt lat="47.82757" lon="7.15945">
        <ele>469.491546631</ele>
        <time>2014-02-09T10:31:13.372Z</time>
      </trkpt>
      <trkpt lat="47.82758" lon="7.15944">
        <ele>469.522399902</ele>
        <time>2014-02-09T10:31:14.37Z</time>
      </trkpt>
      <trkpt lat="47.82766" lon="7.15939">
        <ele>471.017089844</ele>
        <time>2014-02-09T10:31:25.361Z</time>
      </trkpt>
      <trkpt lat="47.82767" lon="7.15938">
        <ele>471.052856445</ele>
        <time>2014-02-09T10:31:26.374Z</time>
      </trkpt>
      <trkpt lat="47.82774" lon="7.15932">
        <ele>472.97869873</ele>
        <time>2014-02-09T10:31:37.377Z</time>
      </trkpt>
      <trkpt lat="47.82775" lon="7.15932">
        <ele>473.022918701</ele>
        <time>2014-02-09T10:31:38.378Z</time>
      </trkpt>
      <trkpt lat="47.82783" lon="7.15933">
        <ele>475.663513184</ele>
        <time>2014-02-09T10:31:46.38Z</time>
      </trkpt>
      <trkpt lat="47.82784" lon="7.15933">
        <ele>475.874664307</ele>
        <time>2014-02-09T10:31:47.372Z</time>
      </trkpt>
      <trkpt lat="47.82792" lon="7.15934">
        <ele>477.010681152</ele>
        <time>2014-02-09T10:31:52.374Z</time>
      </trkpt>
      <trkpt lat="47.82794" lon="7.15933">
        <ele>477.100921631</ele>
        <time>2014-02-09T10:31:53.374Z</time>
      </trkpt>
      <trkpt lat="47.82803" lon="7.15931">
        <ele>477.598510742</ele>
        <time>2014-02-09T10:31:56.376Z</time>
      </trkpt>
      <trkpt lat="47.82806" lon="7.15931">
        <ele>477.829284668</ele>
        <time>2014-02-09T10:31:57.381Z</time>
      </trkpt>
      <trkpt lat="47.82815" lon="7.15933">
        <ele>478.664672852</ele>
        <time>2014-02-09T10:32:01.358Z</time>
      </trkpt>
      <trkpt lat="47.82815" lon="7.15932">
        <ele>478.806610107</ele>
        <time>2014-02-09T10:32:02.376Z</time>
      </trkpt>
      <trkpt lat="47.82823" lon="7.15927">
        <ele>480.408203125</ele>
        <time>2014-02-09T10:32:20.364Z</time>
      </trkpt>
      <trkpt lat="47.82824" lon="7.15928">
        <ele>480.58706665</ele>
        <time>2014-02-09T10:32:21.37Z</time>
      </trkpt>
      <trkpt lat="47.82827" lon="7.15939">
        <ele>483.929901123</ele>
        <time>2014-02-09T10:32:36.369Z</time>
      </trkpt>
      <trkpt lat="47.82827" lon="7.1594">
        <ele>484.25592041</ele>
        <time>2014-02-09T10:32:37.367Z</time>
      </trkpt>
      <trkpt lat="47.82832" lon="7.15952">
        <ele>488.343994141</ele>
        <time>2014-02-09T10:32:48.377Z</time>
      </trkpt>
      <trkpt lat="47.82832" lon="7.15952">
        <ele>488.703063965</ele>
        <time>2014-02-09T10:32:49.368Z</time>
      </trkpt>
      <trkpt lat="47.82835" lon="7.15961">
        <ele>490.42401123</ele>
        <time>2014-02-09T10:32:55.368Z</time>
      </trkpt>
      <trkpt lat="47.82837" lon="7.15964">
        <ele>490.714324951</ele>
        <time>2014-02-09T10:32:56.368Z</time>
      </trkpt>
      <trkpt lat="47.82841" lon="7.15974">
        <ele>492.749969482</ele>
        <time>2014-02-09T10:33:04.367Z</time>
      </trkpt>
      <trkpt lat="47.82842" lon="7.15976">
        <ele>493.058288574</ele>
        <time>2014-02-09T10:33:05.37Z</time>
      </trkpt>
      <trkpt lat="47.82844" lon="7.15988">
        <ele>494.511260986</ele>
        <time>2014-02-09T10:33:11.368Z</time>
      </trkpt>
      <trkpt lat="47.82844" lon="7.15989">
        <ele>494.698455811</ele>
        <time>2014-02-09T10:33:12.366Z</time>
      </trkpt>
      <trkpt lat="47.82844" lon="7.16002">
        <ele>495.661712646</ele>
        <time>2014-02-09T10:33:21.367Z</time>
      </trkpt>
      <trkpt lat="47.82845" lon="7.16003">
        <ele>495.723083496</ele>
        <time>2014-02-09T10:33:22.369Z</time>
      </trkpt>
      <trkpt lat="47.82844" lon="7.16016">
        <ele>495.458251953</ele>
        <time>2014-02-09T10:33:31.373Z</time>
      </trkpt>
      <trkpt lat="47.82844" lon="7.16017">
        <ele>495.470001221</ele>
        <time>2014-02-09T10:33:32.366Z</time>
      </trkpt>
      <trkpt lat="47.82842" lon="7.1603">
        <ele>498.554077148</ele>
        <time>2014-02-09T10:33:46.371Z</time>
      </trkpt>
      <trkpt lat="47.82842" lon="7.16031">
        <ele>498.926391602</ele>
        <time>2014-02-09T10:33:47.363Z</time>
      </trkpt>
      <trkpt lat="47.82841" lon="7.16044">
        <ele>502.861358643</ele>
        <time>2014-02-09T10:33:58.37Z</time>
      </trkpt>
      <trkpt lat="47.82841" lon="7.16045">
        <ele>503.264892578</ele>
        <time>2014-02-09T10:33:59.36Z</time>
      </trkpt>
      <trkpt lat="47.82836" lon="7.16056">
        <ele>506.502288818</ele>
        <time>2014-02-09T10:34:08.368Z</time>
      </trkpt>
      <trkpt lat="47.82836" lon="7.16057">
        <ele>506.851898193</ele>
        <time>2014-02-09T10:34:09.368Z</time>
      </trkpt>
      <trkpt lat="47.82833" lon="7.16068">
        <ele>509.738250732</ele>
        <time>2014-02-09T10:34:21.366Z</time>
      </trkpt>
      <trkpt lat="47.82832" lon="7.1607">
        <ele>509.946899414</ele>
        <time>2014-02-09T10:34:22.369Z</time>
      </trkpt>
      <trkpt lat="47.82829" lon="7.16082">
        <ele>511.663543701</ele>
        <time>2014-02-09T10:34:28.371Z</time>
      </trkpt>
      <trkpt lat="47.82829" lon="7.16083">
        <ele>512.009521484</ele>
        <time>2014-02-09T10:34:29.366Z</time>
      </trkpt>
      <trkpt lat="47.82827" lon="7.16096">
        <ele>514.834533691</ele>
        <time>2014-02-09T10:34:38.377Z</time>
      </trkpt>
      <trkpt lat="47.82827" lon="7.16097">
        <ele>515.178588867</ele>
        <time>2014-02-09T10:34:39.355Z</time>
      </trkpt>
      <trkpt lat="47.82826" lon="7.1611">
        <ele>517.847290039</ele>
        <time>2014-02-09T10:34:47.369Z</time>
      </trkpt>
      <trkpt lat="47.82825" lon="7.16111">
        <ele>518.152282715</ele>
        <time>2014-02-09T10:34:48.372Z</time>
      </trkpt>
      <trkpt lat="47.82825" lon="7.16124">
        <ele>521.395080566</ele>
        <time>2014-02-09T10:35:03.365Z</time>
      </trkpt>
      <trkpt lat="47.82825" lon="7.16125">
        <ele>521.412780762</ele>
        <time>2014-02-09T10:35:04.36Z</time>
      </trkpt>
      <trkpt lat="47.82829" lon="7.16136">
        <ele>521.332641602</ele>
        <time>2014-02-09T10:35:13.361Z</time>
      </trkpt>
      <trkpt lat="47.8283" lon="7.16138">
        <ele>521.318603516</ele>
        <time>2014-02-09T10:35:14.362Z</time>
      </trkpt>
      <trkpt lat="47.82822" lon="7.16145">
        <ele>521.347351074</ele>
        <time>2014-02-09T10:35:34.362Z</time>
      </trkpt>
      <trkpt lat="47.82821" lon="7.16144">
        <ele>521.315856934</ele>
        <time>2014-02-09T10:35:35.364Z</time>
      </trkpt>
      <trkpt lat="47.82824" lon="7.16155">
        <ele>511.942657471</ele>
        <time>2014-02-09T10:38:32.356Z</time>
      </trkpt>
      <trkpt lat="47.82825" lon="7.16156">
        <ele>512.010009766</ele>
        <time>2014-02-09T10:38:33.355Z</time>
      </trkpt>
      <trkpt lat="47.82829" lon="7.16168">
        <ele>514.529602051</ele>
        <time>2014-02-09T10:38:47.353Z</time>
      </trkpt>
      <trkpt lat="47.82829" lon="7.16169">
        <ele>514.798278809</ele>
        <time>2014-02-09T10:38:48.357Z</time>
      </trkpt>
      <trkpt lat="47.82832" lon="7.1618">
        <ele>516.206298828</ele>
        <time>2014-02-09T10:38:56.357Z</time>
      </trkpt>
      <trkpt lat="47.82833" lon="7.16181">
        <ele>516.417541504</ele>
        <time>2014-02-09T10:38:57.357Z</time>
      </trkpt>
      <trkpt lat="47.82836" lon="7.16194">
        <ele>519.168457031</ele>
        <time>2014-02-09T10:39:07.352Z</time>
      </trkpt>
      <trkpt lat="47.82836" lon="7.16194">
        <ele>519.364013672</ele>
        <time>2014-02-09T10:39:08.362Z</time>
      </trkpt>
      <trkpt lat="47.82841" lon="7.16205">
        <ele>521.777770996</ele>
        <time>2014-02-09T10:39:20.357Z</time>
      </trkpt>
      <trkpt lat="47.82842" lon="7.16206">
        <ele>521.935852051</ele>
        <time>2014-02-09T10:39:21.357Z</time>
      </trkpt>
      <trkpt lat="47.82846" lon="7.16217">
        <ele>523.85736084</ele>
        <time>2014-02-09T10:39:30.355Z</time>
      </trkpt>
      <trkpt lat="47.82846" lon="7.16218">
        <ele>523.977661133</ele>
        <time>2014-02-09T10:39:31.358Z</time>
      </trkpt>
      <trkpt lat="47.82851" lon="7.16229">
        <ele>526.07220459</ele>
        <time>2014-02-09T10:39:41.356Z</time>
      </trkpt>
      <trkpt lat="47.82851" lon="7.16231">
        <ele>526.225524902</ele>
        <time>2014-02-09T10:39:42.359Z</time>
      </trkpt>
      <trkpt lat="47.82854" lon="7.16243">
        <ele>528.569152832</ele>
        <time>2014-02-09T10:39:53.353Z</time>
      </trkpt>
      <trkpt lat="47.82854" lon="7.16245">
        <ele>528.799560547</ele>
        <time>2014-02-09T10:39:54.353Z</time>
      </trkpt>
      <trkpt lat="47.82858" lon="7.16256">
        <ele>529.394226074</ele>
        <time>2014-02-09T10:40:02.351Z</time>
      </trkpt>
      <trkpt lat="47.82858" lon="7.16257">
        <ele>529.473266602</ele>
        <time>2014-02-09T10:40:03.353Z</time>
      </trkpt>
      <trkpt lat="47.82863" lon="7.16268">
        <ele>529.990966797</ele>
        <time>2014-02-09T10:40:11.35Z</time>
      </trkpt>
      <trkpt lat="47.82863" lon="7.1627">
        <ele>530.028564453</ele>
        <time>2014-02-09T10:40:12.368Z</time>
      </trkpt>
      <trkpt lat="47.82867" lon="7.16281">
        <ele>530.328979492</ele>
        <time>2014-02-09T10:40:21.35Z</time>
      </trkpt>
      <trkpt lat="47.82868" lon="7.16282">
        <ele>530.344848633</ele>
        <time>2014-02-09T10:40:22.351Z</time>
      </trkpt>
      <trkpt lat="47.82873" lon="7.16292">
        <ele>531.542724609</ele>
        <time>2014-02-09T10:40:33.351Z</time>
      </trkpt>
      <trkpt lat="47.82873" lon="7.16293">
        <ele>531.627868652</ele>
        <time>2014-02-09T10:40:34.35Z</time>
      </trkpt>
      <trkpt lat="47.82879" lon="7.16303">
        <ele>531.844360352</ele>
        <time>2014-02-09T10:40:43.348Z</time>
      </trkpt>
      <trkpt lat="47.82879" lon="7.16303">
        <ele>531.852966309</ele>
        <time>2014-02-09T10:40:44.362Z</time>
      </trkpt>
      <trkpt lat="47.82886" lon="7.1631">
        <ele>532.343322754</ele>
        <time>2014-02-09T10:40:54.342Z</time>
      </trkpt>
      <trkpt lat="47.82887" lon="7.16311">
        <ele>532.359191895</ele>
        <time>2014-02-09T10:40:55.354Z</time>
      </trkpt>
      <trkpt lat="47.82893" lon="7.16321">
        <ele>531.768432617</ele>
        <time>2014-02-09T10:41:08.359Z</time>
      </trkpt>
      <trkpt lat="47.82893" lon="7.16322">
        <ele>531.803039551</ele>
        <time>2014-02-09T10:41:09.334Z</time>
      </trkpt>
      <trkpt lat="47.82899" lon="7.1633">
        <ele>530.893127441</ele>
        <time>2014-02-09T10:41:25.355Z</time>
      </trkpt>
      <trkpt lat="47.829" lon="7.1633">
        <ele>530.834472656</ele>
        <time>2014-02-09T10:41:26.355Z</time>
      </trkpt>
      <trkpt lat="47.82908" lon="7.16333">
        <ele>532.771972656</ele>
        <time>2014-02-09T10:41:39.349Z</time>
      </trkpt>
      <trkpt lat="47.82909" lon="7.16332">
        <ele>532.895263672</ele>
        <time>2014-02-09T10:41:40.347Z</time>
      </trkpt>
      <trkpt lat="47.82916" lon="7.16327">
        <ele>533.439086914</ele>
        <time>2014-02-09T10:41:58.352Z</time>
      </trkpt>
      <trkpt lat="47.82917" lon="7.16326">
        <ele>533.573486328</ele>
        <time>2014-02-09T10:41:59.336Z</time>
      </trkpt>
      <trkpt lat="47.82926" lon="7.16323">
        <ele>534.736877441</ele>
        <time>2014-02-09T10:42:13.346Z</time>
      </trkpt>
      <trkpt lat="47.82926" lon="7.16323">
        <ele>534.747619629</ele>
        <time>2014-02-09T10:42:14.346Z</time>
      </trkpt>
      <trkpt lat="47.82933" lon="7.16317">
        <ele>535.131286621</ele>
        <time>2014-02-09T10:42:21.345Z</time>
      </trkpt>
      <trkpt lat="47.82934" lon="7.16317">
        <ele>535.190856934</ele>
        <time>2014-02-09T10:42:22.344Z</time>
      </trkpt>
      <trkpt lat="47.82942" lon="7.16312">
        <ele>536.502075195</ele>
        <time>2014-02-09T10:42:30.336Z</time>
      </trkpt>
      <trkpt lat="47.82942" lon="7.16313">
        <ele>536.571899414</ele>
        <time>2014-02-09T10:42:31.337Z</time>
      </trkpt>
      <trkpt lat="47.82951" lon="7.16315">
        <ele>535.945922852</ele>
        <time>2014-02-09T10:42:38.339Z</time>
      </trkpt>
      <trkpt lat="47.82952" lon="7.16316">
        <ele>535.799194336</ele>
        <time>2014-02-09T10:42:39.336Z</time>
      </trkpt>
      <trkpt lat="47.8296" lon="7.16316">
        <ele>534.92401123</ele>
        <time>2014-02-09T10:42:47.342Z</time>
      </trkpt>
      <trkpt lat="47.82961" lon="7.16316">
        <ele>534.963684082</ele>
        <time>2014-02-09T10:42:48.344Z</time>
      </trkpt>
      <trkpt lat="47.8297" lon="7.16315">
        <ele>535.441894531</ele>
        <time>2014-02-09T10:43:03.35Z</time>
      </trkpt>
      <trkpt lat="47.82971" lon="7.16315">
        <ele>535.46270752</ele>
        <time>2014-02-09T10:43:04.351Z</time>
      </trkpt>
      <trkpt lat="47.82979" lon="7.16314">
        <ele>535.534851074</ele>
        <time>2014-02-09T10:43:17.338Z</time>
      </trkpt>
      <trkpt lat="47.8298" lon="7.16314">
        <ele>535.533752441</ele>
        <time>2014-02-09T10:43:18.342Z</time>
      </trkpt>
      <trkpt lat="47.82988" lon="7.1631">
        <ele>535.591003418</ele>
        <time>2014-02-09T10:43:30.336Z</time>
      </trkpt>
      <trkpt lat="47.82989" lon="7.1631">
        <ele>535.592895508</ele>
        <time>2014-02-09T10:43:31.334Z</time>
      </trkpt>
      <trkpt lat="47.82997" lon="7.16306">
        <ele>536.074157715</ele>
        <time>2014-02-09T10:43:42.335Z</time>
      </trkpt>
      <trkpt lat="47.82997" lon="7.16306">
        <ele>536.112548828</ele>
        <time>2014-02-09T10:43:43.34Z</time>
      </trkpt>
      <trkpt lat="47.83001" lon="7.16295">
        <ele>538.627319336</ele>
        <time>2014-02-09T10:43:58.354Z</time>
      </trkpt>
      <trkpt lat="47.83002" lon="7.16293">
        <ele>538.723754883</ele>
        <time>2014-02-09T10:43:59.334Z</time>
      </trkpt>
      <trkpt lat="47.83008" lon="7.16283">
        <ele>539.595092773</ele>
        <time>2014-02-09T10:44:08.337Z</time>
      </trkpt>
      <trkpt lat="47.83008" lon="7.16282">
        <ele>539.618103027</ele>
        <time>2014-02-09T10:44:09.326Z</time>
      </trkpt>
      <trkpt lat="47.83015" lon="7.16273">
        <ele>542.409118652</ele>
        <time>2014-02-09T10:44:32.347Z</time>
      </trkpt>
      <trkpt lat="47.83015" lon="7.16272">
        <ele>542.434570312</ele>
        <time>2014-02-09T10:44:33.345Z</time>
      </trkpt>
      <trkpt lat="47.83018" lon="7.16261">
        <ele>543.718017578</ele>
        <time>2014-02-09T10:44:40.344Z</time>
      </trkpt>
      <trkpt lat="47.83019" lon="7.16258">
        <ele>543.922058105</ele>
        <time>2014-02-09T10:44:41.345Z</time>
      </trkpt>
      <trkpt lat="47.83024" lon="7.16248">
        <ele>544.637817383</ele>
        <time>2014-02-09T10:44:46.344Z</time>
      </trkpt>
      <trkpt lat="47.83025" lon="7.16246">
        <ele>544.646911621</ele>
        <time>2014-02-09T10:44:47.333Z</time>
      </trkpt>
      <trkpt lat="47.8303" lon="7.16235">
        <ele>545.12902832</ele>
        <time>2014-02-09T10:44:58.35Z</time>
      </trkpt>
      <trkpt lat="47.83032" lon="7.16235">
        <ele>545.177124023</ele>
        <time>2014-02-09T10:44:59.342Z</time>
      </trkpt>
      <trkpt lat="47.83038" lon="7.16227">
        <ele>545.78503418</ele>
        <time>2014-02-09T10:45:11.331Z</time>
      </trkpt>
      <trkpt lat="47.83039" lon="7.16225">
        <ele>545.801330566</ele>
        <time>2014-02-09T10:45:12.35Z</time>
      </trkpt>
      <trkpt lat="47.83045" lon="7.16217">
        <ele>547.594055176</ele>
        <time>2014-02-09T10:45:25.331Z</time>
      </trkpt>
      <trkpt lat="47.83045" lon="7.16215">
        <ele>547.678039551</ele>
        <time>2014-02-09T10:45:26.316Z</time>
      </trkpt>
      <trkpt lat="47.8305" lon="7.16204">
        <ele>548.198059082</ele>
        <time>2014-02-09T10:45:37.336Z</time>
      </trkpt>
      <trkpt lat="47.8305" lon="7.16203">
        <ele>548.182373047</ele>
        <time>2014-02-09T10:45:38.342Z</time>
      </trkpt>
      <trkpt lat="47.83057" lon="7.16195">
        <ele>547.95111084</ele>
        <time>2014-02-09T10:45:53.339Z</time>
      </trkpt>
      <trkpt lat="47.83057" lon="7.16193">
        <ele>547.863952637</ele>
        <time>2014-02-09T10:45:54.34Z</time>
      </trkpt>
      <trkpt lat="47.83061" lon="7.16183">
        <ele>547.662597656</ele>
        <time>2014-02-09T10:46:02.339Z</time>
      </trkpt>
      <trkpt lat="47.83062" lon="7.16183">
        <ele>547.644836426</ele>
        <time>2014-02-09T10:46:03.338Z</time>
      </trkpt>
      <trkpt lat="47.83069" lon="7.16176">
        <ele>546.98034668</ele>
        <time>2014-02-09T10:46:10.342Z</time>
      </trkpt>
      <trkpt lat="47.83069" lon="7.16174">
        <ele>546.951782227</ele>
        <time>2014-02-09T10:46:11.338Z</time>
      </trkpt>
      <trkpt lat="47.83074" lon="7.16165">
        <ele>547.767700195</ele>
        <time>2014-02-09T10:46:40.333Z</time>
      </trkpt>
      <trkpt lat="47.83075" lon="7.16163">
        <ele>547.783691406</ele>
        <time>2014-02-09T10:46:41.343Z</time>
      </trkpt>
      <trkpt lat="47.83082" lon="7.16157">
        <ele>547.834350586</ele>
        <time>2014-02-09T10:46:44.344Z</time>
      </trkpt>
      <trkpt lat="47.83086" lon="7.16153">
        <ele>547.942077637</ele>
        <time>2014-02-09T10:46:45.343Z</time>
      </trkpt>
      <trkpt lat="47.83086" lon="7.16141">
        <ele>548.092590332</ele>
        <time>2014-02-09T10:46:49.342Z</time>
      </trkpt>
      <trkpt lat="47.83086" lon="7.16137">
        <ele>548.112121582</ele>
        <time>2014-02-09T10:46:50.341Z</time>
      </trkpt>
      <trkpt lat="47.83092" lon="7.1613">
        <ele>548.322265625</ele>
        <time>2014-02-09T10:46:54.343Z</time>
      </trkpt>
      <trkpt lat="47.83093" lon="7.16126">
        <ele>548.346862793</ele>
        <time>2014-02-09T10:46:55.349Z</time>
      </trkpt>
      <trkpt lat="47.83095" lon="7.16114">
        <ele>548.61907959</ele>
        <time>2014-02-09T10:47:00.343Z</time>
      </trkpt>
      <trkpt lat="47.83096" lon="7.16111">
        <ele>548.643127441</ele>
        <time>2014-02-09T10:47:01.339Z</time>
      </trkpt>
      <trkpt lat="47.83098" lon="7.161">
        <ele>549.071655273</ele>
        <time>2014-02-09T10:47:06.339Z</time>
      </trkpt>
      <trkpt lat="47.831" lon="7.16097">
        <ele>549.22479248</ele>
        <time>2014-02-09T10:47:07.327Z</time>
      </trkpt>
      <trkpt lat="47.83104" lon="7.16085">
        <ele>549.819946289</ele>
        <time>2014-02-09T10:47:12.34Z</time>
      </trkpt>
      <trkpt lat="47.83104" lon="7.16085">
        <ele>549.825561523</ele>
        <time>2014-02-09T10:47:13.337Z</time>
      </trkpt>
      <trkpt lat="47.83112" lon="7.16078">
        <ele>549.703735352</ele>
        <time>2014-02-09T10:47:22.337Z</time>
      </trkpt>
      <trkpt lat="47.83114" lon="7.16076">
        <ele>549.668457031</ele>
        <time>2014-02-09T10:47:23.336Z</time>
      </trkpt>
      <trkpt lat="47.83119" lon="7.16068">
        <ele>549.693847656</ele>
        <time>2014-02-09T10:47:30.337Z</time>
      </trkpt>
      <trkpt lat="47.8312" lon="7.16066">
        <ele>549.696899414</ele>
        <time>2014-02-09T10:47:31.339Z</time>
      </trkpt>
      <trkpt lat="47.83126" lon="7.1606">
        <ele>549.493408203</ele>
        <time>2014-02-09T10:47:40.338Z</time>
      </trkpt>
      <trkpt lat="47.83128" lon="7.16059">
        <ele>549.585388184</ele>
        <time>2014-02-09T10:47:41.337Z</time>
      </trkpt>
      <trkpt lat="47.83132" lon="7.1605">
        <ele>549.835754395</ele>
        <time>2014-02-09T10:47:46.338Z</time>
      </trkpt>
      <trkpt lat="47.83133" lon="7.16046">
        <ele>549.845275879</ele>
        <time>2014-02-09T10:47:47.338Z</time>
      </trkpt>
      <trkpt lat="47.83137" lon="7.16035">
        <ele>550.008239746</ele>
        <time>2014-02-09T10:47:51.336Z</time>
      </trkpt>
      <trkpt lat="47.83137" lon="7.16033">
        <ele>550.021606445</ele>
        <time>2014-02-09T10:47:52.337Z</time>
      </trkpt>
      <trkpt lat="47.83141" lon="7.16023">
        <ele>550.062255859</ele>
        <time>2014-02-09T10:47:59.338Z</time>
      </trkpt>
      <trkpt lat="47.83143" lon="7.16022">
        <ele>550.063781738</ele>
        <time>2014-02-09T10:48:00.335Z</time>
      </trkpt>
      <trkpt lat="47.83151" lon="7.16017">
        <ele>550.125061035</ele>
        <time>2014-02-09T10:48:08.34Z</time>
      </trkpt>
      <trkpt lat="47.83153" lon="7.16016">
        <ele>550.134399414</ele>
        <time>2014-02-09T10:48:09.334Z</time>
      </trkpt>
      <trkpt lat="47.8316" lon="7.16013">
        <ele>550.536804199</ele>
        <time>2014-02-09T10:48:14.335Z</time>
      </trkpt>
      <trkpt lat="47.83162" lon="7.16013">
        <ele>550.682006836</ele>
        <time>2014-02-09T10:48:15.337Z</time>
      </trkpt>
      <trkpt lat="47.83169" lon="7.16008">
        <ele>551.130187988</ele>
        <time>2014-02-09T10:48:20.338Z</time>
      </trkpt>
      <trkpt lat="47.8317" lon="7.16006">
        <ele>551.331787109</ele>
        <time>2014-02-09T10:48:21.335Z</time>
      </trkpt>
      <trkpt lat="47.83176" lon="7.16001">
        <ele>552.142578125</ele>
        <time>2014-02-09T10:48:26.337Z</time>
      </trkpt>
      <trkpt lat="47.83179" lon="7.16">
        <ele>552.360900879</ele>
        <time>2014-02-09T10:48:27.336Z</time>
      </trkpt>
      <trkpt lat="47.83184" lon="7.15989">
        <ele>553.16619873</ele>
        <time>2014-02-09T10:48:38.345Z</time>
      </trkpt>
      <trkpt lat="47.83185" lon="7.15989">
        <ele>553.191650391</ele>
        <time>2014-02-09T10:48:39.337Z</time>
      </trkpt>
      <trkpt lat="47.83191" lon="7.15979">
        <ele>553.511352539</ele>
        <time>2014-02-09T10:48:48.339Z</time>
      </trkpt>
      <trkpt lat="47.83192" lon="7.15978">
        <ele>553.527099609</ele>
        <time>2014-02-09T10:48:49.333Z</time>
      </trkpt>
      <trkpt lat="47.83197" lon="7.15968">
        <ele>553.567138672</ele>
        <time>2014-02-09T10:49:02.33Z</time>
      </trkpt>
      <trkpt lat="47.83198" lon="7.15967">
        <ele>553.516296387</ele>
        <time>2014-02-09T10:49:03.334Z</time>
      </trkpt>
      <trkpt lat="47.83202" lon="7.15955">
        <ele>552.869750977</ele>
        <time>2014-02-09T10:49:16.335Z</time>
      </trkpt>
      <trkpt lat="47.83202" lon="7.15955">
        <ele>552.881958008</ele>
        <time>2014-02-09T10:49:17.335Z</time>
      </trkpt>
      <trkpt lat="47.83208" lon="7.15945">
        <ele>553.166564941</ele>
        <time>2014-02-09T10:49:31.322Z</time>
      </trkpt>
      <trkpt lat="47.83208" lon="7.15944">
        <ele>553.162414551</ele>
        <time>2014-02-09T10:49:32.336Z</time>
      </trkpt>
      <trkpt lat="47.83212" lon="7.15936">
        <ele>553.14074707</ele>
        <time>2014-02-09T10:49:36.336Z</time>
      </trkpt>
      <trkpt lat="47.83214" lon="7.15933">
        <ele>553.05255127</ele>
        <time>2014-02-09T10:49:37.336Z</time>
      </trkpt>
      <trkpt lat="47.8322" lon="7.15924">
        <ele>552.902893066</ele>
        <time>2014-02-09T10:49:47.325Z</time>
      </trkpt>
      <trkpt lat="47.8322" lon="7.15922">
        <ele>552.984008789</ele>
        <time>2014-02-09T10:49:48.341Z</time>
      </trkpt>
      <trkpt lat="47.83228" lon="7.15916">
        <ele>553.440917969</ele>
        <time>2014-02-09T10:49:59.335Z</time>
      </trkpt>
      <trkpt lat="47.83229" lon="7.15916">
        <ele>553.445983887</ele>
        <time>2014-02-09T10:50:00.328Z</time>
      </trkpt>
      <trkpt lat="47.83235" lon="7.15908">
        <ele>553.144775391</ele>
        <time>2014-02-09T10:50:14.335Z</time>
      </trkpt>
      <trkpt lat="47.83236" lon="7.15907">
        <ele>553.1328125</ele>
        <time>2014-02-09T10:50:15.336Z</time>
      </trkpt>
      <trkpt lat="47.83239" lon="7.15895">
        <ele>552.985290527</ele>
        <time>2014-02-09T10:50:28.334Z</time>
      </trkpt>
      <trkpt lat="47.8324" lon="7.15894">
        <ele>552.983825684</ele>
        <time>2014-02-09T10:50:29.337Z</time>
      </trkpt>
      <trkpt lat="47.83245" lon="7.15883">
        <ele>552.955688477</ele>
        <time>2014-02-09T10:50:43.333Z</time>
      </trkpt>
      <trkpt lat="47.83246" lon="7.15882">
        <ele>552.898132324</ele>
        <time>2014-02-09T10:50:44.336Z</time>
      </trkpt>
      <trkpt lat="47.83252" lon="7.15873">
        <ele>552.385986328</ele>
        <time>2014-02-09T10:50:48.337Z</time>
      </trkpt>
      <trkpt lat="47.83253" lon="7.15872">
        <ele>552.362976074</ele>
        <time>2014-02-09T10:50:49.329Z</time>
      </trkpt>
      <trkpt lat="47.83259" lon="7.15863">
        <ele>552.279602051</ele>
        <time>2014-02-09T10:50:58.338Z</time>
      </trkpt>
      <trkpt lat="47.8326" lon="7.15862">
        <ele>552.28302002</ele>
        <time>2014-02-09T10:50:59.334Z</time>
      </trkpt>
      <trkpt lat="47.83266" lon="7.15853">
        <ele>552.241271973</ele>
        <time>2014-02-09T10:51:09.33Z</time>
      </trkpt>
      <trkpt lat="47.83266" lon="7.15852">
        <ele>552.240783691</ele>
        <time>2014-02-09T10:51:10.331Z</time>
      </trkpt>
      <trkpt lat="47.83274" lon="7.15846">
        <ele>553.669128418</ele>
        <time>2014-02-09T10:51:20.323Z</time>
      </trkpt>
      <trkpt lat="47.83275" lon="7.15845">
        <ele>553.944091797</ele>
        <time>2014-02-09T10:51:21.334Z</time>
      </trkpt>
      <trkpt lat="47.83281" lon="7.15837">
        <ele>555.153930664</ele>
        <time>2014-02-09T10:51:38.35Z</time>
      </trkpt>
      <trkpt lat="47.83281" lon="7.15836">
        <ele>555.167907715</ele>
        <time>2014-02-09T10:51:39.328Z</time>
      </trkpt>
      <trkpt lat="47.83284" lon="7.15824">
        <ele>555.785095215</ele>
        <time>2014-02-09T10:51:47.321Z</time>
      </trkpt>
      <trkpt lat="47.83284" lon="7.15822">
        <ele>556.083068848</ele>
        <time>2014-02-09T10:51:48.333Z</time>
      </trkpt>
      <trkpt lat="47.83283" lon="7.1581">
        <ele>558.785705566</ele>
        <time>2014-02-09T10:51:58.334Z</time>
      </trkpt>
      <trkpt lat="47.83283" lon="7.15807">
        <ele>559.074401855</ele>
        <time>2014-02-09T10:51:59.33Z</time>
      </trkpt>
      <trkpt lat="47.83287" lon="7.15796">
        <ele>560.635925293</ele>
        <time>2014-02-09T10:52:05.33Z</time>
      </trkpt>
      <trkpt lat="47.83289" lon="7.15794">
        <ele>560.785522461</ele>
        <time>2014-02-09T10:52:06.328Z</time>
      </trkpt>
      <trkpt lat="47.83294" lon="7.1579">
        <ele>561.077270508</ele>
        <time>2014-02-09T10:52:08.333Z</time>
      </trkpt>
      <trkpt lat="47.83303" lon="7.15786">
        <ele>561.268554688</ele>
        <time>2014-02-09T10:52:09.328Z</time>
      </trkpt>
      <trkpt lat="47.83311" lon="7.15781">
        <ele>562.115905762</ele>
        <time>2014-02-09T10:52:14.33Z</time>
      </trkpt>
      <trkpt lat="47.83312" lon="7.1578">
        <ele>562.310241699</ele>
        <time>2014-02-09T10:52:15.327Z</time>
      </trkpt>
      <trkpt lat="47.83318" lon="7.15771">
        <ele>564.253601074</ele>
        <time>2014-02-09T10:52:25.342Z</time>
      </trkpt>
      <trkpt lat="47.83319" lon="7.15771">
        <ele>564.657409668</ele>
        <time>2014-02-09T10:52:26.318Z</time>
      </trkpt>
      <trkpt lat="47.83325" lon="7.15763">
        <ele>569.122680664</ele>
        <time>2014-02-09T10:52:39.316Z</time>
      </trkpt>
      <trkpt lat="47.83326" lon="7.15762">
        <ele>569.407531738</ele>
        <time>2014-02-09T10:52:40.325Z</time>
      </trkpt>
      <trkpt lat="47.83334" lon="7.1576">
        <ele>571.456665039</ele>
        <time>2014-02-09T10:52:51.327Z</time>
      </trkpt>
      <trkpt lat="47.83336" lon="7.15759">
        <ele>571.725830078</ele>
        <time>2014-02-09T10:52:52.34Z</time>
      </trkpt>
      <trkpt lat="47.83344" lon="7.15756">
        <ele>573.183044434</ele>
        <time>2014-02-09T10:52:58.332Z</time>
      </trkpt>
      <trkpt lat="47.83345" lon="7.15755">
        <ele>573.385681152</ele>
        <time>2014-02-09T10:52:59.328Z</time>
      </trkpt>
      <trkpt lat="47.83353" lon="7.15751">
        <ele>575.047607422</ele>
        <time>2014-02-09T10:53:06.327Z</time>
      </trkpt>
      <trkpt lat="47.83354" lon="7.15751">
        <ele>575.233276367</ele>
        <time>2014-02-09T10:53:07.329Z</time>
      </trkpt>
      <trkpt lat="47.83362" lon="7.1575">
        <ele>575.622192383</ele>
        <time>2014-02-09T10:53:14.327Z</time>
      </trkpt>
      <trkpt lat="47.83364" lon="7.1575">
        <ele>575.63494873</ele>
        <time>2014-02-09T10:53:15.313Z</time>
      </trkpt>
      <trkpt lat="47.83371" lon="7.15746">
        <ele>576.002929688</ele>
        <time>2014-02-09T10:53:23.315Z</time>
      </trkpt>
      <trkpt lat="47.83372" lon="7.15746">
        <ele>576.079772949</ele>
        <time>2014-02-09T10:53:24.328Z</time>
      </trkpt>
      <trkpt lat="47.83381" lon="7.15744">
        <ele>576.947692871</ele>
        <time>2014-02-09T10:53:33.326Z</time>
      </trkpt>
      <trkpt lat="47.83382" lon="7.15744">
        <ele>577.046508789</ele>
        <time>2014-02-09T10:53:34.329Z</time>
      </trkpt>
      <trkpt lat="47.8339" lon="7.15741">
        <ele>577.413085938</ele>
        <time>2014-02-09T10:53:43.333Z</time>
      </trkpt>
      <trkpt lat="47.83391" lon="7.15741">
        <ele>577.430541992</ele>
        <time>2014-02-09T10:53:44.33Z</time>
      </trkpt>
      <trkpt lat="47.83399" lon="7.15739">
        <ele>577.440673828</ele>
        <time>2014-02-09T10:53:58.334Z</time>
      </trkpt>
      <trkpt lat="47.83401" lon="7.15738">
        <ele>577.387023926</ele>
        <time>2014-02-09T10:53:59.331Z</time>
      </trkpt>
      <trkpt lat="47.83409" lon="7.15735">
        <ele>577.913635254</ele>
        <time>2014-02-09T10:54:08.33Z</time>
      </trkpt>
      <trkpt lat="47.83411" lon="7.15735">
        <ele>578.026611328</ele>
        <time>2014-02-09T10:54:09.329Z</time>
      </trkpt>
      <trkpt lat="47.83419" lon="7.15733">
        <ele>577.974182129</ele>
        <time>2014-02-09T10:54:17.328Z</time>
      </trkpt>
      <trkpt lat="47.83421" lon="7.15733">
        <ele>578.016418457</ele>
        <time>2014-02-09T10:54:18.33Z</time>
      </trkpt>
      <trkpt lat="47.83429" lon="7.15736">
        <ele>580.057739258</ele>
        <time>2014-02-09T10:54:32.329Z</time>
      </trkpt>
      <trkpt lat="47.8343" lon="7.15736">
        <ele>580.392822266</ele>
        <time>2014-02-09T10:54:33.324Z</time>
      </trkpt>
      <trkpt lat="47.83437" lon="7.15729">
        <ele>583.397705078</ele>
        <time>2014-02-09T10:54:45.321Z</time>
      </trkpt>
      <trkpt lat="47.83438" lon="7.15728">
        <ele>583.73651123</ele>
        <time>2014-02-09T10:54:46.304Z</time>
      </trkpt>
      <trkpt lat="47.83444" lon="7.1572">
        <ele>586.147338867</ele>
        <time>2014-02-09T10:54:59.324Z</time>
      </trkpt>
      <trkpt lat="47.83445" lon="7.1572">
        <ele>586.417663574</ele>
        <time>2014-02-09T10:55:00.303Z</time>
      </trkpt>
      <trkpt lat="47.83451" lon="7.15711">
        <ele>587.731750488</ele>
        <time>2014-02-09T10:55:12.327Z</time>
      </trkpt>
      <trkpt lat="47.83452" lon="7.15709">
        <ele>587.838928223</ele>
        <time>2014-02-09T10:55:13.325Z</time>
      </trkpt>
      <trkpt lat="47.83458" lon="7.15702">
        <ele>589.024047852</ele>
        <time>2014-02-09T10:55:20.323Z</time>
      </trkpt>
      <trkpt lat="47.8346" lon="7.15701">
        <ele>589.249755859</ele>
        <time>2014-02-09T10:55:21.322Z</time>
      </trkpt>
      <trkpt lat="47.83467" lon="7.15695">
        <ele>590.052856445</ele>
        <time>2014-02-09T10:55:28.33Z</time>
      </trkpt>
      <trkpt lat="47.83468" lon="7.15694">
        <ele>590.240600586</ele>
        <time>2014-02-09T10:55:29.324Z</time>
      </trkpt>
      <trkpt lat="47.83476" lon="7.15688">
        <ele>592.115356445</ele>
        <time>2014-02-09T10:55:45.321Z</time>
      </trkpt>
      <trkpt lat="47.83477" lon="7.15687">
        <ele>592.323791504</ele>
        <time>2014-02-09T10:55:46.322Z</time>
      </trkpt>
      <trkpt lat="47.83481" lon="7.15676">
        <ele>594.047607422</ele>
        <time>2014-02-09T10:56:00.314Z</time>
      </trkpt>
      <trkpt lat="47.83482" lon="7.15675">
        <ele>594.071899414</ele>
        <time>2014-02-09T10:56:01.326Z</time>
      </trkpt>
      <trkpt lat="47.83488" lon="7.15667">
        <ele>594.301086426</ele>
        <time>2014-02-09T10:56:10.321Z</time>
      </trkpt>
      <trkpt lat="47.83489" lon="7.15667">
        <ele>594.315368652</ele>
        <time>2014-02-09T10:56:11.321Z</time>
      </trkpt>
      <trkpt lat="47.83497" lon="7.15664">
        <ele>594.520019531</ele>
        <time>2014-02-09T10:56:19.323Z</time>
      </trkpt>
      <trkpt lat="47.83498" lon="7.15663">
        <ele>594.450927734</ele>
        <time>2014-02-09T10:56:20.322Z</time>
      </trkpt>
      <trkpt lat="47.83507" lon="7.1566">
        <ele>595.17364502</ele>
        <time>2014-02-09T10:56:28.327Z</time>
      </trkpt>
      <trkpt lat="47.83508" lon="7.15659">
        <ele>595.188781738</ele>
        <time>2014-02-09T10:56:29.318Z</time>
      </trkpt>
      <trkpt lat="47.83516" lon="7.15653">
        <ele>597.005187988</ele>
        <time>2014-02-09T10:56:40.322Z</time>
      </trkpt>
      <trkpt lat="47.83517" lon="7.15653">
        <ele>597.346496582</ele>
        <time>2014-02-09T10:56:41.321Z</time>
      </trkpt>
      <trkpt lat="47.83524" lon="7.15649">
        <ele>598.514770508</ele>
        <time>2014-02-09T10:56:47.322Z</time>
      </trkpt>
      <trkpt lat="47.83526" lon="7.15649">
        <ele>598.714782715</ele>
        <time>2014-02-09T10:56:48.322Z</time>
      </trkpt>
      <trkpt lat="47.83534" lon="7.15647">
        <ele>599.686645508</ele>
        <time>2014-02-09T10:56:57.321Z</time>
      </trkpt>
      <trkpt lat="47.83535" lon="7.15647">
        <ele>599.704162598</ele>
        <time>2014-02-09T10:56:58.326Z</time>
      </trkpt>
      <trkpt lat="47.83543" lon="7.15645">
        <ele>600.352600098</ele>
        <time>2014-02-09T10:57:09.318Z</time>
      </trkpt>
      <trkpt lat="47.83544" lon="7.15644">
        <ele>600.378601074</ele>
        <time>2014-02-09T10:57:10.299Z</time>
      </trkpt>
      <trkpt lat="47.83551" lon="7.15638">
        <ele>600.757019043</ele>
        <time>2014-02-09T10:57:26.319Z</time>
      </trkpt>
      <trkpt lat="47.83551" lon="7.15636">
        <ele>600.771362305</ele>
        <time>2014-02-09T10:57:27.32Z</time>
      </trkpt>
      <trkpt lat="47.83559" lon="7.1563">
        <ele>601.796447754</ele>
        <time>2014-02-09T10:57:33.32Z</time>
      </trkpt>
      <trkpt lat="47.8356" lon="7.15629">
        <ele>601.81060791</ele>
        <time>2014-02-09T10:57:34.32Z</time>
      </trkpt>
      <trkpt lat="47.83568" lon="7.15623">
        <ele>602.405334473</ele>
        <time>2014-02-09T10:57:46.317Z</time>
      </trkpt>
      <trkpt lat="47.83569" lon="7.15621">
        <ele>602.50177002</ele>
        <time>2014-02-09T10:57:47.318Z</time>
      </trkpt>
      <trkpt lat="47.83578" lon="7.15617">
        <ele>602.152832031</ele>
        <time>2014-02-09T10:57:51.325Z</time>
      </trkpt>
      <trkpt lat="47.8358" lon="7.15616">
        <ele>602.130126953</ele>
        <time>2014-02-09T10:57:52.316Z</time>
      </trkpt>
      <trkpt lat="47.83587" lon="7.15611">
        <ele>601.227355957</ele>
        <time>2014-02-09T10:57:55.325Z</time>
      </trkpt>
      <trkpt lat="47.8359" lon="7.1561">
        <ele>600.898071289</ele>
        <time>2014-02-09T10:57:56.322Z</time>
      </trkpt>
      <trkpt lat="47.83598" lon="7.15607">
        <ele>600.565307617</ele>
        <time>2014-02-09T10:57:57.324Z</time>
      </trkpt>
      <trkpt lat="47.83599" lon="7.15607">
        <ele>600.179992676</ele>
        <time>2014-02-09T10:57:58.329Z</time>
      </trkpt>
      <trkpt lat="47.83606" lon="7.15603">
        <ele>598.296142578</ele>
        <time>2014-02-09T10:58:04.323Z</time>
      </trkpt>
      <trkpt lat="47.83607" lon="7.15603">
        <ele>598.121765137</ele>
        <time>2014-02-09T10:58:05.322Z</time>
      </trkpt>
      <trkpt lat="47.83615" lon="7.15597">
        <ele>596.997558594</ele>
        <time>2014-02-09T10:58:29.318Z</time>
      </trkpt>
      <trkpt lat="47.83615" lon="7.15597">
        <ele>597.11328125</ele>
        <time>2014-02-09T10:58:30.318Z</time>
      </trkpt>
      <trkpt lat="47.83624" lon="7.15592">
        <ele>598.08203125</ele>
        <time>2014-02-09T10:58:45.315Z</time>
      </trkpt>
      <trkpt lat="47.83624" lon="7.15592">
        <ele>598.107849121</ele>
        <time>2014-02-09T10:58:46.316Z</time>
      </trkpt>
      <trkpt lat="47.83632" lon="7.1559">
        <ele>599.142150879</ele>
        <time>2014-02-09T10:58:52.315Z</time>
      </trkpt>
      <trkpt lat="47.83633" lon="7.15589">
        <ele>599.171691895</ele>
        <time>2014-02-09T10:58:53.317Z</time>
      </trkpt>
      <trkpt lat="47.83641" lon="7.15587">
        <ele>600.916992188</ele>
        <time>2014-02-09T10:59:00.296Z</time>
      </trkpt>
      <trkpt lat="47.83643" lon="7.15586">
        <ele>600.979919434</ele>
        <time>2014-02-09T10:59:01.313Z</time>
      </trkpt>
      <trkpt lat="47.83651" lon="7.15584">
        <ele>603.396850586</ele>
        <time>2014-02-09T10:59:07.319Z</time>
      </trkpt>
      <trkpt lat="47.83653" lon="7.15582">
        <ele>603.926818848</ele>
        <time>2014-02-09T10:59:08.32Z</time>
      </trkpt>
      <trkpt lat="47.8366" lon="7.15575">
        <ele>606.545532227</ele>
        <time>2014-02-09T10:59:16.316Z</time>
      </trkpt>
      <trkpt lat="47.83661" lon="7.15574">
        <ele>607.028991699</ele>
        <time>2014-02-09T10:59:17.315Z</time>
      </trkpt>
      <trkpt lat="47.83668" lon="7.15566">
        <ele>607.922302246</ele>
        <time>2014-02-09T10:59:25.316Z</time>
      </trkpt>
      <trkpt lat="47.83669" lon="7.15566">
        <ele>608.16394043</ele>
        <time>2014-02-09T10:59:26.317Z</time>
      </trkpt>
      <trkpt lat="47.83676" lon="7.15564">
        <ele>609.060302734</ele>
        <time>2014-02-09T10:59:34.315Z</time>
      </trkpt>
      <trkpt lat="47.83678" lon="7.15563">
        <ele>609.285705566</ele>
        <time>2014-02-09T10:59:35.314Z</time>
      </trkpt>
      <trkpt lat="47.83686" lon="7.1556">
        <ele>610.209777832</ele>
        <time>2014-02-09T10:59:40.317Z</time>
      </trkpt>
      <trkpt lat="47.83688" lon="7.1556">
        <ele>610.348144531</ele>
        <time>2014-02-09T10:59:41.318Z</time>
      </trkpt>
      <trkpt lat="47.83694" lon="7.15553">
        <ele>610.512268066</ele>
        <time>2014-02-09T10:59:45.323Z</time>
      </trkpt>
      <trkpt lat="47.83696" lon="7.15551">
        <ele>610.439880371</ele>
        <time>2014-02-09T10:59:46.314Z</time>
      </trkpt>
      <trkpt lat="47.83704" lon="7.15547">
        <ele>609.975463867</ele>
        <time>2014-02-09T10:59:51.297Z</time>
      </trkpt>
      <trkpt lat="47.83705" lon="7.15546">
        <ele>609.904296875</ele>
        <time>2014-02-09T10:59:52.315Z</time>
      </trkpt>
      <trkpt lat="47.83713" lon="7.15543">
        <ele>609.639343262</ele>
        <time>2014-02-09T11:00:00.293Z</time>
      </trkpt>
      <trkpt lat="47.83714" lon="7.15543">
        <ele>609.694641113</ele>
        <time>2014-02-09T11:00:01.315Z</time>
      </trkpt>
      <trkpt lat="47.83723" lon="7.15543">
        <ele>610.901306152</ele>
        <time>2014-02-09T11:00:13.311Z</time>
      </trkpt>
      <trkpt lat="47.83725" lon="7.15543">
        <ele>611.151062012</ele>
        <time>2014-02-09T11:00:14.304Z</time>
      </trkpt>
      <trkpt lat="47.83733" lon="7.15541">
        <ele>612.406677246</ele>
        <time>2014-02-09T11:00:19.333Z</time>
      </trkpt>
      <trkpt lat="47.83734" lon="7.15541">
        <ele>612.678649902</ele>
        <time>2014-02-09T11:00:20.314Z</time>
      </trkpt>
      <trkpt lat="47.83743" lon="7.15537">
        <ele>613.176147461</ele>
        <time>2014-02-09T11:00:31.313Z</time>
      </trkpt>
      <trkpt lat="47.83743" lon="7.15537">
        <ele>613.176086426</ele>
        <time>2014-02-09T11:00:32.311Z</time>
      </trkpt>
      <trkpt lat="47.83752" lon="7.15536">
        <ele>613.747253418</ele>
        <time>2014-02-09T11:00:48.315Z</time>
      </trkpt>
      <trkpt lat="47.83753" lon="7.15535">
        <ele>613.82598877</ele>
        <time>2014-02-09T11:00:49.312Z</time>
      </trkpt>
      <trkpt lat="47.83761" lon="7.15531">
        <ele>614.699829102</ele>
        <time>2014-02-09T11:00:55.314Z</time>
      </trkpt>
      <trkpt lat="47.83762" lon="7.15531">
        <ele>614.871582031</ele>
        <time>2014-02-09T11:00:56.318Z</time>
      </trkpt>
      <trkpt lat="47.83771" lon="7.15532">
        <ele>621.107849121</ele>
        <time>2014-02-09T11:01:19.317Z</time>
      </trkpt>
      <trkpt lat="47.83771" lon="7.15532">
        <ele>621.664611816</ele>
        <time>2014-02-09T11:01:20.313Z</time>
      </trkpt>
      <trkpt lat="47.83779" lon="7.15528">
        <ele>625.481445312</ele>
        <time>2014-02-09T11:01:30.315Z</time>
      </trkpt>
      <trkpt lat="47.8378" lon="7.15526">
        <ele>625.805603027</ele>
        <time>2014-02-09T11:01:31.303Z</time>
      </trkpt>
      <trkpt lat="47.83784" lon="7.15517">
        <ele>628.43536377</ele>
        <time>2014-02-09T11:01:38.326Z</time>
      </trkpt>
      <trkpt lat="47.83785" lon="7.15515">
        <ele>628.832275391</ele>
        <time>2014-02-09T11:01:39.317Z</time>
      </trkpt>
      <trkpt lat="47.83792" lon="7.15507">
        <ele>631.68927002</ele>
        <time>2014-02-09T11:01:47.309Z</time>
      </trkpt>
      <trkpt lat="47.83793" lon="7.15506">
        <ele>631.965881348</ele>
        <time>2014-02-09T11:01:48.32Z</time>
      </trkpt>
      <trkpt lat="47.83796" lon="7.15494">
        <ele>634.485778809</ele>
        <time>2014-02-09T11:02:01.315Z</time>
      </trkpt>
      <trkpt lat="47.83796" lon="7.15492">
        <ele>634.692687988</ele>
        <time>2014-02-09T11:02:02.309Z</time>
      </trkpt>
      <trkpt lat="47.83799" lon="7.1548">
        <ele>637.080383301</ele>
        <time>2014-02-09T11:02:13.313Z</time>
      </trkpt>
      <trkpt lat="47.83799" lon="7.15479">
        <ele>637.259765625</ele>
        <time>2014-02-09T11:02:14.309Z</time>
      </trkpt>
      <trkpt lat="47.83799" lon="7.15466">
        <ele>639.81036377</ele>
        <time>2014-02-09T11:02:25.314Z</time>
      </trkpt>
      <trkpt lat="47.83799" lon="7.15465">
        <ele>640.183349609</ele>
        <time>2014-02-09T11:02:26.31Z</time>
      </trkpt>
      <trkpt lat="47.83797" lon="7.15453">
        <ele>645.323425293</ele>
        <time>2014-02-09T11:02:41.306Z</time>
      </trkpt>
      <trkpt lat="47.83797" lon="7.15451">
        <ele>645.737365723</ele>
        <time>2014-02-09T11:02:42.308Z</time>
      </trkpt>
      <trkpt lat="47.83795" lon="7.15439">
        <ele>648.342285156</ele>
        <time>2014-02-09T11:02:51.31Z</time>
      </trkpt>
      <trkpt lat="47.83794" lon="7.15437">
        <ele>648.597351074</ele>
        <time>2014-02-09T11:02:52.311Z</time>
      </trkpt>
      <trkpt lat="47.83795" lon="7.15425">
        <ele>650.53918457</ele>
        <time>2014-02-09T11:03:02.308Z</time>
      </trkpt>
      <trkpt lat="47.83794" lon="7.15423">
        <ele>650.714355469</ele>
        <time>2014-02-09T11:03:03.311Z</time>
      </trkpt>
      <trkpt lat="47.83792" lon="7.15412">
        <ele>651.842163086</ele>
        <time>2014-02-09T11:03:11.308Z</time>
      </trkpt>
      <trkpt lat="47.83792" lon="7.1541">
        <ele>651.943481445</ele>
        <time>2014-02-09T11:03:12.308Z</time>
      </trkpt>
      <trkpt lat="47.8379" lon="7.15398">
        <ele>652.964294434</ele>
        <time>2014-02-09T11:03:22.315Z</time>
      </trkpt>
      <trkpt lat="47.83791" lon="7.15396">
        <ele>653.039001465</ele>
        <time>2014-02-09T11:03:23.314Z</time>
      </trkpt>
      <trkpt lat="47.83791" lon="7.15385">
        <ele>653.622680664</ele>
        <time>2014-02-09T11:03:29.314Z</time>
      </trkpt>
      <trkpt lat="47.83792" lon="7.15383">
        <ele>653.701599121</ele>
        <time>2014-02-09T11:03:30.299Z</time>
      </trkpt>
      <trkpt lat="47.83791" lon="7.1537">
        <ele>654.911376953</ele>
        <time>2014-02-09T11:03:40.313Z</time>
      </trkpt>
      <trkpt lat="47.83791" lon="7.1537">
        <ele>655.010803223</ele>
        <time>2014-02-09T11:03:41.314Z</time>
      </trkpt>
      <trkpt lat="47.83788" lon="7.15357">
        <ele>656.108581543</ele>
        <time>2014-02-09T11:03:51.313Z</time>
      </trkpt>
      <trkpt lat="47.83788" lon="7.15357">
        <ele>656.223815918</ele>
        <time>2014-02-09T11:03:52.307Z</time>
      </trkpt>
      <trkpt lat="47.83787" lon="7.15343">
        <ele>657.387634277</ele>
        <time>2014-02-09T11:04:01.307Z</time>
      </trkpt>
      <trkpt lat="47.83787" lon="7.15342">
        <ele>657.400268555</ele>
        <time>2014-02-09T11:04:02.296Z</time>
      </trkpt>
      <trkpt lat="47.83783" lon="7.1533">
        <ele>658.023620605</ele>
        <time>2014-02-09T11:04:11.304Z</time>
      </trkpt>
      <trkpt lat="47.83782" lon="7.15329">
        <ele>658.231262207</ele>
        <time>2014-02-09T11:04:12.306Z</time>
      </trkpt>
      <trkpt lat="47.8378" lon="7.15318">
        <ele>659.496276855</ele>
        <time>2014-02-09T11:04:19.304Z</time>
      </trkpt>
      <trkpt lat="47.8378" lon="7.15316">
        <ele>659.723693848</ele>
        <time>2014-02-09T11:04:20.294Z</time>
      </trkpt>
      <trkpt lat="47.83776" lon="7.15305">
        <ele>661.412109375</ele>
        <time>2014-02-09T11:04:29.304Z</time>
      </trkpt>
      <trkpt lat="47.83775" lon="7.15303">
        <ele>661.629516602</ele>
        <time>2014-02-09T11:04:30.308Z</time>
      </trkpt>
      <trkpt lat="47.83771" lon="7.15291">
        <ele>663.358093262</ele>
        <time>2014-02-09T11:04:45.287Z</time>
      </trkpt>
      <trkpt lat="47.83771" lon="7.1529">
        <ele>663.485412598</ele>
        <time>2014-02-09T11:04:46.304Z</time>
      </trkpt>
      <trkpt lat="47.8377" lon="7.15277">
        <ele>663.797485352</ele>
        <time>2014-02-09T11:04:57.291Z</time>
      </trkpt>
      <trkpt lat="47.8377" lon="7.15276">
        <ele>663.745056152</ele>
        <time>2014-02-09T11:04:58.311Z</time>
      </trkpt>
      <trkpt lat="47.83768" lon="7.15264">
        <ele>664.796325684</ele>
        <time>2014-02-09T11:05:06.31Z</time>
      </trkpt>
      <trkpt lat="47.83767" lon="7.15263">
        <ele>665.018432617</ele>
        <time>2014-02-09T11:05:07.308Z</time>
      </trkpt>
      <trkpt lat="47.83766" lon="7.1525">
        <ele>666.662780762</ele>
        <time>2014-02-09T11:05:15.308Z</time>
      </trkpt>
      <trkpt lat="47.83766" lon="7.15249">
        <ele>666.902770996</ele>
        <time>2014-02-09T11:05:16.311Z</time>
      </trkpt>
      <trkpt lat="47.83764" lon="7.15237">
        <ele>668.042175293</ele>
        <time>2014-02-09T11:05:23.307Z</time>
      </trkpt>
      <trkpt lat="47.83764" lon="7.15235">
        <ele>668.090759277</ele>
        <time>2014-02-09T11:05:24.312Z</time>
      </trkpt>
      <trkpt lat="47.83763" lon="7.15222">
        <ele>668.733703613</ele>
        <time>2014-02-09T11:05:32.306Z</time>
      </trkpt>
      <trkpt lat="47.83763" lon="7.15221">
        <ele>668.88885498</ele>
        <time>2014-02-09T11:05:33.309Z</time>
      </trkpt>
      <trkpt lat="47.83761" lon="7.15209">
        <ele>669.861877441</ele>
        <time>2014-02-09T11:05:42.287Z</time>
      </trkpt>
      <trkpt lat="47.83761" lon="7.15207">
        <ele>670.026123047</ele>
        <time>2014-02-09T11:05:43.304Z</time>
      </trkpt>
      <trkpt lat="47.83762" lon="7.15194">
        <ele>671.092773438</ele>
        <time>2014-02-09T11:05:52.323Z</time>
      </trkpt>
      <trkpt lat="47.83762" lon="7.15192">
        <ele>671.234191895</ele>
        <time>2014-02-09T11:05:53.304Z</time>
      </trkpt>
      <trkpt lat="47.83761" lon="7.1518">
        <ele>672.718933105</ele>
        <time>2014-02-09T11:06:02.301Z</time>
      </trkpt>
      <trkpt lat="47.83761" lon="7.15179">
        <ele>672.877685547</ele>
        <time>2014-02-09T11:06:03.305Z</time>
      </trkpt>
      <trkpt lat="47.83763" lon="7.15166">
        <ele>673.390808105</ele>
        <time>2014-02-09T11:06:11.289Z</time>
      </trkpt>
      <trkpt lat="47.83764" lon="7.15165">
        <ele>673.477233887</ele>
        <time>2014-02-09T11:06:12.277Z</time>
      </trkpt>
      <trkpt lat="47.83763" lon="7.15152">
        <ele>673.8984375</ele>
        <time>2014-02-09T11:06:21.29Z</time>
      </trkpt>
      <trkpt lat="47.83763" lon="7.1515">
        <ele>673.905578613</ele>
        <time>2014-02-09T11:06:22.295Z</time>
      </trkpt>
      <trkpt lat="47.83755" lon="7.15146">
        <ele>673.926513672</ele>
        <time>2014-02-09T11:06:27.277Z</time>
      </trkpt>
      <trkpt lat="47.83754" lon="7.15146">
        <ele>673.957580566</ele>
        <time>2014-02-09T11:06:28.297Z</time>
      </trkpt>
      <trkpt lat="47.83753" lon="7.15135">
        <ele>674.062133789</ele>
        <time>2014-02-09T11:06:35.289Z</time>
      </trkpt>
      <trkpt lat="47.83752" lon="7.15132">
        <ele>674.04284668</ele>
        <time>2014-02-09T11:06:36.293Z</time>
      </trkpt>
      <trkpt lat="47.83751" lon="7.15119">
        <ele>673.953125</ele>
        <time>2014-02-09T11:06:44.292Z</time>
      </trkpt>
      <trkpt lat="47.83751" lon="7.15116">
        <ele>673.941467285</ele>
        <time>2014-02-09T11:06:45.29Z</time>
      </trkpt>
      <trkpt lat="47.83751" lon="7.15104">
        <ele>674.100280762</ele>
        <time>2014-02-09T11:06:52.303Z</time>
      </trkpt>
      <trkpt lat="47.83752" lon="7.15102">
        <ele>674.081787109</ele>
        <time>2014-02-09T11:06:53.303Z</time>
      </trkpt>
      <trkpt lat="47.83757" lon="7.15091">
        <ele>674.015930176</ele>
        <time>2014-02-09T11:06:59.303Z</time>
      </trkpt>
      <trkpt lat="47.83758" lon="7.15089">
        <ele>673.998840332</ele>
        <time>2014-02-09T11:07:00.287Z</time>
      </trkpt>
      <trkpt lat="47.8376" lon="7.15077">
        <ele>673.675231934</ele>
        <time>2014-02-09T11:07:09.306Z</time>
      </trkpt>
      <trkpt lat="47.83761" lon="7.15076">
        <ele>673.667663574</ele>
        <time>2014-02-09T11:07:10.305Z</time>
      </trkpt>
      <trkpt lat="47.83762" lon="7.15064">
        <ele>673.46081543</ele>
        <time>2014-02-09T11:07:20.307Z</time>
      </trkpt>
      <trkpt lat="47.83763" lon="7.15062">
        <ele>673.462890625</ele>
        <time>2014-02-09T11:07:21.306Z</time>
      </trkpt>
      <trkpt lat="47.83769" lon="7.15055">
        <ele>673.028137207</ele>
        <time>2014-02-09T11:07:31.299Z</time>
      </trkpt>
      <trkpt lat="47.83771" lon="7.15054">
        <ele>672.83203125</ele>
        <time>2014-02-09T11:07:32.299Z</time>
      </trkpt>
      <trkpt lat="47.83777" lon="7.15045">
        <ele>671.379577637</ele>
        <time>2014-02-09T11:07:47.287Z</time>
      </trkpt>
      <trkpt lat="47.83777" lon="7.15045">
        <ele>671.372131348</ele>
        <time>2014-02-09T11:07:48.292Z</time>
      </trkpt>
      <trkpt lat="47.83783" lon="7.15054">
        <ele>671.360046387</ele>
        <time>2014-02-09T11:08:05.285Z</time>
      </trkpt>
      <trkpt lat="47.83784" lon="7.15055">
        <ele>671.358886719</ele>
        <time>2014-02-09T11:08:06.282Z</time>
      </trkpt>
      <trkpt lat="47.83791" lon="7.15062">
        <ele>671.302429199</ele>
        <time>2014-02-09T11:08:16.279Z</time>
      </trkpt>
      <trkpt lat="47.83792" lon="7.15064">
        <ele>671.301208496</ele>
        <time>2014-02-09T11:08:17.295Z</time>
      </trkpt>
      <trkpt lat="47.83801" lon="7.15066">
        <ele>671.689453125</ele>
        <time>2014-02-09T11:08:40.29Z</time>
      </trkpt>
      <trkpt lat="47.83801" lon="7.15065">
        <ele>671.71673584</ele>
        <time>2014-02-09T11:08:41.293Z</time>
      </trkpt>
      <trkpt lat="47.83808" lon="7.15074">
        <ele>672.172058105</ele>
        <time>2014-02-09T11:10:44.297Z</time>
      </trkpt>
      <trkpt lat="47.83808" lon="7.15075">
        <ele>672.15802002</ele>
        <time>2014-02-09T11:10:45.283Z</time>
      </trkpt>
      <trkpt lat="47.83814" lon="7.15083">
        <ele>673.554626465</ele>
        <time>2014-02-09T11:12:13.297Z</time>
      </trkpt>
      <trkpt lat="47.83815" lon="7.15085">
        <ele>673.723205566</ele>
        <time>2014-02-09T11:12:14.296Z</time>
      </trkpt>
      <trkpt lat="47.83816" lon="7.15098">
        <ele>675.19720459</ele>
        <time>2014-02-09T11:12:24.303Z</time>
      </trkpt>
      <trkpt lat="47.83816" lon="7.15099">
        <ele>675.336303711</ele>
        <time>2014-02-09T11:12:25.301Z</time>
      </trkpt>
      <trkpt lat="47.83818" lon="7.15111">
        <ele>676.993103027</ele>
        <time>2014-02-09T11:12:35.299Z</time>
      </trkpt>
      <trkpt lat="47.83819" lon="7.15112">
        <ele>677.170227051</ele>
        <time>2014-02-09T11:12:36.301Z</time>
      </trkpt>
      <trkpt lat="47.83828" lon="7.1511">
        <ele>686.700256348</ele>
        <time>2014-02-09T11:13:26.292Z</time>
      </trkpt>
      <trkpt lat="47.83828" lon="7.1511">
        <ele>686.733093262</ele>
        <time>2014-02-09T11:13:27.295Z</time>
      </trkpt>
      <trkpt lat="47.83832" lon="7.15098">
        <ele>688.439758301</ele>
        <time>2014-02-09T11:13:40.291Z</time>
      </trkpt>
      <trkpt lat="47.83831" lon="7.15097">
        <ele>688.79083252</ele>
        <time>2014-02-09T11:13:41.281Z</time>
      </trkpt>
      <trkpt lat="47.83831" lon="7.15084">
        <ele>691.115356445</ele>
        <time>2014-02-09T11:13:55.3Z</time>
      </trkpt>
      <trkpt lat="47.83832" lon="7.15083">
        <ele>691.130187988</ele>
        <time>2014-02-09T11:13:56.295Z</time>
      </trkpt>
      <trkpt lat="47.83834" lon="7.15071">
        <ele>692.859558105</ele>
        <time>2014-02-09T11:14:15.286Z</time>
      </trkpt>
      <trkpt lat="47.83834" lon="7.1507">
        <ele>692.870300293</ele>
        <time>2014-02-09T11:14:16.27Z</time>
      </trkpt>
      <trkpt lat="47.83838" lon="7.15059">
        <ele>694.694946289</ele>
        <time>2014-02-09T11:14:31.296Z</time>
      </trkpt>
      <trkpt lat="47.83839" lon="7.15057">
        <ele>694.893737793</ele>
        <time>2014-02-09T11:14:32.282Z</time>
      </trkpt>
      <trkpt lat="47.83844" lon="7.15046">
        <ele>697.432250977</ele>
        <time>2014-02-09T11:14:45.289Z</time>
      </trkpt>
      <trkpt lat="47.83844" lon="7.15046">
        <ele>697.451843262</ele>
        <time>2014-02-09T11:14:46.287Z</time>
      </trkpt>
      <trkpt lat="47.83852" lon="7.1504">
        <ele>698.704833984</ele>
        <time>2014-02-09T11:15:00.259Z</time>
      </trkpt>
      <trkpt lat="47.83853" lon="7.15039">
        <ele>698.720397949</ele>
        <time>2014-02-09T11:15:01.279Z</time>
      </trkpt>
      <trkpt lat="47.8386" lon="7.15034">
        <ele>700.78894043</ele>
        <time>2014-02-09T11:15:18.282Z</time>
      </trkpt>
      <trkpt lat="47.83861" lon="7.15034">
        <ele>700.817871094</ele>
        <time>2014-02-09T11:15:19.279Z</time>
      </trkpt>
      <trkpt lat="47.83868" lon="7.15026">
        <ele>702.819702148</ele>
        <time>2014-02-09T11:15:34.275Z</time>
      </trkpt>
      <trkpt lat="47.83868" lon="7.15025">
        <ele>703.028259277</ele>
        <time>2014-02-09T11:15:35.276Z</time>
      </trkpt>
      <trkpt lat="47.83872" lon="7.15014">
        <ele>704.944030762</ele>
        <time>2014-02-09T11:15:48.292Z</time>
      </trkpt>
      <trkpt lat="47.83872" lon="7.15013">
        <ele>705.179382324</ele>
        <time>2014-02-09T11:15:49.287Z</time>
      </trkpt>
      <trkpt lat="47.8388" lon="7.15008">
        <ele>707.845703125</ele>
        <time>2014-02-09T11:16:04.285Z</time>
      </trkpt>
      <trkpt lat="47.8388" lon="7.15006">
        <ele>708.176818848</ele>
        <time>2014-02-09T11:16:05.276Z</time>
      </trkpt>
      <trkpt lat="47.83881" lon="7.14995">
        <ele>709.687194824</ele>
        <time>2014-02-09T11:16:10.284Z</time>
      </trkpt>
      <trkpt lat="47.83881" lon="7.14993">
        <ele>709.945556641</ele>
        <time>2014-02-09T11:16:11.284Z</time>
      </trkpt>
      <trkpt lat="47.83887" lon="7.14984">
        <ele>712.51965332</ele>
        <time>2014-02-09T11:16:19.285Z</time>
      </trkpt>
      <trkpt lat="47.83888" lon="7.14982">
        <ele>712.986938477</ele>
        <time>2014-02-09T11:16:20.283Z</time>
      </trkpt>
      <trkpt lat="47.83894" lon="7.14973">
        <ele>714.928833008</ele>
        <time>2014-02-09T11:16:29.282Z</time>
      </trkpt>
      <trkpt lat="47.83894" lon="7.14972">
        <ele>714.939208984</ele>
        <time>2014-02-09T11:16:30.281Z</time>
      </trkpt>
      <trkpt lat="47.83898" lon="7.14963">
        <ele>715.300109863</ele>
        <time>2014-02-09T11:16:35.293Z</time>
      </trkpt>
      <trkpt lat="47.839" lon="7.14961">
        <ele>715.360168457</ele>
        <time>2014-02-09T11:16:36.28Z</time>
      </trkpt>
      <trkpt lat="47.83906" lon="7.14952">
        <ele>716.779968262</ele>
        <time>2014-02-09T11:16:48.289Z</time>
      </trkpt>
      <trkpt lat="47.83907" lon="7.14951">
        <ele>716.86505127</ele>
        <time>2014-02-09T11:16:49.285Z</time>
      </trkpt>
      <trkpt lat="47.83914" lon="7.14944">
        <ele>717.903320312</ele>
        <time>2014-02-09T11:16:57.272Z</time>
      </trkpt>
      <trkpt lat="47.83914" lon="7.14943">
        <ele>718.063476562</ele>
        <time>2014-02-09T11:16:58.292Z</time>
      </trkpt>
      <trkpt lat="47.83921" lon="7.14934">
        <ele>721.065307617</ele>
        <time>2014-02-09T11:17:17.257Z</time>
      </trkpt>
      <trkpt lat="47.83922" lon="7.14933">
        <ele>721.07598877</ele>
        <time>2014-02-09T11:17:18.271Z</time>
      </trkpt>
      <trkpt lat="47.8393" lon="7.1493">
        <ele>721.107666016</ele>
        <time>2014-02-09T11:17:28.284Z</time>
      </trkpt>
      <trkpt lat="47.83931" lon="7.14929">
        <ele>721.100280762</ele>
        <time>2014-02-09T11:17:29.277Z</time>
      </trkpt>
      <trkpt lat="47.83938" lon="7.1492">
        <ele>720.959472656</ele>
        <time>2014-02-09T11:17:44.277Z</time>
      </trkpt>
      <trkpt lat="47.83938" lon="7.1492">
        <ele>720.956115723</ele>
        <time>2014-02-09T11:17:45.274Z</time>
      </trkpt>
      <trkpt lat="47.83946" lon="7.14924">
        <ele>721.750915527</ele>
        <time>2014-02-09T11:18:13.273Z</time>
      </trkpt>
      <trkpt lat="47.83947" lon="7.14924">
        <ele>721.750061035</ele>
        <time>2014-02-09T11:18:14.271Z</time>
      </trkpt>
      <trkpt lat="47.8395" lon="7.14912">
        <ele>723.578735352</ele>
        <time>2014-02-09T11:21:48.271Z</time>
      </trkpt>
      <trkpt lat="47.8395" lon="7.14911">
        <ele>723.59753418</ele>
        <time>2014-02-09T11:21:49.264Z</time>
      </trkpt>
      <trkpt lat="47.83954" lon="7.14901">
        <ele>731.298034668</ele>
        <time>2014-02-09T11:22:56.266Z</time>
      </trkpt>
      <trkpt lat="47.83954" lon="7.14899">
        <ele>731.693237305</ele>
        <time>2014-02-09T11:22:57.264Z</time>
      </trkpt>
      <trkpt lat="47.83955" lon="7.14886">
        <ele>734.29309082</ele>
        <time>2014-02-09T11:23:11.279Z</time>
      </trkpt>
      <trkpt lat="47.83955" lon="7.14885">
        <ele>734.483764648</ele>
        <time>2014-02-09T11:23:12.276Z</time>
      </trkpt>
      <trkpt lat="47.83954" lon="7.14873">
        <ele>736.185241699</ele>
        <time>2014-02-09T11:23:24.263Z</time>
      </trkpt>
      <trkpt lat="47.83954" lon="7.14871">
        <ele>736.240966797</ele>
        <time>2014-02-09T11:23:25.246Z</time>
      </trkpt>
      <trkpt lat="47.83956" lon="7.14859">
        <ele>739.018066406</ele>
        <time>2014-02-09T11:23:38.273Z</time>
      </trkpt>
      <trkpt lat="47.83957" lon="7.14857">
        <ele>739.277404785</ele>
        <time>2014-02-09T11:23:39.261Z</time>
      </trkpt>
      <trkpt lat="47.83963" lon="7.14847">
        <ele>740.585998535</ele>
        <time>2014-02-09T11:23:45.264Z</time>
      </trkpt>
      <trkpt lat="47.83964" lon="7.14845">
        <ele>740.82434082</ele>
        <time>2014-02-09T11:23:46.268Z</time>
      </trkpt>
      <trkpt lat="47.83969" lon="7.14834">
        <ele>742.90826416</ele>
        <time>2014-02-09T11:23:58.263Z</time>
      </trkpt>
      <trkpt lat="47.8397" lon="7.14832">
        <ele>743.256835938</ele>
        <time>2014-02-09T11:23:59.247Z</time>
      </trkpt>
      <trkpt lat="47.83974" lon="7.14823">
        <ele>745.17376709</ele>
        <time>2014-02-09T11:24:05.259Z</time>
      </trkpt>
      <trkpt lat="47.83975" lon="7.14821">
        <ele>745.477233887</ele>
        <time>2014-02-09T11:24:06.259Z</time>
      </trkpt>
      <trkpt lat="47.8398" lon="7.14812">
        <ele>746.621276855</ele>
        <time>2014-02-09T11:24:16.257Z</time>
      </trkpt>
      <trkpt lat="47.83981" lon="7.1481">
        <ele>746.646118164</ele>
        <time>2014-02-09T11:24:17.263Z</time>
      </trkpt>
      <trkpt lat="47.83985" lon="7.14801">
        <ele>748.33404541</ele>
        <time>2014-02-09T11:24:28.236Z</time>
      </trkpt>
      <trkpt lat="47.83985" lon="7.14798">
        <ele>748.596801758</ele>
        <time>2014-02-09T11:24:29.232Z</time>
      </trkpt>
      <trkpt lat="47.8399" lon="7.14789">
        <ele>749.155517578</ele>
        <time>2014-02-09T11:24:35.231Z</time>
      </trkpt>
      <trkpt lat="47.83992" lon="7.14787">
        <ele>749.402770996</ele>
        <time>2014-02-09T11:24:36.232Z</time>
      </trkpt>
      <trkpt lat="47.83998" lon="7.14778">
        <ele>750.044006348</ele>
        <time>2014-02-09T11:24:45.234Z</time>
      </trkpt>
      <trkpt lat="47.83999" lon="7.14777">
        <ele>750.065246582</ele>
        <time>2014-02-09T11:24:46.223Z</time>
      </trkpt>
      <trkpt lat="47.84004" lon="7.14769">
        <ele>750.897888184</ele>
        <time>2014-02-09T11:24:53.233Z</time>
      </trkpt>
      <trkpt lat="47.84005" lon="7.14767">
        <ele>751.06451416</ele>
        <time>2014-02-09T11:24:54.232Z</time>
      </trkpt>
      <trkpt lat="47.8401" lon="7.14758">
        <ele>751.812988281</ele>
        <time>2014-02-09T11:25:12.234Z</time>
      </trkpt>
      <trkpt lat="47.84012" lon="7.14757">
        <ele>751.849914551</ele>
        <time>2014-02-09T11:25:13.233Z</time>
      </trkpt>
      <trkpt lat="47.84013" lon="7.14745">
        <ele>752.179443359</ele>
        <time>2014-02-09T11:25:19.234Z</time>
      </trkpt>
      <trkpt lat="47.84012" lon="7.14743">
        <ele>752.329284668</ele>
        <time>2014-02-09T11:25:20.234Z</time>
      </trkpt>
      <trkpt lat="47.84015" lon="7.14733">
        <ele>752.754699707</ele>
        <time>2014-02-09T11:25:26.259Z</time>
      </trkpt>
      <trkpt lat="47.84016" lon="7.14731">
        <ele>752.775878906</ele>
        <time>2014-02-09T11:25:27.236Z</time>
      </trkpt>
      <trkpt lat="47.84024" lon="7.14723">
        <ele>752.907714844</ele>
        <time>2014-02-09T11:25:32.233Z</time>
      </trkpt>
      <trkpt lat="47.84024" lon="7.14723">
        <ele>752.975219727</ele>
        <time>2014-02-09T11:25:33.235Z</time>
      </trkpt>
      <trkpt lat="47.84027" lon="7.14711">
        <ele>752.790527344</ele>
        <time>2014-02-09T11:25:50.258Z</time>
      </trkpt>
      <trkpt lat="47.84028" lon="7.1471">
        <ele>752.763977051</ele>
        <time>2014-02-09T11:25:51.26Z</time>
      </trkpt>
      <trkpt lat="47.84033" lon="7.147">
        <ele>754.810668945</ele>
        <time>2014-02-09T11:26:19.239Z</time>
      </trkpt>
      <trkpt lat="47.84033" lon="7.14698">
        <ele>755.282653809</ele>
        <time>2014-02-09T11:26:20.245Z</time>
      </trkpt>
      <trkpt lat="47.84038" lon="7.1469">
        <ele>756.280578613</ele>
        <time>2014-02-09T11:26:24.243Z</time>
      </trkpt>
      <trkpt lat="47.84042" lon="7.14686">
        <ele>756.658447266</ele>
        <time>2014-02-09T11:26:25.242Z</time>
      </trkpt>
      <trkpt lat="47.84046" lon="7.14678">
        <ele>756.746032715</ele>
        <time>2014-02-09T11:26:27.239Z</time>
      </trkpt>
      <trkpt lat="47.84047" lon="7.14675">
        <ele>757.227233887</ele>
        <time>2014-02-09T11:26:28.245Z</time>
      </trkpt>
      <trkpt lat="47.84053" lon="7.14665">
        <ele>757.453918457</ele>
        <time>2014-02-09T11:26:33.239Z</time>
      </trkpt>
      <trkpt lat="47.84054" lon="7.14665">
        <ele>757.495910645</ele>
        <time>2014-02-09T11:26:34.229Z</time>
      </trkpt>
      <trkpt lat="47.8406" lon="7.14655">
        <ele>757.772460938</ele>
        <time>2014-02-09T11:26:41.238Z</time>
      </trkpt>
      <trkpt lat="47.8406" lon="7.14653">
        <ele>758.312988281</ele>
        <time>2014-02-09T11:26:42.243Z</time>
      </trkpt>
      <trkpt lat="47.84064" lon="7.14641">
        <ele>762.242126465</ele>
        <time>2014-02-09T11:26:51.248Z</time>
      </trkpt>
      <trkpt lat="47.84064" lon="7.1464">
        <ele>762.69909668</ele>
        <time>2014-02-09T11:26:52.249Z</time>
      </trkpt>
      <trkpt lat="47.84068" lon="7.14631">
        <ele>766.032409668</ele>
        <time>2014-02-09T11:27:10.247Z</time>
      </trkpt>
      <trkpt lat="47.84069" lon="7.14629">
        <ele>766.364135742</ele>
        <time>2014-02-09T11:27:11.248Z</time>
      </trkpt>
      <trkpt lat="47.84074" lon="7.14618">
        <ele>769.483215332</ele>
        <time>2014-02-09T11:27:22.25Z</time>
      </trkpt>
      <trkpt lat="47.84074" lon="7.14617">
        <ele>769.833618164</ele>
        <time>2014-02-09T11:27:23.24Z</time>
      </trkpt>
      <trkpt lat="47.84077" lon="7.14606">
        <ele>773.803527832</ele>
        <time>2014-02-09T11:27:44.302Z</time>
      </trkpt>
      <trkpt lat="47.84078" lon="7.14605">
        <ele>774.170593262</ele>
        <time>2014-02-09T11:27:45.299Z</time>
      </trkpt>
      <trkpt lat="47.84081" lon="7.14592">
        <ele>776.995483398</ele>
        <time>2014-02-09T11:27:59.301Z</time>
      </trkpt>
      <trkpt lat="47.84082" lon="7.14592">
        <ele>777.025146484</ele>
        <time>2014-02-09T11:28:00.287Z</time>
      </trkpt>
      <trkpt lat="47.84084" lon="7.14579">
        <ele>779.605834961</ele>
        <time>2014-02-09T11:28:24.262Z</time>
      </trkpt>
      <trkpt lat="47.84084" lon="7.14579">
        <ele>779.83026123</ele>
        <time>2014-02-09T11:28:25.245Z</time>
      </trkpt>
      <trkpt lat="47.8408" lon="7.14568">
        <ele>785.090393066</ele>
        <time>2014-02-09T11:28:47.234Z</time>
      </trkpt>
      <trkpt lat="47.84079" lon="7.14566">
        <ele>785.208496094</ele>
        <time>2014-02-09T11:28:48.253Z</time>
      </trkpt>
      <trkpt lat="47.84071" lon="7.1456">
        <ele>785.215270996</ele>
        <time>2014-02-09T11:29:01.244Z</time>
      </trkpt>
      <trkpt lat="47.84071" lon="7.14559">
        <ele>785.203186035</ele>
        <time>2014-02-09T11:29:02.245Z</time>
      </trkpt>
      <trkpt lat="47.84065" lon="7.1455">
        <ele>784.395690918</ele>
        <time>2014-02-09T11:29:19.264Z</time>
      </trkpt>
      <trkpt lat="47.84065" lon="7.14549">
        <ele>784.298339844</ele>
        <time>2014-02-09T11:29:20.264Z</time>
      </trkpt>
      <trkpt lat="47.84059" lon="7.1454">
        <ele>785.012512207</ele>
        <time>2014-02-09T11:29:31.257Z</time>
      </trkpt>
      <trkpt lat="47.84057" lon="7.14538">
        <ele>785.20098877</ele>
        <time>2014-02-09T11:29:32.264Z</time>
      </trkpt>
      <trkpt lat="47.84051" lon="7.14529">
        <ele>786.135803223</ele>
        <time>2014-02-09T11:29:39.24Z</time>
      </trkpt>
      <trkpt lat="47.8405" lon="7.14528">
        <ele>786.367370605</ele>
        <time>2014-02-09T11:29:40.251Z</time>
      </trkpt>
      <trkpt lat="47.84044" lon="7.14518">
        <ele>788.981506348</ele>
        <time>2014-02-09T11:29:52.253Z</time>
      </trkpt>
      <trkpt lat="47.84044" lon="7.14518">
        <ele>789.143066406</ele>
        <time>2014-02-09T11:29:53.238Z</time>
      </trkpt>
      <trkpt lat="47.84041" lon="7.14507">
        <ele>791.606750488</ele>
        <time>2014-02-09T11:30:12.263Z</time>
      </trkpt>
      <trkpt lat="47.84041" lon="7.14505">
        <ele>791.610656738</ele>
        <time>2014-02-09T11:30:13.263Z</time>
      </trkpt>
      <trkpt lat="47.84037" lon="7.14493">
        <ele>792.579162598</ele>
        <time>2014-02-09T11:30:30.249Z</time>
      </trkpt>
      <trkpt lat="47.84037" lon="7.14493">
        <ele>792.600402832</ele>
        <time>2014-02-09T11:30:31.25Z</time>
      </trkpt>
      <trkpt lat="47.84035" lon="7.1448">
        <ele>795.423278809</ele>
        <time>2014-02-09T11:30:47.243Z</time>
      </trkpt>
      <trkpt lat="47.84035" lon="7.14478">
        <ele>795.684387207</ele>
        <time>2014-02-09T11:30:48.256Z</time>
      </trkpt>
      <trkpt lat="47.84035" lon="7.14466">
        <ele>798.112854004</ele>
        <time>2014-02-09T11:30:56.252Z</time>
      </trkpt>
      <trkpt lat="47.84035" lon="7.14464">
        <ele>798.356506348</ele>
        <time>2014-02-09T11:30:57.249Z</time>
      </trkpt>
      <trkpt lat="47.84036" lon="7.14453">
        <ele>799.395019531</ele>
        <time>2014-02-09T11:31:06.261Z</time>
      </trkpt>
      <trkpt lat="47.84036" lon="7.1445">
        <ele>799.616699219</ele>
        <time>2014-02-09T11:31:07.263Z</time>
      </trkpt>
      <trkpt lat="47.8404" lon="7.14443">
        <ele>800.544189453</ele>
        <time>2014-02-09T11:31:12.261Z</time>
      </trkpt>
      <trkpt lat="47.84044" lon="7.1444">
        <ele>800.768493652</ele>
        <time>2014-02-09T11:31:13.26Z</time>
      </trkpt>
      <trkpt lat="47.84047" lon="7.14427">
        <ele>802.086425781</ele>
        <time>2014-02-09T11:31:19.245Z</time>
      </trkpt>
      <trkpt lat="47.84047" lon="7.14425">
        <ele>802.270202637</ele>
        <time>2014-02-09T11:31:20.254Z</time>
      </trkpt>
      <trkpt lat="47.84049" lon="7.14413">
        <ele>803.7265625</ele>
        <time>2014-02-09T11:31:29.233Z</time>
      </trkpt>
      <trkpt lat="47.84049" lon="7.14411">
        <ele>803.751525879</ele>
        <time>2014-02-09T11:31:30.251Z</time>
      </trkpt>
      <trkpt lat="47.84056" lon="7.14404">
        <ele>804.914550781</ele>
        <time>2014-02-09T11:31:38.262Z</time>
      </trkpt>
      <trkpt lat="47.84057" lon="7.14403">
        <ele>804.926147461</ele>
        <time>2014-02-09T11:31:39.256Z</time>
      </trkpt>
      <trkpt lat="47.84065" lon="7.14396">
        <ele>805.393859863</ele>
        <time>2014-02-09T11:31:47.251Z</time>
      </trkpt>
      <trkpt lat="47.84066" lon="7.14395">
        <ele>805.402709961</ele>
        <time>2014-02-09T11:31:48.257Z</time>
      </trkpt>
      <trkpt lat="47.84071" lon="7.14384">
        <ele>805.721008301</ele>
        <time>2014-02-09T11:31:53.258Z</time>
      </trkpt>
      <trkpt lat="47.84072" lon="7.14382">
        <ele>805.768005371</ele>
        <time>2014-02-09T11:31:54.26Z</time>
      </trkpt>
      <trkpt lat="47.84078" lon="7.14372">
        <ele>806.161682129</ele>
        <time>2014-02-09T11:32:05.251Z</time>
      </trkpt>
      <trkpt lat="47.84079" lon="7.14371">
        <ele>806.168334961</ele>
        <time>2014-02-09T11:32:06.243Z</time>
      </trkpt>
      <trkpt lat="47.84085" lon="7.14364">
        <ele>806.148071289</ele>
        <time>2014-02-09T11:32:13.254Z</time>
      </trkpt>
      <trkpt lat="47.84086" lon="7.14363">
        <ele>806.159118652</ele>
        <time>2014-02-09T11:32:14.251Z</time>
      </trkpt>
      <trkpt lat="47.84092" lon="7.14354">
        <ele>806.864685059</ele>
        <time>2014-02-09T11:32:24.249Z</time>
      </trkpt>
      <trkpt lat="47.84093" lon="7.14353">
        <ele>806.93762207</ele>
        <time>2014-02-09T11:32:25.252Z</time>
      </trkpt>
      <trkpt lat="47.84101" lon="7.14346">
        <ele>807.110656738</ele>
        <time>2014-02-09T11:32:31.249Z</time>
      </trkpt>
      <trkpt lat="47.84102" lon="7.14346">
        <ele>807.182006836</ele>
        <time>2014-02-09T11:32:32.249Z</time>
      </trkpt>
      <trkpt lat="47.84109" lon="7.14337">
        <ele>807.73059082</ele>
        <time>2014-02-09T11:32:42.258Z</time>
      </trkpt>
      <trkpt lat="47.8411" lon="7.14337">
        <ele>807.686828613</ele>
        <time>2014-02-09T11:32:43.26Z</time>
      </trkpt>
      <trkpt lat="47.84118" lon="7.14331">
        <ele>806.958129883</ele>
        <time>2014-02-09T11:32:51.261Z</time>
      </trkpt>
      <trkpt lat="47.84118" lon="7.1433">
        <ele>806.952209473</ele>
        <time>2014-02-09T11:32:52.262Z</time>
      </trkpt>
      <trkpt lat="47.84125" lon="7.14322">
        <ele>806.894165039</ele>
        <time>2014-02-09T11:33:03.26Z</time>
      </trkpt>
      <trkpt lat="47.84126" lon="7.14322">
        <ele>806.890563965</ele>
        <time>2014-02-09T11:33:04.259Z</time>
      </trkpt>
      <trkpt lat="47.84132" lon="7.14312">
        <ele>807.351501465</ele>
        <time>2014-02-09T11:33:14.238Z</time>
      </trkpt>
      <trkpt lat="47.84132" lon="7.1431">
        <ele>807.41973877</ele>
        <time>2014-02-09T11:33:15.239Z</time>
      </trkpt>
      <trkpt lat="47.84137" lon="7.14299">
        <ele>808.122070312</ele>
        <time>2014-02-09T11:33:32.227Z</time>
      </trkpt>
      <trkpt lat="47.84137" lon="7.14299">
        <ele>808.074462891</ele>
        <time>2014-02-09T11:33:33.23Z</time>
      </trkpt>
      <trkpt lat="47.84144" lon="7.14294">
        <ele>807.483764648</ele>
        <time>2014-02-09T11:33:41.225Z</time>
      </trkpt>
      <trkpt lat="47.84145" lon="7.14293">
        <ele>807.460266113</ele>
        <time>2014-02-09T11:33:42.227Z</time>
      </trkpt>
      <trkpt lat="47.8415" lon="7.14283">
        <ele>806.139709473</ele>
        <time>2014-02-09T11:33:55.224Z</time>
      </trkpt>
      <trkpt lat="47.84151" lon="7.14282">
        <ele>805.862487793</ele>
        <time>2014-02-09T11:33:56.236Z</time>
      </trkpt>
      <trkpt lat="47.84156" lon="7.14275">
        <ele>807.453491211</ele>
        <time>2014-02-09T11:34:24.225Z</time>
      </trkpt>
      <trkpt lat="47.84158" lon="7.14271">
        <ele>807.478271484</ele>
        <time>2014-02-09T11:34:25.223Z</time>
      </trkpt>
      <trkpt lat="47.8416" lon="7.14264">
        <ele>807.667114258</ele>
        <time>2014-02-09T11:34:26.226Z</time>
      </trkpt>
      <trkpt lat="47.84161" lon="7.14258">
        <ele>807.681396484</ele>
        <time>2014-02-09T11:34:27.226Z</time>
      </trkpt>
      <trkpt lat="47.84169" lon="7.1425">
        <ele>807.882507324</ele>
        <time>2014-02-09T11:34:34.24Z</time>
      </trkpt>
      <trkpt lat="47.84169" lon="7.14247">
        <ele>807.89654541</ele>
        <time>2014-02-09T11:34:35.24Z</time>
      </trkpt>
      <trkpt lat="47.84175" lon="7.1424">
        <ele>808.197509766</ele>
        <time>2014-02-09T11:34:40.24Z</time>
      </trkpt>
      <trkpt lat="47.84177" lon="7.1424">
        <ele>808.214538574</ele>
        <time>2014-02-09T11:34:41.24Z</time>
      </trkpt>
      <trkpt lat="47.84185" lon="7.14235">
        <ele>808.498840332</ele>
        <time>2014-02-09T11:34:45.229Z</time>
      </trkpt>
      <trkpt lat="47.84188" lon="7.14233">
        <ele>808.507324219</ele>
        <time>2014-02-09T11:34:46.239Z</time>
      </trkpt>
      <trkpt lat="47.84196" lon="7.14231">
        <ele>808.496337891</ele>
        <time>2014-02-09T11:34:50.243Z</time>
      </trkpt>
      <trkpt lat="47.84198" lon="7.14231">
        <ele>808.51763916</ele>
        <time>2014-02-09T11:34:51.239Z</time>
      </trkpt>
      <trkpt lat="47.84206" lon="7.14229">
        <ele>807.862915039</ele>
        <time>2014-02-09T11:35:05.237Z</time>
      </trkpt>
      <trkpt lat="47.84207" lon="7.14229">
        <ele>807.719543457</ele>
        <time>2014-02-09T11:35:06.237Z</time>
      </trkpt>
      <trkpt lat="47.84213" lon="7.14219">
        <ele>807.893371582</ele>
        <time>2014-02-09T11:35:29.232Z</time>
      </trkpt>
      <trkpt lat="47.84213" lon="7.14218">
        <ele>808.284240723</ele>
        <time>2014-02-09T11:35:30.234Z</time>
      </trkpt>
      <trkpt lat="47.8422" lon="7.14211">
        <ele>810.456054688</ele>
        <time>2014-02-09T11:35:38.244Z</time>
      </trkpt>
      <trkpt lat="47.84222" lon="7.14207">
        <ele>810.491516113</ele>
        <time>2014-02-09T11:35:39.224Z</time>
      </trkpt>
      <trkpt lat="47.84227" lon="7.14202">
        <ele>810.565124512</ele>
        <time>2014-02-09T11:35:41.222Z</time>
      </trkpt>
      <trkpt lat="47.8423" lon="7.14199">
        <ele>810.603027344</ele>
        <time>2014-02-09T11:35:42.221Z</time>
      </trkpt>
      <trkpt lat="47.84232" lon="7.14194">
        <ele>811.034851074</ele>
        <time>2014-02-09T11:35:45.206Z</time>
      </trkpt>
      <trkpt lat="47.8424" lon="7.14192">
        <ele>811.449279785</ele>
        <time>2014-02-09T11:35:46.225Z</time>
      </trkpt>
      <trkpt lat="47.84247" lon="7.14186">
        <ele>813.821228027</ele>
        <time>2014-02-09T11:35:53.231Z</time>
      </trkpt>
      <trkpt lat="47.84249" lon="7.14184">
        <ele>814.148010254</ele>
        <time>2014-02-09T11:35:54.233Z</time>
      </trkpt>
      <trkpt lat="47.84254" lon="7.14174">
        <ele>814.437438965</ele>
        <time>2014-02-09T11:36:04.223Z</time>
      </trkpt>
      <trkpt lat="47.84255" lon="7.14172">
        <ele>814.554504395</ele>
        <time>2014-02-09T11:36:05.223Z</time>
      </trkpt>
      <trkpt lat="47.84261" lon="7.14165">
        <ele>815.092956543</ele>
        <time>2014-02-09T11:36:13.222Z</time>
      </trkpt>
      <trkpt lat="47.84262" lon="7.14164">
        <ele>815.154968262</ele>
        <time>2014-02-09T11:36:14.236Z</time>
      </trkpt>
      <trkpt lat="47.84268" lon="7.14156">
        <ele>815.334716797</ele>
        <time>2014-02-09T11:36:26.233Z</time>
      </trkpt>
      <trkpt lat="47.84269" lon="7.14155">
        <ele>815.377319336</ele>
        <time>2014-02-09T11:36:27.218Z</time>
      </trkpt>
      <trkpt lat="47.84274" lon="7.14145">
        <ele>814.454833984</ele>
        <time>2014-02-09T11:36:36.233Z</time>
      </trkpt>
      <trkpt lat="47.84274" lon="7.14144">
        <ele>814.249084473</ele>
        <time>2014-02-09T11:36:37.233Z</time>
      </trkpt>
      <trkpt lat="47.84279" lon="7.14136">
        <ele>814.720458984</ele>
        <time>2014-02-09T11:36:59.213Z</time>
      </trkpt>
      <trkpt lat="47.8428" lon="7.14133">
        <ele>814.882263184</ele>
        <time>2014-02-09T11:37:00.21Z</time>
      </trkpt>
      <trkpt lat="47.84286" lon="7.14125">
        <ele>816.393859863</ele>
        <time>2014-02-09T11:37:10.228Z</time>
      </trkpt>
      <trkpt lat="47.84287" lon="7.14123">
        <ele>816.454650879</ele>
        <time>2014-02-09T11:37:11.229Z</time>
      </trkpt>
      <trkpt lat="47.84293" lon="7.14118">
        <ele>816.706420898</ele>
        <time>2014-02-09T11:37:14.232Z</time>
      </trkpt>
      <trkpt lat="47.84295" lon="7.14116">
        <ele>816.773254395</ele>
        <time>2014-02-09T11:37:15.237Z</time>
      </trkpt>
      <trkpt lat="47.84301" lon="7.1411">
        <ele>816.93157959</ele>
        <time>2014-02-09T11:37:19.238Z</time>
      </trkpt>
      <trkpt lat="47.84303" lon="7.14109">
        <ele>816.971252441</ele>
        <time>2014-02-09T11:37:20.241Z</time>
      </trkpt>
      <trkpt lat="47.8431" lon="7.14102">
        <ele>817.261962891</ele>
        <time>2014-02-09T11:37:30.245Z</time>
      </trkpt>
      <trkpt lat="47.84312" lon="7.14102">
        <ele>817.238830566</ele>
        <time>2014-02-09T11:37:31.241Z</time>
      </trkpt>
      <trkpt lat="47.8432" lon="7.14102">
        <ele>817.257568359</ele>
        <time>2014-02-09T11:37:37.24Z</time>
      </trkpt>
      <trkpt lat="47.84321" lon="7.14102">
        <ele>817.22064209</ele>
        <time>2014-02-09T11:37:38.252Z</time>
      </trkpt>
      <trkpt lat="47.84329" lon="7.141">
        <ele>817.067382812</ele>
        <time>2014-02-09T11:37:49.229Z</time>
      </trkpt>
      <trkpt lat="47.8433" lon="7.14099">
        <ele>817.057128906</ele>
        <time>2014-02-09T11:37:50.233Z</time>
      </trkpt>
      <trkpt lat="47.84337" lon="7.14094">
        <ele>817.089782715</ele>
        <time>2014-02-09T11:37:57.215Z</time>
      </trkpt>
      <trkpt lat="47.84338" lon="7.14094">
        <ele>817.043334961</ele>
        <time>2014-02-09T11:37:58.222Z</time>
      </trkpt>
      <trkpt lat="47.84347" lon="7.14089">
        <ele>817.282775879</ele>
        <time>2014-02-09T11:38:07.219Z</time>
      </trkpt>
      <trkpt lat="47.84347" lon="7.14089">
        <ele>817.289855957</ele>
        <time>2014-02-09T11:38:08.231Z</time>
      </trkpt>
      <trkpt lat="47.84356" lon="7.1409">
        <ele>817.629577637</ele>
        <time>2014-02-09T11:38:25.218Z</time>
      </trkpt>
      <trkpt lat="47.84356" lon="7.1409">
        <ele>817.628479004</ele>
        <time>2014-02-09T11:38:26.217Z</time>
      </trkpt>
      <trkpt lat="47.84365" lon="7.14089">
        <ele>817.386108398</ele>
        <time>2014-02-09T11:38:35.227Z</time>
      </trkpt>
      <trkpt lat="47.84365" lon="7.14089">
        <ele>817.375671387</ele>
        <time>2014-02-09T11:38:36.226Z</time>
      </trkpt>
      <trkpt lat="47.84373" lon="7.14088">
        <ele>816.365905762</ele>
        <time>2014-02-09T11:38:47.222Z</time>
      </trkpt>
      <trkpt lat="47.84375" lon="7.14087">
        <ele>816.240112305</ele>
        <time>2014-02-09T11:38:48.226Z</time>
      </trkpt>
      <trkpt lat="47.84383" lon="7.14087">
        <ele>815.950561523</ele>
        <time>2014-02-09T11:38:51.231Z</time>
      </trkpt>
      <trkpt lat="47.84386" lon="7.14087">
        <ele>815.961914062</ele>
        <time>2014-02-09T11:38:52.231Z</time>
      </trkpt>
      <trkpt lat="47.84393" lon="7.14087">
        <ele>816.321960449</ele>
        <time>2014-02-09T11:38:58.238Z</time>
      </trkpt>
      <trkpt lat="47.84395" lon="7.14087">
        <ele>816.565917969</ele>
        <time>2014-02-09T11:38:59.21Z</time>
      </trkpt>
      <trkpt lat="47.84404" lon="7.14088">
        <ele>817.532165527</ele>
        <time>2014-02-09T11:39:04.221Z</time>
      </trkpt>
      <trkpt lat="47.84404" lon="7.14087">
        <ele>817.551025391</ele>
        <time>2014-02-09T11:39:05.22Z</time>
      </trkpt>
      <trkpt lat="47.84412" lon="7.14086">
        <ele>818.773803711</ele>
        <time>2014-02-09T11:39:13.222Z</time>
      </trkpt>
      <trkpt lat="47.84413" lon="7.14086">
        <ele>818.965942383</ele>
        <time>2014-02-09T11:39:14.221Z</time>
      </trkpt>
      <trkpt lat="47.84421" lon="7.14083">
        <ele>820.90423584</ele>
        <time>2014-02-09T11:39:33.215Z</time>
      </trkpt>
      <trkpt lat="47.84422" lon="7.14083">
        <ele>821.192749023</ele>
        <time>2014-02-09T11:39:34.217Z</time>
      </trkpt>
      <trkpt lat="47.8443" lon="7.14081">
        <ele>821.573059082</ele>
        <time>2014-02-09T11:39:42.214Z</time>
      </trkpt>
      <trkpt lat="47.84432" lon="7.14082">
        <ele>821.677368164</ele>
        <time>2014-02-09T11:39:43.225Z</time>
      </trkpt>
      <trkpt lat="47.8444" lon="7.14086">
        <ele>823.388183594</ele>
        <time>2014-02-09T11:39:55.22Z</time>
      </trkpt>
      <trkpt lat="47.84441" lon="7.14086">
        <ele>823.775268555</ele>
        <time>2014-02-09T11:39:56.216Z</time>
      </trkpt>
      <trkpt lat="47.84449" lon="7.14089">
        <ele>828.301147461</ele>
        <time>2014-02-09T11:40:12.216Z</time>
      </trkpt>
      <trkpt lat="47.84451" lon="7.1409">
        <ele>828.606323242</ele>
        <time>2014-02-09T11:40:13.215Z</time>
      </trkpt>
      <trkpt lat="47.84453" lon="7.14077">
        <ele>831.631530762</ele>
        <time>2014-02-09T11:40:28.22Z</time>
      </trkpt>
      <trkpt lat="47.84453" lon="7.14076">
        <ele>831.741455078</ele>
        <time>2014-02-09T11:40:29.215Z</time>
      </trkpt>
      <trkpt lat="47.84449" lon="7.14064">
        <ele>832.182861328</ele>
        <time>2014-02-09T11:40:44.217Z</time>
      </trkpt>
      <trkpt lat="47.84449" lon="7.14063">
        <ele>832.170959473</ele>
        <time>2014-02-09T11:40:45.229Z</time>
      </trkpt>
      <trkpt lat="47.8445" lon="7.14051">
        <ele>832.509094238</ele>
        <time>2014-02-09T11:41:04.207Z</time>
      </trkpt>
      <trkpt lat="47.84451" lon="7.1405">
        <ele>832.586547852</ele>
        <time>2014-02-09T11:41:05.219Z</time>
      </trkpt>
      <trkpt lat="47.84448" lon="7.14038">
        <ele>832.835632324</ele>
        <time>2014-02-09T11:41:10.211Z</time>
      </trkpt>
      <trkpt lat="47.84447" lon="7.14036">
        <ele>832.805908203</ele>
        <time>2014-02-09T11:41:11.214Z</time>
      </trkpt>
      <trkpt lat="47.84442" lon="7.14024">
        <ele>831.942016602</ele>
        <time>2014-02-09T11:41:20.217Z</time>
      </trkpt>
      <trkpt lat="47.84442" lon="7.14023">
        <ele>831.980529785</ele>
        <time>2014-02-09T11:41:21.217Z</time>
      </trkpt>
      <trkpt lat="47.8445" lon="7.1402">
        <ele>832.287353516</ele>
        <time>2014-02-09T11:41:27.216Z</time>
      </trkpt>
      <trkpt lat="47.84452" lon="7.1402">
        <ele>832.296569824</ele>
        <time>2014-02-09T11:41:28.221Z</time>
      </trkpt>
      <trkpt lat="47.84452" lon="7.14009">
        <ele>832.070068359</ele>
        <time>2014-02-09T11:41:35.223Z</time>
      </trkpt>
      <trkpt lat="47.84453" lon="7.14006">
        <ele>831.973632812</ele>
        <time>2014-02-09T11:41:36.216Z</time>
      </trkpt>
      <trkpt lat="47.84457" lon="7.13999">
        <ele>831.778747559</ele>
        <time>2014-02-09T11:41:38.225Z</time>
      </trkpt>
      <trkpt lat="47.84458" lon="7.13994">
        <ele>831.694396973</ele>
        <time>2014-02-09T11:41:39.215Z</time>
      </trkpt>
      <trkpt lat="47.8446" lon="7.13985">
        <ele>831.674316406</ele>
        <time>2014-02-09T11:41:41.221Z</time>
      </trkpt>
      <trkpt lat="47.8446" lon="7.1398">
        <ele>831.657775879</ele>
        <time>2014-02-09T11:41:42.217Z</time>
      </trkpt>
      <trkpt lat="47.84459" lon="7.13968">
        <ele>832.301635742</ele>
        <time>2014-02-09T11:41:50.211Z</time>
      </trkpt>
      <trkpt lat="47.8446" lon="7.13964">
        <ele>832.40612793</ele>
        <time>2014-02-09T11:41:51.212Z</time>
      </trkpt>
      <trkpt lat="47.84464" lon="7.13954">
        <ele>832.647277832</ele>
        <time>2014-02-09T11:41:54.213Z</time>
      </trkpt>
      <trkpt lat="47.84464" lon="7.13952">
        <ele>832.65423584</ele>
        <time>2014-02-09T11:41:55.215Z</time>
      </trkpt>
      <trkpt lat="47.84467" lon="7.13943">
        <ele>834.258911133</ele>
        <time>2014-02-09T11:42:05.215Z</time>
      </trkpt>
      <trkpt lat="47.84466" lon="7.13939">
        <ele>834.309204102</ele>
        <time>2014-02-09T11:42:06.196Z</time>
      </trkpt>
      <trkpt lat="47.84469" lon="7.13926">
        <ele>834.959533691</ele>
        <time>2014-02-09T11:42:14.212Z</time>
      </trkpt>
      <trkpt lat="47.84471" lon="7.13921">
        <ele>835.217102051</ele>
        <time>2014-02-09T11:42:15.21Z</time>
      </trkpt>
      <trkpt lat="47.84477" lon="7.13915">
        <ele>835.633605957</ele>
        <time>2014-02-09T11:42:17.211Z</time>
      </trkpt>
      <trkpt lat="47.8448" lon="7.13912">
        <ele>835.644042969</ele>
        <time>2014-02-09T11:42:18.22Z</time>
      </trkpt>
      <trkpt lat="47.84486" lon="7.13903">
        <ele>835.522583008</ele>
        <time>2014-02-09T11:42:25.215Z</time>
      </trkpt>
      <trkpt lat="47.84488" lon="7.13903">
        <ele>835.531005859</ele>
        <time>2014-02-09T11:42:26.216Z</time>
      </trkpt>
      <trkpt lat="47.84495" lon="7.13896">
        <ele>835.598937988</ele>
        <time>2014-02-09T11:42:32.218Z</time>
      </trkpt>
      <trkpt lat="47.84497" lon="7.13896">
        <ele>835.610961914</ele>
        <time>2014-02-09T11:42:33.225Z</time>
      </trkpt>
      <trkpt lat="47.84505" lon="7.13894">
        <ele>836.893310547</ele>
        <time>2014-02-09T11:42:42.217Z</time>
      </trkpt>
      <trkpt lat="47.84506" lon="7.13893">
        <ele>837.247009277</ele>
        <time>2014-02-09T11:42:43.214Z</time>
      </trkpt>
      <trkpt lat="47.84515" lon="7.13895">
        <ele>838.647827148</ele>
        <time>2014-02-09T11:42:54.206Z</time>
      </trkpt>
      <trkpt lat="47.84515" lon="7.13895">
        <ele>839.010681152</ele>
        <time>2014-02-09T11:42:55.21Z</time>
      </trkpt>
      <trkpt lat="47.84522" lon="7.13888">
        <ele>846.291992188</ele>
        <time>2014-02-09T11:43:25.216Z</time>
      </trkpt>
      <trkpt lat="47.84522" lon="7.13887">
        <ele>846.693115234</ele>
        <time>2014-02-09T11:43:26.215Z</time>
      </trkpt>
      <trkpt lat="47.8453" lon="7.13881">
        <ele>846.446472168</ele>
        <time>2014-02-09T11:43:37.216Z</time>
      </trkpt>
      <trkpt lat="47.84532" lon="7.1388">
        <ele>846.143493652</ele>
        <time>2014-02-09T11:43:38.238Z</time>
      </trkpt>
      <trkpt lat="47.84539" lon="7.13874">
        <ele>846.794616699</ele>
        <time>2014-02-09T11:43:51.192Z</time>
      </trkpt>
      <trkpt lat="47.84539" lon="7.13873">
        <ele>847.260620117</ele>
        <time>2014-02-09T11:43:52.2Z</time>
      </trkpt>
      <trkpt lat="47.84548" lon="7.13874">
        <ele>850.63494873</ele>
        <time>2014-02-09T11:44:03.199Z</time>
      </trkpt>
      <trkpt lat="47.84549" lon="7.13873">
        <ele>850.911987305</ele>
        <time>2014-02-09T11:44:04.204Z</time>
      </trkpt>
      <trkpt lat="47.84556" lon="7.13877">
        <ele>851.50390625</ele>
        <time>2014-02-09T11:44:08.207Z</time>
      </trkpt>
      <trkpt lat="47.84558" lon="7.13876">
        <ele>851.507629395</ele>
        <time>2014-02-09T11:44:09.197Z</time>
      </trkpt>
      <trkpt lat="47.84566" lon="7.13871">
        <ele>851.422119141</ele>
        <time>2014-02-09T11:44:18.221Z</time>
      </trkpt>
      <trkpt lat="47.84567" lon="7.13871">
        <ele>851.422302246</ele>
        <time>2014-02-09T11:44:19.216Z</time>
      </trkpt>
      <trkpt lat="47.84575" lon="7.13869">
        <ele>853.122924805</ele>
        <time>2014-02-09T11:44:33.233Z</time>
      </trkpt>
      <trkpt lat="47.84577" lon="7.13869">
        <ele>853.349731445</ele>
        <time>2014-02-09T11:44:34.213Z</time>
      </trkpt>
      <trkpt lat="47.84575" lon="7.13882">
        <ele>859.066894531</ele>
        <time>2014-02-09T11:45:03.205Z</time>
      </trkpt>
      <trkpt lat="47.84576" lon="7.13884">
        <ele>859.124145508</ele>
        <time>2014-02-09T11:45:04.205Z</time>
      </trkpt>
      <trkpt lat="47.84582" lon="7.13892">
        <ele>860.180480957</ele>
        <time>2014-02-09T11:45:13.207Z</time>
      </trkpt>
      <trkpt lat="47.84584" lon="7.13893">
        <ele>860.329040527</ele>
        <time>2014-02-09T11:45:14.207Z</time>
      </trkpt>
      <trkpt lat="47.84591" lon="7.139">
        <ele>860.545837402</ele>
        <time>2014-02-09T11:45:21.205Z</time>
      </trkpt>
      <trkpt lat="47.84592" lon="7.13902">
        <ele>860.745727539</ele>
        <time>2014-02-09T11:45:22.191Z</time>
      </trkpt>
      <trkpt lat="47.84595" lon="7.13913">
        <ele>861.843383789</ele>
        <time>2014-02-09T11:45:31.212Z</time>
      </trkpt>
      <trkpt lat="47.84595" lon="7.13915">
        <ele>861.851135254</ele>
        <time>2014-02-09T11:45:32.211Z</time>
      </trkpt>
      <trkpt lat="47.84597" lon="7.13926">
        <ele>861.868591309</ele>
        <time>2014-02-09T11:45:38.212Z</time>
      </trkpt>
      <trkpt lat="47.84597" lon="7.13928">
        <ele>861.787963867</ele>
        <time>2014-02-09T11:45:39.205Z</time>
      </trkpt>
      <trkpt lat="47.84604" lon="7.13937">
        <ele>862.019226074</ele>
        <time>2014-02-09T11:45:46.212Z</time>
      </trkpt>
      <trkpt lat="47.84605" lon="7.13938">
        <ele>862.180786133</ele>
        <time>2014-02-09T11:45:47.209Z</time>
      </trkpt>
      <trkpt lat="47.84608" lon="7.13949">
        <ele>864.578552246</ele>
        <time>2014-02-09T11:45:54.204Z</time>
      </trkpt>
      <trkpt lat="47.84608" lon="7.13951">
        <ele>865.006225586</ele>
        <time>2014-02-09T11:45:55.208Z</time>
      </trkpt>
      <trkpt lat="47.84609" lon="7.13965">
        <ele>869.042785645</ele>
        <time>2014-02-09T11:46:07.214Z</time>
      </trkpt>
      <trkpt lat="47.84609" lon="7.13966">
        <ele>869.255065918</ele>
        <time>2014-02-09T11:46:08.222Z</time>
      </trkpt>
      <trkpt lat="47.84605" lon="7.13977">
        <ele>871.173217773</ele>
        <time>2014-02-09T11:46:17.208Z</time>
      </trkpt>
      <trkpt lat="47.84604" lon="7.13978">
        <ele>871.196472168</ele>
        <time>2014-02-09T11:46:18.212Z</time>
      </trkpt>
      <trkpt lat="47.846" lon="7.13988">
        <ele>872.111022949</ele>
        <time>2014-02-09T11:46:23.207Z</time>
      </trkpt>
      <trkpt lat="47.84599" lon="7.1399">
        <ele>872.464416504</ele>
        <time>2014-02-09T11:46:24.208Z</time>
      </trkpt>
      <trkpt lat="47.84595" lon="7.14">
        <ele>873.827880859</ele>
        <time>2014-02-09T11:46:29.207Z</time>
      </trkpt>
      <trkpt lat="47.84594" lon="7.14002">
        <ele>873.997131348</ele>
        <time>2014-02-09T11:46:30.22Z</time>
      </trkpt>
      <trkpt lat="47.8459" lon="7.14012">
        <ele>874.430664062</ele>
        <time>2014-02-09T11:46:35.204Z</time>
      </trkpt>
      <trkpt lat="47.84589" lon="7.14014">
        <ele>874.51550293</ele>
        <time>2014-02-09T11:46:36.202Z</time>
      </trkpt>
      <trkpt lat="47.84584" lon="7.14025">
        <ele>874.682617188</ele>
        <time>2014-02-09T11:46:48.207Z</time>
      </trkpt>
      <trkpt lat="47.84583" lon="7.14026">
        <ele>874.641357422</ele>
        <time>2014-02-09T11:46:49.207Z</time>
      </trkpt>
      <trkpt lat="47.84582" lon="7.14038">
        <ele>874.141052246</ele>
        <time>2014-02-09T11:46:58.207Z</time>
      </trkpt>
      <trkpt lat="47.84582" lon="7.14039">
        <ele>874.074279785</ele>
        <time>2014-02-09T11:46:59.203Z</time>
      </trkpt>
      <trkpt lat="47.84581" lon="7.14051">
        <ele>873.9765625</ele>
        <time>2014-02-09T11:47:12.205Z</time>
      </trkpt>
      <trkpt lat="47.84581" lon="7.14053">
        <ele>874.081726074</ele>
        <time>2014-02-09T11:47:13.208Z</time>
      </trkpt>
      <trkpt lat="47.84581" lon="7.14065">
        <ele>874.910888672</ele>
        <time>2014-02-09T11:47:20.202Z</time>
      </trkpt>
      <trkpt lat="47.84581" lon="7.14067">
        <ele>875.156799316</ele>
        <time>2014-02-09T11:47:21.206Z</time>
      </trkpt>
      <trkpt lat="47.84583" lon="7.14078">
        <ele>877.509887695</ele>
        <time>2014-02-09T11:47:30.209Z</time>
      </trkpt>
      <trkpt lat="47.84583" lon="7.1408">
        <ele>877.766845703</ele>
        <time>2014-02-09T11:47:31.191Z</time>
      </trkpt>
      <trkpt lat="47.84582" lon="7.14092">
        <ele>879.612182617</ele>
        <time>2014-02-09T11:47:38.214Z</time>
      </trkpt>
      <trkpt lat="47.84582" lon="7.14094">
        <ele>879.781799316</ele>
        <time>2014-02-09T11:47:39.212Z</time>
      </trkpt>
      <trkpt lat="47.84581" lon="7.14107">
        <ele>880.629577637</ele>
        <time>2014-02-09T11:47:46.209Z</time>
      </trkpt>
      <trkpt lat="47.84581" lon="7.14108">
        <ele>880.667053223</ele>
        <time>2014-02-09T11:47:47.206Z</time>
      </trkpt>
      <trkpt lat="47.84581" lon="7.14119">
        <ele>881.433349609</ele>
        <time>2014-02-09T11:47:54.211Z</time>
      </trkpt>
      <trkpt lat="47.8458" lon="7.14122">
        <ele>881.622802734</ele>
        <time>2014-02-09T11:47:55.209Z</time>
      </trkpt>
      <trkpt lat="47.84579" lon="7.14134">
        <ele>883.594421387</ele>
        <time>2014-02-09T11:48:05.22Z</time>
      </trkpt>
      <trkpt lat="47.84579" lon="7.14136">
        <ele>883.795349121</ele>
        <time>2014-02-09T11:48:06.221Z</time>
      </trkpt>
      <trkpt lat="47.84578" lon="7.14148">
        <ele>885.275634766</ele>
        <time>2014-02-09T11:48:13.219Z</time>
      </trkpt>
      <trkpt lat="47.84578" lon="7.14149">
        <ele>885.506958008</ele>
        <time>2014-02-09T11:48:14.216Z</time>
      </trkpt>
      <trkpt lat="47.84577" lon="7.1416">
        <ele>886.330871582</ele>
        <time>2014-02-09T11:48:20.217Z</time>
      </trkpt>
      <trkpt lat="47.84577" lon="7.14162">
        <ele>886.416015625</ele>
        <time>2014-02-09T11:48:21.216Z</time>
      </trkpt>
      <trkpt lat="47.84575" lon="7.14175">
        <ele>887.016113281</ele>
        <time>2014-02-09T11:48:27.217Z</time>
      </trkpt>
      <trkpt lat="47.84575" lon="7.14176">
        <ele>887.14831543</ele>
        <time>2014-02-09T11:48:28.227Z</time>
      </trkpt>
      <trkpt lat="47.84573" lon="7.14189">
        <ele>887.686706543</ele>
        <time>2014-02-09T11:48:34.219Z</time>
      </trkpt>
      <trkpt lat="47.84573" lon="7.14191">
        <ele>887.711853027</ele>
        <time>2014-02-09T11:48:35.215Z</time>
      </trkpt>
      <trkpt lat="47.8457" lon="7.14203">
        <ele>887.767456055</ele>
        <time>2014-02-09T11:48:42.222Z</time>
      </trkpt>
      <trkpt lat="47.8457" lon="7.14206">
        <ele>887.772033691</ele>
        <time>2014-02-09T11:48:43.217Z</time>
      </trkpt>
      <trkpt lat="47.84567" lon="7.14218">
        <ele>887.76348877</ele>
        <time>2014-02-09T11:48:51.217Z</time>
      </trkpt>
      <trkpt lat="47.84567" lon="7.14219">
        <ele>887.761047363</ele>
        <time>2014-02-09T11:48:52.221Z</time>
      </trkpt>
      <trkpt lat="47.84563" lon="7.1423">
        <ele>888.168151855</ele>
        <time>2014-02-09T11:49:04.219Z</time>
      </trkpt>
      <trkpt lat="47.84562" lon="7.14231">
        <ele>888.264648438</ele>
        <time>2014-02-09T11:49:05.218Z</time>
      </trkpt>
      <trkpt lat="47.84559" lon="7.14244">
        <ele>889.409423828</ele>
        <time>2014-02-09T11:49:13.218Z</time>
      </trkpt>
      <trkpt lat="47.84559" lon="7.14245">
        <ele>889.506286621</ele>
        <time>2014-02-09T11:49:14.217Z</time>
      </trkpt>
      <trkpt lat="47.84555" lon="7.14257">
        <ele>890.275939941</ele>
        <time>2014-02-09T11:49:22.226Z</time>
      </trkpt>
      <trkpt lat="47.84554" lon="7.14258">
        <ele>890.355651855</ele>
        <time>2014-02-09T11:49:23.225Z</time>
      </trkpt>
      <trkpt lat="47.84553" lon="7.1427">
        <ele>891.220153809</ele>
        <time>2014-02-09T11:49:34.216Z</time>
      </trkpt>
      <trkpt lat="47.84553" lon="7.14271">
        <ele>891.374694824</ele>
        <time>2014-02-09T11:49:35.228Z</time>
      </trkpt>
      <trkpt lat="47.84552" lon="7.14284">
        <ele>891.983764648</ele>
        <time>2014-02-09T11:49:48.229Z</time>
      </trkpt>
      <trkpt lat="47.84552" lon="7.14285">
        <ele>891.938476562</ele>
        <time>2014-02-09T11:49:49.225Z</time>
      </trkpt>
      <trkpt lat="47.84547" lon="7.14296">
        <ele>891.914123535</ele>
        <time>2014-02-09T11:50:15.225Z</time>
      </trkpt>
      <trkpt lat="47.84546" lon="7.14296">
        <ele>891.912231445</ele>
        <time>2014-02-09T11:50:16.225Z</time>
      </trkpt>
      <trkpt lat="47.84539" lon="7.14304">
        <ele>890.010009766</ele>
        <time>2014-02-09T11:51:06.217Z</time>
      </trkpt>
      <trkpt lat="47.84538" lon="7.14304">
        <ele>889.964599609</ele>
        <time>2014-02-09T11:51:07.216Z</time>
      </trkpt>
      <trkpt lat="47.84545" lon="7.14297">
        <ele>889.340515137</ele>
        <time>2014-02-09T11:51:51.214Z</time>
      </trkpt>
      <trkpt lat="47.84547" lon="7.14296">
        <ele>889.358459473</ele>
        <time>2014-02-09T11:51:52.222Z</time>
      </trkpt>
      <trkpt lat="47.84554" lon="7.14292">
        <ele>889.267700195</ele>
        <time>2014-02-09T11:51:59.223Z</time>
      </trkpt>
      <trkpt lat="47.84555" lon="7.14292">
        <ele>889.274291992</ele>
        <time>2014-02-09T11:52:00.209Z</time>
      </trkpt>
      <trkpt lat="47.84563" lon="7.14285">
        <ele>889.947509766</ele>
        <time>2014-02-09T11:52:14.223Z</time>
      </trkpt>
      <trkpt lat="47.84563" lon="7.14284">
        <ele>890.124633789</ele>
        <time>2014-02-09T11:52:15.221Z</time>
      </trkpt>
      <trkpt lat="47.84568" lon="7.14274">
        <ele>892.334777832</ele>
        <time>2014-02-09T11:52:25.221Z</time>
      </trkpt>
      <trkpt lat="47.84569" lon="7.14273">
        <ele>892.502197266</ele>
        <time>2014-02-09T11:52:26.22Z</time>
      </trkpt>
      <trkpt lat="47.84577" lon="7.14268">
        <ele>893.421325684</ele>
        <time>2014-02-09T11:52:32.223Z</time>
      </trkpt>
      <trkpt lat="47.84578" lon="7.14267">
        <ele>893.656799316</ele>
        <time>2014-02-09T11:52:33.219Z</time>
      </trkpt>
      <trkpt lat="47.84585" lon="7.14262">
        <ele>895.197509766</ele>
        <time>2014-02-09T11:52:42.22Z</time>
      </trkpt>
      <trkpt lat="47.84586" lon="7.14261">
        <ele>895.381225586</ele>
        <time>2014-02-09T11:52:43.219Z</time>
      </trkpt>
      <trkpt lat="47.84595" lon="7.1426">
        <ele>896.274902344</ele>
        <time>2014-02-09T11:52:52.218Z</time>
      </trkpt>
      <trkpt lat="47.84598" lon="7.14261">
        <ele>896.37310791</ele>
        <time>2014-02-09T11:52:53.22Z</time>
      </trkpt>
      <trkpt lat="47.84606" lon="7.14257">
        <ele>898.376586914</ele>
        <time>2014-02-09T11:53:04.226Z</time>
      </trkpt>
      <trkpt lat="47.84607" lon="7.14256">
        <ele>898.523925781</ele>
        <time>2014-02-09T11:53:05.211Z</time>
      </trkpt>
      <trkpt lat="47.84614" lon="7.14249">
        <ele>901.039978027</ele>
        <time>2014-02-09T11:53:18.225Z</time>
      </trkpt>
      <trkpt lat="47.84614" lon="7.14249">
        <ele>901.284484863</ele>
        <time>2014-02-09T11:53:19.21Z</time>
      </trkpt>
      <trkpt lat="47.84622" lon="7.14244">
        <ele>904.005126953</ele>
        <time>2014-02-09T11:55:01.203Z</time>
      </trkpt>
      <trkpt lat="47.84623" lon="7.14244">
        <ele>904.015319824</ele>
        <time>2014-02-09T11:55:02.216Z</time>
      </trkpt>
      <trkpt lat="47.8463" lon="7.14248">
        <ele>904.226318359</ele>
        <time>2014-02-09T11:55:09.221Z</time>
      </trkpt>
      <trkpt lat="47.84631" lon="7.14249">
        <ele>904.26776123</ele>
        <time>2014-02-09T11:55:10.217Z</time>
      </trkpt>
      <trkpt lat="47.84639" lon="7.14244">
        <ele>905.538574219</ele>
        <time>2014-02-09T11:55:21.225Z</time>
      </trkpt>
      <trkpt lat="47.8464" lon="7.14244">
        <ele>905.581726074</ele>
        <time>2014-02-09T11:55:22.221Z</time>
      </trkpt>
      <trkpt lat="47.84647" lon="7.14251">
        <ele>905.543701172</ele>
        <time>2014-02-09T11:55:35.225Z</time>
      </trkpt>
      <trkpt lat="47.84648" lon="7.14253">
        <ele>905.581542969</ele>
        <time>2014-02-09T11:55:36.219Z</time>
      </trkpt>
      <trkpt lat="47.84656" lon="7.14252">
        <ele>906.374572754</ele>
        <time>2014-02-09T11:55:44.217Z</time>
      </trkpt>
      <trkpt lat="47.84657" lon="7.14252">
        <ele>906.443786621</ele>
        <time>2014-02-09T11:55:45.22Z</time>
      </trkpt>
      <trkpt lat="47.84664" lon="7.14244">
        <ele>907.61895752</ele>
        <time>2014-02-09T11:56:18.208Z</time>
      </trkpt>
      <trkpt lat="47.84664" lon="7.14243">
        <ele>907.794372559</ele>
        <time>2014-02-09T11:56:19.218Z</time>
      </trkpt>
      <trkpt lat="47.84671" lon="7.1424">
        <ele>912.775024414</ele>
        <time>2014-02-09T11:56:36.217Z</time>
      </trkpt>
      <trkpt lat="47.84673" lon="7.1424">
        <ele>913.034240723</ele>
        <time>2014-02-09T11:56:37.203Z</time>
      </trkpt>
      <trkpt lat="47.84681" lon="7.14237">
        <ele>915.777404785</ele>
        <time>2014-02-09T11:56:57.215Z</time>
      </trkpt>
      <trkpt lat="47.84681" lon="7.14237">
        <ele>915.850891113</ele>
        <time>2014-02-09T11:56:58.216Z</time>
      </trkpt>
      <trkpt lat="47.84685" lon="7.14226">
        <ele>917.510864258</ele>
        <time>2014-02-09T11:57:16.213Z</time>
      </trkpt>
      <trkpt lat="47.84686" lon="7.14224">
        <ele>917.586242676</ele>
        <time>2014-02-09T11:57:17.214Z</time>
      </trkpt>
      <trkpt lat="47.84694" lon="7.14227">
        <ele>918.867736816</ele>
        <time>2014-02-09T11:57:28.221Z</time>
      </trkpt>
      <trkpt lat="47.84695" lon="7.14228">
        <ele>918.973205566</ele>
        <time>2014-02-09T11:57:29.201Z</time>
      </trkpt>
      <trkpt lat="47.84701" lon="7.14219">
        <ele>924.16986084</ele>
        <time>2014-02-09T11:57:56.205Z</time>
      </trkpt>
      <trkpt lat="47.84702" lon="7.14219">
        <ele>924.089294434</ele>
        <time>2014-02-09T11:57:57.218Z</time>
      </trkpt>
      <trkpt lat="47.84709" lon="7.14211">
        <ele>924.391723633</ele>
        <time>2014-02-09T11:58:20.203Z</time>
      </trkpt>
      <trkpt lat="47.8471" lon="7.14211">
        <ele>924.576416016</ele>
        <time>2014-02-09T11:58:21.195Z</time>
      </trkpt>
      <trkpt lat="47.84719" lon="7.14213">
        <ele>925.95880127</ele>
        <time>2014-02-09T11:58:31.204Z</time>
      </trkpt>
      <trkpt lat="47.8472" lon="7.14213">
        <ele>926.01776123</ele>
        <time>2014-02-09T11:58:32.21Z</time>
      </trkpt>
      <trkpt lat="47.84728" lon="7.14215">
        <ele>927.175231934</ele>
        <time>2014-02-09T11:58:43.208Z</time>
      </trkpt>
      <trkpt lat="47.84729" lon="7.14216">
        <ele>927.187561035</ele>
        <time>2014-02-09T11:58:44.214Z</time>
      </trkpt>
      <trkpt lat="47.84737" lon="7.1422">
        <ele>927.766601562</ele>
        <time>2014-02-09T11:58:52.213Z</time>
      </trkpt>
      <trkpt lat="47.84738" lon="7.14219">
        <ele>927.886901855</ele>
        <time>2014-02-09T11:58:53.212Z</time>
      </trkpt>
      <trkpt lat="47.84745" lon="7.14225">
        <ele>928.705993652</ele>
        <time>2014-02-09T11:59:05.21Z</time>
      </trkpt>
      <trkpt lat="47.84746" lon="7.14226">
        <ele>928.755249023</ele>
        <time>2014-02-09T11:59:06.209Z</time>
      </trkpt>
      <trkpt lat="47.84752" lon="7.14235">
        <ele>929.933654785</ele>
        <time>2014-02-09T11:59:17.21Z</time>
      </trkpt>
      <trkpt lat="47.84752" lon="7.14236">
        <ele>930.075744629</ele>
        <time>2014-02-09T11:59:18.213Z</time>
      </trkpt>
      <trkpt lat="47.84758" lon="7.14244">
        <ele>931.462463379</ele>
        <time>2014-02-09T11:59:28.214Z</time>
      </trkpt>
      <trkpt lat="47.84758" lon="7.14245">
        <ele>931.658691406</ele>
        <time>2014-02-09T11:59:29.213Z</time>
      </trkpt>
      <trkpt lat="47.84765" lon="7.14251">
        <ele>935.457275391</ele>
        <time>2014-02-09T11:59:39.209Z</time>
      </trkpt>
      <trkpt lat="47.84766" lon="7.14252">
        <ele>935.880493164</ele>
        <time>2014-02-09T11:59:40.209Z</time>
      </trkpt>
      <trkpt lat="47.84772" lon="7.14259">
        <ele>937.92175293</ele>
        <time>2014-02-09T11:59:46.207Z</time>
      </trkpt>
      <trkpt lat="47.84774" lon="7.14261">
        <ele>938.153625488</ele>
        <time>2014-02-09T11:59:47.208Z</time>
      </trkpt>
      <trkpt lat="47.8478" lon="7.14267">
        <ele>938.810791016</ele>
        <time>2014-02-09T11:59:53.21Z</time>
      </trkpt>
      <trkpt lat="47.84781" lon="7.14268">
        <ele>938.831176758</ele>
        <time>2014-02-09T11:59:54.2Z</time>
      </trkpt>
      <trkpt lat="47.84788" lon="7.14276">
        <ele>940.673583984</ele>
        <time>2014-02-09T12:00:07.199Z</time>
      </trkpt>
      <trkpt lat="47.84788" lon="7.14277">
        <ele>940.778137207</ele>
        <time>2014-02-09T12:00:08.201Z</time>
      </trkpt>
      <trkpt lat="47.84794" lon="7.14286">
        <ele>941.564147949</ele>
        <time>2014-02-09T12:00:22.199Z</time>
      </trkpt>
      <trkpt lat="47.84795" lon="7.14287">
        <ele>941.704956055</ele>
        <time>2014-02-09T12:00:23.197Z</time>
      </trkpt>
      <trkpt lat="47.84803" lon="7.14292">
        <ele>942.47857666</ele>
        <time>2014-02-09T12:00:35.188Z</time>
      </trkpt>
      <trkpt lat="47.84804" lon="7.14293">
        <ele>942.387939453</ele>
        <time>2014-02-09T12:00:36.177Z</time>
      </trkpt>
      <trkpt lat="47.84811" lon="7.14301">
        <ele>942.739196777</ele>
        <time>2014-02-09T12:00:41.187Z</time>
      </trkpt>
      <trkpt lat="47.84812" lon="7.14302">
        <ele>942.865356445</ele>
        <time>2014-02-09T12:00:42.188Z</time>
      </trkpt>
      <trkpt lat="47.84819" lon="7.1431">
        <ele>945.41809082</ele>
        <time>2014-02-09T12:00:51.186Z</time>
      </trkpt>
      <trkpt lat="47.8482" lon="7.14311">
        <ele>945.774230957</ele>
        <time>2014-02-09T12:00:52.188Z</time>
      </trkpt>
      <trkpt lat="47.84827" lon="7.14315">
        <ele>949.398010254</ele>
        <time>2014-02-09T12:01:00.175Z</time>
      </trkpt>
      <trkpt lat="47.84829" lon="7.14315">
        <ele>949.713745117</ele>
        <time>2014-02-09T12:01:01.216Z</time>
      </trkpt>
      <trkpt lat="47.84837" lon="7.14318">
        <ele>951.009460449</ele>
        <time>2014-02-09T12:01:08.197Z</time>
      </trkpt>
      <trkpt lat="47.84838" lon="7.14318">
        <ele>951.148071289</ele>
        <time>2014-02-09T12:01:09.214Z</time>
      </trkpt>
      <trkpt lat="47.84846" lon="7.14321">
        <ele>952.011108398</ele>
        <time>2014-02-09T12:01:18.205Z</time>
      </trkpt>
      <trkpt lat="47.84847" lon="7.14321">
        <ele>952.077758789</ele>
        <time>2014-02-09T12:01:19.202Z</time>
      </trkpt>
      <trkpt lat="47.84854" lon="7.14327">
        <ele>952.534240723</ele>
        <time>2014-02-09T12:01:26.18Z</time>
      </trkpt>
      <trkpt lat="47.84855" lon="7.14328">
        <ele>952.525878906</ele>
        <time>2014-02-09T12:01:27.182Z</time>
      </trkpt>
      <trkpt lat="47.84862" lon="7.14335">
        <ele>952.956420898</ele>
        <time>2014-02-09T12:01:35.186Z</time>
      </trkpt>
      <trkpt lat="47.84863" lon="7.14335">
        <ele>953.033752441</ele>
        <time>2014-02-09T12:01:36.185Z</time>
      </trkpt>
      <trkpt lat="47.84871" lon="7.14337">
        <ele>954.190795898</ele>
        <time>2014-02-09T12:01:52.187Z</time>
      </trkpt>
      <trkpt lat="47.84872" lon="7.14338">
        <ele>954.346496582</ele>
        <time>2014-02-09T12:01:53.186Z</time>
      </trkpt>
      <trkpt lat="47.84879" lon="7.14344">
        <ele>954.911071777</ele>
        <time>2014-02-09T12:02:04.202Z</time>
      </trkpt>
      <trkpt lat="47.8488" lon="7.14345">
        <ele>954.958251953</ele>
        <time>2014-02-09T12:02:05.208Z</time>
      </trkpt>
      <trkpt lat="47.84888" lon="7.1435">
        <ele>955.117004395</ele>
        <time>2014-02-09T12:02:16.196Z</time>
      </trkpt>
      <trkpt lat="47.84889" lon="7.1435">
        <ele>955.240844727</ele>
        <time>2014-02-09T12:02:17.195Z</time>
      </trkpt>
      <trkpt lat="47.84897" lon="7.14356">
        <ele>956.160339355</ele>
        <time>2014-02-09T12:02:23.183Z</time>
      </trkpt>
      <trkpt lat="47.84898" lon="7.14356">
        <ele>956.256530762</ele>
        <time>2014-02-09T12:02:24.178Z</time>
      </trkpt>
      <trkpt lat="47.84906" lon="7.14362">
        <ele>956.104736328</ele>
        <time>2014-02-09T12:02:37.198Z</time>
      </trkpt>
      <trkpt lat="47.84906" lon="7.14362">
        <ele>956.039367676</ele>
        <time>2014-02-09T12:02:38.217Z</time>
      </trkpt>
      <trkpt lat="47.84915" lon="7.14364">
        <ele>956.751525879</ele>
        <time>2014-02-09T12:02:46.18Z</time>
      </trkpt>
      <trkpt lat="47.84916" lon="7.14364">
        <ele>956.848083496</ele>
        <time>2014-02-09T12:02:47.182Z</time>
      </trkpt>
      <trkpt lat="47.84922" lon="7.14367">
        <ele>956.877746582</ele>
        <time>2014-02-09T12:02:54.206Z</time>
      </trkpt>
      <trkpt lat="47.84926" lon="7.14371">
        <ele>956.799499512</ele>
        <time>2014-02-09T12:02:55.177Z</time>
      </trkpt>
      <trkpt lat="47.84933" lon="7.14377">
        <ele>956.860778809</ele>
        <time>2014-02-09T12:03:00.185Z</time>
      </trkpt>
      <trkpt lat="47.84935" lon="7.14378">
        <ele>956.82434082</ele>
        <time>2014-02-09T12:03:01.199Z</time>
      </trkpt>
      <trkpt lat="47.84941" lon="7.14388">
        <ele>956.594055176</ele>
        <time>2014-02-09T12:03:07.188Z</time>
      </trkpt>
      <trkpt lat="47.84942" lon="7.14389">
        <ele>956.598876953</ele>
        <time>2014-02-09T12:03:08.19Z</time>
      </trkpt>
      <trkpt lat="47.84948" lon="7.14398">
        <ele>956.317199707</ele>
        <time>2014-02-09T12:03:17.246Z</time>
      </trkpt>
      <trkpt lat="47.84949" lon="7.14399">
        <ele>956.251586914</ele>
        <time>2014-02-09T12:03:18.251Z</time>
      </trkpt>
      <trkpt lat="47.84953" lon="7.14411">
        <ele>957.115844727</ele>
        <time>2014-02-09T12:03:36.249Z</time>
      </trkpt>
      <trkpt lat="47.84954" lon="7.14412">
        <ele>957.166015625</ele>
        <time>2014-02-09T12:03:37.248Z</time>
      </trkpt>
      <trkpt lat="47.8496" lon="7.1442">
        <ele>956.949462891</ele>
        <time>2014-02-09T12:03:44.252Z</time>
      </trkpt>
      <trkpt lat="47.84961" lon="7.14421">
        <ele>957.034606934</ele>
        <time>2014-02-09T12:03:45.245Z</time>
      </trkpt>
      <trkpt lat="47.84967" lon="7.14429">
        <ele>957.644287109</ele>
        <time>2014-02-09T12:03:55.191Z</time>
      </trkpt>
      <trkpt lat="47.84968" lon="7.1443">
        <ele>957.721313477</ele>
        <time>2014-02-09T12:03:56.189Z</time>
      </trkpt>
      <trkpt lat="47.84973" lon="7.14441">
        <ele>958.652526855</ele>
        <time>2014-02-09T12:04:04.247Z</time>
      </trkpt>
      <trkpt lat="47.84974" lon="7.14442">
        <ele>958.807617188</ele>
        <time>2014-02-09T12:04:05.241Z</time>
      </trkpt>
      <trkpt lat="47.8498" lon="7.14451">
        <ele>959.423583984</ele>
        <time>2014-02-09T12:04:11.24Z</time>
      </trkpt>
      <trkpt lat="47.84981" lon="7.14452">
        <ele>959.388122559</ele>
        <time>2014-02-09T12:04:12.23Z</time>
      </trkpt>
      <trkpt lat="47.84987" lon="7.1446">
        <ele>959.215209961</ele>
        <time>2014-02-09T12:04:19.242Z</time>
      </trkpt>
      <trkpt lat="47.84988" lon="7.14461">
        <ele>959.149108887</ele>
        <time>2014-02-09T12:04:20.239Z</time>
      </trkpt>
      <trkpt lat="47.84994" lon="7.14469">
        <ele>958.934692383</ele>
        <time>2014-02-09T12:04:26.242Z</time>
      </trkpt>
      <trkpt lat="47.84994" lon="7.14471">
        <ele>958.993469238</ele>
        <time>2014-02-09T12:04:27.25Z</time>
      </trkpt>
      <trkpt lat="47.85001" lon="7.14479">
        <ele>959.745361328</ele>
        <time>2014-02-09T12:04:35.239Z</time>
      </trkpt>
      <trkpt lat="47.85002" lon="7.1448">
        <ele>959.958068848</ele>
        <time>2014-02-09T12:04:36.238Z</time>
      </trkpt>
      <trkpt lat="47.85009" lon="7.14487">
        <ele>959.874511719</ele>
        <time>2014-02-09T12:04:50.225Z</time>
      </trkpt>
      <trkpt lat="47.85011" lon="7.14488">
        <ele>959.791870117</ele>
        <time>2014-02-09T12:04:51.238Z</time>
      </trkpt>
      <trkpt lat="47.85019" lon="7.14494">
        <ele>959.102844238</ele>
        <time>2014-02-09T12:05:00.193Z</time>
      </trkpt>
      <trkpt lat="47.85019" lon="7.14495">
        <ele>958.983093262</ele>
        <time>2014-02-09T12:05:01.188Z</time>
      </trkpt>
      <trkpt lat="47.85026" lon="7.14503">
        <ele>958.877319336</ele>
        <time>2014-02-09T12:05:09.178Z</time>
      </trkpt>
      <trkpt lat="47.85027" lon="7.14504">
        <ele>958.777282715</ele>
        <time>2014-02-09T12:05:10.202Z</time>
      </trkpt>
      <trkpt lat="47.85035" lon="7.145">
        <ele>959.69909668</ele>
        <time>2014-02-09T12:05:22.189Z</time>
      </trkpt>
      <trkpt lat="47.85036" lon="7.145">
        <ele>959.89654541</ele>
        <time>2014-02-09T12:05:23.176Z</time>
      </trkpt>
      <trkpt lat="47.85044" lon="7.14499">
        <ele>962.83026123</ele>
        <time>2014-02-09T12:05:32.188Z</time>
      </trkpt>
      <trkpt lat="47.85046" lon="7.14499">
        <ele>963.285217285</ele>
        <time>2014-02-09T12:05:33.188Z</time>
      </trkpt>
      <trkpt lat="47.85054" lon="7.14497">
        <ele>966.480285645</ele>
        <time>2014-02-09T12:05:45.187Z</time>
      </trkpt>
      <trkpt lat="47.85055" lon="7.14497">
        <ele>966.508056641</ele>
        <time>2014-02-09T12:05:46.186Z</time>
      </trkpt>
      <trkpt lat="47.85061" lon="7.1449">
        <ele>968.614746094</ele>
        <time>2014-02-09T12:05:56.187Z</time>
      </trkpt>
      <trkpt lat="47.85062" lon="7.1449">
        <ele>968.79510498</ele>
        <time>2014-02-09T12:05:57.188Z</time>
      </trkpt>
      <trkpt lat="47.85068" lon="7.14482">
        <ele>971.437011719</ele>
        <time>2014-02-09T12:06:08.194Z</time>
      </trkpt>
      <trkpt lat="47.85069" lon="7.14481">
        <ele>971.631774902</ele>
        <time>2014-02-09T12:06:09.187Z</time>
      </trkpt>
      <trkpt lat="47.85074" lon="7.1447">
        <ele>972.836914062</ele>
        <time>2014-02-09T12:06:27.236Z</time>
      </trkpt>
      <trkpt lat="47.85074" lon="7.14469">
        <ele>972.910339355</ele>
        <time>2014-02-09T12:06:28.251Z</time>
      </trkpt>
      <trkpt lat="47.85078" lon="7.14456">
        <ele>973.802734375</ele>
        <time>2014-02-09T12:06:39.248Z</time>
      </trkpt>
      <trkpt lat="47.85078" lon="7.14455">
        <ele>973.88873291</ele>
        <time>2014-02-09T12:06:40.246Z</time>
      </trkpt>
      <trkpt lat="47.85079" lon="7.14444">
        <ele>975.858459473</ele>
        <time>2014-02-09T12:06:50.184Z</time>
      </trkpt>
      <trkpt lat="47.8508" lon="7.14442">
        <ele>976.064697266</ele>
        <time>2014-02-09T12:06:51.2Z</time>
      </trkpt>
      <trkpt lat="47.85084" lon="7.1443">
        <ele>977.761291504</ele>
        <time>2014-02-09T12:07:04.189Z</time>
      </trkpt>
      <trkpt lat="47.85084" lon="7.14429">
        <ele>977.862304688</ele>
        <time>2014-02-09T12:07:05.187Z</time>
      </trkpt>
      <trkpt lat="47.85087" lon="7.14416">
        <ele>977.56451416</ele>
        <time>2014-02-09T12:07:32.189Z</time>
      </trkpt>
      <trkpt lat="47.85087" lon="7.14416">
        <ele>977.545349121</ele>
        <time>2014-02-09T12:07:33.189Z</time>
      </trkpt>
      <trkpt lat="47.8509" lon="7.14404">
        <ele>977.074279785</ele>
        <time>2014-02-09T12:07:48.2Z</time>
      </trkpt>
      <trkpt lat="47.8509" lon="7.14403">
        <ele>977.24810791</ele>
        <time>2014-02-09T12:07:49.196Z</time>
      </trkpt>
      <trkpt lat="47.85092" lon="7.1439">
        <ele>978.147338867</ele>
        <time>2014-02-09T12:07:59.184Z</time>
      </trkpt>
      <trkpt lat="47.85092" lon="7.14389">
        <ele>978.142272949</ele>
        <time>2014-02-09T12:08:00.186Z</time>
      </trkpt>
      <trkpt lat="47.85096" lon="7.14377">
        <ele>976.926818848</ele>
        <time>2014-02-09T12:08:15.194Z</time>
      </trkpt>
      <trkpt lat="47.85096" lon="7.14376">
        <ele>976.761779785</ele>
        <time>2014-02-09T12:08:16.193Z</time>
      </trkpt>
      <trkpt lat="47.85097" lon="7.14364">
        <ele>976.409362793</ele>
        <time>2014-02-09T12:08:33.196Z</time>
      </trkpt>
      <trkpt lat="47.85097" lon="7.14362">
        <ele>976.383728027</ele>
        <time>2014-02-09T12:08:34.192Z</time>
      </trkpt>
      <trkpt lat="47.85103" lon="7.14372">
        <ele>976.891967773</ele>
        <time>2014-02-09T12:09:07.182Z</time>
      </trkpt>
      <trkpt lat="47.85103" lon="7.14372">
        <ele>976.917053223</ele>
        <time>2014-02-09T12:09:08.187Z</time>
      </trkpt>
      <trkpt lat="47.85108" lon="7.1436">
        <ele>978.905395508</ele>
        <time>2014-02-09T12:10:13.194Z</time>
      </trkpt>
      <trkpt lat="47.85109" lon="7.1436">
        <ele>978.84387207</ele>
        <time>2014-02-09T12:10:14.192Z</time>
      </trkpt>
      <trkpt lat="47.851" lon="7.14356">
        <ele>979.817138672</ele>
        <time>2014-02-09T12:11:32.178Z</time>
      </trkpt>
      <trkpt lat="47.851" lon="7.14356">
        <ele>979.838378906</ele>
        <time>2014-02-09T12:11:33.179Z</time>
      </trkpt>
      <trkpt lat="47.85095" lon="7.14367">
        <ele>980.068725586</ele>
        <time>2014-02-09T12:12:06.176Z</time>
      </trkpt>
      <trkpt lat="47.85095" lon="7.14368">
        <ele>980.050537109</ele>
        <time>2014-02-09T12:12:07.169Z</time>
      </trkpt>
      <trkpt lat="47.85101" lon="7.14359">
        <ele>980.265075684</ele>
        <time>2014-02-09T12:12:23.19Z</time>
      </trkpt>
      <trkpt lat="47.85102" lon="7.14358">
        <ele>980.31262207</ele>
        <time>2014-02-09T12:12:24.184Z</time>
      </trkpt>
      <trkpt lat="47.85101" lon="7.14345">
        <ele>990.16015625</ele>
        <time>2014-02-09T12:15:09.184Z</time>
      </trkpt>
      <trkpt lat="47.85101" lon="7.14345">
        <ele>990.398925781</ele>
        <time>2014-02-09T12:15:10.183Z</time>
      </trkpt>
      <trkpt lat="47.85098" lon="7.14332">
        <ele>995.59552002</ele>
        <time>2014-02-09T12:15:30.185Z</time>
      </trkpt>
      <trkpt lat="47.85098" lon="7.14331">
        <ele>995.923278809</ele>
        <time>2014-02-09T12:15:31.183Z</time>
      </trkpt>
      <trkpt lat="47.85099" lon="7.14319">
        <ele>1000.385375977</ele>
        <time>2014-02-09T12:15:46.185Z</time>
      </trkpt>
      <trkpt lat="47.85099" lon="7.14318">
        <ele>1000.620300293</ele>
        <time>2014-02-09T12:15:47.183Z</time>
      </trkpt>
      <trkpt lat="47.85103" lon="7.14307">
        <ele>1002.073120117</ele>
        <time>2014-02-09T12:15:59.185Z</time>
      </trkpt>
      <trkpt lat="47.85103" lon="7.14305">
        <ele>1002.262939453</ele>
        <time>2014-02-09T12:16:00.167Z</time>
      </trkpt>
      <trkpt lat="47.85107" lon="7.14293">
        <ele>1004.33782959</ele>
        <time>2014-02-09T12:16:13.185Z</time>
      </trkpt>
      <trkpt lat="47.85107" lon="7.14292">
        <ele>1004.565856934</ele>
        <time>2014-02-09T12:16:14.167Z</time>
      </trkpt>
      <trkpt lat="47.85105" lon="7.14279">
        <ele>1009.056274414</ele>
        <time>2014-02-09T12:16:27.169Z</time>
      </trkpt>
      <trkpt lat="47.85105" lon="7.14278">
        <ele>1009.513122559</ele>
        <time>2014-02-09T12:16:28.18Z</time>
      </trkpt>
      <trkpt lat="47.85105" lon="7.14266">
        <ele>1015.053344727</ele>
        <time>2014-02-09T12:16:44.169Z</time>
      </trkpt>
      <trkpt lat="47.85105" lon="7.14265">
        <ele>1015.528808594</ele>
        <time>2014-02-09T12:16:45.169Z</time>
      </trkpt>
      <trkpt lat="47.85109" lon="7.14253">
        <ele>1019.193054199</ele>
        <time>2014-02-09T12:16:59.171Z</time>
      </trkpt>
      <trkpt lat="47.85108" lon="7.14252">
        <ele>1019.211975098</ele>
        <time>2014-02-09T12:17:00.161Z</time>
      </trkpt>
      <trkpt lat="47.85109" lon="7.14239">
        <ele>1019.80682373</ele>
        <time>2014-02-09T12:17:11.17Z</time>
      </trkpt>
      <trkpt lat="47.85109" lon="7.14238">
        <ele>1019.939880371</ele>
        <time>2014-02-09T12:17:12.184Z</time>
      </trkpt>
      <trkpt lat="47.85109" lon="7.14226">
        <ele>1022.649780273</ele>
        <time>2014-02-09T12:17:26.177Z</time>
      </trkpt>
      <trkpt lat="47.85109" lon="7.14225">
        <ele>1022.789855957</ele>
        <time>2014-02-09T12:17:27.182Z</time>
      </trkpt>
      <trkpt lat="47.8511" lon="7.14211">
        <ele>1023.749816895</ele>
        <time>2014-02-09T12:17:47.173Z</time>
      </trkpt>
      <trkpt lat="47.8511" lon="7.14211">
        <ele>1023.929321289</ele>
        <time>2014-02-09T12:17:48.174Z</time>
      </trkpt>
      <trkpt lat="47.85109" lon="7.14198">
        <ele>1026.812988281</ele>
        <time>2014-02-09T12:18:08.163Z</time>
      </trkpt>
      <trkpt lat="47.85109" lon="7.14197">
        <ele>1027.07409668</ele>
        <time>2014-02-09T12:18:09.17Z</time>
      </trkpt>
      <trkpt lat="47.85113" lon="7.14186">
        <ele>1029.265991211</ele>
        <time>2014-02-09T12:18:23.17Z</time>
      </trkpt>
      <trkpt lat="47.85114" lon="7.14185">
        <ele>1029.441650391</ele>
        <time>2014-02-09T12:18:24.159Z</time>
      </trkpt>
      <trkpt lat="47.85116" lon="7.14172">
        <ele>1031.778076172</ele>
        <time>2014-02-09T12:18:40.156Z</time>
      </trkpt>
      <trkpt lat="47.85117" lon="7.14171">
        <ele>1032.03918457</ele>
        <time>2014-02-09T12:18:41.172Z</time>
      </trkpt>
      <trkpt lat="47.85118" lon="7.14158">
        <ele>1032.899047852</ele>
        <time>2014-02-09T12:19:00.151Z</time>
      </trkpt>
      <trkpt lat="47.85119" lon="7.14157">
        <ele>1032.928710938</ele>
        <time>2014-02-09T12:19:01.158Z</time>
      </trkpt>
      <trkpt lat="47.8512" lon="7.14145">
        <ele>1034.543334961</ele>
        <time>2014-02-09T12:19:10.14Z</time>
      </trkpt>
      <trkpt lat="47.8512" lon="7.14143">
        <ele>1034.807861328</ele>
        <time>2014-02-09T12:19:11.157Z</time>
      </trkpt>
      <trkpt lat="47.85125" lon="7.14132">
        <ele>1036.380004883</ele>
        <time>2014-02-09T12:19:20.159Z</time>
      </trkpt>
      <trkpt lat="47.85125" lon="7.14131">
        <ele>1036.608398438</ele>
        <time>2014-02-09T12:19:21.162Z</time>
      </trkpt>
      <trkpt lat="47.85129" lon="7.1412">
        <ele>1037.909545898</ele>
        <time>2014-02-09T12:19:28.17Z</time>
      </trkpt>
      <trkpt lat="47.8513" lon="7.14119">
        <ele>1038.118408203</ele>
        <time>2014-02-09T12:19:29.168Z</time>
      </trkpt>
      <trkpt lat="47.85134" lon="7.14109">
        <ele>1039.254882812</ele>
        <time>2014-02-09T12:19:38.179Z</time>
      </trkpt>
      <trkpt lat="47.85135" lon="7.14108">
        <ele>1039.264160156</ele>
        <time>2014-02-09T12:19:39.148Z</time>
      </trkpt>
      <trkpt lat="47.85135" lon="7.14095">
        <ele>1040.255371094</ele>
        <time>2014-02-09T12:19:51.153Z</time>
      </trkpt>
      <trkpt lat="47.85136" lon="7.14094">
        <ele>1040.407958984</ele>
        <time>2014-02-09T12:19:52.13Z</time>
      </trkpt>
      <trkpt lat="47.85141" lon="7.14083">
        <ele>1042.010620117</ele>
        <time>2014-02-09T12:20:01.147Z</time>
      </trkpt>
      <trkpt lat="47.85141" lon="7.14082">
        <ele>1042.165161133</ele>
        <time>2014-02-09T12:20:02.133Z</time>
      </trkpt>
      <trkpt lat="47.85144" lon="7.14069">
        <ele>1044.073242188</ele>
        <time>2014-02-09T12:20:16.146Z</time>
      </trkpt>
      <trkpt lat="47.85144" lon="7.14069">
        <ele>1044.082885742</ele>
        <time>2014-02-09T12:20:17.136Z</time>
      </trkpt>
      <trkpt lat="47.85149" lon="7.14058">
        <ele>1044.608764648</ele>
        <time>2014-02-09T12:20:29.148Z</time>
      </trkpt>
      <trkpt lat="47.85149" lon="7.14058">
        <ele>1044.676025391</ele>
        <time>2014-02-09T12:20:30.163Z</time>
      </trkpt>
      <trkpt lat="47.85155" lon="7.14049">
        <ele>1045.047607422</ele>
        <time>2014-02-09T12:20:39.154Z</time>
      </trkpt>
      <trkpt lat="47.85155" lon="7.14047">
        <ele>1045.066040039</ele>
        <time>2014-02-09T12:20:40.154Z</time>
      </trkpt>
      <trkpt lat="47.85161" lon="7.14038">
        <ele>1045.698974609</ele>
        <time>2014-02-09T12:20:48.169Z</time>
      </trkpt>
      <trkpt lat="47.85161" lon="7.14037">
        <ele>1045.733642578</ele>
        <time>2014-02-09T12:20:49.161Z</time>
      </trkpt>
      <trkpt lat="47.85166" lon="7.14025">
        <ele>1048.070800781</ele>
        <time>2014-02-09T12:21:05.159Z</time>
      </trkpt>
      <trkpt lat="47.85166" lon="7.14024">
        <ele>1048.347045898</ele>
        <time>2014-02-09T12:21:06.156Z</time>
      </trkpt>
      <trkpt lat="47.85169" lon="7.14012">
        <ele>1050.618530273</ele>
        <time>2014-02-09T12:21:19.173Z</time>
      </trkpt>
      <trkpt lat="47.85169" lon="7.14012">
        <ele>1050.770996094</ele>
        <time>2014-02-09T12:21:20.171Z</time>
      </trkpt>
      <trkpt lat="47.85172" lon="7.14">
        <ele>1053.479370117</ele>
        <time>2014-02-09T12:21:35.156Z</time>
      </trkpt>
      <trkpt lat="47.85172" lon="7.13998">
        <ele>1053.718139648</ele>
        <time>2014-02-09T12:21:36.155Z</time>
      </trkpt>
      <trkpt lat="47.85175" lon="7.13987">
        <ele>1055.155517578</ele>
        <time>2014-02-09T12:21:45.169Z</time>
      </trkpt>
      <trkpt lat="47.85175" lon="7.13985">
        <ele>1055.228271484</ele>
        <time>2014-02-09T12:21:46.197Z</time>
      </trkpt>
      <trkpt lat="47.85175" lon="7.13972">
        <ele>1056.021972656</ele>
        <time>2014-02-09T12:21:59.15Z</time>
      </trkpt>
      <trkpt lat="47.85176" lon="7.13971">
        <ele>1056.170043945</ele>
        <time>2014-02-09T12:22:00.147Z</time>
      </trkpt>
      <trkpt lat="47.85178" lon="7.13958">
        <ele>1056.89074707</ele>
        <time>2014-02-09T12:22:07.143Z</time>
      </trkpt>
      <trkpt lat="47.85178" lon="7.13957">
        <ele>1056.945800781</ele>
        <time>2014-02-09T12:22:08.141Z</time>
      </trkpt>
      <trkpt lat="47.85182" lon="7.13945">
        <ele>1058.063842773</ele>
        <time>2014-02-09T12:22:20.141Z</time>
      </trkpt>
      <trkpt lat="47.85182" lon="7.13943">
        <ele>1058.178955078</ele>
        <time>2014-02-09T12:22:21.147Z</time>
      </trkpt>
      <trkpt lat="47.85186" lon="7.13932">
        <ele>1059.845336914</ele>
        <time>2014-02-09T12:22:30.157Z</time>
      </trkpt>
      <trkpt lat="47.85187" lon="7.13931">
        <ele>1059.936523438</ele>
        <time>2014-02-09T12:22:31.149Z</time>
      </trkpt>
      <trkpt lat="47.85192" lon="7.1392">
        <ele>1061.548583984</ele>
        <time>2014-02-09T12:22:40.145Z</time>
      </trkpt>
      <trkpt lat="47.85192" lon="7.1392">
        <ele>1061.664306641</ele>
        <time>2014-02-09T12:22:41.153Z</time>
      </trkpt>
      <trkpt lat="47.85195" lon="7.13907">
        <ele>1061.970336914</ele>
        <time>2014-02-09T12:23:00.171Z</time>
      </trkpt>
      <trkpt lat="47.85196" lon="7.13906">
        <ele>1061.873291016</ele>
        <time>2014-02-09T12:23:01.146Z</time>
      </trkpt>
      <trkpt lat="47.85198" lon="7.13894">
        <ele>1061.060180664</ele>
        <time>2014-02-09T12:23:17.142Z</time>
      </trkpt>
      <trkpt lat="47.85198" lon="7.13892">
        <ele>1060.981201172</ele>
        <time>2014-02-09T12:23:18.155Z</time>
      </trkpt>
      <trkpt lat="47.85199" lon="7.13879">
        <ele>1060.604370117</ele>
        <time>2014-02-09T12:23:26.137Z</time>
      </trkpt>
      <trkpt lat="47.85199" lon="7.13879">
        <ele>1060.645385742</ele>
        <time>2014-02-09T12:23:27.159Z</time>
      </trkpt>
      <trkpt lat="47.852" lon="7.13866">
        <ele>1062.984619141</ele>
        <time>2014-02-09T12:23:44.125Z</time>
      </trkpt>
      <trkpt lat="47.852" lon="7.13865">
        <ele>1063.270874023</ele>
        <time>2014-02-09T12:23:45.154Z</time>
      </trkpt>
      <trkpt lat="47.85201" lon="7.13852">
        <ele>1067.08996582</ele>
        <time>2014-02-09T12:24:04.138Z</time>
      </trkpt>
      <trkpt lat="47.85202" lon="7.13851">
        <ele>1067.466064453</ele>
        <time>2014-02-09T12:24:05.151Z</time>
      </trkpt>
      <trkpt lat="47.85204" lon="7.13838">
        <ele>1072.670410156</ele>
        <time>2014-02-09T12:24:20.136Z</time>
      </trkpt>
      <trkpt lat="47.85204" lon="7.13837">
        <ele>1072.961303711</ele>
        <time>2014-02-09T12:24:21.158Z</time>
      </trkpt>
      <trkpt lat="47.85206" lon="7.13824">
        <ele>1076.634399414</ele>
        <time>2014-02-09T12:24:35.157Z</time>
      </trkpt>
      <trkpt lat="47.85206" lon="7.13824">
        <ele>1076.916870117</ele>
        <time>2014-02-09T12:24:36.16Z</time>
      </trkpt>
      <trkpt lat="47.85206" lon="7.13811">
        <ele>1079.72277832</ele>
        <time>2014-02-09T12:24:50.157Z</time>
      </trkpt>
      <trkpt lat="47.85207" lon="7.1381">
        <ele>1080.010131836</ele>
        <time>2014-02-09T12:24:51.144Z</time>
      </trkpt>
      <trkpt lat="47.85212" lon="7.138">
        <ele>1081.541381836</ele>
        <time>2014-02-09T12:25:02.149Z</time>
      </trkpt>
      <trkpt lat="47.85213" lon="7.13799">
        <ele>1081.557495117</ele>
        <time>2014-02-09T12:25:03.153Z</time>
      </trkpt>
      <trkpt lat="47.85216" lon="7.13788">
        <ele>1081.308959961</ele>
        <time>2014-02-09T12:25:15.133Z</time>
      </trkpt>
      <trkpt lat="47.85216" lon="7.13787">
        <ele>1081.356445312</ele>
        <time>2014-02-09T12:25:16.153Z</time>
      </trkpt>
      <trkpt lat="47.8522" lon="7.13775">
        <ele>1081.896728516</ele>
        <time>2014-02-09T12:25:30.15Z</time>
      </trkpt>
      <trkpt lat="47.8522" lon="7.13774">
        <ele>1081.901123047</ele>
        <time>2014-02-09T12:25:31.153Z</time>
      </trkpt>
      <trkpt lat="47.85224" lon="7.13762">
        <ele>1081.687866211</ele>
        <time>2014-02-09T12:25:44.143Z</time>
      </trkpt>
      <trkpt lat="47.85224" lon="7.13761">
        <ele>1081.83215332</ele>
        <time>2014-02-09T12:25:45.154Z</time>
      </trkpt>
      <trkpt lat="47.85228" lon="7.13749">
        <ele>1083.124511719</ele>
        <time>2014-02-09T12:25:59.156Z</time>
      </trkpt>
      <trkpt lat="47.85228" lon="7.13748">
        <ele>1083.227905273</ele>
        <time>2014-02-09T12:26:00.153Z</time>
      </trkpt>
      <trkpt lat="47.85232" lon="7.13737">
        <ele>1084.969482422</ele>
        <time>2014-02-09T12:26:16.176Z</time>
      </trkpt>
      <trkpt lat="47.85232" lon="7.13736">
        <ele>1085.21105957</ele>
        <time>2014-02-09T12:26:17.165Z</time>
      </trkpt>
      <trkpt lat="47.85237" lon="7.13726">
        <ele>1086.668945312</ele>
        <time>2014-02-09T12:26:27.163Z</time>
      </trkpt>
      <trkpt lat="47.85238" lon="7.13725">
        <ele>1086.721313477</ele>
        <time>2014-02-09T12:26:28.171Z</time>
      </trkpt>
      <trkpt lat="47.85244" lon="7.13715">
        <ele>1088.320678711</ele>
        <time>2014-02-09T12:26:39.165Z</time>
      </trkpt>
      <trkpt lat="47.85244" lon="7.13715">
        <ele>1088.337646484</ele>
        <time>2014-02-09T12:26:40.15Z</time>
      </trkpt>
      <trkpt lat="47.85251" lon="7.13706">
        <ele>1090.720336914</ele>
        <time>2014-02-09T12:26:54.16Z</time>
      </trkpt>
      <trkpt lat="47.85251" lon="7.13706">
        <ele>1090.736083984</ele>
        <time>2014-02-09T12:26:55.159Z</time>
      </trkpt>
      <trkpt lat="47.85257" lon="7.13697">
        <ele>1091.731201172</ele>
        <time>2014-02-09T12:27:07.159Z</time>
      </trkpt>
      <trkpt lat="47.85257" lon="7.13696">
        <ele>1091.779785156</ele>
        <time>2014-02-09T12:27:08.156Z</time>
      </trkpt>
      <trkpt lat="47.85261" lon="7.13684">
        <ele>1091.191162109</ele>
        <time>2014-02-09T12:27:32.156Z</time>
      </trkpt>
      <trkpt lat="47.85261" lon="7.13683">
        <ele>1091.195068359</ele>
        <time>2014-02-09T12:27:33.148Z</time>
      </trkpt>
      <trkpt lat="47.85262" lon="7.1367">
        <ele>1091.057861328</ele>
        <time>2014-02-09T12:27:53.157Z</time>
      </trkpt>
      <trkpt lat="47.85262" lon="7.1367">
        <ele>1091.264892578</ele>
        <time>2014-02-09T12:27:54.155Z</time>
      </trkpt>
      <trkpt lat="47.85266" lon="7.13659">
        <ele>1091.859741211</ele>
        <time>2014-02-09T12:28:10.157Z</time>
      </trkpt>
      <trkpt lat="47.85267" lon="7.13658">
        <ele>1091.873413086</ele>
        <time>2014-02-09T12:28:11.166Z</time>
      </trkpt>
      <trkpt lat="47.85273" lon="7.13649">
        <ele>1092.022216797</ele>
        <time>2014-02-09T12:28:23.168Z</time>
      </trkpt>
      <trkpt lat="47.85274" lon="7.13648">
        <ele>1091.895263672</ele>
        <time>2014-02-09T12:28:24.16Z</time>
      </trkpt>
      <trkpt lat="47.8528" lon="7.13638">
        <ele>1090.360595703</ele>
        <time>2014-02-09T12:28:39.17Z</time>
      </trkpt>
      <trkpt lat="47.8528" lon="7.13637">
        <ele>1090.340087891</ele>
        <time>2014-02-09T12:28:40.183Z</time>
      </trkpt>
      <trkpt lat="47.85284" lon="7.13629">
        <ele>1089.424316406</ele>
        <time>2014-02-09T12:28:47.157Z</time>
      </trkpt>
      <trkpt lat="47.85286" lon="7.13627">
        <ele>1089.263061523</ele>
        <time>2014-02-09T12:28:48.145Z</time>
      </trkpt>
      <trkpt lat="47.85292" lon="7.13618">
        <ele>1088.583251953</ele>
        <time>2014-02-09T12:28:56.161Z</time>
      </trkpt>
      <trkpt lat="47.85293" lon="7.13618">
        <ele>1088.529663086</ele>
        <time>2014-02-09T12:28:57.147Z</time>
      </trkpt>
      <trkpt lat="47.85299" lon="7.1361">
        <ele>1088.46081543</ele>
        <time>2014-02-09T12:29:04.171Z</time>
      </trkpt>
      <trkpt lat="47.853" lon="7.13609">
        <ele>1088.370239258</ele>
        <time>2014-02-09T12:29:05.159Z</time>
      </trkpt>
      <trkpt lat="47.85307" lon="7.13601">
        <ele>1087.857421875</ele>
        <time>2014-02-09T12:29:16.163Z</time>
      </trkpt>
      <trkpt lat="47.85307" lon="7.13601">
        <ele>1087.843994141</ele>
        <time>2014-02-09T12:29:17.155Z</time>
      </trkpt>
      <trkpt lat="47.85299" lon="7.13595">
        <ele>1088.381958008</ele>
        <time>2014-02-09T12:29:52.174Z</time>
      </trkpt>
      <trkpt lat="47.85299" lon="7.13595">
        <ele>1088.388793945</ele>
        <time>2014-02-09T12:29:53.15Z</time>
      </trkpt>
      <trkpt lat="47.8529" lon="7.13595">
        <ele>1089.039794922</ele>
        <time>2014-02-09T12:30:09.157Z</time>
      </trkpt>
      <trkpt lat="47.85289" lon="7.13595">
        <ele>1089.076660156</ele>
        <time>2014-02-09T12:30:10.154Z</time>
      </trkpt>
      <trkpt lat="47.85281" lon="7.13596">
        <ele>1089.47277832</ele>
        <time>2014-02-09T12:30:21.156Z</time>
      </trkpt>
      <trkpt lat="47.8528" lon="7.13595">
        <ele>1089.53112793</ele>
        <time>2014-02-09T12:30:22.149Z</time>
      </trkpt>
      <trkpt lat="47.85271" lon="7.13596">
        <ele>1090.809448242</ele>
        <time>2014-02-09T12:30:34.146Z</time>
      </trkpt>
      <trkpt lat="47.8527" lon="7.13596">
        <ele>1090.905761719</ele>
        <time>2014-02-09T12:30:35.148Z</time>
      </trkpt>
      <trkpt lat="47.85262" lon="7.13593">
        <ele>1091.497436523</ele>
        <time>2014-02-09T12:30:48.143Z</time>
      </trkpt>
      <trkpt lat="47.85261" lon="7.13593">
        <ele>1091.600830078</ele>
        <time>2014-02-09T12:30:49.135Z</time>
      </trkpt>
      <trkpt lat="47.85253" lon="7.13589">
        <ele>1092.413574219</ele>
        <time>2014-02-09T12:31:03.143Z</time>
      </trkpt>
      <trkpt lat="47.85252" lon="7.13589">
        <ele>1092.555541992</ele>
        <time>2014-02-09T12:31:04.142Z</time>
      </trkpt>
      <trkpt lat="47.85249" lon="7.13578">
        <ele>1095.083374023</ele>
        <time>2014-02-09T12:31:26.14Z</time>
      </trkpt>
      <trkpt lat="47.85249" lon="7.13576">
        <ele>1095.131713867</ele>
        <time>2014-02-09T12:31:27.15Z</time>
      </trkpt>
      <trkpt lat="47.85242" lon="7.13567">
        <ele>1101.76574707</ele>
        <time>2014-02-09T12:31:58.136Z</time>
      </trkpt>
      <trkpt lat="47.85242" lon="7.13567">
        <ele>1102.053955078</ele>
        <time>2014-02-09T12:31:59.13Z</time>
      </trkpt>
      <trkpt lat="47.85233" lon="7.13567">
        <ele>1106.334350586</ele>
        <time>2014-02-09T12:32:44.148Z</time>
      </trkpt>
      <trkpt lat="47.85233" lon="7.13567">
        <ele>1106.359741211</ele>
        <time>2014-02-09T12:32:45.145Z</time>
      </trkpt>
      <trkpt lat="47.8523" lon="7.13555">
        <ele>1110.216918945</ele>
        <time>2014-02-09T12:33:04.146Z</time>
      </trkpt>
      <trkpt lat="47.8523" lon="7.13554">
        <ele>1110.348876953</ele>
        <time>2014-02-09T12:33:05.147Z</time>
      </trkpt>
      <trkpt lat="47.85224" lon="7.13544">
        <ele>1112.086547852</ele>
        <time>2014-02-09T12:33:16.134Z</time>
      </trkpt>
      <trkpt lat="47.85224" lon="7.13543">
        <ele>1112.243408203</ele>
        <time>2014-02-09T12:33:17.146Z</time>
      </trkpt>
      <trkpt lat="47.85218" lon="7.13532">
        <ele>1114.790771484</ele>
        <time>2014-02-09T12:33:31.138Z</time>
      </trkpt>
      <trkpt lat="47.85218" lon="7.13532">
        <ele>1115.045654297</ele>
        <time>2014-02-09T12:33:32.148Z</time>
      </trkpt>
      <trkpt lat="47.8521" lon="7.13534">
        <ele>1117.475219727</ele>
        <time>2014-02-09T12:35:00.148Z</time>
      </trkpt>
      <trkpt lat="47.85209" lon="7.13534">
        <ele>1117.538452148</ele>
        <time>2014-02-09T12:35:01.142Z</time>
      </trkpt>
      <trkpt lat="47.852" lon="7.13536">
        <ele>1118.033935547</ele>
        <time>2014-02-09T12:35:42.141Z</time>
      </trkpt>
      <trkpt lat="47.852" lon="7.13536">
        <ele>1118.190673828</ele>
        <time>2014-02-09T12:35:43.139Z</time>
      </trkpt>
      <trkpt lat="47.85191" lon="7.1354">
        <ele>1122.779541016</ele>
        <time>2014-02-09T12:36:09.136Z</time>
      </trkpt>
      <trkpt lat="47.85191" lon="7.1354">
        <ele>1123.026367188</ele>
        <time>2014-02-09T12:36:10.14Z</time>
      </trkpt>
      <trkpt lat="47.85182" lon="7.13543">
        <ele>1126.149780273</ele>
        <time>2014-02-09T12:36:39.121Z</time>
      </trkpt>
      <trkpt lat="47.85181" lon="7.13543">
        <ele>1126.177368164</ele>
        <time>2014-02-09T12:36:40.138Z</time>
      </trkpt>
      <trkpt lat="47.85173" lon="7.13547">
        <ele>1127.307861328</ele>
        <time>2014-02-09T12:36:54.137Z</time>
      </trkpt>
      <trkpt lat="47.85173" lon="7.13547">
        <ele>1127.416748047</ele>
        <time>2014-02-09T12:36:55.139Z</time>
      </trkpt>
      <trkpt lat="47.85164" lon="7.13545">
        <ele>1127.376098633</ele>
        <time>2014-02-09T12:37:14.138Z</time>
      </trkpt>
      <trkpt lat="47.85163" lon="7.13545">
        <ele>1127.176025391</ele>
        <time>2014-02-09T12:37:15.134Z</time>
      </trkpt>
      <trkpt lat="47.85154" lon="7.13546">
        <ele>1126.926879883</ele>
        <time>2014-02-09T12:37:26.126Z</time>
      </trkpt>
      <trkpt lat="47.85154" lon="7.13546">
        <ele>1127.045776367</ele>
        <time>2014-02-09T12:37:27.138Z</time>
      </trkpt>
      <trkpt lat="47.85146" lon="7.13551">
        <ele>1128.383300781</ele>
        <time>2014-02-09T12:37:54.135Z</time>
      </trkpt>
      <trkpt lat="47.85145" lon="7.13551">
        <ele>1128.583251953</ele>
        <time>2014-02-09T12:37:55.14Z</time>
      </trkpt>
      <trkpt lat="47.85137" lon="7.13552">
        <ele>1129.815429688</ele>
        <time>2014-02-09T12:38:05.132Z</time>
      </trkpt>
      <trkpt lat="47.85135" lon="7.13553">
        <ele>1130.095825195</ele>
        <time>2014-02-09T12:38:06.135Z</time>
      </trkpt>
      <trkpt lat="47.85126" lon="7.13554">
        <ele>1132.013549805</ele>
        <time>2014-02-09T12:38:19.14Z</time>
      </trkpt>
      <trkpt lat="47.85126" lon="7.13553">
        <ele>1132.430419922</ele>
        <time>2014-02-09T12:38:20.136Z</time>
      </trkpt>
      <trkpt lat="47.85122" lon="7.13541">
        <ele>1139.286010742</ele>
        <time>2014-02-09T12:38:44.14Z</time>
      </trkpt>
      <trkpt lat="47.85122" lon="7.13541">
        <ele>1139.619384766</ele>
        <time>2014-02-09T12:38:45.143Z</time>
      </trkpt>
      <trkpt lat="47.85121" lon="7.13528">
        <ele>1144.582397461</ele>
        <time>2014-02-09T12:39:13.136Z</time>
      </trkpt>
      <trkpt lat="47.85121" lon="7.13527">
        <ele>1144.755981445</ele>
        <time>2014-02-09T12:39:14.133Z</time>
      </trkpt>
      <trkpt lat="47.85122" lon="7.13514">
        <ele>1146.075683594</ele>
        <time>2014-02-09T12:39:28.14Z</time>
      </trkpt>
      <trkpt lat="47.85122" lon="7.13513">
        <ele>1146.242553711</ele>
        <time>2014-02-09T12:39:29.138Z</time>
      </trkpt>
      <trkpt lat="47.85123" lon="7.13501">
        <ele>1148.045776367</ele>
        <time>2014-02-09T12:39:41.133Z</time>
      </trkpt>
      <trkpt lat="47.85123" lon="7.135">
        <ele>1148.132568359</ele>
        <time>2014-02-09T12:39:42.135Z</time>
      </trkpt>
      <trkpt lat="47.85124" lon="7.13487">
        <ele>1149.26953125</ele>
        <time>2014-02-09T12:40:02.134Z</time>
      </trkpt>
      <trkpt lat="47.85124" lon="7.13486">
        <ele>1149.353759766</ele>
        <time>2014-02-09T12:40:03.135Z</time>
      </trkpt>
      <trkpt lat="47.85129" lon="7.13476">
        <ele>1150.399169922</ele>
        <time>2014-02-09T12:40:26.121Z</time>
      </trkpt>
      <trkpt lat="47.8513" lon="7.13475">
        <ele>1150.493652344</ele>
        <time>2014-02-09T12:40:27.129Z</time>
      </trkpt>
      <trkpt lat="47.85132" lon="7.13463">
        <ele>1151.044433594</ele>
        <time>2014-02-09T12:40:44.134Z</time>
      </trkpt>
      <trkpt lat="47.85132" lon="7.13462">
        <ele>1151.038452148</ele>
        <time>2014-02-09T12:40:45.128Z</time>
      </trkpt>
      <trkpt lat="47.85134" lon="7.1345">
        <ele>1151.118041992</ele>
        <time>2014-02-09T12:40:57.127Z</time>
      </trkpt>
      <trkpt lat="47.85134" lon="7.13448">
        <ele>1151.029907227</ele>
        <time>2014-02-09T12:40:58.133Z</time>
      </trkpt>
      <trkpt lat="47.85138" lon="7.13438">
        <ele>1150.864501953</ele>
        <time>2014-02-09T12:41:08.133Z</time>
      </trkpt>
      <trkpt lat="47.85139" lon="7.13437">
        <ele>1150.80078125</ele>
        <time>2014-02-09T12:41:09.116Z</time>
      </trkpt>
      <trkpt lat="47.85143" lon="7.13425">
        <ele>1149.92199707</ele>
        <time>2014-02-09T12:41:19.116Z</time>
      </trkpt>
      <trkpt lat="47.85144" lon="7.13424">
        <ele>1149.870117188</ele>
        <time>2014-02-09T12:41:20.133Z</time>
      </trkpt>
      <trkpt lat="47.85149" lon="7.13413">
        <ele>1149.455566406</ele>
        <time>2014-02-09T12:41:28.148Z</time>
      </trkpt>
      <trkpt lat="47.8515" lon="7.13411">
        <ele>1149.423950195</ele>
        <time>2014-02-09T12:41:29.13Z</time>
      </trkpt>
      <trkpt lat="47.85156" lon="7.13403">
        <ele>1148.94140625</ele>
        <time>2014-02-09T12:41:36.129Z</time>
      </trkpt>
      <trkpt lat="47.85157" lon="7.13401">
        <ele>1148.928466797</ele>
        <time>2014-02-09T12:41:37.119Z</time>
      </trkpt>
      <trkpt lat="47.85163" lon="7.13392">
        <ele>1148.939941406</ele>
        <time>2014-02-09T12:41:44.129Z</time>
      </trkpt>
      <trkpt lat="47.85164" lon="7.13391">
        <ele>1148.932373047</ele>
        <time>2014-02-09T12:41:45.127Z</time>
      </trkpt>
      <trkpt lat="47.85168" lon="7.13379">
        <ele>1148.814697266</ele>
        <time>2014-02-09T12:41:51.128Z</time>
      </trkpt>
      <trkpt lat="47.85169" lon="7.13378">
        <ele>1148.791748047</ele>
        <time>2014-02-09T12:41:52.129Z</time>
      </trkpt>
      <trkpt lat="47.85173" lon="7.13368">
        <ele>1148.571777344</ele>
        <time>2014-02-09T12:42:00.138Z</time>
      </trkpt>
      <trkpt lat="47.85174" lon="7.13366">
        <ele>1148.529907227</ele>
        <time>2014-02-09T12:42:01.128Z</time>
      </trkpt>
      <trkpt lat="47.85178" lon="7.13355">
        <ele>1148.226318359</ele>
        <time>2014-02-09T12:42:08.13Z</time>
      </trkpt>
      <trkpt lat="47.85179" lon="7.13353">
        <ele>1148.190185547</ele>
        <time>2014-02-09T12:42:09.121Z</time>
      </trkpt>
      <trkpt lat="47.85184" lon="7.13343">
        <ele>1147.794555664</ele>
        <time>2014-02-09T12:42:16.131Z</time>
      </trkpt>
      <trkpt lat="47.85184" lon="7.13342">
        <ele>1147.655517578</ele>
        <time>2014-02-09T12:42:17.13Z</time>
      </trkpt>
      <trkpt lat="47.85188" lon="7.13331">
        <ele>1146.724365234</ele>
        <time>2014-02-09T12:42:25.131Z</time>
      </trkpt>
      <trkpt lat="47.85188" lon="7.13329">
        <ele>1146.662231445</ele>
        <time>2014-02-09T12:42:26.128Z</time>
      </trkpt>
      <trkpt lat="47.8519" lon="7.13316">
        <ele>1146.500488281</ele>
        <time>2014-02-09T12:42:33.134Z</time>
      </trkpt>
      <trkpt lat="47.8519" lon="7.13315">
        <ele>1146.451049805</ele>
        <time>2014-02-09T12:42:34.118Z</time>
      </trkpt>
      <trkpt lat="47.85189" lon="7.13303">
        <ele>1146.261352539</ele>
        <time>2014-02-09T12:42:40.127Z</time>
      </trkpt>
      <trkpt lat="47.85188" lon="7.13302">
        <ele>1146.218383789</ele>
        <time>2014-02-09T12:42:41.126Z</time>
      </trkpt>
      <trkpt lat="47.85186" lon="7.13289">
        <ele>1145.770629883</ele>
        <time>2014-02-09T12:42:48.131Z</time>
      </trkpt>
      <trkpt lat="47.85185" lon="7.13287">
        <ele>1145.70703125</ele>
        <time>2014-02-09T12:42:49.124Z</time>
      </trkpt>
      <trkpt lat="47.85182" lon="7.13276">
        <ele>1144.949462891</ele>
        <time>2014-02-09T12:42:56.126Z</time>
      </trkpt>
      <trkpt lat="47.85181" lon="7.13274">
        <ele>1144.875976562</ele>
        <time>2014-02-09T12:42:57.126Z</time>
      </trkpt>
      <trkpt lat="47.85176" lon="7.13264">
        <ele>1143.643676758</ele>
        <time>2014-02-09T12:43:10.126Z</time>
      </trkpt>
      <trkpt lat="47.85176" lon="7.13263">
        <ele>1143.534057617</ele>
        <time>2014-02-09T12:43:11.126Z</time>
      </trkpt>
      <trkpt lat="47.85169" lon="7.13259">
        <ele>1140.903320312</ele>
        <time>2014-02-09T12:43:27.128Z</time>
      </trkpt>
      <trkpt lat="47.85167" lon="7.13259">
        <ele>1140.715332031</ele>
        <time>2014-02-09T12:43:28.133Z</time>
      </trkpt>
      <trkpt lat="47.85159" lon="7.13265">
        <ele>1139.26184082</ele>
        <time>2014-02-09T12:43:41.107Z</time>
      </trkpt>
      <trkpt lat="47.85158" lon="7.13266">
        <ele>1139.172607422</ele>
        <time>2014-02-09T12:43:42.117Z</time>
      </trkpt>
      <trkpt lat="47.85152" lon="7.13276">
        <ele>1138.060424805</ele>
        <time>2014-02-09T12:43:57.123Z</time>
      </trkpt>
      <trkpt lat="47.85151" lon="7.13277">
        <ele>1138.026367188</ele>
        <time>2014-02-09T12:43:58.124Z</time>
      </trkpt>
      <trkpt lat="47.85146" lon="7.1328">
        <ele>1137.48815918</ele>
        <time>2014-02-09T12:44:28.092Z</time>
      </trkpt>
      <trkpt lat="47.85131" lon="7.13264">
        <ele>1208.541503906</ele>
        <time>2014-02-09T13:45:35.4Z</time>
      </trkpt>
      <trkpt lat="47.85127" lon="7.13263">
        <ele>1195.288452148</ele>
        <time>2014-02-09T13:45:37.385Z</time>
      </trkpt>
      <trkpt lat="47.85118" lon="7.13257">
        <ele>1199.676025391</ele>
        <time>2014-02-09T13:45:52.962Z</time>
      </trkpt>
      <trkpt lat="47.85118" lon="7.13257">
        <ele>1171.542724609</ele>
        <time>2014-02-09T13:46:38Z</time>
      </trkpt>
      <trkpt lat="47.85128" lon="7.13258">
        <ele>1171.514404297</ele>
        <time>2014-02-09T13:46:41.021Z</time>
      </trkpt>
      <trkpt lat="47.85128" lon="7.13258">
        <ele>1168.46081543</ele>
        <time>2014-02-09T13:48:11.943Z</time>
      </trkpt>
      <trkpt lat="47.85108" lon="7.13331">
        <ele>1123.873535156</ele>
        <time>2014-02-09T13:49:15.948Z</time>
      </trkpt>
      <trkpt lat="47.85108" lon="7.13331">
        <ele>1124.546630859</ele>
        <time>2014-02-09T13:49:17.948Z</time>
      </trkpt>
      <trkpt lat="47.85116" lon="7.13307">
        <ele>1125.120361328</ele>
        <time>2014-02-09T13:49:18.948Z</time>
      </trkpt>
      <trkpt lat="47.85116" lon="7.13307">
        <ele>1125.835449219</ele>
        <time>2014-02-09T13:49:20.95Z</time>
      </trkpt>
      <trkpt lat="47.85127" lon="7.13293">
        <ele>1126.11706543</ele>
        <time>2014-02-09T13:49:21.947Z</time>
      </trkpt>
      <trkpt lat="47.85132" lon="7.13282">
        <ele>1126.613525391</ele>
        <time>2014-02-09T13:49:24.018Z</time>
      </trkpt>
      <trkpt lat="47.85134" lon="7.13278">
        <ele>1126.809936523</ele>
        <time>2014-02-09T13:49:25.018Z</time>
      </trkpt>
      <trkpt lat="47.8514" lon="7.1327">
        <ele>1127.405761719</ele>
        <time>2014-02-09T13:49:42.041Z</time>
      </trkpt>
      <trkpt lat="47.85141" lon="7.13269">
        <ele>1127.452514648</ele>
        <time>2014-02-09T13:49:43.046Z</time>
      </trkpt>
      <trkpt lat="47.85137" lon="7.13281">
        <ele>1132.502075195</ele>
        <time>2014-02-09T13:50:11.967Z</time>
      </trkpt>
      <trkpt lat="47.85136" lon="7.13283">
        <ele>1132.632324219</ele>
        <time>2014-02-09T13:50:12.983Z</time>
      </trkpt>
      <trkpt lat="47.85128" lon="7.1329">
        <ele>1133.319458008</ele>
        <time>2014-02-09T13:50:21.984Z</time>
      </trkpt>
      <trkpt lat="47.85128" lon="7.13291">
        <ele>1133.281738281</ele>
        <time>2014-02-09T13:50:22.982Z</time>
      </trkpt>
      <trkpt lat="47.85121" lon="7.13299">
        <ele>1132.891479492</ele>
        <time>2014-02-09T13:50:30.961Z</time>
      </trkpt>
      <trkpt lat="47.85121" lon="7.13299">
        <ele>1132.881469727</ele>
        <time>2014-02-09T13:50:31.983Z</time>
      </trkpt>
      <trkpt lat="47.85114" lon="7.13307">
        <ele>1131.916992188</ele>
        <time>2014-02-09T13:50:47.98Z</time>
      </trkpt>
      <trkpt lat="47.85114" lon="7.13308">
        <ele>1131.749633789</ele>
        <time>2014-02-09T13:50:48.981Z</time>
      </trkpt>
      <trkpt lat="47.85106" lon="7.13314">
        <ele>1130.790039062</ele>
        <time>2014-02-09T13:51:01.979Z</time>
      </trkpt>
      <trkpt lat="47.85105" lon="7.13315">
        <ele>1130.705078125</ele>
        <time>2014-02-09T13:51:02.989Z</time>
      </trkpt>
      <trkpt lat="47.85097" lon="7.13321">
        <ele>1130.582885742</ele>
        <time>2014-02-09T13:51:08.973Z</time>
      </trkpt>
      <trkpt lat="47.85096" lon="7.13323">
        <ele>1130.598999023</ele>
        <time>2014-02-09T13:51:09.98Z</time>
      </trkpt>
      <trkpt lat="47.85088" lon="7.13329">
        <ele>1130.298095703</ele>
        <time>2014-02-09T13:51:15.006Z</time>
      </trkpt>
      <trkpt lat="47.85087" lon="7.13329">
        <ele>1130.21105957</ele>
        <time>2014-02-09T13:51:15.981Z</time>
      </trkpt>
      <trkpt lat="47.8508" lon="7.13335">
        <ele>1130.178833008</ele>
        <time>2014-02-09T13:51:22.982Z</time>
      </trkpt>
      <trkpt lat="47.85079" lon="7.13337">
        <ele>1130.221435547</ele>
        <time>2014-02-09T13:51:23.979Z</time>
      </trkpt>
      <trkpt lat="47.85073" lon="7.13344">
        <ele>1130.142822266</ele>
        <time>2014-02-09T13:51:28.981Z</time>
      </trkpt>
      <trkpt lat="47.85072" lon="7.13346">
        <ele>1130.131225586</ele>
        <time>2014-02-09T13:51:29.981Z</time>
      </trkpt>
      <trkpt lat="47.85067" lon="7.13355">
        <ele>1130.119140625</ele>
        <time>2014-02-09T13:51:35.981Z</time>
      </trkpt>
      <trkpt lat="47.85066" lon="7.13357">
        <ele>1130.135253906</ele>
        <time>2014-02-09T13:51:36.984Z</time>
      </trkpt>
      <trkpt lat="47.85061" lon="7.13366">
        <ele>1130.554321289</ele>
        <time>2014-02-09T13:51:42.98Z</time>
      </trkpt>
      <trkpt lat="47.85061" lon="7.13369">
        <ele>1130.697753906</ele>
        <time>2014-02-09T13:51:43.979Z</time>
      </trkpt>
      <trkpt lat="47.85059" lon="7.13382">
        <ele>1132.129882812</ele>
        <time>2014-02-09T13:51:51.98Z</time>
      </trkpt>
      <trkpt lat="47.85058" lon="7.13383">
        <ele>1132.198852539</ele>
        <time>2014-02-09T13:51:52.991Z</time>
      </trkpt>
      <trkpt lat="47.85056" lon="7.13394">
        <ele>1133.278930664</ele>
        <time>2014-02-09T13:52:01.979Z</time>
      </trkpt>
      <trkpt lat="47.85055" lon="7.13396">
        <ele>1133.421508789</ele>
        <time>2014-02-09T13:52:02.979Z</time>
      </trkpt>
      <trkpt lat="47.85056" lon="7.13406">
        <ele>1133.913696289</ele>
        <time>2014-02-09T13:52:06.984Z</time>
      </trkpt>
      <trkpt lat="47.85056" lon="7.1341">
        <ele>1134.078857422</ele>
        <time>2014-02-09T13:52:07.98Z</time>
      </trkpt>
      <trkpt lat="47.85056" lon="7.13421">
        <ele>1134.528076172</ele>
        <time>2014-02-09T13:52:12.965Z</time>
      </trkpt>
      <trkpt lat="47.85056" lon="7.13423">
        <ele>1134.650634766</ele>
        <time>2014-02-09T13:52:13.98Z</time>
      </trkpt>
      <trkpt lat="47.85058" lon="7.13435">
        <ele>1135.525390625</ele>
        <time>2014-02-09T13:52:19.978Z</time>
      </trkpt>
      <trkpt lat="47.85058" lon="7.13437">
        <ele>1135.697753906</ele>
        <time>2014-02-09T13:52:20.976Z</time>
      </trkpt>
      <trkpt lat="47.8506" lon="7.13449">
        <ele>1136.455810547</ele>
        <time>2014-02-09T13:52:26.986Z</time>
      </trkpt>
      <trkpt lat="47.8506" lon="7.13451">
        <ele>1136.53918457</ele>
        <time>2014-02-09T13:52:27.972Z</time>
      </trkpt>
      <trkpt lat="47.85061" lon="7.13464">
        <ele>1136.848022461</ele>
        <time>2014-02-09T13:52:32.978Z</time>
      </trkpt>
      <trkpt lat="47.85061" lon="7.13466">
        <ele>1136.801025391</ele>
        <time>2014-02-09T13:52:33.984Z</time>
      </trkpt>
      <trkpt lat="47.85063" lon="7.13478">
        <ele>1136.424194336</ele>
        <time>2014-02-09T13:52:41.972Z</time>
      </trkpt>
      <trkpt lat="47.85064" lon="7.13481">
        <ele>1136.440917969</ele>
        <time>2014-02-09T13:52:42.983Z</time>
      </trkpt>
      <trkpt lat="47.85064" lon="7.13493">
        <ele>1136.424316406</ele>
        <time>2014-02-09T13:52:48.978Z</time>
      </trkpt>
      <trkpt lat="47.85064" lon="7.13495">
        <ele>1136.425292969</ele>
        <time>2014-02-09T13:52:49.984Z</time>
      </trkpt>
      <trkpt lat="47.85067" lon="7.13507">
        <ele>1136.382324219</ele>
        <time>2014-02-09T13:52:55.978Z</time>
      </trkpt>
      <trkpt lat="47.85067" lon="7.13509">
        <ele>1136.396240234</ele>
        <time>2014-02-09T13:52:56.98Z</time>
      </trkpt>
      <trkpt lat="47.85071" lon="7.13521">
        <ele>1136.302001953</ele>
        <time>2014-02-09T13:53:02.985Z</time>
      </trkpt>
      <trkpt lat="47.85072" lon="7.13523">
        <ele>1136.301025391</ele>
        <time>2014-02-09T13:53:03.985Z</time>
      </trkpt>
      <trkpt lat="47.85073" lon="7.13535">
        <ele>1136.086791992</ele>
        <time>2014-02-09T13:53:09.987Z</time>
      </trkpt>
      <trkpt lat="47.85074" lon="7.13536">
        <ele>1136.031860352</ele>
        <time>2014-02-09T13:53:10.986Z</time>
      </trkpt>
      <trkpt lat="47.85077" lon="7.13548">
        <ele>1135.895141602</ele>
        <time>2014-02-09T13:53:15.985Z</time>
      </trkpt>
      <trkpt lat="47.85077" lon="7.1355">
        <ele>1135.851074219</ele>
        <time>2014-02-09T13:53:16.992Z</time>
      </trkpt>
      <trkpt lat="47.85079" lon="7.13562">
        <ele>1135.508056641</ele>
        <time>2014-02-09T13:53:22.99Z</time>
      </trkpt>
      <trkpt lat="47.85079" lon="7.13563">
        <ele>1135.371704102</ele>
        <time>2014-02-09T13:53:23.978Z</time>
      </trkpt>
      <trkpt lat="47.85082" lon="7.13575">
        <ele>1134.796508789</ele>
        <time>2014-02-09T13:53:31.988Z</time>
      </trkpt>
      <trkpt lat="47.85083" lon="7.13577">
        <ele>1134.719238281</ele>
        <time>2014-02-09T13:53:32.986Z</time>
      </trkpt>
      <trkpt lat="47.85088" lon="7.13586">
        <ele>1134.114624023</ele>
        <time>2014-02-09T13:53:39.985Z</time>
      </trkpt>
      <trkpt lat="47.85089" lon="7.13588">
        <ele>1133.986816406</ele>
        <time>2014-02-09T13:53:40.992Z</time>
      </trkpt>
      <trkpt lat="47.85092" lon="7.136">
        <ele>1132.911865234</ele>
        <time>2014-02-09T13:53:48.989Z</time>
      </trkpt>
      <trkpt lat="47.85092" lon="7.13602">
        <ele>1132.780029297</ele>
        <time>2014-02-09T13:53:49.988Z</time>
      </trkpt>
      <trkpt lat="47.85096" lon="7.13611">
        <ele>1132.118896484</ele>
        <time>2014-02-09T13:53:55.986Z</time>
      </trkpt>
      <trkpt lat="47.85099" lon="7.13615">
        <ele>1132.044433594</ele>
        <time>2014-02-09T13:53:56.979Z</time>
      </trkpt>
      <trkpt lat="47.85104" lon="7.13624">
        <ele>1131.780639648</ele>
        <time>2014-02-09T13:54:00.988Z</time>
      </trkpt>
      <trkpt lat="47.85105" lon="7.13626">
        <ele>1131.673339844</ele>
        <time>2014-02-09T13:54:01.991Z</time>
      </trkpt>
      <trkpt lat="47.85112" lon="7.13634">
        <ele>1130.976806641</ele>
        <time>2014-02-09T13:54:06.994Z</time>
      </trkpt>
      <trkpt lat="47.85113" lon="7.13635">
        <ele>1130.801513672</ele>
        <time>2014-02-09T13:54:07.987Z</time>
      </trkpt>
      <trkpt lat="47.8512" lon="7.13638">
        <ele>1129.157348633</ele>
        <time>2014-02-09T13:54:14.991Z</time>
      </trkpt>
      <trkpt lat="47.85121" lon="7.13639">
        <ele>1128.955322266</ele>
        <time>2014-02-09T13:54:15.988Z</time>
      </trkpt>
      <trkpt lat="47.8513" lon="7.1364">
        <ele>1127.507568359</ele>
        <time>2014-02-09T13:54:22.983Z</time>
      </trkpt>
      <trkpt lat="47.8513" lon="7.1364">
        <ele>1127.193969727</ele>
        <time>2014-02-09T13:54:23.969Z</time>
      </trkpt>
      <trkpt lat="47.85138" lon="7.13636">
        <ele>1124.349365234</ele>
        <time>2014-02-09T13:54:30.982Z</time>
      </trkpt>
      <trkpt lat="47.85139" lon="7.13635">
        <ele>1123.857177734</ele>
        <time>2014-02-09T13:54:31.986Z</time>
      </trkpt>
      <trkpt lat="47.85147" lon="7.13632">
        <ele>1119.443969727</ele>
        <time>2014-02-09T13:54:40.982Z</time>
      </trkpt>
      <trkpt lat="47.85148" lon="7.13631">
        <ele>1119.04296875</ele>
        <time>2014-02-09T13:54:41.981Z</time>
      </trkpt>
      <trkpt lat="47.85157" lon="7.13628">
        <ele>1114.91015625</ele>
        <time>2014-02-09T13:54:50.973Z</time>
      </trkpt>
      <trkpt lat="47.85159" lon="7.13627">
        <ele>1114.453369141</ele>
        <time>2014-02-09T13:54:51.986Z</time>
      </trkpt>
      <trkpt lat="47.85167" lon="7.13625">
        <ele>1110.208007812</ele>
        <time>2014-02-09T13:55:00.987Z</time>
      </trkpt>
      <trkpt lat="47.85168" lon="7.13625">
        <ele>1109.821777344</ele>
        <time>2014-02-09T13:55:01.985Z</time>
      </trkpt>
      <trkpt lat="47.85176" lon="7.13621">
        <ele>1106.657348633</ele>
        <time>2014-02-09T13:55:08.97Z</time>
      </trkpt>
      <trkpt lat="47.85177" lon="7.13619">
        <ele>1106.292480469</ele>
        <time>2014-02-09T13:55:09.98Z</time>
      </trkpt>
      <trkpt lat="47.85184" lon="7.13616">
        <ele>1103.579711914</ele>
        <time>2014-02-09T13:55:18.97Z</time>
      </trkpt>
      <trkpt lat="47.85186" lon="7.13615">
        <ele>1103.202880859</ele>
        <time>2014-02-09T13:55:19.983Z</time>
      </trkpt>
      <trkpt lat="47.85194" lon="7.13614">
        <ele>1102.021850586</ele>
        <time>2014-02-09T13:55:23.98Z</time>
      </trkpt>
      <trkpt lat="47.85195" lon="7.13614">
        <ele>1101.690917969</ele>
        <time>2014-02-09T13:55:24.979Z</time>
      </trkpt>
      <trkpt lat="47.85204" lon="7.13611">
        <ele>1097.017700195</ele>
        <time>2014-02-09T13:55:35.962Z</time>
      </trkpt>
      <trkpt lat="47.85204" lon="7.1361">
        <ele>1096.604980469</ele>
        <time>2014-02-09T13:55:36.959Z</time>
      </trkpt>
      <trkpt lat="47.85212" lon="7.13608">
        <ele>1093.60925293</ele>
        <time>2014-02-09T13:55:43.959Z</time>
      </trkpt>
      <trkpt lat="47.85214" lon="7.13608">
        <ele>1093.279785156</ele>
        <time>2014-02-09T13:55:44.957Z</time>
      </trkpt>
      <trkpt lat="47.85222" lon="7.13607">
        <ele>1090.971679688</ele>
        <time>2014-02-09T13:55:52.96Z</time>
      </trkpt>
      <trkpt lat="47.85223" lon="7.13607">
        <ele>1090.833007812</ele>
        <time>2014-02-09T13:55:53.961Z</time>
      </trkpt>
      <trkpt lat="47.85231" lon="7.13603">
        <ele>1090.798950195</ele>
        <time>2014-02-09T13:56:00.963Z</time>
      </trkpt>
      <trkpt lat="47.85232" lon="7.13601">
        <ele>1090.811645508</ele>
        <time>2014-02-09T13:56:01.958Z</time>
      </trkpt>
      <trkpt lat="47.85239" lon="7.13599">
        <ele>1091.408569336</ele>
        <time>2014-02-09T13:56:07.968Z</time>
      </trkpt>
      <trkpt lat="47.85241" lon="7.13599">
        <ele>1091.549316406</ele>
        <time>2014-02-09T13:56:08.96Z</time>
      </trkpt>
      <trkpt lat="47.85249" lon="7.13597">
        <ele>1092.214233398</ele>
        <time>2014-02-09T13:56:15.967Z</time>
      </trkpt>
      <trkpt lat="47.85251" lon="7.13597">
        <ele>1092.205200195</ele>
        <time>2014-02-09T13:56:16.974Z</time>
      </trkpt>
      <trkpt lat="47.85259" lon="7.13595">
        <ele>1091.783935547</ele>
        <time>2014-02-09T13:56:23.969Z</time>
      </trkpt>
      <trkpt lat="47.85261" lon="7.13595">
        <ele>1091.670898438</ele>
        <time>2014-02-09T13:56:24.955Z</time>
      </trkpt>
      <trkpt lat="47.85269" lon="7.13595">
        <ele>1090.483886719</ele>
        <time>2014-02-09T13:56:31.958Z</time>
      </trkpt>
      <trkpt lat="47.8527" lon="7.13594">
        <ele>1090.376586914</ele>
        <time>2014-02-09T13:56:32.978Z</time>
      </trkpt>
      <trkpt lat="47.85279" lon="7.13594">
        <ele>1089.238647461</ele>
        <time>2014-02-09T13:56:40.97Z</time>
      </trkpt>
      <trkpt lat="47.8528" lon="7.13594">
        <ele>1089.100463867</ele>
        <time>2014-02-09T13:56:41.968Z</time>
      </trkpt>
      <trkpt lat="47.85288" lon="7.13594">
        <ele>1087.81237793</ele>
        <time>2014-02-09T13:56:51.967Z</time>
      </trkpt>
      <trkpt lat="47.85289" lon="7.13594">
        <ele>1087.794433594</ele>
        <time>2014-02-09T13:56:52.965Z</time>
      </trkpt>
      <trkpt lat="47.85296" lon="7.1359">
        <ele>1087.824462891</ele>
        <time>2014-02-09T13:56:56.981Z</time>
      </trkpt>
      <trkpt lat="47.85298" lon="7.13589">
        <ele>1087.824462891</ele>
        <time>2014-02-09T13:56:57.978Z</time>
      </trkpt>
      <trkpt lat="47.85304" lon="7.13587">
        <ele>1088.010253906</ele>
        <time>2014-02-09T13:57:08.977Z</time>
      </trkpt>
      <trkpt lat="47.85307" lon="7.13587">
        <ele>1088.026489258</ele>
        <time>2014-02-09T13:57:09.966Z</time>
      </trkpt>
      <trkpt lat="47.85315" lon="7.13589">
        <ele>1087.128540039</ele>
        <time>2014-02-09T13:57:17.968Z</time>
      </trkpt>
      <trkpt lat="47.85316" lon="7.13589">
        <ele>1086.938232422</ele>
        <time>2014-02-09T13:57:18.966Z</time>
      </trkpt>
      <trkpt lat="47.85324" lon="7.13586">
        <ele>1085.57019043</ele>
        <time>2014-02-09T13:57:26.974Z</time>
      </trkpt>
      <trkpt lat="47.85325" lon="7.13585">
        <ele>1085.409057617</ele>
        <time>2014-02-09T13:57:27.966Z</time>
      </trkpt>
      <trkpt lat="47.85332" lon="7.13581">
        <ele>1085.123291016</ele>
        <time>2014-02-09T13:57:32.982Z</time>
      </trkpt>
      <trkpt lat="47.85334" lon="7.1358">
        <ele>1085.0859375</ele>
        <time>2014-02-09T13:57:33.988Z</time>
      </trkpt>
      <trkpt lat="47.85341" lon="7.13575">
        <ele>1084.497802734</ele>
        <time>2014-02-09T13:57:39.99Z</time>
      </trkpt>
      <trkpt lat="47.85342" lon="7.13574">
        <ele>1084.443847656</ele>
        <time>2014-02-09T13:57:40.993Z</time>
      </trkpt>
      <trkpt lat="47.85349" lon="7.1357">
        <ele>1084.189086914</ele>
        <time>2014-02-09T13:57:46.983Z</time>
      </trkpt>
      <trkpt lat="47.85351" lon="7.1357">
        <ele>1084.164672852</ele>
        <time>2014-02-09T13:57:47.99Z</time>
      </trkpt>
      <trkpt lat="47.85357" lon="7.13564">
        <ele>1083.456176758</ele>
        <time>2014-02-09T13:57:57.98Z</time>
      </trkpt>
      <trkpt lat="47.85358" lon="7.13562">
        <ele>1083.428955078</ele>
        <time>2014-02-09T13:57:58.982Z</time>
      </trkpt>
      <trkpt lat="47.85366" lon="7.13556">
        <ele>1083.231811523</ele>
        <time>2014-02-09T13:58:06.975Z</time>
      </trkpt>
      <trkpt lat="47.85367" lon="7.13556">
        <ele>1083.227539062</ele>
        <time>2014-02-09T13:58:07.975Z</time>
      </trkpt>
      <trkpt lat="47.85374" lon="7.1355">
        <ele>1083.245605469</ele>
        <time>2014-02-09T13:58:11.973Z</time>
      </trkpt>
      <trkpt lat="47.85375" lon="7.13549">
        <ele>1083.225341797</ele>
        <time>2014-02-09T13:58:12.97Z</time>
      </trkpt>
      <trkpt lat="47.85383" lon="7.13543">
        <ele>1083.401977539</ele>
        <time>2014-02-09T13:58:18.974Z</time>
      </trkpt>
      <trkpt lat="47.85383" lon="7.13543">
        <ele>1083.416870117</ele>
        <time>2014-02-09T13:58:19.994Z</time>
      </trkpt>
      <trkpt lat="47.85392" lon="7.13541">
        <ele>1083.384399414</ele>
        <time>2014-02-09T13:58:27.966Z</time>
      </trkpt>
      <trkpt lat="47.85393" lon="7.1354">
        <ele>1083.339599609</ele>
        <time>2014-02-09T13:58:28.975Z</time>
      </trkpt>
      <trkpt lat="47.85401" lon="7.13538">
        <ele>1082.772583008</ele>
        <time>2014-02-09T13:58:36.979Z</time>
      </trkpt>
      <trkpt lat="47.85402" lon="7.13537">
        <ele>1082.701538086</ele>
        <time>2014-02-09T13:58:37.974Z</time>
      </trkpt>
      <trkpt lat="47.8541" lon="7.13535">
        <ele>1081.407226562</ele>
        <time>2014-02-09T13:58:48.974Z</time>
      </trkpt>
      <trkpt lat="47.8541" lon="7.13535">
        <ele>1081.246459961</ele>
        <time>2014-02-09T13:58:49.974Z</time>
      </trkpt>
      <trkpt lat="47.85418" lon="7.13531">
        <ele>1080.012329102</ele>
        <time>2014-02-09T13:58:59.972Z</time>
      </trkpt>
      <trkpt lat="47.85419" lon="7.13531">
        <ele>1079.924804688</ele>
        <time>2014-02-09T13:59:00.977Z</time>
      </trkpt>
      <trkpt lat="47.85427" lon="7.13528">
        <ele>1078.879150391</ele>
        <time>2014-02-09T13:59:07.973Z</time>
      </trkpt>
      <trkpt lat="47.85428" lon="7.13527">
        <ele>1078.763183594</ele>
        <time>2014-02-09T13:59:08.965Z</time>
      </trkpt>
      <trkpt lat="47.85436" lon="7.13524">
        <ele>1077.372924805</ele>
        <time>2014-02-09T13:59:18.971Z</time>
      </trkpt>
      <trkpt lat="47.85438" lon="7.13523">
        <ele>1077.1484375</ele>
        <time>2014-02-09T13:59:19.973Z</time>
      </trkpt>
      <trkpt lat="47.85446" lon="7.1352">
        <ele>1076.263061523</ele>
        <time>2014-02-09T13:59:24.97Z</time>
      </trkpt>
      <trkpt lat="47.85447" lon="7.1352">
        <ele>1076.109985352</ele>
        <time>2014-02-09T13:59:25.969Z</time>
      </trkpt>
      <trkpt lat="47.85455" lon="7.13517">
        <ele>1075.11328125</ele>
        <time>2014-02-09T13:59:31.974Z</time>
      </trkpt>
      <trkpt lat="47.85457" lon="7.13517">
        <ele>1074.972412109</ele>
        <time>2014-02-09T13:59:32.968Z</time>
      </trkpt>
      <trkpt lat="47.85465" lon="7.13516">
        <ele>1074.045043945</ele>
        <time>2014-02-09T13:59:38.97Z</time>
      </trkpt>
      <trkpt lat="47.85466" lon="7.13516">
        <ele>1073.91796875</ele>
        <time>2014-02-09T13:59:39.974Z</time>
      </trkpt>
      <trkpt lat="47.85474" lon="7.13516">
        <ele>1073.498168945</ele>
        <time>2014-02-09T13:59:45.97Z</time>
      </trkpt>
      <trkpt lat="47.85476" lon="7.13516">
        <ele>1073.491699219</ele>
        <time>2014-02-09T13:59:46.965Z</time>
      </trkpt>
      <trkpt lat="47.85484" lon="7.1352">
        <ele>1073.230957031</ele>
        <time>2014-02-09T13:59:52.971Z</time>
      </trkpt>
      <trkpt lat="47.85486" lon="7.1352">
        <ele>1073.137939453</ele>
        <time>2014-02-09T13:59:53.968Z</time>
      </trkpt>
      <trkpt lat="47.85494" lon="7.13524">
        <ele>1072.622070312</ele>
        <time>2014-02-09T14:00:00.96Z</time>
      </trkpt>
      <trkpt lat="47.85495" lon="7.13525">
        <ele>1072.5546875</ele>
        <time>2014-02-09T14:00:01.958Z</time>
      </trkpt>
      <trkpt lat="47.85502" lon="7.13529">
        <ele>1072.286499023</ele>
        <time>2014-02-09T14:00:06.965Z</time>
      </trkpt>
      <trkpt lat="47.85504" lon="7.1353">
        <ele>1072.23828125</ele>
        <time>2014-02-09T14:00:07.968Z</time>
      </trkpt>
      <trkpt lat="47.85511" lon="7.13536">
        <ele>1072.083129883</ele>
        <time>2014-02-09T14:00:13.97Z</time>
      </trkpt>
      <trkpt lat="47.85512" lon="7.13536">
        <ele>1072.012207031</ele>
        <time>2014-02-09T14:00:14.971Z</time>
      </trkpt>
      <trkpt lat="47.85519" lon="7.13543">
        <ele>1071.404174805</ele>
        <time>2014-02-09T14:00:21.973Z</time>
      </trkpt>
      <trkpt lat="47.8552" lon="7.13544">
        <ele>1071.316162109</ele>
        <time>2014-02-09T14:00:22.957Z</time>
      </trkpt>
      <trkpt lat="47.85528" lon="7.1355">
        <ele>1070.546875</ele>
        <time>2014-02-09T14:00:28.963Z</time>
      </trkpt>
      <trkpt lat="47.85529" lon="7.13552">
        <ele>1070.446044922</ele>
        <time>2014-02-09T14:00:29.967Z</time>
      </trkpt>
      <trkpt lat="47.85536" lon="7.13559">
        <ele>1069.736083984</ele>
        <time>2014-02-09T14:00:35.971Z</time>
      </trkpt>
      <trkpt lat="47.85537" lon="7.1356">
        <ele>1069.566894531</ele>
        <time>2014-02-09T14:00:36.988Z</time>
      </trkpt>
      <trkpt lat="47.85543" lon="7.13567">
        <ele>1068.858398438</ele>
        <time>2014-02-09T14:00:41.954Z</time>
      </trkpt>
      <trkpt lat="47.85544" lon="7.13568">
        <ele>1068.71484375</ele>
        <time>2014-02-09T14:00:42.967Z</time>
      </trkpt>
      <trkpt lat="47.85551" lon="7.13575">
        <ele>1068.083007812</ele>
        <time>2014-02-09T14:00:48.97Z</time>
      </trkpt>
      <trkpt lat="47.85552" lon="7.13576">
        <ele>1067.909057617</ele>
        <time>2014-02-09T14:00:49.968Z</time>
      </trkpt>
      <trkpt lat="47.85559" lon="7.13583">
        <ele>1066.780761719</ele>
        <time>2014-02-09T14:00:56.963Z</time>
      </trkpt>
      <trkpt lat="47.8556" lon="7.13584">
        <ele>1066.613037109</ele>
        <time>2014-02-09T14:00:57.978Z</time>
      </trkpt>
      <trkpt lat="47.85567" lon="7.13588">
        <ele>1065.666137695</ele>
        <time>2014-02-09T14:01:04.969Z</time>
      </trkpt>
      <trkpt lat="47.85568" lon="7.13589">
        <ele>1065.477172852</ele>
        <time>2014-02-09T14:01:05.966Z</time>
      </trkpt>
      <trkpt lat="47.85576" lon="7.13595">
        <ele>1064.447021484</ele>
        <time>2014-02-09T14:01:11.968Z</time>
      </trkpt>
      <trkpt lat="47.85577" lon="7.13596">
        <ele>1064.30871582</ele>
        <time>2014-02-09T14:01:12.966Z</time>
      </trkpt>
      <trkpt lat="47.85585" lon="7.136">
        <ele>1063.485473633</ele>
        <time>2014-02-09T14:01:18.966Z</time>
      </trkpt>
      <trkpt lat="47.85586" lon="7.13601">
        <ele>1063.33996582</ele>
        <time>2014-02-09T14:01:19.969Z</time>
      </trkpt>
      <trkpt lat="47.85593" lon="7.13607">
        <ele>1062.316650391</ele>
        <time>2014-02-09T14:01:26.961Z</time>
      </trkpt>
      <trkpt lat="47.85594" lon="7.13608">
        <ele>1062.198364258</ele>
        <time>2014-02-09T14:01:27.968Z</time>
      </trkpt>
      <trkpt lat="47.856" lon="7.13615">
        <ele>1060.549316406</ele>
        <time>2014-02-09T14:01:36.962Z</time>
      </trkpt>
      <trkpt lat="47.85602" lon="7.13616">
        <ele>1060.347412109</ele>
        <time>2014-02-09T14:01:37.978Z</time>
      </trkpt>
      <trkpt lat="47.8561" lon="7.1362">
        <ele>1059.200561523</ele>
        <time>2014-02-09T14:01:45.968Z</time>
      </trkpt>
      <trkpt lat="47.85611" lon="7.13621">
        <ele>1059.046875</ele>
        <time>2014-02-09T14:01:46.975Z</time>
      </trkpt>
      <trkpt lat="47.85619" lon="7.13623">
        <ele>1058.112304688</ele>
        <time>2014-02-09T14:01:53.957Z</time>
      </trkpt>
      <trkpt lat="47.8562" lon="7.13623">
        <ele>1058.00769043</ele>
        <time>2014-02-09T14:01:54.96Z</time>
      </trkpt>
      <trkpt lat="47.85628" lon="7.13627">
        <ele>1057.103027344</ele>
        <time>2014-02-09T14:02:02.966Z</time>
      </trkpt>
      <trkpt lat="47.85629" lon="7.13628">
        <ele>1056.948730469</ele>
        <time>2014-02-09T14:02:03.966Z</time>
      </trkpt>
      <trkpt lat="47.85635" lon="7.13636">
        <ele>1055.717285156</ele>
        <time>2014-02-09T14:02:12.964Z</time>
      </trkpt>
      <trkpt lat="47.85636" lon="7.13637">
        <ele>1055.543457031</ele>
        <time>2014-02-09T14:02:13.965Z</time>
      </trkpt>
      <trkpt lat="47.85641" lon="7.13647">
        <ele>1054.668823242</ele>
        <time>2014-02-09T14:02:19.965Z</time>
      </trkpt>
      <trkpt lat="47.85642" lon="7.13648">
        <ele>1054.484130859</ele>
        <time>2014-02-09T14:02:20.965Z</time>
      </trkpt>
      <trkpt lat="47.85646" lon="7.13658">
        <ele>1053.431884766</ele>
        <time>2014-02-09T14:02:26.969Z</time>
      </trkpt>
      <trkpt lat="47.85647" lon="7.13659">
        <ele>1053.230224609</ele>
        <time>2014-02-09T14:02:27.949Z</time>
      </trkpt>
      <trkpt lat="47.85653" lon="7.13669">
        <ele>1051.975830078</ele>
        <time>2014-02-09T14:02:34.964Z</time>
      </trkpt>
      <trkpt lat="47.85654" lon="7.1367">
        <ele>1051.807617188</ele>
        <time>2014-02-09T14:02:35.964Z</time>
      </trkpt>
      <trkpt lat="47.85659" lon="7.1368">
        <ele>1050.83605957</ele>
        <time>2014-02-09T14:02:41.962Z</time>
      </trkpt>
      <trkpt lat="47.85659" lon="7.13681">
        <ele>1050.680664062</ele>
        <time>2014-02-09T14:02:42.963Z</time>
      </trkpt>
      <trkpt lat="47.85665" lon="7.13691">
        <ele>1049.250854492</ele>
        <time>2014-02-09T14:02:50.964Z</time>
      </trkpt>
      <trkpt lat="47.85665" lon="7.13693">
        <ele>1049.114624023</ele>
        <time>2014-02-09T14:02:51.947Z</time>
      </trkpt>
      <trkpt lat="47.85672" lon="7.13702">
        <ele>1047.728271484</ele>
        <time>2014-02-09T14:03:07.972Z</time>
      </trkpt>
      <trkpt lat="47.85672" lon="7.13702">
        <ele>1047.601318359</ele>
        <time>2014-02-09T14:03:08.975Z</time>
      </trkpt>
      <trkpt lat="47.85679" lon="7.13709">
        <ele>1046.447265625</ele>
        <time>2014-02-09T14:03:21.972Z</time>
      </trkpt>
      <trkpt lat="47.8568" lon="7.1371">
        <ele>1046.413452148</ele>
        <time>2014-02-09T14:03:22.957Z</time>
      </trkpt>
      <trkpt lat="47.85682" lon="7.13722">
        <ele>1045.540405273</ele>
        <time>2014-02-09T14:03:31.974Z</time>
      </trkpt>
      <trkpt lat="47.85683" lon="7.13723">
        <ele>1045.468139648</ele>
        <time>2014-02-09T14:03:32.971Z</time>
      </trkpt>
      <trkpt lat="47.85686" lon="7.13735">
        <ele>1044.533813477</ele>
        <time>2014-02-09T14:03:40.972Z</time>
      </trkpt>
      <trkpt lat="47.85687" lon="7.13739">
        <ele>1044.290527344</ele>
        <time>2014-02-09T14:03:41.969Z</time>
      </trkpt>
      <trkpt lat="47.85693" lon="7.1375">
        <ele>1043.116455078</ele>
        <time>2014-02-09T14:03:47.971Z</time>
      </trkpt>
      <trkpt lat="47.85693" lon="7.1375">
        <ele>1042.952636719</ele>
        <time>2014-02-09T14:03:48.964Z</time>
      </trkpt>
      <trkpt lat="47.85699" lon="7.13758">
        <ele>1042.907104492</ele>
        <time>2014-02-09T14:03:54.97Z</time>
      </trkpt>
      <trkpt lat="47.857" lon="7.1376">
        <ele>1042.916992188</ele>
        <time>2014-02-09T14:03:55.973Z</time>
      </trkpt>
      <trkpt lat="47.85707" lon="7.13767">
        <ele>1043.067504883</ele>
        <time>2014-02-09T14:04:02.967Z</time>
      </trkpt>
      <trkpt lat="47.85708" lon="7.1377">
        <ele>1043.08972168</ele>
        <time>2014-02-09T14:04:03.978Z</time>
      </trkpt>
      <trkpt lat="47.85713" lon="7.13779">
        <ele>1042.624633789</ele>
        <time>2014-02-09T14:04:10.972Z</time>
      </trkpt>
      <trkpt lat="47.85713" lon="7.1378">
        <ele>1042.511230469</ele>
        <time>2014-02-09T14:04:11.97Z</time>
      </trkpt>
      <trkpt lat="47.85719" lon="7.13791">
        <ele>1042.48059082</ele>
        <time>2014-02-09T14:04:19.97Z</time>
      </trkpt>
      <trkpt lat="47.85719" lon="7.13792">
        <ele>1042.424316406</ele>
        <time>2014-02-09T14:04:20.968Z</time>
      </trkpt>
      <trkpt lat="47.85725" lon="7.13801">
        <ele>1042.019775391</ele>
        <time>2014-02-09T14:04:33.971Z</time>
      </trkpt>
      <trkpt lat="47.85726" lon="7.13802">
        <ele>1042.020507812</ele>
        <time>2014-02-09T14:04:34.97Z</time>
      </trkpt>
      <trkpt lat="47.85731" lon="7.13812">
        <ele>1041.71105957</ele>
        <time>2014-02-09T14:04:43.96Z</time>
      </trkpt>
      <trkpt lat="47.85732" lon="7.13813">
        <ele>1041.705566406</ele>
        <time>2014-02-09T14:04:44.957Z</time>
      </trkpt>
      <trkpt lat="47.85738" lon="7.13823">
        <ele>1042.110351562</ele>
        <time>2014-02-09T14:04:52.969Z</time>
      </trkpt>
      <trkpt lat="47.85738" lon="7.13824">
        <ele>1042.208496094</ele>
        <time>2014-02-09T14:04:53.97Z</time>
      </trkpt>
      <trkpt lat="47.85744" lon="7.13834">
        <ele>1042.330932617</ele>
        <time>2014-02-09T14:05:02.98Z</time>
      </trkpt>
      <trkpt lat="47.85745" lon="7.13835">
        <ele>1042.384887695</ele>
        <time>2014-02-09T14:05:03.968Z</time>
      </trkpt>
      <trkpt lat="47.8575" lon="7.13845">
        <ele>1043.097412109</ele>
        <time>2014-02-09T14:05:12.967Z</time>
      </trkpt>
      <trkpt lat="47.85751" lon="7.13846">
        <ele>1043.155639648</ele>
        <time>2014-02-09T14:05:13.971Z</time>
      </trkpt>
      <trkpt lat="47.85758" lon="7.13854">
        <ele>1044.510131836</ele>
        <time>2014-02-09T14:05:23.95Z</time>
      </trkpt>
      <trkpt lat="47.85758" lon="7.13854">
        <ele>1044.625244141</ele>
        <time>2014-02-09T14:05:24.969Z</time>
      </trkpt>
      <trkpt lat="47.85764" lon="7.13863">
        <ele>1046.465209961</ele>
        <time>2014-02-09T14:05:34.967Z</time>
      </trkpt>
      <trkpt lat="47.85764" lon="7.13865">
        <ele>1046.612182617</ele>
        <time>2014-02-09T14:05:35.978Z</time>
      </trkpt>
      <trkpt lat="47.85759" lon="7.13876">
        <ele>1047.35559082</ele>
        <time>2014-02-09T14:05:45.983Z</time>
      </trkpt>
      <trkpt lat="47.85758" lon="7.13877">
        <ele>1047.311279297</ele>
        <time>2014-02-09T14:05:46.968Z</time>
      </trkpt>
      <trkpt lat="47.85753" lon="7.13886">
        <ele>1047.012695312</ele>
        <time>2014-02-09T14:05:52.966Z</time>
      </trkpt>
      <trkpt lat="47.85752" lon="7.13887">
        <ele>1046.828369141</ele>
        <time>2014-02-09T14:05:53.976Z</time>
      </trkpt>
      <trkpt lat="47.85748" lon="7.13899">
        <ele>1046.634521484</ele>
        <time>2014-02-09T14:06:00.968Z</time>
      </trkpt>
      <trkpt lat="47.85747" lon="7.13902">
        <ele>1046.657226562</ele>
        <time>2014-02-09T14:06:01.951Z</time>
      </trkpt>
      <trkpt lat="47.85747" lon="7.13914">
        <ele>1046.898193359</ele>
        <time>2014-02-09T14:06:06.972Z</time>
      </trkpt>
      <trkpt lat="47.85747" lon="7.13916">
        <ele>1046.981933594</ele>
        <time>2014-02-09T14:06:07.96Z</time>
      </trkpt>
      <trkpt lat="47.85747" lon="7.13928">
        <ele>1047.515991211</ele>
        <time>2014-02-09T14:06:13.964Z</time>
      </trkpt>
      <trkpt lat="47.85746" lon="7.1393">
        <ele>1047.682373047</ele>
        <time>2014-02-09T14:06:14.961Z</time>
      </trkpt>
      <trkpt lat="47.85746" lon="7.13943">
        <ele>1049.470703125</ele>
        <time>2014-02-09T14:06:24.969Z</time>
      </trkpt>
      <trkpt lat="47.85747" lon="7.13944">
        <ele>1049.593139648</ele>
        <time>2014-02-09T14:06:25.965Z</time>
      </trkpt>
      <trkpt lat="47.85748" lon="7.13956">
        <ele>1052.369140625</ele>
        <time>2014-02-09T14:06:36.954Z</time>
      </trkpt>
      <trkpt lat="47.85748" lon="7.13958">
        <ele>1052.698608398</ele>
        <time>2014-02-09T14:06:37.958Z</time>
      </trkpt>
      <trkpt lat="47.85749" lon="7.1397">
        <ele>1055.247070312</ele>
        <time>2014-02-09T14:06:45.967Z</time>
      </trkpt>
      <trkpt lat="47.8575" lon="7.13971">
        <ele>1055.592895508</ele>
        <time>2014-02-09T14:06:46.97Z</time>
      </trkpt>
      <trkpt lat="47.85751" lon="7.13983">
        <ele>1057.669433594</ele>
        <time>2014-02-09T14:06:55.957Z</time>
      </trkpt>
      <trkpt lat="47.85751" lon="7.13985">
        <ele>1057.821533203</ele>
        <time>2014-02-09T14:06:56.979Z</time>
      </trkpt>
      <trkpt lat="47.8575" lon="7.13997">
        <ele>1058.182128906</ele>
        <time>2014-02-09T14:07:04.969Z</time>
      </trkpt>
      <trkpt lat="47.8575" lon="7.13999">
        <ele>1058.034057617</ele>
        <time>2014-02-09T14:07:05.966Z</time>
      </trkpt>
      <trkpt lat="47.85746" lon="7.14011">
        <ele>1057.352905273</ele>
        <time>2014-02-09T14:07:13.963Z</time>
      </trkpt>
      <trkpt lat="47.85746" lon="7.14012">
        <ele>1057.287231445</ele>
        <time>2014-02-09T14:07:14.981Z</time>
      </trkpt>
      <trkpt lat="47.85743" lon="7.1402">
        <ele>1056.419433594</ele>
        <time>2014-02-09T14:07:20.978Z</time>
      </trkpt>
      <trkpt lat="47.85743" lon="7.14025">
        <ele>1056.276123047</ele>
        <time>2014-02-09T14:07:21.966Z</time>
      </trkpt>
      <trkpt lat="47.85739" lon="7.14035">
        <ele>1055.794433594</ele>
        <time>2014-02-09T14:07:26.972Z</time>
      </trkpt>
      <trkpt lat="47.85739" lon="7.14037">
        <ele>1055.700317383</ele>
        <time>2014-02-09T14:07:27.974Z</time>
      </trkpt>
      <trkpt lat="47.85738" lon="7.14049">
        <ele>1055.169799805</ele>
        <time>2014-02-09T14:07:32.973Z</time>
      </trkpt>
      <trkpt lat="47.85738" lon="7.14051">
        <ele>1055.081665039</ele>
        <time>2014-02-09T14:07:33.98Z</time>
      </trkpt>
      <trkpt lat="47.85735" lon="7.14063">
        <ele>1054.233154297</ele>
        <time>2014-02-09T14:07:41.966Z</time>
      </trkpt>
      <trkpt lat="47.85735" lon="7.14065">
        <ele>1053.98828125</ele>
        <time>2014-02-09T14:07:42.977Z</time>
      </trkpt>
      <trkpt lat="47.85734" lon="7.14077">
        <ele>1052.927246094</ele>
        <time>2014-02-09T14:07:47.977Z</time>
      </trkpt>
      <trkpt lat="47.85734" lon="7.14079">
        <ele>1052.839599609</ele>
        <time>2014-02-09T14:07:48.969Z</time>
      </trkpt>
      <trkpt lat="47.85734" lon="7.14091">
        <ele>1052.167114258</ele>
        <time>2014-02-09T14:07:56.96Z</time>
      </trkpt>
      <trkpt lat="47.85734" lon="7.14093">
        <ele>1052.029541016</ele>
        <time>2014-02-09T14:07:57.962Z</time>
      </trkpt>
      <trkpt lat="47.8573" lon="7.14104">
        <ele>1050.150512695</ele>
        <time>2014-02-09T14:08:06.972Z</time>
      </trkpt>
      <trkpt lat="47.8573" lon="7.14106">
        <ele>1049.921142578</ele>
        <time>2014-02-09T14:08:07.961Z</time>
      </trkpt>
      <trkpt lat="47.85726" lon="7.14117">
        <ele>1048.243896484</ele>
        <time>2014-02-09T14:08:15.98Z</time>
      </trkpt>
      <trkpt lat="47.85725" lon="7.14118">
        <ele>1048.116577148</ele>
        <time>2014-02-09T14:08:16.977Z</time>
      </trkpt>
      <trkpt lat="47.85724" lon="7.1413">
        <ele>1046.952636719</ele>
        <time>2014-02-09T14:08:23.967Z</time>
      </trkpt>
      <trkpt lat="47.85724" lon="7.14132">
        <ele>1046.797729492</ele>
        <time>2014-02-09T14:08:24.968Z</time>
      </trkpt>
      <trkpt lat="47.85722" lon="7.14144">
        <ele>1044.312866211</ele>
        <time>2014-02-09T14:08:38.949Z</time>
      </trkpt>
      <trkpt lat="47.85722" lon="7.14146">
        <ele>1044.005249023</ele>
        <time>2014-02-09T14:08:39.964Z</time>
      </trkpt>
      <trkpt lat="47.85722" lon="7.14158">
        <ele>1042.801879883</ele>
        <time>2014-02-09T14:08:43.965Z</time>
      </trkpt>
      <trkpt lat="47.85722" lon="7.14159">
        <ele>1042.388061523</ele>
        <time>2014-02-09T14:08:44.97Z</time>
      </trkpt>
      <trkpt lat="47.85725" lon="7.14172">
        <ele>1037.428710938</ele>
        <time>2014-02-09T14:09:00.945Z</time>
      </trkpt>
      <trkpt lat="47.85726" lon="7.14173">
        <ele>1037.168212891</ele>
        <time>2014-02-09T14:09:01.946Z</time>
      </trkpt>
      <trkpt lat="47.85728" lon="7.14183">
        <ele>1034.296264648</ele>
        <time>2014-02-09T14:09:10.945Z</time>
      </trkpt>
      <trkpt lat="47.85728" lon="7.14186">
        <ele>1033.895996094</ele>
        <time>2014-02-09T14:09:11.944Z</time>
      </trkpt>
      <trkpt lat="47.85729" lon="7.14195">
        <ele>1032.359008789</ele>
        <time>2014-02-09T14:09:16.949Z</time>
      </trkpt>
      <trkpt lat="47.85729" lon="7.142">
        <ele>1032.037109375</ele>
        <time>2014-02-09T14:09:17.946Z</time>
      </trkpt>
      <trkpt lat="47.85728" lon="7.14211">
        <ele>1031.318969727</ele>
        <time>2014-02-09T14:09:19.945Z</time>
      </trkpt>
      <trkpt lat="47.85727" lon="7.14216">
        <ele>1031.024536133</ele>
        <time>2014-02-09T14:09:20.942Z</time>
      </trkpt>
      <trkpt lat="47.85726" lon="7.1422">
        <ele>1030.698730469</ele>
        <time>2014-02-09T14:09:21.955Z</time>
      </trkpt>
      <trkpt lat="47.85727" lon="7.14231">
        <ele>1030.485351562</ele>
        <time>2014-02-09T14:09:22.945Z</time>
      </trkpt>
      <trkpt lat="47.85725" lon="7.14243">
        <ele>1028.771118164</ele>
        <time>2014-02-09T14:09:34.957Z</time>
      </trkpt>
      <trkpt lat="47.85725" lon="7.14244">
        <ele>1028.635253906</ele>
        <time>2014-02-09T14:09:35.954Z</time>
      </trkpt>
      <trkpt lat="47.85724" lon="7.14255">
        <ele>1027.15234375</ele>
        <time>2014-02-09T14:09:45.952Z</time>
      </trkpt>
      <trkpt lat="47.85723" lon="7.14257">
        <ele>1027.0859375</ele>
        <time>2014-02-09T14:09:46.95Z</time>
      </trkpt>
      <trkpt lat="47.85723" lon="7.14269">
        <ele>1027.177124023</ele>
        <time>2014-02-09T14:09:51.942Z</time>
      </trkpt>
      <trkpt lat="47.85723" lon="7.1427">
        <ele>1027.172607422</ele>
        <time>2014-02-09T14:09:52.943Z</time>
      </trkpt>
      <trkpt lat="47.85726" lon="7.14282">
        <ele>1027.675292969</ele>
        <time>2014-02-09T14:10:00.952Z</time>
      </trkpt>
      <trkpt lat="47.85727" lon="7.14284">
        <ele>1027.844482422</ele>
        <time>2014-02-09T14:10:01.931Z</time>
      </trkpt>
      <trkpt lat="47.8573" lon="7.14294">
        <ele>1028.305297852</ele>
        <time>2014-02-09T14:10:05.943Z</time>
      </trkpt>
      <trkpt lat="47.85731" lon="7.14297">
        <ele>1028.322753906</ele>
        <time>2014-02-09T14:10:06.948Z</time>
      </trkpt>
      <trkpt lat="47.8573" lon="7.1431">
        <ele>1027.737792969</ele>
        <time>2014-02-09T14:10:11.939Z</time>
      </trkpt>
      <trkpt lat="47.85731" lon="7.1431">
        <ele>1027.666137695</ele>
        <time>2014-02-09T14:10:12.949Z</time>
      </trkpt>
      <trkpt lat="47.85733" lon="7.14322">
        <ele>1026.845825195</ele>
        <time>2014-02-09T14:10:21.958Z</time>
      </trkpt>
      <trkpt lat="47.85733" lon="7.14324">
        <ele>1026.790771484</ele>
        <time>2014-02-09T14:10:22.952Z</time>
      </trkpt>
      <trkpt lat="47.8573" lon="7.14336">
        <ele>1026.118896484</ele>
        <time>2014-02-09T14:10:28.959Z</time>
      </trkpt>
      <trkpt lat="47.8573" lon="7.14337">
        <ele>1025.852783203</ele>
        <time>2014-02-09T14:10:29.945Z</time>
      </trkpt>
      <trkpt lat="47.85733" lon="7.1435">
        <ele>1024.28112793</ele>
        <time>2014-02-09T14:10:35.958Z</time>
      </trkpt>
      <trkpt lat="47.85733" lon="7.14352">
        <ele>1023.995544434</ele>
        <time>2014-02-09T14:10:36.964Z</time>
      </trkpt>
      <trkpt lat="47.85736" lon="7.14363">
        <ele>1021.953918457</ele>
        <time>2014-02-09T14:10:54.949Z</time>
      </trkpt>
      <trkpt lat="47.85737" lon="7.14364">
        <ele>1021.609741211</ele>
        <time>2014-02-09T14:10:55.947Z</time>
      </trkpt>
      <trkpt lat="47.8574" lon="7.14376">
        <ele>1018.840332031</ele>
        <time>2014-02-09T14:11:02.945Z</time>
      </trkpt>
      <trkpt lat="47.8574" lon="7.14378">
        <ele>1018.511474609</ele>
        <time>2014-02-09T14:11:03.948Z</time>
      </trkpt>
      <trkpt lat="47.85736" lon="7.14389">
        <ele>1015.691589355</ele>
        <time>2014-02-09T14:11:13.949Z</time>
      </trkpt>
      <trkpt lat="47.85736" lon="7.14391">
        <ele>1015.327819824</ele>
        <time>2014-02-09T14:11:14.948Z</time>
      </trkpt>
      <trkpt lat="47.85735" lon="7.14403">
        <ele>1013.001342773</ele>
        <time>2014-02-09T14:11:20.953Z</time>
      </trkpt>
      <trkpt lat="47.85734" lon="7.14406">
        <ele>1012.576477051</ele>
        <time>2014-02-09T14:11:21.955Z</time>
      </trkpt>
      <trkpt lat="47.85729" lon="7.1441">
        <ele>1010.840026855</ele>
        <time>2014-02-09T14:11:25.938Z</time>
      </trkpt>
      <trkpt lat="47.85726" lon="7.14413">
        <ele>1010.496459961</ele>
        <time>2014-02-09T14:11:26.959Z</time>
      </trkpt>
      <trkpt lat="47.85719" lon="7.14421">
        <ele>1008.189758301</ele>
        <time>2014-02-09T14:11:34.954Z</time>
      </trkpt>
      <trkpt lat="47.85719" lon="7.14423">
        <ele>1007.896179199</ele>
        <time>2014-02-09T14:11:35.952Z</time>
      </trkpt>
      <trkpt lat="47.85723" lon="7.14434">
        <ele>1005.770385742</ele>
        <time>2014-02-09T14:11:40.948Z</time>
      </trkpt>
      <trkpt lat="47.85722" lon="7.14436">
        <ele>1005.358947754</ele>
        <time>2014-02-09T14:11:41.953Z</time>
      </trkpt>
      <trkpt lat="47.8572" lon="7.14449">
        <ele>1003.443603516</ele>
        <time>2014-02-09T14:11:48.947Z</time>
      </trkpt>
      <trkpt lat="47.8572" lon="7.14452">
        <ele>1003.128601074</ele>
        <time>2014-02-09T14:11:49.948Z</time>
      </trkpt>
      <trkpt lat="47.85719" lon="7.14465">
        <ele>1002.377380371</ele>
        <time>2014-02-09T14:11:53.934Z</time>
      </trkpt>
      <trkpt lat="47.85721" lon="7.14468">
        <ele>1002.109558105</ele>
        <time>2014-02-09T14:11:54.947Z</time>
      </trkpt>
      <trkpt lat="47.85725" lon="7.14477">
        <ele>1001.134765625</ele>
        <time>2014-02-09T14:11:57.945Z</time>
      </trkpt>
      <trkpt lat="47.85725" lon="7.1448">
        <ele>1000.794250488</ele>
        <time>2014-02-09T14:11:58.948Z</time>
      </trkpt>
      <trkpt lat="47.85728" lon="7.14491">
        <ele>999.00213623</ele>
        <time>2014-02-09T14:12:04.953Z</time>
      </trkpt>
      <trkpt lat="47.85728" lon="7.14493">
        <ele>998.699890137</ele>
        <time>2014-02-09T14:12:05.954Z</time>
      </trkpt>
      <trkpt lat="47.85731" lon="7.14504">
        <ele>997.666748047</ele>
        <time>2014-02-09T14:12:08.958Z</time>
      </trkpt>
      <trkpt lat="47.85731" lon="7.14507">
        <ele>997.304321289</ele>
        <time>2014-02-09T14:12:09.955Z</time>
      </trkpt>
      <trkpt lat="47.85735" lon="7.14519">
        <ele>995.850708008</ele>
        <time>2014-02-09T14:12:13.958Z</time>
      </trkpt>
      <trkpt lat="47.85735" lon="7.1452">
        <ele>995.574523926</ele>
        <time>2014-02-09T14:12:14.952Z</time>
      </trkpt>
      <trkpt lat="47.85735" lon="7.14534">
        <ele>993.695373535</ele>
        <time>2014-02-09T14:12:25.954Z</time>
      </trkpt>
      <trkpt lat="47.85736" lon="7.14535">
        <ele>993.526855469</ele>
        <time>2014-02-09T14:12:26.961Z</time>
      </trkpt>
      <trkpt lat="47.85739" lon="7.14543">
        <ele>992.986816406</ele>
        <time>2014-02-09T14:12:29.957Z</time>
      </trkpt>
      <trkpt lat="47.85741" lon="7.14547">
        <ele>992.829101562</ele>
        <time>2014-02-09T14:12:30.951Z</time>
      </trkpt>
      <trkpt lat="47.85746" lon="7.14555">
        <ele>992.562194824</ele>
        <time>2014-02-09T14:12:35.957Z</time>
      </trkpt>
      <trkpt lat="47.85747" lon="7.14557">
        <ele>992.401428223</ele>
        <time>2014-02-09T14:12:36.962Z</time>
      </trkpt>
      <trkpt lat="47.8575" lon="7.14562">
        <ele>991.822998047</ele>
        <time>2014-02-09T14:12:40.957Z</time>
      </trkpt>
      <trkpt lat="47.85752" lon="7.14568">
        <ele>991.656311035</ele>
        <time>2014-02-09T14:12:41.956Z</time>
      </trkpt>
      <trkpt lat="47.85757" lon="7.14578">
        <ele>991.132446289</ele>
        <time>2014-02-09T14:12:48.953Z</time>
      </trkpt>
      <trkpt lat="47.85758" lon="7.14579">
        <ele>991.119689941</ele>
        <time>2014-02-09T14:12:49.965Z</time>
      </trkpt>
      <trkpt lat="47.85762" lon="7.1459">
        <ele>991.114318848</ele>
        <time>2014-02-09T14:12:56.971Z</time>
      </trkpt>
      <trkpt lat="47.85763" lon="7.14591">
        <ele>991.117248535</ele>
        <time>2014-02-09T14:12:57.965Z</time>
      </trkpt>
      <trkpt lat="47.85763" lon="7.14604">
        <ele>991.211975098</ele>
        <time>2014-02-09T14:13:04.957Z</time>
      </trkpt>
      <trkpt lat="47.85764" lon="7.14606">
        <ele>991.27532959</ele>
        <time>2014-02-09T14:13:05.942Z</time>
      </trkpt>
      <trkpt lat="47.85767" lon="7.14617">
        <ele>991.41015625</ele>
        <time>2014-02-09T14:13:08.951Z</time>
      </trkpt>
      <trkpt lat="47.85768" lon="7.14621">
        <ele>991.477539062</ele>
        <time>2014-02-09T14:13:09.947Z</time>
      </trkpt>
      <trkpt lat="47.85771" lon="7.14632">
        <ele>991.878112793</ele>
        <time>2014-02-09T14:13:17.938Z</time>
      </trkpt>
      <trkpt lat="47.85771" lon="7.14633">
        <ele>991.861816406</ele>
        <time>2014-02-09T14:13:18.948Z</time>
      </trkpt>
      <trkpt lat="47.85774" lon="7.14646">
        <ele>991.20880127</ele>
        <time>2014-02-09T14:13:28.96Z</time>
      </trkpt>
      <trkpt lat="47.85775" lon="7.14647">
        <ele>991.091247559</ele>
        <time>2014-02-09T14:13:29.959Z</time>
      </trkpt>
      <trkpt lat="47.85779" lon="7.14657">
        <ele>990.296508789</ele>
        <time>2014-02-09T14:13:36.932Z</time>
      </trkpt>
      <trkpt lat="47.85779" lon="7.14659">
        <ele>990.03503418</ele>
        <time>2014-02-09T14:13:37.96Z</time>
      </trkpt>
      <trkpt lat="47.85783" lon="7.1467">
        <ele>988.872802734</ele>
        <time>2014-02-09T14:13:41.97Z</time>
      </trkpt>
      <trkpt lat="47.85783" lon="7.14672">
        <ele>988.634033203</ele>
        <time>2014-02-09T14:13:42.948Z</time>
      </trkpt>
      <trkpt lat="47.85786" lon="7.14684">
        <ele>983.906433105</ele>
        <time>2014-02-09T14:14:33.949Z</time>
      </trkpt>
      <trkpt lat="47.85785" lon="7.14685">
        <ele>983.891540527</ele>
        <time>2014-02-09T14:14:34.944Z</time>
      </trkpt>
      <trkpt lat="47.85777" lon="7.14689">
        <ele>978.722167969</ele>
        <time>2014-02-09T14:16:21.941Z</time>
      </trkpt>
      <trkpt lat="47.85776" lon="7.14689">
        <ele>978.647216797</ele>
        <time>2014-02-09T14:16:22.944Z</time>
      </trkpt>
      <trkpt lat="47.85767" lon="7.1469">
        <ele>977.583984375</ele>
        <time>2014-02-09T14:16:36.949Z</time>
      </trkpt>
      <trkpt lat="47.85766" lon="7.1469">
        <ele>977.552368164</ele>
        <time>2014-02-09T14:16:37.925Z</time>
      </trkpt>
      <trkpt lat="47.85758" lon="7.14693">
        <ele>976.820556641</ele>
        <time>2014-02-09T14:16:47.945Z</time>
      </trkpt>
      <trkpt lat="47.85757" lon="7.14694">
        <ele>976.715026855</ele>
        <time>2014-02-09T14:16:48.945Z</time>
      </trkpt>
      <trkpt lat="47.85749" lon="7.14699">
        <ele>975.783935547</ele>
        <time>2014-02-09T14:16:56.95Z</time>
      </trkpt>
      <trkpt lat="47.85748" lon="7.14699">
        <ele>975.757995605</ele>
        <time>2014-02-09T14:16:57.96Z</time>
      </trkpt>
      <trkpt lat="47.85739" lon="7.14699">
        <ele>975.641723633</ele>
        <time>2014-02-09T14:17:05.941Z</time>
      </trkpt>
      <trkpt lat="47.85738" lon="7.147">
        <ele>975.625488281</ele>
        <time>2014-02-09T14:17:06.94Z</time>
      </trkpt>
      <trkpt lat="47.85733" lon="7.1471">
        <ele>975.058776855</ele>
        <time>2014-02-09T14:17:20.939Z</time>
      </trkpt>
      <trkpt lat="47.85733" lon="7.14711">
        <ele>975.056274414</ele>
        <time>2014-02-09T14:17:21.94Z</time>
      </trkpt>
      <trkpt lat="47.85729" lon="7.14723">
        <ele>970.512756348</ele>
        <time>2014-02-09T14:18:47.916Z</time>
      </trkpt>
      <trkpt lat="47.8573" lon="7.14724">
        <ele>970.364135742</ele>
        <time>2014-02-09T14:18:48.93Z</time>
      </trkpt>
      <trkpt lat="47.85734" lon="7.14735">
        <ele>968.244140625</ele>
        <time>2014-02-09T14:19:01.932Z</time>
      </trkpt>
      <trkpt lat="47.85735" lon="7.14736">
        <ele>968.048034668</ele>
        <time>2014-02-09T14:19:02.932Z</time>
      </trkpt>
      <trkpt lat="47.8574" lon="7.14747">
        <ele>965.907958984</ele>
        <time>2014-02-09T14:19:30.937Z</time>
      </trkpt>
      <trkpt lat="47.8574" lon="7.14747">
        <ele>965.766357422</ele>
        <time>2014-02-09T14:19:31.93Z</time>
      </trkpt>
      <trkpt lat="47.85746" lon="7.14758">
        <ele>963.550170898</ele>
        <time>2014-02-09T14:19:42.928Z</time>
      </trkpt>
      <trkpt lat="47.85746" lon="7.14759">
        <ele>963.319519043</ele>
        <time>2014-02-09T14:19:43.928Z</time>
      </trkpt>
      <trkpt lat="47.8575" lon="7.14769">
        <ele>961.511779785</ele>
        <time>2014-02-09T14:19:51.935Z</time>
      </trkpt>
      <trkpt lat="47.85751" lon="7.14771">
        <ele>961.319030762</ele>
        <time>2014-02-09T14:19:52.937Z</time>
      </trkpt>
      <trkpt lat="47.85754" lon="7.14783">
        <ele>960.55847168</ele>
        <time>2014-02-09T14:19:59.938Z</time>
      </trkpt>
      <trkpt lat="47.85755" lon="7.14785">
        <ele>960.47833252</ele>
        <time>2014-02-09T14:20:00.936Z</time>
      </trkpt>
      <trkpt lat="47.8576" lon="7.14794">
        <ele>958.874328613</ele>
        <time>2014-02-09T14:20:09.925Z</time>
      </trkpt>
      <trkpt lat="47.85761" lon="7.14795">
        <ele>958.566650391</ele>
        <time>2014-02-09T14:20:10.944Z</time>
      </trkpt>
      <trkpt lat="47.85767" lon="7.14803">
        <ele>957.397827148</ele>
        <time>2014-02-09T14:20:15.944Z</time>
      </trkpt>
      <trkpt lat="47.85768" lon="7.14805">
        <ele>957.213562012</ele>
        <time>2014-02-09T14:20:16.947Z</time>
      </trkpt>
      <trkpt lat="47.85773" lon="7.14814">
        <ele>956.376098633</ele>
        <time>2014-02-09T14:20:21.946Z</time>
      </trkpt>
      <trkpt lat="47.85774" lon="7.14815">
        <ele>956.208312988</ele>
        <time>2014-02-09T14:20:22.934Z</time>
      </trkpt>
      <trkpt lat="47.85777" lon="7.14826">
        <ele>955.551757812</ele>
        <time>2014-02-09T14:20:28.933Z</time>
      </trkpt>
      <trkpt lat="47.85777" lon="7.14828">
        <ele>955.43963623</ele>
        <time>2014-02-09T14:20:29.933Z</time>
      </trkpt>
      <trkpt lat="47.8577" lon="7.14836">
        <ele>954.342285156</ele>
        <time>2014-02-09T14:20:41.922Z</time>
      </trkpt>
      <trkpt lat="47.85769" lon="7.14837">
        <ele>954.217407227</ele>
        <time>2014-02-09T14:20:42.914Z</time>
      </trkpt>
      <trkpt lat="47.8577" lon="7.1485">
        <ele>950.675231934</ele>
        <time>2014-02-09T14:21:47.916Z</time>
      </trkpt>
      <trkpt lat="47.8577" lon="7.14852">
        <ele>950.565490723</ele>
        <time>2014-02-09T14:21:48.922Z</time>
      </trkpt>
      <trkpt lat="47.85774" lon="7.14864">
        <ele>949.518432617</ele>
        <time>2014-02-09T14:21:56.931Z</time>
      </trkpt>
      <trkpt lat="47.85775" lon="7.14866">
        <ele>949.440734863</ele>
        <time>2014-02-09T14:21:57.927Z</time>
      </trkpt>
      <trkpt lat="47.8578" lon="7.14875">
        <ele>949.026550293</ele>
        <time>2014-02-09T14:22:03.927Z</time>
      </trkpt>
      <trkpt lat="47.85781" lon="7.14876">
        <ele>948.933288574</ele>
        <time>2014-02-09T14:22:04.929Z</time>
      </trkpt>
      <trkpt lat="47.85786" lon="7.14886">
        <ele>947.926513672</ele>
        <time>2014-02-09T14:22:13.923Z</time>
      </trkpt>
      <trkpt lat="47.85787" lon="7.14888">
        <ele>947.871154785</ele>
        <time>2014-02-09T14:22:14.923Z</time>
      </trkpt>
      <trkpt lat="47.85791" lon="7.14899">
        <ele>947.377502441</ele>
        <time>2014-02-09T14:22:25.987Z</time>
      </trkpt>
      <trkpt lat="47.85791" lon="7.149">
        <ele>947.393005371</ele>
        <time>2014-02-09T14:22:26.98Z</time>
      </trkpt>
      <trkpt lat="47.85795" lon="7.14912">
        <ele>947.249694824</ele>
        <time>2014-02-09T14:22:33.973Z</time>
      </trkpt>
      <trkpt lat="47.85796" lon="7.14913">
        <ele>947.213195801</ele>
        <time>2014-02-09T14:22:34.981Z</time>
      </trkpt>
      <trkpt lat="47.85799" lon="7.14925">
        <ele>947.117370605</ele>
        <time>2014-02-09T14:22:41.982Z</time>
      </trkpt>
      <trkpt lat="47.858" lon="7.14926">
        <ele>947.040283203</ele>
        <time>2014-02-09T14:22:42.981Z</time>
      </trkpt>
      <trkpt lat="47.85802" lon="7.14938">
        <ele>946.396850586</ele>
        <time>2014-02-09T14:22:51.93Z</time>
      </trkpt>
      <trkpt lat="47.85803" lon="7.1494">
        <ele>946.428405762</ele>
        <time>2014-02-09T14:22:52.926Z</time>
      </trkpt>
      <trkpt lat="47.85807" lon="7.1495">
        <ele>946.056762695</ele>
        <time>2014-02-09T14:22:57.928Z</time>
      </trkpt>
      <trkpt lat="47.85807" lon="7.14951">
        <ele>945.999450684</ele>
        <time>2014-02-09T14:22:58.928Z</time>
      </trkpt>
      <trkpt lat="47.85811" lon="7.14961">
        <ele>945.763366699</ele>
        <time>2014-02-09T14:23:06.934Z</time>
      </trkpt>
      <trkpt lat="47.85812" lon="7.14965">
        <ele>945.781677246</ele>
        <time>2014-02-09T14:23:07.93Z</time>
      </trkpt>
      <trkpt lat="47.85815" lon="7.14976">
        <ele>945.791442871</ele>
        <time>2014-02-09T14:23:15.929Z</time>
      </trkpt>
      <trkpt lat="47.85815" lon="7.14978">
        <ele>945.721069336</ele>
        <time>2014-02-09T14:23:16.924Z</time>
      </trkpt>
      <trkpt lat="47.85819" lon="7.14989">
        <ele>944.476745605</ele>
        <time>2014-02-09T14:23:26.934Z</time>
      </trkpt>
      <trkpt lat="47.85819" lon="7.1499">
        <ele>944.307250977</ele>
        <time>2014-02-09T14:23:27.932Z</time>
      </trkpt>
      <trkpt lat="47.85821" lon="7.15002">
        <ele>943.553161621</ele>
        <time>2014-02-09T14:23:35.942Z</time>
      </trkpt>
      <trkpt lat="47.85822" lon="7.15004">
        <ele>943.511352539</ele>
        <time>2014-02-09T14:23:36.934Z</time>
      </trkpt>
      <trkpt lat="47.85824" lon="7.15016">
        <ele>943.684631348</ele>
        <time>2014-02-09T14:23:44.928Z</time>
      </trkpt>
      <trkpt lat="47.85824" lon="7.15018">
        <ele>943.746887207</ele>
        <time>2014-02-09T14:23:45.928Z</time>
      </trkpt>
      <trkpt lat="47.85825" lon="7.15029">
        <ele>943.807556152</ele>
        <time>2014-02-09T14:23:49.927Z</time>
      </trkpt>
      <trkpt lat="47.85825" lon="7.15032">
        <ele>943.852478027</ele>
        <time>2014-02-09T14:23:50.927Z</time>
      </trkpt>
      <trkpt lat="47.85824" lon="7.15045">
        <ele>944.311340332</ele>
        <time>2014-02-09T14:24:00.93Z</time>
      </trkpt>
      <trkpt lat="47.85824" lon="7.15046">
        <ele>944.34765625</ele>
        <time>2014-02-09T14:24:01.929Z</time>
      </trkpt>
      <trkpt lat="47.85824" lon="7.15058">
        <ele>944.321472168</ele>
        <time>2014-02-09T14:24:07.929Z</time>
      </trkpt>
      <trkpt lat="47.85824" lon="7.15059">
        <ele>944.324462891</ele>
        <time>2014-02-09T14:24:08.93Z</time>
      </trkpt>
      <trkpt lat="47.85828" lon="7.15071">
        <ele>943.98651123</ele>
        <time>2014-02-09T14:24:18.927Z</time>
      </trkpt>
      <trkpt lat="47.85828" lon="7.15072">
        <ele>944.027099609</ele>
        <time>2014-02-09T14:24:19.93Z</time>
      </trkpt>
      <trkpt lat="47.85829" lon="7.15085">
        <ele>943.778259277</ele>
        <time>2014-02-09T14:24:26.931Z</time>
      </trkpt>
      <trkpt lat="47.85829" lon="7.15086">
        <ele>943.760070801</ele>
        <time>2014-02-09T14:24:27.929Z</time>
      </trkpt>
      <trkpt lat="47.85829" lon="7.15098">
        <ele>943.560058594</ele>
        <time>2014-02-09T14:24:33.926Z</time>
      </trkpt>
      <trkpt lat="47.85829" lon="7.15099">
        <ele>943.485900879</ele>
        <time>2014-02-09T14:24:34.926Z</time>
      </trkpt>
      <trkpt lat="47.85831" lon="7.15112">
        <ele>942.818237305</ele>
        <time>2014-02-09T14:24:40.929Z</time>
      </trkpt>
      <trkpt lat="47.85831" lon="7.15113">
        <ele>942.67376709</ele>
        <time>2014-02-09T14:24:41.912Z</time>
      </trkpt>
      <trkpt lat="47.85834" lon="7.15125">
        <ele>942.254516602</ele>
        <time>2014-02-09T14:24:45.926Z</time>
      </trkpt>
      <trkpt lat="47.85834" lon="7.15127">
        <ele>942.173706055</ele>
        <time>2014-02-09T14:24:46.935Z</time>
      </trkpt>
      <trkpt lat="47.85838" lon="7.15138">
        <ele>941.934143066</ele>
        <time>2014-02-09T14:24:51.927Z</time>
      </trkpt>
      <trkpt lat="47.85838" lon="7.1514">
        <ele>941.808898926</ele>
        <time>2014-02-09T14:24:52.924Z</time>
      </trkpt>
      <trkpt lat="47.85835" lon="7.15152">
        <ele>941.20880127</ele>
        <time>2014-02-09T14:25:09.924Z</time>
      </trkpt>
      <trkpt lat="47.85834" lon="7.15152">
        <ele>941.189758301</ele>
        <time>2014-02-09T14:25:10.927Z</time>
      </trkpt>
      <trkpt lat="47.85829" lon="7.15161">
        <ele>940.865844727</ele>
        <time>2014-02-09T14:25:23.926Z</time>
      </trkpt>
      <trkpt lat="47.85828" lon="7.15162">
        <ele>940.843811035</ele>
        <time>2014-02-09T14:25:24.929Z</time>
      </trkpt>
      <trkpt lat="47.85822" lon="7.15172">
        <ele>940.356323242</ele>
        <time>2014-02-09T14:25:33.928Z</time>
      </trkpt>
      <trkpt lat="47.85821" lon="7.15173">
        <ele>940.314758301</ele>
        <time>2014-02-09T14:25:34.914Z</time>
      </trkpt>
      <trkpt lat="47.85815" lon="7.15178">
        <ele>940.439697266</ele>
        <time>2014-02-09T14:25:38.924Z</time>
      </trkpt>
      <trkpt lat="47.85812" lon="7.1518">
        <ele>940.357788086</ele>
        <time>2014-02-09T14:25:39.924Z</time>
      </trkpt>
      <trkpt lat="47.85806" lon="7.15187">
        <ele>939.915588379</ele>
        <time>2014-02-09T14:25:48.924Z</time>
      </trkpt>
      <trkpt lat="47.85805" lon="7.15188">
        <ele>939.891418457</ele>
        <time>2014-02-09T14:25:49.909Z</time>
      </trkpt>
      <trkpt lat="47.85798" lon="7.15196">
        <ele>938.875427246</ele>
        <time>2014-02-09T14:25:58.921Z</time>
      </trkpt>
      <trkpt lat="47.85797" lon="7.15197">
        <ele>938.721130371</ele>
        <time>2014-02-09T14:25:59.923Z</time>
      </trkpt>
      <trkpt lat="47.85793" lon="7.15208">
        <ele>937.787475586</ele>
        <time>2014-02-09T14:26:06.917Z</time>
      </trkpt>
      <trkpt lat="47.85792" lon="7.1521">
        <ele>937.635559082</ele>
        <time>2014-02-09T14:26:07.925Z</time>
      </trkpt>
      <trkpt lat="47.85788" lon="7.15222">
        <ele>936.488098145</ele>
        <time>2014-02-09T14:26:16.929Z</time>
      </trkpt>
      <trkpt lat="47.85788" lon="7.15224">
        <ele>936.368469238</ele>
        <time>2014-02-09T14:26:17.924Z</time>
      </trkpt>
      <trkpt lat="47.85786" lon="7.15237">
        <ele>935.44934082</ele>
        <time>2014-02-09T14:26:26.93Z</time>
      </trkpt>
      <trkpt lat="47.85785" lon="7.15238">
        <ele>935.317993164</ele>
        <time>2014-02-09T14:26:27.923Z</time>
      </trkpt>
      <trkpt lat="47.85784" lon="7.1525">
        <ele>933.763000488</ele>
        <time>2014-02-09T14:26:34.924Z</time>
      </trkpt>
      <trkpt lat="47.85783" lon="7.15252">
        <ele>933.554382324</ele>
        <time>2014-02-09T14:26:35.924Z</time>
      </trkpt>
      <trkpt lat="47.8578" lon="7.15263">
        <ele>932.591308594</ele>
        <time>2014-02-09T14:26:42.924Z</time>
      </trkpt>
      <trkpt lat="47.85779" lon="7.15264">
        <ele>932.433776855</ele>
        <time>2014-02-09T14:26:43.925Z</time>
      </trkpt>
      <trkpt lat="47.85776" lon="7.15276">
        <ele>931.440612793</ele>
        <time>2014-02-09T14:26:48.922Z</time>
      </trkpt>
      <trkpt lat="47.85775" lon="7.15277">
        <ele>931.201477051</ele>
        <time>2014-02-09T14:26:49.92Z</time>
      </trkpt>
      <trkpt lat="47.8577" lon="7.15287">
        <ele>929.847900391</ele>
        <time>2014-02-09T14:26:55.916Z</time>
      </trkpt>
      <trkpt lat="47.85769" lon="7.15289">
        <ele>929.52746582</ele>
        <time>2014-02-09T14:26:56.919Z</time>
      </trkpt>
      <trkpt lat="47.85764" lon="7.15299">
        <ele>927.963378906</ele>
        <time>2014-02-09T14:27:03.917Z</time>
      </trkpt>
      <trkpt lat="47.85764" lon="7.153">
        <ele>927.803405762</ele>
        <time>2014-02-09T14:27:04.914Z</time>
      </trkpt>
      <trkpt lat="47.85758" lon="7.1531">
        <ele>926.483764648</ele>
        <time>2014-02-09T14:27:10.912Z</time>
      </trkpt>
      <trkpt lat="47.85757" lon="7.15312">
        <ele>926.275878906</ele>
        <time>2014-02-09T14:27:11.911Z</time>
      </trkpt>
      <trkpt lat="47.85753" lon="7.15323">
        <ele>924.703674316</ele>
        <time>2014-02-09T14:27:18.912Z</time>
      </trkpt>
      <trkpt lat="47.85754" lon="7.15324">
        <ele>924.582641602</ele>
        <time>2014-02-09T14:27:19.914Z</time>
      </trkpt>
      <trkpt lat="47.85752" lon="7.15334">
        <ele>923.034545898</ele>
        <time>2014-02-09T14:27:26.918Z</time>
      </trkpt>
      <trkpt lat="47.85752" lon="7.15337">
        <ele>922.817504883</ele>
        <time>2014-02-09T14:27:27.915Z</time>
      </trkpt>
      <trkpt lat="47.85748" lon="7.15349">
        <ele>921.048156738</ele>
        <time>2014-02-09T14:27:34.919Z</time>
      </trkpt>
      <trkpt lat="47.85747" lon="7.15351">
        <ele>920.86138916</ele>
        <time>2014-02-09T14:27:35.937Z</time>
      </trkpt>
      <trkpt lat="47.85744" lon="7.15362">
        <ele>919.033874512</ele>
        <time>2014-02-09T14:27:42.912Z</time>
      </trkpt>
      <trkpt lat="47.85743" lon="7.15364">
        <ele>918.886779785</ele>
        <time>2014-02-09T14:27:43.914Z</time>
      </trkpt>
      <trkpt lat="47.85741" lon="7.15376">
        <ele>917.598815918</ele>
        <time>2014-02-09T14:27:49.913Z</time>
      </trkpt>
      <trkpt lat="47.85741" lon="7.15377">
        <ele>917.306274414</ele>
        <time>2014-02-09T14:27:50.899Z</time>
      </trkpt>
      <trkpt lat="47.85737" lon="7.15389">
        <ele>916.022155762</ele>
        <time>2014-02-09T14:28:01.906Z</time>
      </trkpt>
      <trkpt lat="47.85736" lon="7.1539">
        <ele>915.915649414</ele>
        <time>2014-02-09T14:28:02.906Z</time>
      </trkpt>
      <trkpt lat="47.85731" lon="7.154">
        <ele>915.699890137</ele>
        <time>2014-02-09T14:28:22.909Z</time>
      </trkpt>
      <trkpt lat="47.8573" lon="7.15401">
        <ele>915.68951416</ele>
        <time>2014-02-09T14:28:23.903Z</time>
      </trkpt>
      <trkpt lat="47.8573" lon="7.15414">
        <ele>914.960021973</ele>
        <time>2014-02-09T14:28:33.918Z</time>
      </trkpt>
      <trkpt lat="47.85729" lon="7.15414">
        <ele>914.840454102</ele>
        <time>2014-02-09T14:28:34.921Z</time>
      </trkpt>
      <trkpt lat="47.85727" lon="7.15427">
        <ele>912.771484375</ele>
        <time>2014-02-09T14:28:45.91Z</time>
      </trkpt>
      <trkpt lat="47.85727" lon="7.15428">
        <ele>912.439575195</ele>
        <time>2014-02-09T14:28:46.911Z</time>
      </trkpt>
      <trkpt lat="47.8572" lon="7.15434">
        <ele>910.584289551</ele>
        <time>2014-02-09T14:29:00.91Z</time>
      </trkpt>
      <trkpt lat="47.85719" lon="7.15434">
        <ele>910.326477051</ele>
        <time>2014-02-09T14:29:01.911Z</time>
      </trkpt>
      <trkpt lat="47.85713" lon="7.15444">
        <ele>909.679870605</ele>
        <time>2014-02-09T14:29:11.91Z</time>
      </trkpt>
      <trkpt lat="47.85712" lon="7.15445">
        <ele>909.638977051</ele>
        <time>2014-02-09T14:29:12.91Z</time>
      </trkpt>
      <trkpt lat="47.85711" lon="7.15458">
        <ele>904.002929688</ele>
        <time>2014-02-09T14:30:43.898Z</time>
      </trkpt>
      <trkpt lat="47.85711" lon="7.15458">
        <ele>903.989257812</ele>
        <time>2014-02-09T14:30:44.896Z</time>
      </trkpt>
      <trkpt lat="47.85702" lon="7.15461">
        <ele>900.876342773</ele>
        <time>2014-02-09T14:32:23.892Z</time>
      </trkpt>
      <trkpt lat="47.85701" lon="7.15464">
        <ele>900.737792969</ele>
        <time>2014-02-09T14:32:24.894Z</time>
      </trkpt>
      <trkpt lat="47.85701" lon="7.15474">
        <ele>900.719360352</ele>
        <time>2014-02-09T14:32:28.896Z</time>
      </trkpt>
      <trkpt lat="47.85701" lon="7.15477">
        <ele>900.72479248</ele>
        <time>2014-02-09T14:32:29.883Z</time>
      </trkpt>
      <trkpt lat="47.85698" lon="7.15489">
        <ele>900.906738281</ele>
        <time>2014-02-09T14:32:37.902Z</time>
      </trkpt>
      <trkpt lat="47.85697" lon="7.15491">
        <ele>900.96697998</ele>
        <time>2014-02-09T14:32:38.905Z</time>
      </trkpt>
      <trkpt lat="47.85693" lon="7.15502">
        <ele>900.514038086</ele>
        <time>2014-02-09T14:32:45.912Z</time>
      </trkpt>
      <trkpt lat="47.85693" lon="7.15503">
        <ele>900.312988281</ele>
        <time>2014-02-09T14:32:46.915Z</time>
      </trkpt>
      <trkpt lat="47.85691" lon="7.15515">
        <ele>898.422485352</ele>
        <time>2014-02-09T14:32:56.903Z</time>
      </trkpt>
      <trkpt lat="47.8569" lon="7.15519">
        <ele>898.325317383</ele>
        <time>2014-02-09T14:32:57.904Z</time>
      </trkpt>
      <trkpt lat="47.85689" lon="7.1553">
        <ele>897.738891602</ele>
        <time>2014-02-09T14:33:04.912Z</time>
      </trkpt>
      <trkpt lat="47.85687" lon="7.15533">
        <ele>897.748352051</ele>
        <time>2014-02-09T14:33:05.9Z</time>
      </trkpt>
      <trkpt lat="47.85683" lon="7.15544">
        <ele>897.924743652</ele>
        <time>2014-02-09T14:33:11.903Z</time>
      </trkpt>
      <trkpt lat="47.85683" lon="7.15546">
        <ele>897.948181152</ele>
        <time>2014-02-09T14:33:12.886Z</time>
      </trkpt>
      <trkpt lat="47.85681" lon="7.15558">
        <ele>897.942260742</ele>
        <time>2014-02-09T14:33:20.893Z</time>
      </trkpt>
      <trkpt lat="47.8568" lon="7.15559">
        <ele>898.04498291</ele>
        <time>2014-02-09T14:33:21.884Z</time>
      </trkpt>
      <trkpt lat="47.85675" lon="7.1557">
        <ele>898.366577148</ele>
        <time>2014-02-09T14:33:29.892Z</time>
      </trkpt>
      <trkpt lat="47.85674" lon="7.15572">
        <ele>898.419067383</ele>
        <time>2014-02-09T14:33:30.901Z</time>
      </trkpt>
      <trkpt lat="47.85671" lon="7.15585">
        <ele>898.193847656</ele>
        <time>2014-02-09T14:33:41.893Z</time>
      </trkpt>
      <trkpt lat="47.85671" lon="7.15586">
        <ele>898.125305176</ele>
        <time>2014-02-09T14:33:42.891Z</time>
      </trkpt>
      <trkpt lat="47.85669" lon="7.15598">
        <ele>898.927490234</ele>
        <time>2014-02-09T14:33:49.898Z</time>
      </trkpt>
      <trkpt lat="47.85669" lon="7.15599">
        <ele>899.021484375</ele>
        <time>2014-02-09T14:33:50.899Z</time>
      </trkpt>
      <trkpt lat="47.85663" lon="7.15609">
        <ele>899.475585938</ele>
        <time>2014-02-09T14:33:56.892Z</time>
      </trkpt>
      <trkpt lat="47.85662" lon="7.1561">
        <ele>899.573974609</ele>
        <time>2014-02-09T14:33:57.891Z</time>
      </trkpt>
      <trkpt lat="47.85658" lon="7.15621">
        <ele>900.504211426</ele>
        <time>2014-02-09T14:34:04.893Z</time>
      </trkpt>
      <trkpt lat="47.85657" lon="7.15622">
        <ele>900.536560059</ele>
        <time>2014-02-09T14:34:05.897Z</time>
      </trkpt>
      <trkpt lat="47.85652" lon="7.15631">
        <ele>900.829467773</ele>
        <time>2014-02-09T14:34:08.891Z</time>
      </trkpt>
      <trkpt lat="47.85651" lon="7.15633">
        <ele>900.908081055</ele>
        <time>2014-02-09T14:34:09.89Z</time>
      </trkpt>
      <trkpt lat="47.85644" lon="7.15642">
        <ele>900.092956543</ele>
        <time>2014-02-09T14:34:18.901Z</time>
      </trkpt>
      <trkpt lat="47.85643" lon="7.15644">
        <ele>899.902770996</ele>
        <time>2014-02-09T14:34:19.888Z</time>
      </trkpt>
      <trkpt lat="47.85637" lon="7.15651">
        <ele>898.488586426</ele>
        <time>2014-02-09T14:34:28.89Z</time>
      </trkpt>
      <trkpt lat="47.85636" lon="7.15652">
        <ele>898.33380127</ele>
        <time>2014-02-09T14:34:29.887Z</time>
      </trkpt>
      <trkpt lat="47.85629" lon="7.15658">
        <ele>897.446899414</ele>
        <time>2014-02-09T14:34:34.879Z</time>
      </trkpt>
      <trkpt lat="47.85627" lon="7.1566">
        <ele>897.216430664</ele>
        <time>2014-02-09T14:34:35.885Z</time>
      </trkpt>
      <trkpt lat="47.85623" lon="7.15671">
        <ele>896.645507812</ele>
        <time>2014-02-09T14:34:44.888Z</time>
      </trkpt>
      <trkpt lat="47.85622" lon="7.15673">
        <ele>896.674194336</ele>
        <time>2014-02-09T14:34:45.887Z</time>
      </trkpt>
      <trkpt lat="47.85617" lon="7.1568">
        <ele>896.829650879</ele>
        <time>2014-02-09T14:34:48.889Z</time>
      </trkpt>
      <trkpt lat="47.85616" lon="7.15684">
        <ele>896.835266113</ele>
        <time>2014-02-09T14:34:49.876Z</time>
      </trkpt>
      <trkpt lat="47.85612" lon="7.15689">
        <ele>896.684936523</ele>
        <time>2014-02-09T14:34:51.902Z</time>
      </trkpt>
      <trkpt lat="47.85607" lon="7.15694">
        <ele>896.464172363</ele>
        <time>2014-02-09T14:34:52.889Z</time>
      </trkpt>
      <trkpt lat="47.856" lon="7.15701">
        <ele>895.022583008</ele>
        <time>2014-02-09T14:34:57.888Z</time>
      </trkpt>
      <trkpt lat="47.85599" lon="7.15702">
        <ele>894.688659668</ele>
        <time>2014-02-09T14:34:58.888Z</time>
      </trkpt>
      <trkpt lat="47.85591" lon="7.15708">
        <ele>892.217224121</ele>
        <time>2014-02-09T14:35:06.895Z</time>
      </trkpt>
      <trkpt lat="47.85591" lon="7.15709">
        <ele>891.888427734</ele>
        <time>2014-02-09T14:35:07.895Z</time>
      </trkpt>
      <trkpt lat="47.85583" lon="7.15716">
        <ele>888.390991211</ele>
        <time>2014-02-09T14:35:22.889Z</time>
      </trkpt>
      <trkpt lat="47.85583" lon="7.15716">
        <ele>888.366027832</ele>
        <time>2014-02-09T14:35:23.892Z</time>
      </trkpt>
      <trkpt lat="47.85576" lon="7.15724">
        <ele>886.639709473</ele>
        <time>2014-02-09T14:35:31.874Z</time>
      </trkpt>
      <trkpt lat="47.85575" lon="7.15725">
        <ele>886.426696777</ele>
        <time>2014-02-09T14:35:32.884Z</time>
      </trkpt>
      <trkpt lat="47.85567" lon="7.15733">
        <ele>884.85534668</ele>
        <time>2014-02-09T14:35:38.889Z</time>
      </trkpt>
      <trkpt lat="47.85567" lon="7.15735">
        <ele>884.552490234</ele>
        <time>2014-02-09T14:35:39.89Z</time>
      </trkpt>
      <trkpt lat="47.8556" lon="7.15741">
        <ele>882.094238281</ele>
        <time>2014-02-09T14:35:47.9Z</time>
      </trkpt>
      <trkpt lat="47.85559" lon="7.15742">
        <ele>881.822509766</ele>
        <time>2014-02-09T14:35:48.897Z</time>
      </trkpt>
      <trkpt lat="47.85555" lon="7.15747">
        <ele>879.159118652</ele>
        <time>2014-02-09T14:35:57.897Z</time>
      </trkpt>
      <trkpt lat="47.85552" lon="7.15751">
        <ele>878.681762695</ele>
        <time>2014-02-09T14:35:58.898Z</time>
      </trkpt>
      <trkpt lat="47.85543" lon="7.15753">
        <ele>876.191467285</ele>
        <time>2014-02-09T14:36:09.899Z</time>
      </trkpt>
      <trkpt lat="47.85543" lon="7.15754">
        <ele>875.840148926</ele>
        <time>2014-02-09T14:36:10.887Z</time>
      </trkpt>
      <trkpt lat="47.85535" lon="7.15762">
        <ele>871.866027832</ele>
        <time>2014-02-09T14:36:23.886Z</time>
      </trkpt>
      <trkpt lat="47.85535" lon="7.15762">
        <ele>871.845458984</ele>
        <time>2014-02-09T14:36:24.891Z</time>
      </trkpt>
      <trkpt lat="47.85528" lon="7.15768">
        <ele>868.624023438</ele>
        <time>2014-02-09T14:36:45.879Z</time>
      </trkpt>
      <trkpt lat="47.85528" lon="7.15769">
        <ele>868.270019531</ele>
        <time>2014-02-09T14:36:46.863Z</time>
      </trkpt>
      <trkpt lat="47.85522" lon="7.15778">
        <ele>865.322143555</ele>
        <time>2014-02-09T14:36:56.89Z</time>
      </trkpt>
      <trkpt lat="47.85522" lon="7.1578">
        <ele>864.876464844</ele>
        <time>2014-02-09T14:36:57.871Z</time>
      </trkpt>
      <trkpt lat="47.85517" lon="7.15788">
        <ele>862.885070801</ele>
        <time>2014-02-09T14:37:02.886Z</time>
      </trkpt>
      <trkpt lat="47.85515" lon="7.15789">
        <ele>862.534423828</ele>
        <time>2014-02-09T14:37:03.893Z</time>
      </trkpt>
      <trkpt lat="47.85508" lon="7.15795">
        <ele>861.543273926</ele>
        <time>2014-02-09T14:37:07.878Z</time>
      </trkpt>
      <trkpt lat="47.85507" lon="7.15797">
        <ele>861.322509766</ele>
        <time>2014-02-09T14:37:08.895Z</time>
      </trkpt>
      <trkpt lat="47.85501" lon="7.15806">
        <ele>859.725402832</ele>
        <time>2014-02-09T14:37:19.895Z</time>
      </trkpt>
      <trkpt lat="47.85501" lon="7.15808">
        <ele>859.533325195</ele>
        <time>2014-02-09T14:37:20.894Z</time>
      </trkpt>
      <trkpt lat="47.85494" lon="7.15815">
        <ele>856.402160645</ele>
        <time>2014-02-09T14:37:33.877Z</time>
      </trkpt>
      <trkpt lat="47.85493" lon="7.15816">
        <ele>855.957824707</ele>
        <time>2014-02-09T14:37:34.875Z</time>
      </trkpt>
      <trkpt lat="47.8549" lon="7.15827">
        <ele>851.782775879</ele>
        <time>2014-02-09T14:37:44.88Z</time>
      </trkpt>
      <trkpt lat="47.8549" lon="7.15829">
        <ele>851.507019043</ele>
        <time>2014-02-09T14:37:45.875Z</time>
      </trkpt>
      <trkpt lat="47.85488" lon="7.15841">
        <ele>848.436828613</ele>
        <time>2014-02-09T14:37:53.873Z</time>
      </trkpt>
      <trkpt lat="47.85488" lon="7.15842">
        <ele>848.102233887</ele>
        <time>2014-02-09T14:37:54.873Z</time>
      </trkpt>
      <trkpt lat="47.85483" lon="7.15852">
        <ele>846.617736816</ele>
        <time>2014-02-09T14:37:58.89Z</time>
      </trkpt>
      <trkpt lat="47.85482" lon="7.15853">
        <ele>846.262451172</ele>
        <time>2014-02-09T14:37:59.884Z</time>
      </trkpt>
      <trkpt lat="47.85476" lon="7.15862">
        <ele>843.578186035</ele>
        <time>2014-02-09T14:38:08.87Z</time>
      </trkpt>
      <trkpt lat="47.85475" lon="7.15862">
        <ele>843.381408691</ele>
        <time>2014-02-09T14:38:09.877Z</time>
      </trkpt>
      <trkpt lat="47.85467" lon="7.15865">
        <ele>834.790466309</ele>
        <time>2014-02-09T14:38:31.875Z</time>
      </trkpt>
      <trkpt lat="47.85466" lon="7.15865">
        <ele>834.239135742</ele>
        <time>2014-02-09T14:38:32.872Z</time>
      </trkpt>
      <trkpt lat="47.85462" lon="7.15877">
        <ele>826.717407227</ele>
        <time>2014-02-09T14:38:52.898Z</time>
      </trkpt>
      <trkpt lat="47.85462" lon="7.15878">
        <ele>826.386352539</ele>
        <time>2014-02-09T14:38:53.883Z</time>
      </trkpt>
      <trkpt lat="47.85456" lon="7.15888">
        <ele>822.512939453</ele>
        <time>2014-02-09T14:39:08.873Z</time>
      </trkpt>
      <trkpt lat="47.85456" lon="7.15889">
        <ele>822.166564941</ele>
        <time>2014-02-09T14:39:09.874Z</time>
      </trkpt>
      <trkpt lat="47.85454" lon="7.15901">
        <ele>819.383972168</ele>
        <time>2014-02-09T14:39:20.889Z</time>
      </trkpt>
      <trkpt lat="47.85453" lon="7.15902">
        <ele>819.103515625</ele>
        <time>2014-02-09T14:39:21.871Z</time>
      </trkpt>
      <trkpt lat="47.85445" lon="7.15907">
        <ele>817.014648438</ele>
        <time>2014-02-09T14:39:38.878Z</time>
      </trkpt>
      <trkpt lat="47.85444" lon="7.15907">
        <ele>816.994140625</ele>
        <time>2014-02-09T14:39:39.88Z</time>
      </trkpt>
      <trkpt lat="47.85439" lon="7.15917">
        <ele>816.070556641</ele>
        <time>2014-02-09T14:39:50.878Z</time>
      </trkpt>
      <trkpt lat="47.85439" lon="7.15918">
        <ele>816.023620605</ele>
        <time>2014-02-09T14:39:51.88Z</time>
      </trkpt>
      <trkpt lat="47.85431" lon="7.15918">
        <ele>807.958312988</ele>
        <time>2014-02-09T14:40:52.869Z</time>
      </trkpt>
      <trkpt lat="47.85429" lon="7.15917">
        <ele>807.972412109</ele>
        <time>2014-02-09T14:40:53.866Z</time>
      </trkpt>
      <trkpt lat="47.85436" lon="7.15926">
        <ele>813.420471191</ele>
        <time>2014-02-09T14:46:29.867Z</time>
      </trkpt>
      <trkpt lat="47.85436" lon="7.15927">
        <ele>813.40637207</ele>
        <time>2014-02-09T14:46:30.86Z</time>
      </trkpt>
      <trkpt lat="47.85428" lon="7.15931">
        <ele>807.651611328</ele>
        <time>2014-02-09T14:47:21.847Z</time>
      </trkpt>
      <trkpt lat="47.85426" lon="7.15932">
        <ele>807.565368652</ele>
        <time>2014-02-09T14:47:22.86Z</time>
      </trkpt>
      <trkpt lat="47.85419" lon="7.1594">
        <ele>806.744262695</ele>
        <time>2014-02-09T14:47:30.859Z</time>
      </trkpt>
      <trkpt lat="47.85418" lon="7.1594">
        <ele>806.608703613</ele>
        <time>2014-02-09T14:47:31.861Z</time>
      </trkpt>
      <trkpt lat="47.85411" lon="7.15946">
        <ele>805.608398438</ele>
        <time>2014-02-09T14:47:39.855Z</time>
      </trkpt>
      <trkpt lat="47.8541" lon="7.15947">
        <ele>805.483337402</ele>
        <time>2014-02-09T14:47:40.855Z</time>
      </trkpt>
      <trkpt lat="47.85405" lon="7.15955">
        <ele>804.449523926</ele>
        <time>2014-02-09T14:47:48.846Z</time>
      </trkpt>
      <trkpt lat="47.85404" lon="7.15957">
        <ele>804.34588623</ele>
        <time>2014-02-09T14:47:49.863Z</time>
      </trkpt>
      <trkpt lat="47.85397" lon="7.15963">
        <ele>803.531799316</ele>
        <time>2014-02-09T14:47:53.85Z</time>
      </trkpt>
      <trkpt lat="47.85395" lon="7.15964">
        <ele>803.306091309</ele>
        <time>2014-02-09T14:47:54.866Z</time>
      </trkpt>
      <trkpt lat="47.85388" lon="7.15968">
        <ele>801.47052002</ele>
        <time>2014-02-09T14:48:02.86Z</time>
      </trkpt>
      <trkpt lat="47.85386" lon="7.15969">
        <ele>801.151794434</ele>
        <time>2014-02-09T14:48:03.866Z</time>
      </trkpt>
      <trkpt lat="47.85379" lon="7.15973">
        <ele>799.628540039</ele>
        <time>2014-02-09T14:48:08.874Z</time>
      </trkpt>
      <trkpt lat="47.85377" lon="7.15974">
        <ele>799.325500488</ele>
        <time>2014-02-09T14:48:09.862Z</time>
      </trkpt>
      <trkpt lat="47.85368" lon="7.15978">
        <ele>796.719970703</ele>
        <time>2014-02-09T14:48:16.856Z</time>
      </trkpt>
      <trkpt lat="47.85368" lon="7.15978">
        <ele>796.275817871</ele>
        <time>2014-02-09T14:48:17.864Z</time>
      </trkpt>
      <trkpt lat="47.85361" lon="7.15986">
        <ele>792.959472656</ele>
        <time>2014-02-09T14:48:31.846Z</time>
      </trkpt>
      <trkpt lat="47.8536" lon="7.15986">
        <ele>792.793701172</ele>
        <time>2014-02-09T14:48:32.846Z</time>
      </trkpt>
      <trkpt lat="47.85352" lon="7.15989">
        <ele>791.472351074</ele>
        <time>2014-02-09T14:48:39.865Z</time>
      </trkpt>
      <trkpt lat="47.85351" lon="7.15989">
        <ele>791.329650879</ele>
        <time>2014-02-09T14:48:40.846Z</time>
      </trkpt>
      <trkpt lat="47.85344" lon="7.15993">
        <ele>790.66998291</ele>
        <time>2014-02-09T14:48:47.845Z</time>
      </trkpt>
      <trkpt lat="47.85342" lon="7.15995">
        <ele>790.590209961</ele>
        <time>2014-02-09T14:48:48.846Z</time>
      </trkpt>
      <trkpt lat="47.85334" lon="7.16002">
        <ele>789.417236328</ele>
        <time>2014-02-09T14:48:55.846Z</time>
      </trkpt>
      <trkpt lat="47.85334" lon="7.16002">
        <ele>789.306335449</ele>
        <time>2014-02-09T14:48:56.839Z</time>
      </trkpt>
      <trkpt lat="47.85326" lon="7.16009">
        <ele>787.774536133</ele>
        <time>2014-02-09T14:49:06.85Z</time>
      </trkpt>
      <trkpt lat="47.85326" lon="7.1601">
        <ele>787.640380859</ele>
        <time>2014-02-09T14:49:07.854Z</time>
      </trkpt>
      <trkpt lat="47.85318" lon="7.16017">
        <ele>786.80682373</ele>
        <time>2014-02-09T14:49:20.856Z</time>
      </trkpt>
      <trkpt lat="47.85318" lon="7.16018">
        <ele>786.829833984</ele>
        <time>2014-02-09T14:49:21.846Z</time>
      </trkpt>
      <trkpt lat="47.85317" lon="7.1603">
        <ele>786.546386719</ele>
        <time>2014-02-09T14:49:31.849Z</time>
      </trkpt>
      <trkpt lat="47.85317" lon="7.16031">
        <ele>786.482727051</ele>
        <time>2014-02-09T14:49:32.839Z</time>
      </trkpt>
      <trkpt lat="47.85309" lon="7.16036">
        <ele>786.145751953</ele>
        <time>2014-02-09T14:49:38.847Z</time>
      </trkpt>
      <trkpt lat="47.85307" lon="7.16037">
        <ele>786.033874512</ele>
        <time>2014-02-09T14:49:39.848Z</time>
      </trkpt>
      <trkpt lat="47.853" lon="7.16044">
        <ele>785.128967285</ele>
        <time>2014-02-09T14:49:47.847Z</time>
      </trkpt>
      <trkpt lat="47.85298" lon="7.16045">
        <ele>785.078552246</ele>
        <time>2014-02-09T14:49:48.848Z</time>
      </trkpt>
      <trkpt lat="47.85291" lon="7.16051">
        <ele>784.495910645</ele>
        <time>2014-02-09T14:49:55.843Z</time>
      </trkpt>
      <trkpt lat="47.8529" lon="7.16052">
        <ele>784.369384766</ele>
        <time>2014-02-09T14:49:56.861Z</time>
      </trkpt>
      <trkpt lat="47.85285" lon="7.16062">
        <ele>782.818054199</ele>
        <time>2014-02-09T14:50:07.85Z</time>
      </trkpt>
      <trkpt lat="47.85284" lon="7.16063">
        <ele>782.671386719</ele>
        <time>2014-02-09T14:50:08.842Z</time>
      </trkpt>
      <trkpt lat="47.8528" lon="7.16073">
        <ele>782.15826416</ele>
        <time>2014-02-09T14:50:16.847Z</time>
      </trkpt>
      <trkpt lat="47.85279" lon="7.16074">
        <ele>782.022521973</ele>
        <time>2014-02-09T14:50:17.847Z</time>
      </trkpt>
      <trkpt lat="47.85271" lon="7.16081">
        <ele>780.075622559</ele>
        <time>2014-02-09T14:50:26.85Z</time>
      </trkpt>
      <trkpt lat="47.85271" lon="7.16082">
        <ele>779.846374512</ele>
        <time>2014-02-09T14:50:27.829Z</time>
      </trkpt>
      <trkpt lat="47.85265" lon="7.1609">
        <ele>778.069213867</ele>
        <time>2014-02-09T14:50:38.845Z</time>
      </trkpt>
      <trkpt lat="47.85265" lon="7.16092">
        <ele>777.810668945</ele>
        <time>2014-02-09T14:50:39.852Z</time>
      </trkpt>
      <trkpt lat="47.85263" lon="7.16104">
        <ele>776.764465332</ele>
        <time>2014-02-09T14:50:46.857Z</time>
      </trkpt>
      <trkpt lat="47.85263" lon="7.16105">
        <ele>776.738830566</ele>
        <time>2014-02-09T14:50:47.853Z</time>
      </trkpt>
      <trkpt lat="47.8526" lon="7.16117">
        <ele>775.378601074</ele>
        <time>2014-02-09T14:50:57.84Z</time>
      </trkpt>
      <trkpt lat="47.8526" lon="7.16118">
        <ele>775.149230957</ele>
        <time>2014-02-09T14:50:58.843Z</time>
      </trkpt>
      <trkpt lat="47.85257" lon="7.16129">
        <ele>773.405395508</ele>
        <time>2014-02-09T14:51:06.848Z</time>
      </trkpt>
      <trkpt lat="47.85256" lon="7.16131">
        <ele>772.921386719</ele>
        <time>2014-02-09T14:51:07.844Z</time>
      </trkpt>
      <trkpt lat="47.85249" lon="7.16139">
        <ele>769.498352051</ele>
        <time>2014-02-09T14:51:20.84Z</time>
      </trkpt>
      <trkpt lat="47.85248" lon="7.1614">
        <ele>769.160461426</ele>
        <time>2014-02-09T14:51:21.833Z</time>
      </trkpt>
      <trkpt lat="47.85243" lon="7.1615">
        <ele>766.436462402</ele>
        <time>2014-02-09T14:51:30.853Z</time>
      </trkpt>
      <trkpt lat="47.85242" lon="7.16151">
        <ele>766.070922852</ele>
        <time>2014-02-09T14:51:31.842Z</time>
      </trkpt>
      <trkpt lat="47.85236" lon="7.16155">
        <ele>764.335266113</ele>
        <time>2014-02-09T14:51:36.86Z</time>
      </trkpt>
      <trkpt lat="47.85231" lon="7.16161">
        <ele>764.051818848</ele>
        <time>2014-02-09T14:51:37.856Z</time>
      </trkpt>
      <trkpt lat="47.85225" lon="7.16168">
        <ele>763.249633789</ele>
        <time>2014-02-09T14:51:40.839Z</time>
      </trkpt>
      <trkpt lat="47.85223" lon="7.16169">
        <ele>762.984741211</ele>
        <time>2014-02-09T14:51:41.856Z</time>
      </trkpt>
      <trkpt lat="47.85217" lon="7.16176">
        <ele>760.829162598</ele>
        <time>2014-02-09T14:51:49.853Z</time>
      </trkpt>
      <trkpt lat="47.85215" lon="7.16177">
        <ele>760.546203613</ele>
        <time>2014-02-09T14:51:50.872Z</time>
      </trkpt>
      <trkpt lat="47.85208" lon="7.16182">
        <ele>759.760253906</ele>
        <time>2014-02-09T14:51:54.851Z</time>
      </trkpt>
      <trkpt lat="47.85206" lon="7.16183">
        <ele>759.530273438</ele>
        <time>2014-02-09T14:51:55.843Z</time>
      </trkpt>
      <trkpt lat="47.85199" lon="7.16192">
        <ele>758.634765625</ele>
        <time>2014-02-09T14:52:04.849Z</time>
      </trkpt>
      <trkpt lat="47.85199" lon="7.16193">
        <ele>758.458129883</ele>
        <time>2014-02-09T14:52:05.857Z</time>
      </trkpt>
      <trkpt lat="47.85192" lon="7.16198">
        <ele>754.446411133</ele>
        <time>2014-02-09T14:52:21.856Z</time>
      </trkpt>
      <trkpt lat="47.8519" lon="7.16199">
        <ele>754.081604004</ele>
        <time>2014-02-09T14:52:22.859Z</time>
      </trkpt>
      <trkpt lat="47.85181" lon="7.16202">
        <ele>751.766540527</ele>
        <time>2014-02-09T14:52:29.856Z</time>
      </trkpt>
      <trkpt lat="47.85181" lon="7.16202">
        <ele>751.389160156</ele>
        <time>2014-02-09T14:52:30.856Z</time>
      </trkpt>
      <trkpt lat="47.85174" lon="7.16209">
        <ele>748.061462402</ele>
        <time>2014-02-09T14:52:40.854Z</time>
      </trkpt>
      <trkpt lat="47.85173" lon="7.1621">
        <ele>747.566955566</ele>
        <time>2014-02-09T14:52:41.85Z</time>
      </trkpt>
      <trkpt lat="47.85165" lon="7.16216">
        <ele>744.033874512</ele>
        <time>2014-02-09T14:52:49.846Z</time>
      </trkpt>
      <trkpt lat="47.85164" lon="7.16216">
        <ele>743.629882812</ele>
        <time>2014-02-09T14:52:50.847Z</time>
      </trkpt>
      <trkpt lat="47.85155" lon="7.16218">
        <ele>741.182067871</ele>
        <time>2014-02-09T14:53:00.839Z</time>
      </trkpt>
      <trkpt lat="47.85155" lon="7.16218">
        <ele>740.895263672</ele>
        <time>2014-02-09T14:53:01.838Z</time>
      </trkpt>
      <trkpt lat="47.85146" lon="7.16221">
        <ele>739.027526855</ele>
        <time>2014-02-09T14:53:22.842Z</time>
      </trkpt>
      <trkpt lat="47.85146" lon="7.16221">
        <ele>738.983703613</ele>
        <time>2014-02-09T14:53:23.845Z</time>
      </trkpt>
      <trkpt lat="47.85139" lon="7.16229">
        <ele>738.170898438</ele>
        <time>2014-02-09T14:53:37.852Z</time>
      </trkpt>
      <trkpt lat="47.8514" lon="7.16234">
        <ele>738.060791016</ele>
        <time>2014-02-09T14:53:38.855Z</time>
      </trkpt>
      <trkpt lat="47.85138" lon="7.16247">
        <ele>736.677124023</ele>
        <time>2014-02-09T14:53:49.843Z</time>
      </trkpt>
      <trkpt lat="47.85133" lon="7.16248">
        <ele>736.561767578</ele>
        <time>2014-02-09T14:53:50.842Z</time>
      </trkpt>
      <trkpt lat="47.85129" lon="7.16256">
        <ele>736.29083252</ele>
        <time>2014-02-09T14:53:54.842Z</time>
      </trkpt>
      <trkpt lat="47.85126" lon="7.16258">
        <ele>736.361877441</ele>
        <time>2014-02-09T14:53:55.848Z</time>
      </trkpt>
      <trkpt lat="47.85118" lon="7.16264">
        <ele>735.540771484</ele>
        <time>2014-02-09T14:54:17.834Z</time>
      </trkpt>
      <trkpt lat="47.85118" lon="7.16265">
        <ele>735.345703125</ele>
        <time>2014-02-09T14:54:18.835Z</time>
      </trkpt>
      <trkpt lat="47.85114" lon="7.16277">
        <ele>733.952758789</ele>
        <time>2014-02-09T14:54:27.844Z</time>
      </trkpt>
      <trkpt lat="47.85113" lon="7.16279">
        <ele>733.812133789</ele>
        <time>2014-02-09T14:54:28.849Z</time>
      </trkpt>
      <trkpt lat="47.85107" lon="7.16287">
        <ele>732.886108398</ele>
        <time>2014-02-09T14:54:33.831Z</time>
      </trkpt>
      <trkpt lat="47.85106" lon="7.1629">
        <ele>732.661865234</ele>
        <time>2014-02-09T14:54:34.846Z</time>
      </trkpt>
      <trkpt lat="47.85099" lon="7.16299">
        <ele>730.153747559</ele>
        <time>2014-02-09T14:54:44.828Z</time>
      </trkpt>
      <trkpt lat="47.85098" lon="7.16299">
        <ele>729.8046875</ele>
        <time>2014-02-09T14:54:45.849Z</time>
      </trkpt>
      <trkpt lat="47.8509" lon="7.16305">
        <ele>728.605224609</ele>
        <time>2014-02-09T14:54:53.836Z</time>
      </trkpt>
      <trkpt lat="47.8509" lon="7.16306">
        <ele>728.343261719</ele>
        <time>2014-02-09T14:54:54.824Z</time>
      </trkpt>
      <trkpt lat="47.85082" lon="7.1631">
        <ele>726.954711914</ele>
        <time>2014-02-09T14:54:59.825Z</time>
      </trkpt>
      <trkpt lat="47.8508" lon="7.16312">
        <ele>726.66003418</ele>
        <time>2014-02-09T14:55:00.83Z</time>
      </trkpt>
      <trkpt lat="47.85073" lon="7.16318">
        <ele>724.939453125</ele>
        <time>2014-02-09T14:55:06.834Z</time>
      </trkpt>
      <trkpt lat="47.85072" lon="7.16319">
        <ele>724.753051758</ele>
        <time>2014-02-09T14:55:07.822Z</time>
      </trkpt>
      <trkpt lat="47.85064" lon="7.16324">
        <ele>722.915771484</ele>
        <time>2014-02-09T14:55:15.835Z</time>
      </trkpt>
      <trkpt lat="47.85063" lon="7.16325">
        <ele>722.828491211</ele>
        <time>2014-02-09T14:55:16.839Z</time>
      </trkpt>
      <trkpt lat="47.85055" lon="7.1633">
        <ele>718.813415527</ele>
        <time>2014-02-09T14:55:22.851Z</time>
      </trkpt>
      <trkpt lat="47.85053" lon="7.1633">
        <ele>718.091491699</ele>
        <time>2014-02-09T14:55:23.854Z</time>
      </trkpt>
      <trkpt lat="47.85045" lon="7.1633">
        <ele>713.384277344</ele>
        <time>2014-02-09T14:55:35.843Z</time>
      </trkpt>
      <trkpt lat="47.85044" lon="7.1633">
        <ele>712.879699707</ele>
        <time>2014-02-09T14:55:36.847Z</time>
      </trkpt>
      <trkpt lat="47.85037" lon="7.16336">
        <ele>709.145629883</ele>
        <time>2014-02-09T14:55:47.847Z</time>
      </trkpt>
      <trkpt lat="47.85036" lon="7.16337">
        <ele>708.844543457</ele>
        <time>2014-02-09T14:55:48.859Z</time>
      </trkpt>
      <trkpt lat="47.85027" lon="7.16339">
        <ele>707.653808594</ele>
        <time>2014-02-09T14:55:58.857Z</time>
      </trkpt>
      <trkpt lat="47.85026" lon="7.16339">
        <ele>707.476928711</ele>
        <time>2014-02-09T14:55:59.845Z</time>
      </trkpt>
      <trkpt lat="47.85019" lon="7.16347">
        <ele>706.267028809</ele>
        <time>2014-02-09T14:56:07.845Z</time>
      </trkpt>
      <trkpt lat="47.85018" lon="7.16348">
        <ele>706.163879395</ele>
        <time>2014-02-09T14:56:08.848Z</time>
      </trkpt>
      <trkpt lat="47.85011" lon="7.16354">
        <ele>705.102050781</ele>
        <time>2014-02-09T14:56:17.847Z</time>
      </trkpt>
      <trkpt lat="47.8501" lon="7.16355">
        <ele>705.015869141</ele>
        <time>2014-02-09T14:56:18.845Z</time>
      </trkpt>
      <trkpt lat="47.85001" lon="7.16358">
        <ele>704.71484375</ele>
        <time>2014-02-09T14:56:27.838Z</time>
      </trkpt>
      <trkpt lat="47.85" lon="7.1636">
        <ele>704.653259277</ele>
        <time>2014-02-09T14:56:28.841Z</time>
      </trkpt>
      <trkpt lat="47.84993" lon="7.16367">
        <ele>703.927612305</ele>
        <time>2014-02-09T14:56:38.85Z</time>
      </trkpt>
      <trkpt lat="47.84993" lon="7.16367">
        <ele>703.904907227</ele>
        <time>2014-02-09T14:56:39.85Z</time>
      </trkpt>
      <trkpt lat="47.8499" lon="7.16379">
        <ele>700.613952637</ele>
        <time>2014-02-09T14:56:50.85Z</time>
      </trkpt>
      <trkpt lat="47.8499" lon="7.1638">
        <ele>700.211364746</ele>
        <time>2014-02-09T14:56:51.849Z</time>
      </trkpt>
      <trkpt lat="47.84984" lon="7.16388">
        <ele>697.537902832</ele>
        <time>2014-02-09T14:56:57.85Z</time>
      </trkpt>
      <trkpt lat="47.84982" lon="7.1639">
        <ele>697.139038086</ele>
        <time>2014-02-09T14:56:58.868Z</time>
      </trkpt>
      <trkpt lat="47.84978" lon="7.16401">
        <ele>694.824523926</ele>
        <time>2014-02-09T14:57:04.848Z</time>
      </trkpt>
      <trkpt lat="47.84978" lon="7.16402">
        <ele>694.455749512</ele>
        <time>2014-02-09T14:57:05.847Z</time>
      </trkpt>
      <trkpt lat="47.84975" lon="7.1641">
        <ele>692.586669922</ele>
        <time>2014-02-09T14:57:09.849Z</time>
      </trkpt>
      <trkpt lat="47.84973" lon="7.16414">
        <ele>692.037780762</ele>
        <time>2014-02-09T14:57:10.845Z</time>
      </trkpt>
      <trkpt lat="47.8497" lon="7.16424">
        <ele>689.043334961</ele>
        <time>2014-02-09T14:57:17.839Z</time>
      </trkpt>
      <trkpt lat="47.84969" lon="7.16427">
        <ele>688.797119141</ele>
        <time>2014-02-09T14:57:18.85Z</time>
      </trkpt>
      <trkpt lat="47.84965" lon="7.16438">
        <ele>687.229370117</ele>
        <time>2014-02-09T14:57:23.854Z</time>
      </trkpt>
      <trkpt lat="47.84964" lon="7.16441">
        <ele>686.887023926</ele>
        <time>2014-02-09T14:57:24.853Z</time>
      </trkpt>
      <trkpt lat="47.84961" lon="7.16446">
        <ele>686.111572266</ele>
        <time>2014-02-09T14:57:26.857Z</time>
      </trkpt>
      <trkpt lat="47.84957" lon="7.1645">
        <ele>685.7109375</ele>
        <time>2014-02-09T14:57:27.855Z</time>
      </trkpt>
      <trkpt lat="47.84953" lon="7.16459">
        <ele>683.493408203</ele>
        <time>2014-02-09T14:57:35.852Z</time>
      </trkpt>
      <trkpt lat="47.84952" lon="7.16461">
        <ele>683.223571777</ele>
        <time>2014-02-09T14:57:36.86Z</time>
      </trkpt>
      <trkpt lat="47.84946" lon="7.16469">
        <ele>681.331176758</ele>
        <time>2014-02-09T14:57:41.857Z</time>
      </trkpt>
      <trkpt lat="47.84944" lon="7.1647">
        <ele>680.969543457</ele>
        <time>2014-02-09T14:57:42.857Z</time>
      </trkpt>
      <trkpt lat="47.84937" lon="7.16477">
        <ele>680.315673828</ele>
        <time>2014-02-09T14:57:44.86Z</time>
      </trkpt>
      <trkpt lat="47.84935" lon="7.16478">
        <ele>679.961242676</ele>
        <time>2014-02-09T14:57:45.857Z</time>
      </trkpt>
      <trkpt lat="47.84929" lon="7.16487">
        <ele>677.348449707</ele>
        <time>2014-02-09T14:57:52.852Z</time>
      </trkpt>
      <trkpt lat="47.84928" lon="7.16489">
        <ele>676.979064941</ele>
        <time>2014-02-09T14:57:53.862Z</time>
      </trkpt>
      <trkpt lat="47.84924" lon="7.16499">
        <ele>673.788269043</ele>
        <time>2014-02-09T14:58:01.853Z</time>
      </trkpt>
      <trkpt lat="47.84921" lon="7.16502">
        <ele>673.472961426</ele>
        <time>2014-02-09T14:58:02.833Z</time>
      </trkpt>
      <trkpt lat="47.84916" lon="7.16511">
        <ele>672.166259766</ele>
        <time>2014-02-09T14:58:07.867Z</time>
      </trkpt>
      <trkpt lat="47.84915" lon="7.16512">
        <ele>671.989501953</ele>
        <time>2014-02-09T14:58:08.845Z</time>
      </trkpt>
      <trkpt lat="47.84909" lon="7.16521">
        <ele>670.831970215</ele>
        <time>2014-02-09T14:58:16.852Z</time>
      </trkpt>
      <trkpt lat="47.84908" lon="7.16522">
        <ele>670.705932617</ele>
        <time>2014-02-09T14:58:17.837Z</time>
      </trkpt>
      <trkpt lat="47.84904" lon="7.16533">
        <ele>670.551391602</ele>
        <time>2014-02-09T14:58:25.845Z</time>
      </trkpt>
      <trkpt lat="47.84904" lon="7.16535">
        <ele>670.533813477</ele>
        <time>2014-02-09T14:58:26.851Z</time>
      </trkpt>
      <trkpt lat="47.84899" lon="7.16546">
        <ele>669.986572266</ele>
        <time>2014-02-09T14:58:31.847Z</time>
      </trkpt>
      <trkpt lat="47.84898" lon="7.16548">
        <ele>669.82244873</ele>
        <time>2014-02-09T14:58:32.85Z</time>
      </trkpt>
      <trkpt lat="47.84892" lon="7.16557">
        <ele>668.076843262</ele>
        <time>2014-02-09T14:58:39.866Z</time>
      </trkpt>
      <trkpt lat="47.84891" lon="7.16559">
        <ele>667.784729004</ele>
        <time>2014-02-09T14:58:40.849Z</time>
      </trkpt>
      <trkpt lat="47.84883" lon="7.16564">
        <ele>666.061767578</ele>
        <time>2014-02-09T14:58:47.837Z</time>
      </trkpt>
      <trkpt lat="47.84881" lon="7.16565">
        <ele>665.834899902</ele>
        <time>2014-02-09T14:58:48.844Z</time>
      </trkpt>
      <trkpt lat="47.84874" lon="7.1657">
        <ele>664.105895996</ele>
        <time>2014-02-09T14:58:56.851Z</time>
      </trkpt>
      <trkpt lat="47.84872" lon="7.16571">
        <ele>663.888000488</ele>
        <time>2014-02-09T14:58:57.843Z</time>
      </trkpt>
      <trkpt lat="47.84865" lon="7.16576">
        <ele>661.938232422</ele>
        <time>2014-02-09T14:59:05.841Z</time>
      </trkpt>
      <trkpt lat="47.84864" lon="7.16576">
        <ele>661.717895508</ele>
        <time>2014-02-09T14:59:06.854Z</time>
      </trkpt>
      <trkpt lat="47.84856" lon="7.16578">
        <ele>659.912536621</ele>
        <time>2014-02-09T14:59:13.847Z</time>
      </trkpt>
      <trkpt lat="47.84855" lon="7.16578">
        <ele>659.58984375</ele>
        <time>2014-02-09T14:59:14.844Z</time>
      </trkpt>
      <trkpt lat="47.84846" lon="7.16582">
        <ele>657.588562012</ele>
        <time>2014-02-09T14:59:32.85Z</time>
      </trkpt>
      <trkpt lat="47.84846" lon="7.16584">
        <ele>657.553710938</ele>
        <time>2014-02-09T14:59:33.852Z</time>
      </trkpt>
      <trkpt lat="47.84837" lon="7.16583">
        <ele>656.932922363</ele>
        <time>2014-02-09T14:59:48.86Z</time>
      </trkpt>
      <trkpt lat="47.84837" lon="7.16583">
        <ele>656.903381348</ele>
        <time>2014-02-09T14:59:49.848Z</time>
      </trkpt>
      <trkpt lat="47.84829" lon="7.16587">
        <ele>647.656616211</ele>
        <time>2014-02-09T15:05:21.831Z</time>
      </trkpt>
      <trkpt lat="47.84829" lon="7.16589">
        <ele>647.485351562</ele>
        <time>2014-02-09T15:05:22.858Z</time>
      </trkpt>
      <trkpt lat="47.84825" lon="7.16601">
        <ele>646.506530762</ele>
        <time>2014-02-09T15:05:29.838Z</time>
      </trkpt>
      <trkpt lat="47.84825" lon="7.16605">
        <ele>646.38470459</ele>
        <time>2014-02-09T15:05:30.835Z</time>
      </trkpt>
      <trkpt lat="47.84826" lon="7.16616">
        <ele>645.520080566</ele>
        <time>2014-02-09T15:05:36.836Z</time>
      </trkpt>
      <trkpt lat="47.84826" lon="7.16618">
        <ele>645.376464844</ele>
        <time>2014-02-09T15:05:37.823Z</time>
      </trkpt>
      <trkpt lat="47.84827" lon="7.16632">
        <ele>644.879394531</ele>
        <time>2014-02-09T15:05:42.831Z</time>
      </trkpt>
      <trkpt lat="47.84827" lon="7.16634">
        <ele>644.818908691</ele>
        <time>2014-02-09T15:05:43.831Z</time>
      </trkpt>
      <trkpt lat="47.84827" lon="7.16647">
        <ele>643.779724121</ele>
        <time>2014-02-09T15:05:52.832Z</time>
      </trkpt>
      <trkpt lat="47.84827" lon="7.16648">
        <ele>643.612609863</ele>
        <time>2014-02-09T15:05:53.834Z</time>
      </trkpt>
      <trkpt lat="47.84826" lon="7.1666">
        <ele>642.785583496</ele>
        <time>2014-02-09T15:05:58.829Z</time>
      </trkpt>
      <trkpt lat="47.84826" lon="7.16662">
        <ele>642.54284668</ele>
        <time>2014-02-09T15:05:59.827Z</time>
      </trkpt>
      <trkpt lat="47.84821" lon="7.16673">
        <ele>639.567871094</ele>
        <time>2014-02-09T15:06:10.807Z</time>
      </trkpt>
      <trkpt lat="47.84822" lon="7.16674">
        <ele>639.252563477</ele>
        <time>2014-02-09T15:06:11.825Z</time>
      </trkpt>
      <trkpt lat="47.84822" lon="7.16686">
        <ele>637.420898438</ele>
        <time>2014-02-09T15:06:22.818Z</time>
      </trkpt>
      <trkpt lat="47.84822" lon="7.16688">
        <ele>637.249816895</ele>
        <time>2014-02-09T15:06:23.83Z</time>
      </trkpt>
      <trkpt lat="47.84817" lon="7.16698">
        <ele>636.531799316</ele>
        <time>2014-02-09T15:06:31.83Z</time>
      </trkpt>
      <trkpt lat="47.84817" lon="7.167">
        <ele>636.479492188</ele>
        <time>2014-02-09T15:06:32.833Z</time>
      </trkpt>
      <trkpt lat="47.8481" lon="7.16708">
        <ele>636.335876465</ele>
        <time>2014-02-09T15:06:40.831Z</time>
      </trkpt>
      <trkpt lat="47.8481" lon="7.16709">
        <ele>636.286010742</ele>
        <time>2014-02-09T15:06:41.83Z</time>
      </trkpt>
      <trkpt lat="47.84804" lon="7.16718">
        <ele>636.101135254</ele>
        <time>2014-02-09T15:06:48.829Z</time>
      </trkpt>
      <trkpt lat="47.84803" lon="7.16719">
        <ele>636.121520996</ele>
        <time>2014-02-09T15:06:49.83Z</time>
      </trkpt>
      <trkpt lat="47.84798" lon="7.1673">
        <ele>636.594299316</ele>
        <time>2014-02-09T15:06:58.825Z</time>
      </trkpt>
      <trkpt lat="47.84798" lon="7.16731">
        <ele>636.544311523</ele>
        <time>2014-02-09T15:06:59.823Z</time>
      </trkpt>
      <trkpt lat="47.84794" lon="7.16742">
        <ele>636.154724121</ele>
        <time>2014-02-09T15:07:09.835Z</time>
      </trkpt>
      <trkpt lat="47.84794" lon="7.16743">
        <ele>636.040161133</ele>
        <time>2014-02-09T15:07:10.836Z</time>
      </trkpt>
      <trkpt lat="47.84791" lon="7.16755">
        <ele>635.659667969</ele>
        <time>2014-02-09T15:07:20.83Z</time>
      </trkpt>
      <trkpt lat="47.8479" lon="7.16756">
        <ele>635.508605957</ele>
        <time>2014-02-09T15:07:21.831Z</time>
      </trkpt>
      <trkpt lat="47.84783" lon="7.16764">
        <ele>634.700134277</ele>
        <time>2014-02-09T15:07:34.828Z</time>
      </trkpt>
      <trkpt lat="47.84783" lon="7.16765">
        <ele>634.557312012</ele>
        <time>2014-02-09T15:07:35.837Z</time>
      </trkpt>
      <trkpt lat="47.84775" lon="7.1677">
        <ele>632.738769531</ele>
        <time>2014-02-09T15:07:45.832Z</time>
      </trkpt>
      <trkpt lat="47.84774" lon="7.1677">
        <ele>632.56451416</ele>
        <time>2014-02-09T15:07:46.838Z</time>
      </trkpt>
      <trkpt lat="47.84766" lon="7.16774">
        <ele>628.715576172</ele>
        <time>2014-02-09T15:07:59.821Z</time>
      </trkpt>
      <trkpt lat="47.84766" lon="7.16774">
        <ele>628.469726562</ele>
        <time>2014-02-09T15:08:00.833Z</time>
      </trkpt>
      <trkpt lat="47.84758" lon="7.1678">
        <ele>626.270874023</ele>
        <time>2014-02-09T15:08:15.831Z</time>
      </trkpt>
      <trkpt lat="47.84757" lon="7.16779">
        <ele>625.973815918</ele>
        <time>2014-02-09T15:08:16.853Z</time>
      </trkpt>
      <trkpt lat="47.84751" lon="7.16788">
        <ele>624.562744141</ele>
        <time>2014-02-09T15:08:29.827Z</time>
      </trkpt>
      <trkpt lat="47.84751" lon="7.1679">
        <ele>624.287719727</ele>
        <time>2014-02-09T15:08:30.828Z</time>
      </trkpt>
      <trkpt lat="47.84744" lon="7.16799">
        <ele>621.679992676</ele>
        <time>2014-02-09T15:08:44.823Z</time>
      </trkpt>
      <trkpt lat="47.84744" lon="7.16799">
        <ele>621.401489258</ele>
        <time>2014-02-09T15:08:45.82Z</time>
      </trkpt>
      <trkpt lat="47.84739" lon="7.1681">
        <ele>619.043823242</ele>
        <time>2014-02-09T15:08:56.822Z</time>
      </trkpt>
      <trkpt lat="47.84737" lon="7.16811">
        <ele>618.856872559</ele>
        <time>2014-02-09T15:08:57.82Z</time>
      </trkpt>
      <trkpt lat="47.84729" lon="7.16816">
        <ele>616.219421387</ele>
        <time>2014-02-09T15:09:10.854Z</time>
      </trkpt>
      <trkpt lat="47.84728" lon="7.16816">
        <ele>615.98059082</ele>
        <time>2014-02-09T15:09:11.823Z</time>
      </trkpt>
      <trkpt lat="47.84722" lon="7.16822">
        <ele>614.543457031</ele>
        <time>2014-02-09T15:09:18.824Z</time>
      </trkpt>
      <trkpt lat="47.8472" lon="7.16822">
        <ele>614.377441406</ele>
        <time>2014-02-09T15:09:19.826Z</time>
      </trkpt>
      <trkpt lat="47.84713" lon="7.16827">
        <ele>613.504333496</ele>
        <time>2014-02-09T15:09:24.817Z</time>
      </trkpt>
      <trkpt lat="47.84711" lon="7.16828">
        <ele>613.235534668</ele>
        <time>2014-02-09T15:09:25.825Z</time>
      </trkpt>
      <trkpt lat="47.84704" lon="7.16832">
        <ele>612.420166016</ele>
        <time>2014-02-09T15:09:29.823Z</time>
      </trkpt>
      <trkpt lat="47.84701" lon="7.16834">
        <ele>612.21862793</ele>
        <time>2014-02-09T15:09:30.823Z</time>
      </trkpt>
      <trkpt lat="47.84693" lon="7.16839">
        <ele>611.478759766</ele>
        <time>2014-02-09T15:09:34.82Z</time>
      </trkpt>
      <trkpt lat="47.84692" lon="7.16839">
        <ele>611.308410645</ele>
        <time>2014-02-09T15:09:35.831Z</time>
      </trkpt>
      <trkpt lat="47.84684" lon="7.16844">
        <ele>609.200439453</ele>
        <time>2014-02-09T15:09:44.824Z</time>
      </trkpt>
      <trkpt lat="47.84683" lon="7.16845">
        <ele>608.98614502</ele>
        <time>2014-02-09T15:09:45.817Z</time>
      </trkpt>
      <trkpt lat="47.84674" lon="7.16843">
        <ele>606.311706543</ele>
        <time>2014-02-09T15:10:16.825Z</time>
      </trkpt>
      <trkpt lat="47.84674" lon="7.16843">
        <ele>606.274291992</ele>
        <time>2014-02-09T15:10:17.822Z</time>
      </trkpt>
      <trkpt lat="47.84666" lon="7.1685">
        <ele>603.269104004</ele>
        <time>2014-02-09T15:11:03.816Z</time>
      </trkpt>
      <trkpt lat="47.84666" lon="7.16851">
        <ele>603.091308594</ele>
        <time>2014-02-09T15:11:04.811Z</time>
      </trkpt>
      <trkpt lat="47.84668" lon="7.16864">
        <ele>601.377990723</ele>
        <time>2014-02-09T15:11:15.82Z</time>
      </trkpt>
      <trkpt lat="47.84668" lon="7.16865">
        <ele>601.292053223</ele>
        <time>2014-02-09T15:11:16.821Z</time>
      </trkpt>
      <trkpt lat="47.84672" lon="7.16877">
        <ele>600.183410645</ele>
        <time>2014-02-09T15:11:25.82Z</time>
      </trkpt>
      <trkpt lat="47.84672" lon="7.16879">
        <ele>600.02142334</ele>
        <time>2014-02-09T15:11:26.823Z</time>
      </trkpt>
      <trkpt lat="47.84674" lon="7.16892">
        <ele>597.851379395</ele>
        <time>2014-02-09T15:11:38.804Z</time>
      </trkpt>
      <trkpt lat="47.84674" lon="7.16892">
        <ele>597.615783691</ele>
        <time>2014-02-09T15:11:39.815Z</time>
      </trkpt>
      <trkpt lat="47.84678" lon="7.16904">
        <ele>592.830688477</ele>
        <time>2014-02-09T15:11:56.842Z</time>
      </trkpt>
      <trkpt lat="47.84679" lon="7.16905">
        <ele>592.564453125</ele>
        <time>2014-02-09T15:11:57.834Z</time>
      </trkpt>
      <trkpt lat="47.84682" lon="7.16916">
        <ele>590.864135742</ele>
        <time>2014-02-09T15:12:04.838Z</time>
      </trkpt>
      <trkpt lat="47.84683" lon="7.16918">
        <ele>590.702697754</ele>
        <time>2014-02-09T15:12:05.848Z</time>
      </trkpt>
      <trkpt lat="47.84684" lon="7.16929">
        <ele>589.988769531</ele>
        <time>2014-02-09T15:12:09.825Z</time>
      </trkpt>
      <trkpt lat="47.84685" lon="7.16931">
        <ele>589.836181641</ele>
        <time>2014-02-09T15:12:10.86Z</time>
      </trkpt>
      <trkpt lat="47.84686" lon="7.16944">
        <ele>589.395202637</ele>
        <time>2014-02-09T15:12:20.818Z</time>
      </trkpt>
      <trkpt lat="47.84686" lon="7.16945">
        <ele>589.334838867</ele>
        <time>2014-02-09T15:12:21.837Z</time>
      </trkpt>
      <trkpt lat="47.84687" lon="7.16958">
        <ele>588.946105957</ele>
        <time>2014-02-09T15:12:29.816Z</time>
      </trkpt>
      <trkpt lat="47.84686" lon="7.1696">
        <ele>588.82623291</ele>
        <time>2014-02-09T15:12:30.815Z</time>
      </trkpt>
      <trkpt lat="47.84681" lon="7.1697">
        <ele>586.680114746</ele>
        <time>2014-02-09T15:12:50.818Z</time>
      </trkpt>
      <trkpt lat="47.8468" lon="7.16971">
        <ele>586.543457031</ele>
        <time>2014-02-09T15:12:51.817Z</time>
      </trkpt>
      <trkpt lat="47.84674" lon="7.16981">
        <ele>586.710388184</ele>
        <time>2014-02-09T15:13:03.825Z</time>
      </trkpt>
      <trkpt lat="47.84674" lon="7.16981">
        <ele>586.698974609</ele>
        <time>2014-02-09T15:13:04.802Z</time>
      </trkpt>
      <trkpt lat="47.84676" lon="7.16994">
        <ele>586.942443848</ele>
        <time>2014-02-09T15:13:18.83Z</time>
      </trkpt>
      <trkpt lat="47.84676" lon="7.16996">
        <ele>586.966430664</ele>
        <time>2014-02-09T15:13:19.842Z</time>
      </trkpt>
      <trkpt lat="47.84675" lon="7.17009">
        <ele>586.668884277</ele>
        <time>2014-02-09T15:13:54.817Z</time>
      </trkpt>
      <trkpt lat="47.84675" lon="7.1701">
        <ele>586.55078125</ele>
        <time>2014-02-09T15:13:55.823Z</time>
      </trkpt>
      <trkpt lat="47.84672" lon="7.17022">
        <ele>587.432434082</ele>
        <time>2014-02-09T15:14:14.815Z</time>
      </trkpt>
      <trkpt lat="47.84672" lon="7.17023">
        <ele>587.447814941</ele>
        <time>2014-02-09T15:14:15.814Z</time>
      </trkpt>
      <trkpt lat="47.84671" lon="7.17035">
        <ele>588.273864746</ele>
        <time>2014-02-09T15:14:27.813Z</time>
      </trkpt>
      <trkpt lat="47.8467" lon="7.17036">
        <ele>588.259338379</ele>
        <time>2014-02-09T15:14:28.815Z</time>
      </trkpt>
      <trkpt lat="47.84666" lon="7.17047">
        <ele>588.702270508</ele>
        <time>2014-02-09T15:14:35.811Z</time>
      </trkpt>
      <trkpt lat="47.84666" lon="7.17049">
        <ele>588.784606934</ele>
        <time>2014-02-09T15:14:36.817Z</time>
      </trkpt>
      <trkpt lat="47.84657" lon="7.17051">
        <ele>591.932922363</ele>
        <time>2014-02-09T15:14:58.813Z</time>
      </trkpt>
      <trkpt lat="47.84656" lon="7.17051">
        <ele>591.959716797</ele>
        <time>2014-02-09T15:14:59.808Z</time>
      </trkpt>
      <trkpt lat="47.8465" lon="7.17042">
        <ele>592.309204102</ele>
        <time>2014-02-09T15:15:09.818Z</time>
      </trkpt>
      <trkpt lat="47.8465" lon="7.17041">
        <ele>592.312988281</ele>
        <time>2014-02-09T15:15:10.806Z</time>
      </trkpt>
      <trkpt lat="47.84643" lon="7.17032">
        <ele>592.749084473</ele>
        <time>2014-02-09T15:15:20.812Z</time>
      </trkpt>
      <trkpt lat="47.84643" lon="7.17031">
        <ele>592.746032715</ele>
        <time>2014-02-09T15:15:21.955Z</time>
      </trkpt>
      <trkpt lat="47.84638" lon="7.17021">
        <ele>592.914855957</ele>
        <time>2014-02-09T15:15:54.821Z</time>
      </trkpt>
      <trkpt lat="47.84637" lon="7.1702">
        <ele>593.178833008</ele>
        <time>2014-02-09T15:15:55.829Z</time>
      </trkpt>
      <trkpt lat="47.84634" lon="7.17033">
        <ele>595.185424805</ele>
        <time>2014-02-09T15:16:50.814Z</time>
      </trkpt>
      <trkpt lat="47.84634" lon="7.17033">
        <ele>595.192321777</ele>
        <time>2014-02-09T15:16:51.824Z</time>
      </trkpt>
      <trkpt lat="47.84638" lon="7.17021">
        <ele>594.955688477</ele>
        <time>2014-02-09T15:18:32.821Z</time>
      </trkpt>
      <trkpt lat="47.84637" lon="7.1702">
        <ele>594.93371582</ele>
        <time>2014-02-09T15:18:33.818Z</time>
      </trkpt>
      <trkpt lat="47.84637" lon="7.17033">
        <ele>597.271850586</ele>
        <time>2014-02-09T15:19:46.817Z</time>
      </trkpt>
      <trkpt lat="47.84637" lon="7.17034">
        <ele>597.305175781</ele>
        <time>2014-02-09T15:19:47.802Z</time>
      </trkpt>
      <trkpt lat="47.84633" lon="7.17022">
        <ele>599.471008301</ele>
        <time>2014-02-09T15:21:43.811Z</time>
      </trkpt>
      <trkpt lat="47.84633" lon="7.17022">
        <ele>599.600036621</ele>
        <time>2014-02-09T15:21:44.815Z</time>
      </trkpt>
      <trkpt lat="47.84627" lon="7.17011">
        <ele>603.809753418</ele>
        <time>2014-02-09T15:23:44.808Z</time>
      </trkpt>
      <trkpt lat="47.84627" lon="7.1701">
        <ele>603.807800293</ele>
        <time>2014-02-09T15:23:45.807Z</time>
      </trkpt>
      <trkpt lat="47.84619" lon="7.17006">
        <ele>605.086425781</ele>
        <time>2014-02-09T15:24:13.803Z</time>
      </trkpt>
      <trkpt lat="47.84618" lon="7.17006">
        <ele>605.100769043</ele>
        <time>2014-02-09T15:24:14.802Z</time>
      </trkpt>
      <trkpt lat="47.8461" lon="7.17001">
        <ele>605.782836914</ele>
        <time>2014-02-09T15:24:22.799Z</time>
      </trkpt>
      <trkpt lat="47.84609" lon="7.17">
        <ele>605.908935547</ele>
        <time>2014-02-09T15:24:23.813Z</time>
      </trkpt>
      <trkpt lat="47.84601" lon="7.16995">
        <ele>607.442321777</ele>
        <time>2014-02-09T15:24:40.803Z</time>
      </trkpt>
      <trkpt lat="47.84601" lon="7.16995">
        <ele>607.480773926</ele>
        <time>2014-02-09T15:24:41.803Z</time>
      </trkpt>
      <trkpt lat="47.84593" lon="7.1699">
        <ele>607.491882324</ele>
        <time>2014-02-09T15:24:54.796Z</time>
      </trkpt>
      <trkpt lat="47.84592" lon="7.16989">
        <ele>607.518615723</ele>
        <time>2014-02-09T15:24:55.796Z</time>
      </trkpt>
      <trkpt lat="47.84584" lon="7.16985">
        <ele>608.045959473</ele>
        <time>2014-02-09T15:25:01.797Z</time>
      </trkpt>
      <trkpt lat="47.84582" lon="7.16984">
        <ele>608.160095215</ele>
        <time>2014-02-09T15:25:02.8Z</time>
      </trkpt>
      <trkpt lat="47.84574" lon="7.16979">
        <ele>608.982177734</ele>
        <time>2014-02-09T15:25:10.781Z</time>
      </trkpt>
      <trkpt lat="47.84574" lon="7.16978">
        <ele>609.126586914</ele>
        <time>2014-02-09T15:25:11.8Z</time>
      </trkpt>
      <trkpt lat="47.84566" lon="7.16972">
        <ele>609.80456543</ele>
        <time>2014-02-09T15:25:19.802Z</time>
      </trkpt>
      <trkpt lat="47.84566" lon="7.16971">
        <ele>609.899719238</ele>
        <time>2014-02-09T15:25:20.801Z</time>
      </trkpt>
      <trkpt lat="47.84557" lon="7.16966">
        <ele>610.89251709</ele>
        <time>2014-02-09T15:25:29.802Z</time>
      </trkpt>
      <trkpt lat="47.84557" lon="7.16966">
        <ele>610.988891602</ele>
        <time>2014-02-09T15:25:30.802Z</time>
      </trkpt>
      <trkpt lat="47.8455" lon="7.16957">
        <ele>611.863891602</ele>
        <time>2014-02-09T15:25:40.808Z</time>
      </trkpt>
      <trkpt lat="47.8455" lon="7.16956">
        <ele>611.78692627</ele>
        <time>2014-02-09T15:25:41.797Z</time>
      </trkpt>
      <trkpt lat="47.84547" lon="7.16944">
        <ele>611.549499512</ele>
        <time>2014-02-09T15:25:48.801Z</time>
      </trkpt>
      <trkpt lat="47.84546" lon="7.16943">
        <ele>611.536560059</ele>
        <time>2014-02-09T15:25:49.811Z</time>
      </trkpt>
      <trkpt lat="47.84546" lon="7.1693">
        <ele>610.29473877</ele>
        <time>2014-02-09T15:26:04.8Z</time>
      </trkpt>
      <trkpt lat="47.84545" lon="7.16927">
        <ele>610.197875977</ele>
        <time>2014-02-09T15:26:05.801Z</time>
      </trkpt>
      <trkpt lat="47.8454" lon="7.16917">
        <ele>609.801330566</ele>
        <time>2014-02-09T15:26:15.8Z</time>
      </trkpt>
      <trkpt lat="47.8454" lon="7.16916">
        <ele>609.741394043</ele>
        <time>2014-02-09T15:26:16.805Z</time>
      </trkpt>
      <trkpt lat="47.84536" lon="7.16905">
        <ele>609.086242676</ele>
        <time>2014-02-09T15:26:25.79Z</time>
      </trkpt>
      <trkpt lat="47.84536" lon="7.16903">
        <ele>609.049438477</ele>
        <time>2014-02-09T15:26:26.793Z</time>
      </trkpt>
      <trkpt lat="47.84535" lon="7.16891">
        <ele>608.739196777</ele>
        <time>2014-02-09T15:26:36.788Z</time>
      </trkpt>
      <trkpt lat="47.84535" lon="7.16889">
        <ele>608.679321289</ele>
        <time>2014-02-09T15:26:37.782Z</time>
      </trkpt>
      <trkpt lat="47.84539" lon="7.16879">
        <ele>608.434753418</ele>
        <time>2014-02-09T15:26:44.768Z</time>
      </trkpt>
      <trkpt lat="47.84539" lon="7.16877">
        <ele>608.369689941</ele>
        <time>2014-02-09T15:26:45.779Z</time>
      </trkpt>
      <trkpt lat="47.8454" lon="7.16863">
        <ele>607.960998535</ele>
        <time>2014-02-09T15:26:57.774Z</time>
      </trkpt>
      <trkpt lat="47.8454" lon="7.16862">
        <ele>607.983886719</ele>
        <time>2014-02-09T15:26:58.775Z</time>
      </trkpt>
      <trkpt lat="47.84544" lon="7.1685">
        <ele>607.709350586</ele>
        <time>2014-02-09T15:27:12.779Z</time>
      </trkpt>
      <trkpt lat="47.84544" lon="7.1685">
        <ele>607.708251953</ele>
        <time>2014-02-09T15:27:13.777Z</time>
      </trkpt>
      <trkpt lat="47.8455" lon="7.1684">
        <ele>607.437255859</ele>
        <time>2014-02-09T15:27:25.775Z</time>
      </trkpt>
      <trkpt lat="47.8455" lon="7.16839">
        <ele>607.371337891</ele>
        <time>2014-02-09T15:27:26.796Z</time>
      </trkpt>
      <trkpt lat="47.84544" lon="7.1683">
        <ele>605.472106934</ele>
        <time>2014-02-09T15:27:56.805Z</time>
      </trkpt>
      <trkpt lat="47.84543" lon="7.16829">
        <ele>605.372070312</ele>
        <time>2014-02-09T15:27:57.816Z</time>
      </trkpt>
      <trkpt lat="47.84535" lon="7.16829">
        <ele>604.792358398</ele>
        <time>2014-02-09T15:28:06.795Z</time>
      </trkpt>
      <trkpt lat="47.84534" lon="7.16828">
        <ele>604.669677734</ele>
        <time>2014-02-09T15:28:07.791Z</time>
      </trkpt>
      <trkpt lat="47.84525" lon="7.16829">
        <ele>603.746032715</ele>
        <time>2014-02-09T15:28:16.793Z</time>
      </trkpt>
      <trkpt lat="47.84524" lon="7.16828">
        <ele>603.57208252</ele>
        <time>2014-02-09T15:28:17.783Z</time>
      </trkpt>
      <trkpt lat="47.84516" lon="7.1683">
        <ele>602.33416748</ele>
        <time>2014-02-09T15:28:24.782Z</time>
      </trkpt>
      <trkpt lat="47.84515" lon="7.16831">
        <ele>602.144042969</ele>
        <time>2014-02-09T15:28:25.777Z</time>
      </trkpt>
      <trkpt lat="47.84506" lon="7.16834">
        <ele>600.708374023</ele>
        <time>2014-02-09T15:28:41.782Z</time>
      </trkpt>
      <trkpt lat="47.84505" lon="7.16834">
        <ele>600.696350098</ele>
        <time>2014-02-09T15:28:42.776Z</time>
      </trkpt>
      <trkpt lat="47.84499" lon="7.16842">
        <ele>599.307739258</ele>
        <time>2014-02-09T15:28:54.783Z</time>
      </trkpt>
      <trkpt lat="47.84498" lon="7.16843">
        <ele>599.064453125</ele>
        <time>2014-02-09T15:28:55.787Z</time>
      </trkpt>
      <trkpt lat="47.84491" lon="7.16849">
        <ele>597.606201172</ele>
        <time>2014-02-09T15:29:02.785Z</time>
      </trkpt>
      <trkpt lat="47.84488" lon="7.16852">
        <ele>597.406066895</ele>
        <time>2014-02-09T15:29:03.768Z</time>
      </trkpt>
      <trkpt lat="47.84481" lon="7.16859">
        <ele>595.189453125</ele>
        <time>2014-02-09T15:29:12.786Z</time>
      </trkpt>
      <trkpt lat="47.84481" lon="7.16859">
        <ele>595.014709473</ele>
        <time>2014-02-09T15:29:13.786Z</time>
      </trkpt>
      <trkpt lat="47.84474" lon="7.16864">
        <ele>593.755065918</ele>
        <time>2014-02-09T15:29:20.787Z</time>
      </trkpt>
      <trkpt lat="47.84472" lon="7.16866">
        <ele>593.610107422</ele>
        <time>2014-02-09T15:29:21.788Z</time>
      </trkpt>
      <trkpt lat="47.84465" lon="7.16873">
        <ele>592.824401855</ele>
        <time>2014-02-09T15:29:25.788Z</time>
      </trkpt>
      <trkpt lat="47.84464" lon="7.16874">
        <ele>592.614440918</ele>
        <time>2014-02-09T15:29:26.788Z</time>
      </trkpt>
      <trkpt lat="47.84455" lon="7.16875">
        <ele>592.184387207</ele>
        <time>2014-02-09T15:29:29.774Z</time>
      </trkpt>
      <trkpt lat="47.84453" lon="7.16875">
        <ele>592.024047852</ele>
        <time>2014-02-09T15:29:30.788Z</time>
      </trkpt>
      <trkpt lat="47.84446" lon="7.16881">
        <ele>591.330749512</ele>
        <time>2014-02-09T15:29:37.777Z</time>
      </trkpt>
      <trkpt lat="47.84444" lon="7.16882">
        <ele>591.208129883</ele>
        <time>2014-02-09T15:29:38.786Z</time>
      </trkpt>
      <trkpt lat="47.84438" lon="7.16885">
        <ele>590.931640625</ele>
        <time>2014-02-09T15:29:42.779Z</time>
      </trkpt>
      <trkpt lat="47.84435" lon="7.16887">
        <ele>590.852294922</ele>
        <time>2014-02-09T15:29:43.795Z</time>
      </trkpt>
      <trkpt lat="47.84427" lon="7.16892">
        <ele>590.320129395</ele>
        <time>2014-02-09T15:29:47.791Z</time>
      </trkpt>
      <trkpt lat="47.84425" lon="7.16893">
        <ele>590.213928223</ele>
        <time>2014-02-09T15:29:48.765Z</time>
      </trkpt>
      <trkpt lat="47.84418" lon="7.16899">
        <ele>589.043518066</ele>
        <time>2014-02-09T15:29:58.775Z</time>
      </trkpt>
      <trkpt lat="47.84417" lon="7.169">
        <ele>588.936950684</ele>
        <time>2014-02-09T15:29:59.784Z</time>
      </trkpt>
      <trkpt lat="47.8441" lon="7.16907">
        <ele>587.819702148</ele>
        <time>2014-02-09T15:30:06.787Z</time>
      </trkpt>
      <trkpt lat="47.84409" lon="7.16907">
        <ele>587.559509277</ele>
        <time>2014-02-09T15:30:07.783Z</time>
      </trkpt>
      <trkpt lat="47.84402" lon="7.16911">
        <ele>586.505615234</ele>
        <time>2014-02-09T15:30:11.776Z</time>
      </trkpt>
      <trkpt lat="47.844" lon="7.16912">
        <ele>586.304748535</ele>
        <time>2014-02-09T15:30:12.788Z</time>
      </trkpt>
      <trkpt lat="47.84392" lon="7.16915">
        <ele>585.129943848</ele>
        <time>2014-02-09T15:30:18.775Z</time>
      </trkpt>
      <trkpt lat="47.8439" lon="7.16916">
        <ele>584.907836914</ele>
        <time>2014-02-09T15:30:19.774Z</time>
      </trkpt>
      <trkpt lat="47.84385" lon="7.16922">
        <ele>583.527099609</ele>
        <time>2014-02-09T15:30:28.788Z</time>
      </trkpt>
      <trkpt lat="47.84382" lon="7.16924">
        <ele>583.35345459</ele>
        <time>2014-02-09T15:30:29.784Z</time>
      </trkpt>
      <trkpt lat="47.84375" lon="7.16931">
        <ele>582.172973633</ele>
        <time>2014-02-09T15:30:38.769Z</time>
      </trkpt>
      <trkpt lat="47.84374" lon="7.16932">
        <ele>581.98248291</ele>
        <time>2014-02-09T15:30:39.759Z</time>
      </trkpt>
      <trkpt lat="47.84367" lon="7.16937">
        <ele>580.39263916</ele>
        <time>2014-02-09T15:30:44.768Z</time>
      </trkpt>
      <trkpt lat="47.84366" lon="7.16938">
        <ele>580.116882324</ele>
        <time>2014-02-09T15:30:45.77Z</time>
      </trkpt>
      <trkpt lat="47.84358" lon="7.16944">
        <ele>578.557189941</ele>
        <time>2014-02-09T15:30:51.77Z</time>
      </trkpt>
      <trkpt lat="47.84357" lon="7.16944">
        <ele>578.38873291</ele>
        <time>2014-02-09T15:30:52.774Z</time>
      </trkpt>
      <trkpt lat="47.84351" lon="7.16951">
        <ele>576.098571777</ele>
        <time>2014-02-09T15:31:02.767Z</time>
      </trkpt>
      <trkpt lat="47.84349" lon="7.16952">
        <ele>575.687438965</ele>
        <time>2014-02-09T15:31:03.769Z</time>
      </trkpt>
      <trkpt lat="47.84342" lon="7.1696">
        <ele>572.177368164</ele>
        <time>2014-02-09T15:31:10.786Z</time>
      </trkpt>
      <trkpt lat="47.84341" lon="7.16961">
        <ele>571.645690918</ele>
        <time>2014-02-09T15:31:11.769Z</time>
      </trkpt>
      <trkpt lat="47.84334" lon="7.16968">
        <ele>568.034240723</ele>
        <time>2014-02-09T15:31:18.784Z</time>
      </trkpt>
      <trkpt lat="47.84332" lon="7.1697">
        <ele>567.550476074</ele>
        <time>2014-02-09T15:31:19.789Z</time>
      </trkpt>
      <trkpt lat="47.84325" lon="7.1697">
        <ele>567.09777832</ele>
        <time>2014-02-09T15:31:20.787Z</time>
      </trkpt>
      <trkpt lat="47.8432" lon="7.1697">
        <ele>566.586669922</ele>
        <time>2014-02-09T15:31:21.787Z</time>
      </trkpt>
      <trkpt lat="47.84314" lon="7.16977">
        <ele>564.236755371</ele>
        <time>2014-02-09T15:31:28.79Z</time>
      </trkpt>
      <trkpt lat="47.84313" lon="7.16978">
        <ele>563.996643066</ele>
        <time>2014-02-09T15:31:29.789Z</time>
      </trkpt>
      <trkpt lat="47.84306" lon="7.16984">
        <ele>562.378662109</ele>
        <time>2014-02-09T15:31:37.778Z</time>
      </trkpt>
      <trkpt lat="47.84305" lon="7.16985">
        <ele>562.203552246</ele>
        <time>2014-02-09T15:31:38.782Z</time>
      </trkpt>
      <trkpt lat="47.84298" lon="7.16991">
        <ele>561.153625488</ele>
        <time>2014-02-09T15:31:42.786Z</time>
      </trkpt>
      <trkpt lat="47.84294" lon="7.16993">
        <ele>560.782409668</ele>
        <time>2014-02-09T15:31:43.783Z</time>
      </trkpt>
      <trkpt lat="47.84286" lon="7.16998">
        <ele>558.679748535</ele>
        <time>2014-02-09T15:31:48.775Z</time>
      </trkpt>
      <trkpt lat="47.84285" lon="7.16998">
        <ele>558.320495605</ele>
        <time>2014-02-09T15:31:49.754Z</time>
      </trkpt>
      <trkpt lat="47.84277" lon="7.17001">
        <ele>555.987304688</ele>
        <time>2014-02-09T15:31:58.767Z</time>
      </trkpt>
      <trkpt lat="47.84273" lon="7.17002">
        <ele>555.849853516</ele>
        <time>2014-02-09T15:31:59.764Z</time>
      </trkpt>
      <trkpt lat="47.84267" lon="7.17012">
        <ele>554.798461914</ele>
        <time>2014-02-09T15:32:11.768Z</time>
      </trkpt>
      <trkpt lat="47.84266" lon="7.17013">
        <ele>554.805175781</ele>
        <time>2014-02-09T15:32:12.767Z</time>
      </trkpt>
      <trkpt lat="47.84259" lon="7.17018">
        <ele>554.172119141</ele>
        <time>2014-02-09T15:32:17.763Z</time>
      </trkpt>
      <trkpt lat="47.84258" lon="7.17019">
        <ele>553.996704102</ele>
        <time>2014-02-09T15:32:18.765Z</time>
      </trkpt>
      <trkpt lat="47.8425" lon="7.17026">
        <ele>552.713256836</ele>
        <time>2014-02-09T15:32:25.755Z</time>
      </trkpt>
      <trkpt lat="47.84249" lon="7.17027">
        <ele>552.446838379</ele>
        <time>2014-02-09T15:32:26.763Z</time>
      </trkpt>
      <trkpt lat="47.84244" lon="7.17031">
        <ele>551.748901367</ele>
        <time>2014-02-09T15:32:30.767Z</time>
      </trkpt>
      <trkpt lat="47.84238" lon="7.17034">
        <ele>551.482543945</ele>
        <time>2014-02-09T15:32:31.765Z</time>
      </trkpt>
      <trkpt lat="47.84231" lon="7.1704">
        <ele>550.269104004</ele>
        <time>2014-02-09T15:32:36.773Z</time>
      </trkpt>
      <trkpt lat="47.8423" lon="7.17041">
        <ele>549.944335938</ele>
        <time>2014-02-09T15:32:37.758Z</time>
      </trkpt>
      <trkpt lat="47.84224" lon="7.17048">
        <ele>547.508178711</ele>
        <time>2014-02-09T15:32:43.768Z</time>
      </trkpt>
      <trkpt lat="47.84221" lon="7.1705">
        <ele>547.15057373</ele>
        <time>2014-02-09T15:32:44.764Z</time>
      </trkpt>
      <trkpt lat="47.84213" lon="7.17057">
        <ele>543.62701416</ele>
        <time>2014-02-09T15:32:56.761Z</time>
      </trkpt>
      <trkpt lat="47.84213" lon="7.17058">
        <ele>543.36340332</ele>
        <time>2014-02-09T15:32:57.755Z</time>
      </trkpt>
      <trkpt lat="47.84206" lon="7.17066">
        <ele>540.513427734</ele>
        <time>2014-02-09T15:33:06.761Z</time>
      </trkpt>
      <trkpt lat="47.84206" lon="7.17067">
        <ele>540.100524902</ele>
        <time>2014-02-09T15:33:07.749Z</time>
      </trkpt>
      <trkpt lat="47.84198" lon="7.17072">
        <ele>538.478820801</ele>
        <time>2014-02-09T15:33:14.746Z</time>
      </trkpt>
      <trkpt lat="47.84193" lon="7.17075">
        <ele>538.289794922</ele>
        <time>2014-02-09T15:33:15.758Z</time>
      </trkpt>
      <trkpt lat="47.84184" lon="7.17079">
        <ele>536.877319336</ele>
        <time>2014-02-09T15:33:19.758Z</time>
      </trkpt>
      <trkpt lat="47.84183" lon="7.1708">
        <ele>536.510375977</ele>
        <time>2014-02-09T15:33:20.761Z</time>
      </trkpt>
      <trkpt lat="47.84176" lon="7.17084">
        <ele>534.752258301</ele>
        <time>2014-02-09T15:33:26.784Z</time>
      </trkpt>
      <trkpt lat="47.84175" lon="7.17085">
        <ele>534.41796875</ele>
        <time>2014-02-09T15:33:27.775Z</time>
      </trkpt>
      <trkpt lat="47.84169" lon="7.17091">
        <ele>531.379455566</ele>
        <time>2014-02-09T15:33:37.779Z</time>
      </trkpt>
      <trkpt lat="47.84168" lon="7.17093">
        <ele>531.116821289</ele>
        <time>2014-02-09T15:33:38.78Z</time>
      </trkpt>
      <trkpt lat="47.84162" lon="7.17098">
        <ele>530.763366699</ele>
        <time>2014-02-09T15:33:43.778Z</time>
      </trkpt>
      <trkpt lat="47.8416" lon="7.17099">
        <ele>530.762573242</ele>
        <time>2014-02-09T15:33:44.767Z</time>
      </trkpt>
      <trkpt lat="47.84152" lon="7.171">
        <ele>530.808959961</ele>
        <time>2014-02-09T15:33:48.79Z</time>
      </trkpt>
      <trkpt lat="47.84149" lon="7.171">
        <ele>530.770446777</ele>
        <time>2014-02-09T15:33:49.781Z</time>
      </trkpt>
      <trkpt lat="47.84147" lon="7.171">
        <ele>530.723632812</ele>
        <time>2014-02-09T15:33:50.761Z</time>
      </trkpt>
      <trkpt lat="47.8414" lon="7.171">
        <ele>530.65032959</ele>
        <time>2014-02-09T15:33:51.783Z</time>
      </trkpt>
      <trkpt lat="47.84131" lon="7.17101">
        <ele>529.516418457</ele>
        <time>2014-02-09T15:33:59.767Z</time>
      </trkpt>
      <trkpt lat="47.84129" lon="7.17101">
        <ele>529.306152344</ele>
        <time>2014-02-09T15:34:00.757Z</time>
      </trkpt>
      <trkpt lat="47.84122" lon="7.17106">
        <ele>527.350830078</ele>
        <time>2014-02-09T15:34:09.752Z</time>
      </trkpt>
      <trkpt lat="47.84121" lon="7.17107">
        <ele>527.154907227</ele>
        <time>2014-02-09T15:34:10.755Z</time>
      </trkpt>
      <trkpt lat="47.84112" lon="7.1711">
        <ele>526.356262207</ele>
        <time>2014-02-09T15:34:19.753Z</time>
      </trkpt>
      <trkpt lat="47.84111" lon="7.17111">
        <ele>526.363525391</ele>
        <time>2014-02-09T15:34:20.751Z</time>
      </trkpt>
      <trkpt lat="47.84103" lon="7.17116">
        <ele>526.050354004</ele>
        <time>2014-02-09T15:34:26.744Z</time>
      </trkpt>
      <trkpt lat="47.84102" lon="7.17117">
        <ele>525.934387207</ele>
        <time>2014-02-09T15:34:27.74Z</time>
      </trkpt>
      <trkpt lat="47.84097" lon="7.17126">
        <ele>524.237304688</ele>
        <time>2014-02-09T15:34:33.76Z</time>
      </trkpt>
      <trkpt lat="47.84096" lon="7.17127">
        <ele>523.936889648</ele>
        <time>2014-02-09T15:34:34.763Z</time>
      </trkpt>
      <trkpt lat="47.84089" lon="7.17132">
        <ele>521.613708496</ele>
        <time>2014-02-09T15:34:39.769Z</time>
      </trkpt>
      <trkpt lat="47.84088" lon="7.17133">
        <ele>521.17175293</ele>
        <time>2014-02-09T15:34:40.753Z</time>
      </trkpt>
      <trkpt lat="47.84081" lon="7.17141">
        <ele>518.734741211</ele>
        <time>2014-02-09T15:34:48.778Z</time>
      </trkpt>
      <trkpt lat="47.8408" lon="7.17142">
        <ele>518.391601562</ele>
        <time>2014-02-09T15:34:49.761Z</time>
      </trkpt>
      <trkpt lat="47.84075" lon="7.17151">
        <ele>515.257141113</ele>
        <time>2014-02-09T15:34:57.75Z</time>
      </trkpt>
      <trkpt lat="47.84072" lon="7.17154">
        <ele>514.859619141</ele>
        <time>2014-02-09T15:34:58.76Z</time>
      </trkpt>
      <trkpt lat="47.84064" lon="7.17159">
        <ele>512.950012207</ele>
        <time>2014-02-09T15:35:04.786Z</time>
      </trkpt>
      <trkpt lat="47.84063" lon="7.1716">
        <ele>512.665222168</ele>
        <time>2014-02-09T15:35:05.764Z</time>
      </trkpt>
      <trkpt lat="47.84055" lon="7.17164">
        <ele>510.629394531</ele>
        <time>2014-02-09T15:35:13.756Z</time>
      </trkpt>
      <trkpt lat="47.84053" lon="7.17165">
        <ele>510.477325439</ele>
        <time>2014-02-09T15:35:14.757Z</time>
      </trkpt>
      <trkpt lat="47.84045" lon="7.17169">
        <ele>509.315307617</ele>
        <time>2014-02-09T15:35:18.756Z</time>
      </trkpt>
      <trkpt lat="47.84044" lon="7.1717">
        <ele>508.959472656</ele>
        <time>2014-02-09T15:35:19.746Z</time>
      </trkpt>
      <trkpt lat="47.84038" lon="7.17176">
        <ele>506.085144043</ele>
        <time>2014-02-09T15:35:27.734Z</time>
      </trkpt>
      <trkpt lat="47.84036" lon="7.17177">
        <ele>505.766571045</ele>
        <time>2014-02-09T15:35:28.749Z</time>
      </trkpt>
      <trkpt lat="47.84028" lon="7.17182">
        <ele>504.699737549</ele>
        <time>2014-02-09T15:35:32.76Z</time>
      </trkpt>
      <trkpt lat="47.84028" lon="7.17183">
        <ele>504.423431396</ele>
        <time>2014-02-09T15:35:33.753Z</time>
      </trkpt>
      <trkpt lat="47.84022" lon="7.17188">
        <ele>502.621368408</ele>
        <time>2014-02-09T15:35:41.744Z</time>
      </trkpt>
      <trkpt lat="47.84017" lon="7.17189">
        <ele>502.407287598</ele>
        <time>2014-02-09T15:35:42.743Z</time>
      </trkpt>
      <trkpt lat="47.84009" lon="7.17193">
        <ele>501.234863281</ele>
        <time>2014-02-09T15:35:50.743Z</time>
      </trkpt>
      <trkpt lat="47.84008" lon="7.17192">
        <ele>501.096069336</ele>
        <time>2014-02-09T15:35:51.741Z</time>
      </trkpt>
      <trkpt lat="47.84" lon="7.17192">
        <ele>499.491455078</ele>
        <time>2014-02-09T15:36:01.76Z</time>
      </trkpt>
      <trkpt lat="47.83999" lon="7.17192">
        <ele>499.158538818</ele>
        <time>2014-02-09T15:36:02.762Z</time>
      </trkpt>
      <trkpt lat="47.8399" lon="7.1719">
        <ele>497.080383301</ele>
        <time>2014-02-09T15:36:09.757Z</time>
      </trkpt>
      <trkpt lat="47.83989" lon="7.1719">
        <ele>496.86831665</ele>
        <time>2014-02-09T15:36:10.75Z</time>
      </trkpt>
      <trkpt lat="47.8398" lon="7.17187">
        <ele>495.57711792</ele>
        <time>2014-02-09T15:36:22.755Z</time>
      </trkpt>
      <trkpt lat="47.83979" lon="7.17188">
        <ele>495.455718994</ele>
        <time>2014-02-09T15:36:23.747Z</time>
      </trkpt>
      <trkpt lat="47.83971" lon="7.17185">
        <ele>494.183044434</ele>
        <time>2014-02-09T15:36:32.767Z</time>
      </trkpt>
      <trkpt lat="47.8397" lon="7.17185">
        <ele>494.050994873</ele>
        <time>2014-02-09T15:36:33.757Z</time>
      </trkpt>
      <trkpt lat="47.83961" lon="7.17185">
        <ele>493.561981201</ele>
        <time>2014-02-09T15:36:39.748Z</time>
      </trkpt>
      <trkpt lat="47.83959" lon="7.17186">
        <ele>493.415405273</ele>
        <time>2014-02-09T15:36:40.747Z</time>
      </trkpt>
      <trkpt lat="47.83951" lon="7.17181">
        <ele>491.456726074</ele>
        <time>2014-02-09T15:36:49.764Z</time>
      </trkpt>
      <trkpt lat="47.8395" lon="7.17181">
        <ele>491.437530518</ele>
        <time>2014-02-09T15:36:50.75Z</time>
      </trkpt>
      <trkpt lat="47.83942" lon="7.1718">
        <ele>489.954803467</ele>
        <time>2014-02-09T15:37:03.764Z</time>
      </trkpt>
      <trkpt lat="47.83941" lon="7.1718">
        <ele>489.614471436</ele>
        <time>2014-02-09T15:37:04.751Z</time>
      </trkpt>
      <trkpt lat="47.83933" lon="7.17185">
        <ele>488.431488037</ele>
        <time>2014-02-09T15:37:11.755Z</time>
      </trkpt>
      <trkpt lat="47.83932" lon="7.17186">
        <ele>488.389160156</ele>
        <time>2014-02-09T15:37:12.756Z</time>
      </trkpt>
      <trkpt lat="47.83924" lon="7.1719">
        <ele>485.472961426</ele>
        <time>2014-02-09T15:37:20.759Z</time>
      </trkpt>
      <trkpt lat="47.83923" lon="7.1719">
        <ele>485.152923584</ele>
        <time>2014-02-09T15:37:21.759Z</time>
      </trkpt>
      <trkpt lat="47.83915" lon="7.17195">
        <ele>483.306915283</ele>
        <time>2014-02-09T15:37:29.748Z</time>
      </trkpt>
      <trkpt lat="47.83914" lon="7.17196">
        <ele>483.069274902</ele>
        <time>2014-02-09T15:37:30.75Z</time>
      </trkpt>
      <trkpt lat="47.83909" lon="7.17205">
        <ele>480.433074951</ele>
        <time>2014-02-09T15:37:42.751Z</time>
      </trkpt>
      <trkpt lat="47.83908" lon="7.17206">
        <ele>480.310913086</ele>
        <time>2014-02-09T15:37:43.75Z</time>
      </trkpt>
      <trkpt lat="47.83899" lon="7.17208">
        <ele>478.199584961</ele>
        <time>2014-02-09T15:37:55.757Z</time>
      </trkpt>
      <trkpt lat="47.83899" lon="7.17209">
        <ele>478.031768799</ele>
        <time>2014-02-09T15:37:56.771Z</time>
      </trkpt>
      <trkpt lat="47.83892" lon="7.17216">
        <ele>475.957122803</ele>
        <time>2014-02-09T15:38:06.768Z</time>
      </trkpt>
      <trkpt lat="47.83891" lon="7.17217">
        <ele>475.916931152</ele>
        <time>2014-02-09T15:38:07.75Z</time>
      </trkpt>
      <trkpt lat="47.83884" lon="7.17222">
        <ele>472.59085083</ele>
        <time>2014-02-09T15:38:22.742Z</time>
      </trkpt>
      <trkpt lat="47.83882" lon="7.17222">
        <ele>472.264953613</ele>
        <time>2014-02-09T15:38:23.745Z</time>
      </trkpt>
      <trkpt lat="47.83874" lon="7.17222">
        <ele>471.20123291</ele>
        <time>2014-02-09T15:38:26.749Z</time>
      </trkpt>
      <trkpt lat="47.83873" lon="7.17222">
        <ele>470.848144531</ele>
        <time>2014-02-09T15:38:27.732Z</time>
      </trkpt>
      <trkpt lat="47.83866" lon="7.17231">
        <ele>466.466400146</ele>
        <time>2014-02-09T15:38:40.748Z</time>
      </trkpt>
      <trkpt lat="47.83866" lon="7.17232">
        <ele>466.273742676</ele>
        <time>2014-02-09T15:38:41.738Z</time>
      </trkpt>
      <trkpt lat="47.83857" lon="7.17234">
        <ele>465.701904297</ele>
        <time>2014-02-09T15:38:55.753Z</time>
      </trkpt>
      <trkpt lat="47.83857" lon="7.17234">
        <ele>465.694854736</ele>
        <time>2014-02-09T15:38:56.759Z</time>
      </trkpt>
      <trkpt lat="47.8385" lon="7.1724">
        <ele>462.340423584</ele>
        <time>2014-02-09T15:39:10.742Z</time>
      </trkpt>
      <trkpt lat="47.83848" lon="7.1724">
        <ele>462.096740723</ele>
        <time>2014-02-09T15:39:11.739Z</time>
      </trkpt>
      <trkpt lat="47.8384" lon="7.1724">
        <ele>457.904510498</ele>
        <time>2014-02-09T15:39:31.735Z</time>
      </trkpt>
      <trkpt lat="47.83839" lon="7.1724">
        <ele>457.872406006</ele>
        <time>2014-02-09T15:39:32.738Z</time>
      </trkpt>
      <trkpt lat="47.83831" lon="7.17242">
        <ele>454.171173096</ele>
        <time>2014-02-09T15:39:58.732Z</time>
      </trkpt>
      <trkpt lat="47.8383" lon="7.17243">
        <ele>453.949523926</ele>
        <time>2014-02-09T15:39:59.732Z</time>
      </trkpt>
      <trkpt lat="47.83825" lon="7.17252">
        <ele>451.811553955</ele>
        <time>2014-02-09T15:40:07.746Z</time>
      </trkpt>
      <trkpt lat="47.83824" lon="7.17253">
        <ele>451.549865723</ele>
        <time>2014-02-09T15:40:08.746Z</time>
      </trkpt>
      <trkpt lat="47.8382" lon="7.17264">
        <ele>449.925384521</ele>
        <time>2014-02-09T15:40:16.747Z</time>
      </trkpt>
      <trkpt lat="47.83819" lon="7.17265">
        <ele>449.762573242</ele>
        <time>2014-02-09T15:40:17.738Z</time>
      </trkpt>
      <trkpt lat="47.83814" lon="7.17275">
        <ele>447.911346436</ele>
        <time>2014-02-09T15:40:33.736Z</time>
      </trkpt>
      <trkpt lat="47.83813" lon="7.17276">
        <ele>447.718170166</ele>
        <time>2014-02-09T15:40:34.75Z</time>
      </trkpt>
      <trkpt lat="47.83808" lon="7.17287">
        <ele>446.329772949</ele>
        <time>2014-02-09T15:40:57.732Z</time>
      </trkpt>
      <trkpt lat="47.83808" lon="7.17287">
        <ele>445.7550354</ele>
        <time>2014-02-09T15:40:58.73Z</time>
      </trkpt>
      <trkpt lat="47.83808" lon="7.173">
        <ele>438.6980896</ele>
        <time>2014-02-09T15:43:47.733Z</time>
      </trkpt>
      <trkpt lat="47.83808" lon="7.173">
        <ele>439.285675049</ele>
        <time>2014-02-09T15:43:48.734Z</time>
      </trkpt>
      <trkpt lat="47.83804" lon="7.17312">
        <ele>445.800811768</ele>
        <time>2014-02-09T15:44:16.728Z</time>
      </trkpt>
      <trkpt lat="47.83804" lon="7.17314">
        <ele>445.802246094</ele>
        <time>2014-02-09T15:44:17.705Z</time>
      </trkpt>
      <trkpt lat="47.83801" lon="7.17326">
        <ele>444.855316162</ele>
        <time>2014-02-09T15:44:27.727Z</time>
      </trkpt>
      <trkpt lat="47.838" lon="7.17327">
        <ele>444.782714844</ele>
        <time>2014-02-09T15:44:28.74Z</time>
      </trkpt>
      <trkpt lat="47.83797" lon="7.17337">
        <ele>444.390960693</ele>
        <time>2014-02-09T15:44:36.714Z</time>
      </trkpt>
      <trkpt lat="47.83796" lon="7.17339">
        <ele>444.348388672</ele>
        <time>2014-02-09T15:44:37.726Z</time>
      </trkpt>
      <trkpt lat="47.83793" lon="7.17351">
        <ele>443.940582275</ele>
        <time>2014-02-09T15:44:46.74Z</time>
      </trkpt>
      <trkpt lat="47.83792" lon="7.17353">
        <ele>443.873962402</ele>
        <time>2014-02-09T15:44:47.733Z</time>
      </trkpt>
      <trkpt lat="47.83789" lon="7.17364">
        <ele>443.146362305</ele>
        <time>2014-02-09T15:44:55.729Z</time>
      </trkpt>
      <trkpt lat="47.83788" lon="7.17365">
        <ele>443.044677734</ele>
        <time>2014-02-09T15:44:56.733Z</time>
      </trkpt>
      <trkpt lat="47.83783" lon="7.17376">
        <ele>442.2421875</ele>
        <time>2014-02-09T15:45:05.726Z</time>
      </trkpt>
      <trkpt lat="47.83783" lon="7.17378">
        <ele>442.027770996</ele>
        <time>2014-02-09T15:45:06.73Z</time>
      </trkpt>
      <trkpt lat="47.83778" lon="7.17389">
        <ele>440.189453125</ele>
        <time>2014-02-09T15:45:15.717Z</time>
      </trkpt>
      <trkpt lat="47.83778" lon="7.17391">
        <ele>439.927124023</ele>
        <time>2014-02-09T15:45:16.725Z</time>
      </trkpt>
      <trkpt lat="47.83773" lon="7.17401">
        <ele>438.298583984</ele>
        <time>2014-02-09T15:45:23.725Z</time>
      </trkpt>
      <trkpt lat="47.83772" lon="7.17402">
        <ele>438.138244629</ele>
        <time>2014-02-09T15:45:24.731Z</time>
      </trkpt>
      <trkpt lat="47.83766" lon="7.17411">
        <ele>436.972717285</ele>
        <time>2014-02-09T15:45:34.743Z</time>
      </trkpt>
      <trkpt lat="47.83765" lon="7.17412">
        <ele>436.913574219</ele>
        <time>2014-02-09T15:45:35.773Z</time>
      </trkpt>
      <trkpt lat="47.83759" lon="7.17421">
        <ele>436.282104492</ele>
        <time>2014-02-09T15:45:43.757Z</time>
      </trkpt>
      <trkpt lat="47.83758" lon="7.17422">
        <ele>436.26953125</ele>
        <time>2014-02-09T15:45:44.767Z</time>
      </trkpt>
      <trkpt lat="47.83752" lon="7.17431">
        <ele>436.141906738</ele>
        <time>2014-02-09T15:45:52.754Z</time>
      </trkpt>
      <trkpt lat="47.83751" lon="7.17431">
        <ele>436.06451416</ele>
        <time>2014-02-09T15:45:53.754Z</time>
      </trkpt>
      <trkpt lat="47.83745" lon="7.1744">
        <ele>435.315002441</ele>
        <time>2014-02-09T15:46:02.747Z</time>
      </trkpt>
      <trkpt lat="47.83744" lon="7.17441">
        <ele>435.286834717</ele>
        <time>2014-02-09T15:46:03.738Z</time>
      </trkpt>
      <trkpt lat="47.83738" lon="7.17449">
        <ele>434.790161133</ele>
        <time>2014-02-09T15:46:10.739Z</time>
      </trkpt>
      <trkpt lat="47.83737" lon="7.1745">
        <ele>434.613037109</ele>
        <time>2014-02-09T15:46:11.737Z</time>
      </trkpt>
      <trkpt lat="47.83732" lon="7.17459">
        <ele>433.702789307</ele>
        <time>2014-02-09T15:46:17.728Z</time>
      </trkpt>
      <trkpt lat="47.83731" lon="7.1746">
        <ele>433.635498047</ele>
        <time>2014-02-09T15:46:18.771Z</time>
      </trkpt>
      <trkpt lat="47.83724" lon="7.17468">
        <ele>432.769897461</ele>
        <time>2014-02-09T15:46:27.727Z</time>
      </trkpt>
      <trkpt lat="47.83723" lon="7.17469">
        <ele>432.683044434</ele>
        <time>2014-02-09T15:46:28.746Z</time>
      </trkpt>
      <trkpt lat="47.83716" lon="7.17477">
        <ele>431.514709473</ele>
        <time>2014-02-09T15:46:39.75Z</time>
      </trkpt>
      <trkpt lat="47.83715" lon="7.17478">
        <ele>431.387207031</ele>
        <time>2014-02-09T15:46:40.753Z</time>
      </trkpt>
      <trkpt lat="47.83709" lon="7.17486">
        <ele>430.742675781</ele>
        <time>2014-02-09T15:46:49.753Z</time>
      </trkpt>
      <trkpt lat="47.83709" lon="7.17487">
        <ele>430.681152344</ele>
        <time>2014-02-09T15:46:50.754Z</time>
      </trkpt>
      <trkpt lat="47.83703" lon="7.17497">
        <ele>429.946746826</ele>
        <time>2014-02-09T15:47:01.737Z</time>
      </trkpt>
      <trkpt lat="47.83702" lon="7.17498">
        <ele>429.921234131</ele>
        <time>2014-02-09T15:47:02.738Z</time>
      </trkpt>
      <trkpt lat="47.83696" lon="7.17506">
        <ele>429.806518555</ele>
        <time>2014-02-09T15:47:10.739Z</time>
      </trkpt>
      <trkpt lat="47.83695" lon="7.17507">
        <ele>429.749908447</ele>
        <time>2014-02-09T15:47:11.747Z</time>
      </trkpt>
      <trkpt lat="47.8369" lon="7.17516">
        <ele>428.948028564</ele>
        <time>2014-02-09T15:47:20.738Z</time>
      </trkpt>
      <trkpt lat="47.83689" lon="7.17518">
        <ele>428.86151123</ele>
        <time>2014-02-09T15:47:21.741Z</time>
      </trkpt>
      <trkpt lat="47.83682" lon="7.17526">
        <ele>428.248291016</ele>
        <time>2014-02-09T15:47:31.728Z</time>
      </trkpt>
      <trkpt lat="47.83681" lon="7.17527">
        <ele>428.235137939</ele>
        <time>2014-02-09T15:47:32.734Z</time>
      </trkpt>
      <trkpt lat="47.83676" lon="7.17536">
        <ele>428.528778076</ele>
        <time>2014-02-09T15:47:39.737Z</time>
      </trkpt>
      <trkpt lat="47.83675" lon="7.17537">
        <ele>428.578704834</ele>
        <time>2014-02-09T15:47:40.753Z</time>
      </trkpt>
      <trkpt lat="47.83669" lon="7.17546">
        <ele>428.842926025</ele>
        <time>2014-02-09T15:47:47.752Z</time>
      </trkpt>
      <trkpt lat="47.83668" lon="7.17548">
        <ele>428.849487305</ele>
        <time>2014-02-09T15:47:48.75Z</time>
      </trkpt>
      <trkpt lat="47.83661" lon="7.17553">
        <ele>428.596862793</ele>
        <time>2014-02-09T15:47:54.739Z</time>
      </trkpt>
      <trkpt lat="47.8366" lon="7.17555">
        <ele>428.58190918</ele>
        <time>2014-02-09T15:47:55.739Z</time>
      </trkpt>
      <trkpt lat="47.83654" lon="7.17564">
        <ele>428.366638184</ele>
        <time>2014-02-09T15:48:01.727Z</time>
      </trkpt>
      <trkpt lat="47.83653" lon="7.17565">
        <ele>428.318847656</ele>
        <time>2014-02-09T15:48:02.737Z</time>
      </trkpt>
      <trkpt lat="47.83647" lon="7.17572">
        <ele>428.086425781</ele>
        <time>2014-02-09T15:48:09.737Z</time>
      </trkpt>
      <trkpt lat="47.83646" lon="7.17573">
        <ele>428.052581787</ele>
        <time>2014-02-09T15:48:10.736Z</time>
      </trkpt>
      <trkpt lat="47.83641" lon="7.17582">
        <ele>427.207275391</ele>
        <time>2014-02-09T15:48:18.74Z</time>
      </trkpt>
      <trkpt lat="47.8364" lon="7.17584">
        <ele>427.106231689</ele>
        <time>2014-02-09T15:48:19.767Z</time>
      </trkpt>
      <trkpt lat="47.83634" lon="7.17594">
        <ele>426.473510742</ele>
        <time>2014-02-09T15:48:27.752Z</time>
      </trkpt>
      <trkpt lat="47.83634" lon="7.17595">
        <ele>426.31539917</ele>
        <time>2014-02-09T15:48:28.751Z</time>
      </trkpt>
      <trkpt lat="47.83629" lon="7.17605">
        <ele>425.064544678</ele>
        <time>2014-02-09T15:48:35.745Z</time>
      </trkpt>
      <trkpt lat="47.83628" lon="7.17607">
        <ele>424.895446777</ele>
        <time>2014-02-09T15:48:36.751Z</time>
      </trkpt>
      <trkpt lat="47.83624" lon="7.17617">
        <ele>423.652679443</ele>
        <time>2014-02-09T15:48:43.726Z</time>
      </trkpt>
      <trkpt lat="47.83622" lon="7.17619">
        <ele>423.51184082</ele>
        <time>2014-02-09T15:48:44.722Z</time>
      </trkpt>
      <trkpt lat="47.83619" lon="7.1763">
        <ele>422.626159668</ele>
        <time>2014-02-09T15:48:52.74Z</time>
      </trkpt>
      <trkpt lat="47.83618" lon="7.17632">
        <ele>422.522766113</ele>
        <time>2014-02-09T15:48:53.717Z</time>
      </trkpt>
      <trkpt lat="47.83614" lon="7.17644">
        <ele>421.45123291</ele>
        <time>2014-02-09T15:49:00.752Z</time>
      </trkpt>
      <trkpt lat="47.83613" lon="7.17645">
        <ele>421.293609619</ele>
        <time>2014-02-09T15:49:01.734Z</time>
      </trkpt>
      <trkpt lat="47.83609" lon="7.17654">
        <ele>420.512237549</ele>
        <time>2014-02-09T15:49:08.728Z</time>
      </trkpt>
      <trkpt lat="47.83607" lon="7.17657">
        <ele>420.389526367</ele>
        <time>2014-02-09T15:49:09.752Z</time>
      </trkpt>
      <trkpt lat="47.83601" lon="7.17664">
        <ele>419.538116455</ele>
        <time>2014-02-09T15:49:16.75Z</time>
      </trkpt>
      <trkpt lat="47.836" lon="7.17666">
        <ele>419.365356445</ele>
        <time>2014-02-09T15:49:17.747Z</time>
      </trkpt>
      <trkpt lat="47.83597" lon="7.17677">
        <ele>418.272155762</ele>
        <time>2014-02-09T15:49:22.742Z</time>
      </trkpt>
      <trkpt lat="47.83597" lon="7.17679">
        <ele>418.039978027</ele>
        <time>2014-02-09T15:49:23.749Z</time>
      </trkpt>
      <trkpt lat="47.83589" lon="7.17685">
        <ele>413.486419678</ele>
        <time>2014-02-09T15:49:40.746Z</time>
      </trkpt>
      <trkpt lat="47.83588" lon="7.17684">
        <ele>413.28704834</ele>
        <time>2014-02-09T15:49:41.742Z</time>
      </trkpt>
      <trkpt lat="47.8358" lon="7.17679">
        <ele>412.31918335</ele>
        <time>2014-02-09T15:49:50.743Z</time>
      </trkpt>
      <trkpt lat="47.83579" lon="7.17678">
        <ele>412.200744629</ele>
        <time>2014-02-09T15:49:51.732Z</time>
      </trkpt>
      <trkpt lat="47.83571" lon="7.17673">
        <ele>411.476654053</ele>
        <time>2014-02-09T15:50:02.751Z</time>
      </trkpt>
      <trkpt lat="47.83571" lon="7.17672">
        <ele>411.429168701</ele>
        <time>2014-02-09T15:50:03.734Z</time>
      </trkpt>
      <trkpt lat="47.83564" lon="7.17665">
        <ele>410.863250732</ele>
        <time>2014-02-09T15:50:15.75Z</time>
      </trkpt>
      <trkpt lat="47.83563" lon="7.17664">
        <ele>410.787811279</ele>
        <time>2014-02-09T15:50:16.742Z</time>
      </trkpt>
      <trkpt lat="47.83555" lon="7.1766">
        <ele>410.780181885</ele>
        <time>2014-02-09T15:50:24.742Z</time>
      </trkpt>
      <trkpt lat="47.83554" lon="7.1766">
        <ele>410.826873779</ele>
        <time>2014-02-09T15:50:25.742Z</time>
      </trkpt>
      <trkpt lat="47.83546" lon="7.1766">
        <ele>411.038452148</ele>
        <time>2014-02-09T15:50:32.745Z</time>
      </trkpt>
      <trkpt lat="47.83545" lon="7.1766">
        <ele>411.119537354</ele>
        <time>2014-02-09T15:50:33.741Z</time>
      </trkpt>
      <trkpt lat="47.83537" lon="7.17667">
        <ele>412.058258057</ele>
        <time>2014-02-09T15:50:41.764Z</time>
      </trkpt>
      <trkpt lat="47.83536" lon="7.17667">
        <ele>412.193023682</ele>
        <time>2014-02-09T15:50:42.755Z</time>
      </trkpt>
      <trkpt lat="47.83529" lon="7.17673">
        <ele>412.707366943</ele>
        <time>2014-02-09T15:50:50.744Z</time>
      </trkpt>
      <trkpt lat="47.83528" lon="7.17673">
        <ele>412.761322021</ele>
        <time>2014-02-09T15:50:51.746Z</time>
      </trkpt>
      <trkpt lat="47.8352" lon="7.17681">
        <ele>412.816131592</ele>
        <time>2014-02-09T15:50:59.733Z</time>
      </trkpt>
      <trkpt lat="47.8352" lon="7.17682">
        <ele>412.809204102</ele>
        <time>2014-02-09T15:51:00.745Z</time>
      </trkpt>
      <trkpt lat="47.83512" lon="7.17689">
        <ele>412.540557861</ele>
        <time>2014-02-09T15:51:08.747Z</time>
      </trkpt>
      <trkpt lat="47.83512" lon="7.1769">
        <ele>412.534301758</ele>
        <time>2014-02-09T15:51:09.746Z</time>
      </trkpt>
      <trkpt lat="47.83505" lon="7.17697">
        <ele>411.381378174</ele>
        <time>2014-02-09T15:51:18.729Z</time>
      </trkpt>
      <trkpt lat="47.83504" lon="7.17698">
        <ele>411.276580811</ele>
        <time>2014-02-09T15:51:19.734Z</time>
      </trkpt>
      <trkpt lat="47.83497" lon="7.17705">
        <ele>410.652618408</ele>
        <time>2014-02-09T15:51:25.737Z</time>
      </trkpt>
      <trkpt lat="47.83496" lon="7.17706">
        <ele>410.540252686</ele>
        <time>2014-02-09T15:51:26.735Z</time>
      </trkpt>
      <trkpt lat="47.8349" lon="7.17714">
        <ele>409.643920898</ele>
        <time>2014-02-09T15:51:33.735Z</time>
      </trkpt>
      <trkpt lat="47.83489" lon="7.17715">
        <ele>409.507263184</ele>
        <time>2014-02-09T15:51:34.732Z</time>
      </trkpt>
      <trkpt lat="47.83483" lon="7.17722">
        <ele>408.72454834</ele>
        <time>2014-02-09T15:51:42.729Z</time>
      </trkpt>
      <trkpt lat="47.83482" lon="7.17724">
        <ele>408.709838867</ele>
        <time>2014-02-09T15:51:43.727Z</time>
      </trkpt>
      <trkpt lat="47.83477" lon="7.17733">
        <ele>408.434509277</ele>
        <time>2014-02-09T15:51:49.735Z</time>
      </trkpt>
      <trkpt lat="47.83476" lon="7.17736">
        <ele>408.353179932</ele>
        <time>2014-02-09T15:51:50.728Z</time>
      </trkpt>
      <trkpt lat="47.83471" lon="7.17745">
        <ele>407.785583496</ele>
        <time>2014-02-09T15:51:57.735Z</time>
      </trkpt>
      <trkpt lat="47.83471" lon="7.17746">
        <ele>407.723052979</ele>
        <time>2014-02-09T15:51:58.743Z</time>
      </trkpt>
      <trkpt lat="47.83466" lon="7.17756">
        <ele>407.411773682</ele>
        <time>2014-02-09T15:52:04.737Z</time>
      </trkpt>
      <trkpt lat="47.83465" lon="7.17757">
        <ele>407.34362793</ele>
        <time>2014-02-09T15:52:05.736Z</time>
      </trkpt>
      <trkpt lat="47.83459" lon="7.17763">
        <ele>406.735992432</ele>
        <time>2014-02-09T15:52:10.736Z</time>
      </trkpt>
      <trkpt lat="47.83457" lon="7.17765">
        <ele>406.577789307</ele>
        <time>2014-02-09T15:52:11.738Z</time>
      </trkpt>
      <trkpt lat="47.83451" lon="7.17773">
        <ele>405.65625</ele>
        <time>2014-02-09T15:52:18.733Z</time>
      </trkpt>
      <trkpt lat="47.8345" lon="7.17775">
        <ele>405.615570068</ele>
        <time>2014-02-09T15:52:19.738Z</time>
      </trkpt>
      <trkpt lat="47.83445" lon="7.17784">
        <ele>405.524719238</ele>
        <time>2014-02-09T15:52:27.734Z</time>
      </trkpt>
      <trkpt lat="47.83444" lon="7.17785">
        <ele>405.506286621</ele>
        <time>2014-02-09T15:52:28.737Z</time>
      </trkpt>
      <trkpt lat="47.83438" lon="7.17791">
        <ele>405.209197998</ele>
        <time>2014-02-09T15:52:35.744Z</time>
      </trkpt>
      <trkpt lat="47.83436" lon="7.17792">
        <ele>405.146148682</ele>
        <time>2014-02-09T15:52:36.746Z</time>
      </trkpt>
      <trkpt lat="47.8343" lon="7.178">
        <ele>404.758056641</ele>
        <time>2014-02-09T15:52:42.743Z</time>
      </trkpt>
      <trkpt lat="47.8343" lon="7.17801">
        <ele>404.688690186</ele>
        <time>2014-02-09T15:52:43.736Z</time>
      </trkpt>
      <trkpt lat="47.83423" lon="7.1781">
        <ele>404.149688721</ele>
        <time>2014-02-09T15:52:51.751Z</time>
      </trkpt>
      <trkpt lat="47.83422" lon="7.17811">
        <ele>404.11340332</ele>
        <time>2014-02-09T15:52:52.751Z</time>
      </trkpt>
      <trkpt lat="47.83415" lon="7.1782">
        <ele>403.99230957</ele>
        <time>2014-02-09T15:52:59.748Z</time>
      </trkpt>
      <trkpt lat="47.83414" lon="7.17821">
        <ele>403.960845947</ele>
        <time>2014-02-09T15:53:00.75Z</time>
      </trkpt>
      <trkpt lat="47.83407" lon="7.17827">
        <ele>403.519317627</ele>
        <time>2014-02-09T15:53:06.75Z</time>
      </trkpt>
      <trkpt lat="47.83406" lon="7.17828">
        <ele>403.454772949</ele>
        <time>2014-02-09T15:53:07.743Z</time>
      </trkpt>
      <trkpt lat="47.834" lon="7.17834">
        <ele>402.925109863</ele>
        <time>2014-02-09T15:53:14.75Z</time>
      </trkpt>
      <trkpt lat="47.83398" lon="7.17836">
        <ele>402.791046143</ele>
        <time>2014-02-09T15:53:15.742Z</time>
      </trkpt>
      <trkpt lat="47.83391" lon="7.17843">
        <ele>401.561737061</ele>
        <time>2014-02-09T15:53:22.744Z</time>
      </trkpt>
      <trkpt lat="47.8339" lon="7.17844">
        <ele>401.450561523</ele>
        <time>2014-02-09T15:53:23.729Z</time>
      </trkpt>
      <trkpt lat="47.83383" lon="7.17849">
        <ele>400.646392822</ele>
        <time>2014-02-09T15:53:28.745Z</time>
      </trkpt>
      <trkpt lat="47.83381" lon="7.17851">
        <ele>400.465759277</ele>
        <time>2014-02-09T15:53:29.745Z</time>
      </trkpt>
      <trkpt lat="47.83374" lon="7.17856">
        <ele>399.222442627</ele>
        <time>2014-02-09T15:53:35.746Z</time>
      </trkpt>
      <trkpt lat="47.83374" lon="7.17857">
        <ele>398.981506348</ele>
        <time>2014-02-09T15:53:36.75Z</time>
      </trkpt>
      <trkpt lat="47.83367" lon="7.17863">
        <ele>397.608825684</ele>
        <time>2014-02-09T15:53:42.743Z</time>
      </trkpt>
      <trkpt lat="47.83365" lon="7.17864">
        <ele>397.415466309</ele>
        <time>2014-02-09T15:53:43.742Z</time>
      </trkpt>
      <trkpt lat="47.83357" lon="7.17869">
        <ele>395.92678833</ele>
        <time>2014-02-09T15:53:51.743Z</time>
      </trkpt>
      <trkpt lat="47.83356" lon="7.17869">
        <ele>395.772064209</ele>
        <time>2014-02-09T15:53:52.744Z</time>
      </trkpt>
      <trkpt lat="47.83348" lon="7.1787">
        <ele>394.019348145</ele>
        <time>2014-02-09T15:54:04.744Z</time>
      </trkpt>
      <trkpt lat="47.83347" lon="7.1787">
        <ele>393.912567139</ele>
        <time>2014-02-09T15:54:05.743Z</time>
      </trkpt>
      <trkpt lat="47.83339" lon="7.17871">
        <ele>393.57925415</ele>
        <time>2014-02-09T15:54:12.744Z</time>
      </trkpt>
      <trkpt lat="47.83337" lon="7.17871">
        <ele>393.529052734</ele>
        <time>2014-02-09T15:54:13.744Z</time>
      </trkpt>
      <trkpt lat="47.83328" lon="7.17872">
        <ele>393.075286865</ele>
        <time>2014-02-09T15:54:21.764Z</time>
      </trkpt>
      <trkpt lat="47.83327" lon="7.17872">
        <ele>392.997467041</ele>
        <time>2014-02-09T15:54:22.747Z</time>
      </trkpt>
      <trkpt lat="47.8332" lon="7.17875">
        <ele>392.774719238</ele>
        <time>2014-02-09T15:54:29.749Z</time>
      </trkpt>
      <trkpt lat="47.83318" lon="7.17876">
        <ele>392.78717041</ele>
        <time>2014-02-09T15:54:30.747Z</time>
      </trkpt>
      <trkpt lat="47.83311" lon="7.17876">
        <ele>392.592895508</ele>
        <time>2014-02-09T15:54:38.747Z</time>
      </trkpt>
      <trkpt lat="47.83309" lon="7.17876">
        <ele>392.534210205</ele>
        <time>2014-02-09T15:54:39.748Z</time>
      </trkpt>
      <trkpt lat="47.83301" lon="7.17876">
        <ele>391.92086792</ele>
        <time>2014-02-09T15:54:46.752Z</time>
      </trkpt>
      <trkpt lat="47.833" lon="7.17876">
        <ele>391.852813721</ele>
        <time>2014-02-09T15:54:47.747Z</time>
      </trkpt>
      <trkpt lat="47.83293" lon="7.17872">
        <ele>391.025939941</ele>
        <time>2014-02-09T15:54:54.745Z</time>
      </trkpt>
      <trkpt lat="47.83291" lon="7.17871">
        <ele>390.853057861</ele>
        <time>2014-02-09T15:54:55.746Z</time>
      </trkpt>
      <trkpt lat="47.83284" lon="7.17866">
        <ele>390.146148682</ele>
        <time>2014-02-09T15:55:01.736Z</time>
      </trkpt>
      <trkpt lat="47.83282" lon="7.17865">
        <ele>390.095977783</ele>
        <time>2014-02-09T15:55:02.746Z</time>
      </trkpt>
      <trkpt lat="47.83274" lon="7.1786">
        <ele>389.795410156</ele>
        <time>2014-02-09T15:55:10.741Z</time>
      </trkpt>
      <trkpt lat="47.83273" lon="7.1786">
        <ele>389.723205566</ele>
        <time>2014-02-09T15:55:11.743Z</time>
      </trkpt>
      <trkpt lat="47.83266" lon="7.17855">
        <ele>389.918792725</ele>
        <time>2014-02-09T15:55:20.75Z</time>
      </trkpt>
      <trkpt lat="47.83265" lon="7.17854">
        <ele>389.924591064</ele>
        <time>2014-02-09T15:55:21.736Z</time>
      </trkpt>
      <trkpt lat="47.83257" lon="7.17849">
        <ele>390.07635498</ele>
        <time>2014-02-09T15:55:28.744Z</time>
      </trkpt>
      <trkpt lat="47.83255" lon="7.17848">
        <ele>390.076782227</ele>
        <time>2014-02-09T15:55:29.738Z</time>
      </trkpt>
      <trkpt lat="47.83248" lon="7.17844">
        <ele>390.353149414</ele>
        <time>2014-02-09T15:55:37.731Z</time>
      </trkpt>
      <trkpt lat="47.83247" lon="7.17844">
        <ele>390.423034668</ele>
        <time>2014-02-09T15:55:38.739Z</time>
      </trkpt>
      <trkpt lat="47.83238" lon="7.17842">
        <ele>390.860687256</ele>
        <time>2014-02-09T15:55:45.738Z</time>
      </trkpt>
      <trkpt lat="47.83236" lon="7.17842">
        <ele>390.912811279</ele>
        <time>2014-02-09T15:55:46.747Z</time>
      </trkpt>
      <trkpt lat="47.83228" lon="7.17843">
        <ele>391.369049072</ele>
        <time>2014-02-09T15:55:51.74Z</time>
      </trkpt>
      <trkpt lat="47.83227" lon="7.17843">
        <ele>391.482666016</ele>
        <time>2014-02-09T15:55:52.732Z</time>
      </trkpt>
      <trkpt lat="47.83218" lon="7.17843">
        <ele>391.821472168</ele>
        <time>2014-02-09T15:55:59.741Z</time>
      </trkpt>
      <trkpt lat="47.83217" lon="7.17844">
        <ele>391.822540283</ele>
        <time>2014-02-09T15:56:00.742Z</time>
      </trkpt>
      <trkpt lat="47.83209" lon="7.17847">
        <ele>391.754364014</ele>
        <time>2014-02-09T15:56:07.74Z</time>
      </trkpt>
      <trkpt lat="47.83208" lon="7.17848">
        <ele>391.783538818</ele>
        <time>2014-02-09T15:56:08.743Z</time>
      </trkpt>
      <trkpt lat="47.832" lon="7.17854">
        <ele>391.278991699</ele>
        <time>2014-02-09T15:56:16.75Z</time>
      </trkpt>
      <trkpt lat="47.83199" lon="7.17856">
        <ele>391.225158691</ele>
        <time>2014-02-09T15:56:17.745Z</time>
      </trkpt>
      <trkpt lat="47.83193" lon="7.17864">
        <ele>390.619171143</ele>
        <time>2014-02-09T15:56:22.764Z</time>
      </trkpt>
      <trkpt lat="47.83191" lon="7.17866">
        <ele>390.458435059</ele>
        <time>2014-02-09T15:56:23.739Z</time>
      </trkpt>
      <trkpt lat="47.83184" lon="7.17872">
        <ele>389.43560791</ele>
        <time>2014-02-09T15:56:29.746Z</time>
      </trkpt>
      <trkpt lat="47.83183" lon="7.17872">
        <ele>389.229156494</ele>
        <time>2014-02-09T15:56:30.743Z</time>
      </trkpt>
      <trkpt lat="47.83175" lon="7.17878">
        <ele>387.495788574</ele>
        <time>2014-02-09T15:56:39.726Z</time>
      </trkpt>
      <trkpt lat="47.83174" lon="7.17879">
        <ele>387.381103516</ele>
        <time>2014-02-09T15:56:40.728Z</time>
      </trkpt>
      <trkpt lat="47.83165" lon="7.17884">
        <ele>386.938995361</ele>
        <time>2014-02-09T15:56:48.728Z</time>
      </trkpt>
      <trkpt lat="47.83165" lon="7.17884">
        <ele>386.840637207</ele>
        <time>2014-02-09T15:56:49.728Z</time>
      </trkpt>
      <trkpt lat="47.83157" lon="7.17891">
        <ele>386.055969238</ele>
        <time>2014-02-09T15:56:57.73Z</time>
      </trkpt>
      <trkpt lat="47.83156" lon="7.17892">
        <ele>385.97442627</ele>
        <time>2014-02-09T15:56:58.731Z</time>
      </trkpt>
      <trkpt lat="47.83149" lon="7.17896">
        <ele>385.432434082</ele>
        <time>2014-02-09T15:57:06.744Z</time>
      </trkpt>
      <trkpt lat="47.83147" lon="7.17897">
        <ele>385.332977295</ele>
        <time>2014-02-09T15:57:07.739Z</time>
      </trkpt>
      <trkpt lat="47.83139" lon="7.179">
        <ele>385.174835205</ele>
        <time>2014-02-09T15:57:13.739Z</time>
      </trkpt>
      <trkpt lat="47.83138" lon="7.17899">
        <ele>385.261444092</ele>
        <time>2014-02-09T15:57:14.743Z</time>
      </trkpt>
      <trkpt lat="47.83129" lon="7.179">
        <ele>385.405212402</ele>
        <time>2014-02-09T15:57:20.731Z</time>
      </trkpt>
      <trkpt lat="47.83128" lon="7.179">
        <ele>385.395721436</ele>
        <time>2014-02-09T15:57:21.741Z</time>
      </trkpt>
      <trkpt lat="47.8312" lon="7.17904">
        <ele>385.122070312</ele>
        <time>2014-02-09T15:57:28.742Z</time>
      </trkpt>
      <trkpt lat="47.83119" lon="7.17904">
        <ele>385.090759277</ele>
        <time>2014-02-09T15:57:29.743Z</time>
      </trkpt>
      <trkpt lat="47.8311" lon="7.17904">
        <ele>384.531616211</ele>
        <time>2014-02-09T15:57:36.745Z</time>
      </trkpt>
      <trkpt lat="47.83109" lon="7.17904">
        <ele>384.459411621</ele>
        <time>2014-02-09T15:57:37.742Z</time>
      </trkpt>
      <trkpt lat="47.831" lon="7.17904">
        <ele>383.931762695</ele>
        <time>2014-02-09T15:57:44.74Z</time>
      </trkpt>
      <trkpt lat="47.83099" lon="7.17905">
        <ele>383.876403809</ele>
        <time>2014-02-09T15:57:45.739Z</time>
      </trkpt>
      <trkpt lat="47.8309" lon="7.17907">
        <ele>383.627807617</ele>
        <time>2014-02-09T15:57:52.744Z</time>
      </trkpt>
      <trkpt lat="47.83089" lon="7.17907">
        <ele>383.578063965</ele>
        <time>2014-02-09T15:57:53.744Z</time>
      </trkpt>
      <trkpt lat="47.83081" lon="7.17908">
        <ele>383.439147949</ele>
        <time>2014-02-09T15:58:00.74Z</time>
      </trkpt>
      <trkpt lat="47.8308" lon="7.17909">
        <ele>383.458129883</ele>
        <time>2014-02-09T15:58:01.745Z</time>
      </trkpt>
      <trkpt lat="47.83071" lon="7.17912">
        <ele>383.072143555</ele>
        <time>2014-02-09T15:58:07.723Z</time>
      </trkpt>
      <trkpt lat="47.83069" lon="7.17912">
        <ele>382.926757812</ele>
        <time>2014-02-09T15:58:08.743Z</time>
      </trkpt>
      <trkpt lat="47.83061" lon="7.17915">
        <ele>382.13180542</ele>
        <time>2014-02-09T15:58:13.742Z</time>
      </trkpt>
      <trkpt lat="47.83059" lon="7.17916">
        <ele>381.998535156</ele>
        <time>2014-02-09T15:58:14.745Z</time>
      </trkpt>
      <trkpt lat="47.83052" lon="7.17919">
        <ele>381.391235352</ele>
        <time>2014-02-09T15:58:20.739Z</time>
      </trkpt>
      <trkpt lat="47.8305" lon="7.1792">
        <ele>381.330474854</ele>
        <time>2014-02-09T15:58:21.745Z</time>
      </trkpt>
      <trkpt lat="47.83042" lon="7.17922">
        <ele>380.798339844</ele>
        <time>2014-02-09T15:58:27.728Z</time>
      </trkpt>
      <trkpt lat="47.8304" lon="7.17922">
        <ele>380.697418213</ele>
        <time>2014-02-09T15:58:28.74Z</time>
      </trkpt>
      <trkpt lat="47.83033" lon="7.17926">
        <ele>379.780273438</ele>
        <time>2014-02-09T15:58:35.739Z</time>
      </trkpt>
      <trkpt lat="47.83031" lon="7.17926">
        <ele>379.663787842</ele>
        <time>2014-02-09T15:58:36.719Z</time>
      </trkpt>
      <trkpt lat="47.83024" lon="7.17928">
        <ele>379.040161133</ele>
        <time>2014-02-09T15:58:43.724Z</time>
      </trkpt>
      <trkpt lat="47.83022" lon="7.17928">
        <ele>379.051605225</ele>
        <time>2014-02-09T15:58:44.739Z</time>
      </trkpt>
      <trkpt lat="47.83015" lon="7.17933">
        <ele>379.176269531</ele>
        <time>2014-02-09T15:58:51.74Z</time>
      </trkpt>
      <trkpt lat="47.83014" lon="7.17935">
        <ele>379.20022583</ele>
        <time>2014-02-09T15:58:52.745Z</time>
      </trkpt>
      <trkpt lat="47.83008" lon="7.17942">
        <ele>379.301727295</ele>
        <time>2014-02-09T15:58:59.738Z</time>
      </trkpt>
      <trkpt lat="47.83007" lon="7.17944">
        <ele>379.336730957</ele>
        <time>2014-02-09T15:59:00.727Z</time>
      </trkpt>
      <trkpt lat="47.83001" lon="7.17951">
        <ele>379.493652344</ele>
        <time>2014-02-09T15:59:05.738Z</time>
      </trkpt>
      <trkpt lat="47.83" lon="7.17953">
        <ele>379.474456787</ele>
        <time>2014-02-09T15:59:06.745Z</time>
      </trkpt>
      <trkpt lat="47.82994" lon="7.17959">
        <ele>379.169464111</ele>
        <time>2014-02-09T15:59:13.738Z</time>
      </trkpt>
      <trkpt lat="47.82992" lon="7.17961">
        <ele>379.109710693</ele>
        <time>2014-02-09T15:59:14.738Z</time>
      </trkpt>
      <trkpt lat="47.82988" lon="7.17971">
        <ele>378.797637939</ele>
        <time>2014-02-09T15:59:20.738Z</time>
      </trkpt>
      <trkpt lat="47.82987" lon="7.17973">
        <ele>378.683898926</ele>
        <time>2014-02-09T15:59:21.738Z</time>
      </trkpt>
      <trkpt lat="47.82982" lon="7.17983">
        <ele>378.100891113</ele>
        <time>2014-02-09T15:59:26.74Z</time>
      </trkpt>
      <trkpt lat="47.82981" lon="7.17985">
        <ele>377.988525391</ele>
        <time>2014-02-09T15:59:27.738Z</time>
      </trkpt>
      <trkpt lat="47.82974" lon="7.17993">
        <ele>377.501098633</ele>
        <time>2014-02-09T15:59:33.736Z</time>
      </trkpt>
      <trkpt lat="47.82974" lon="7.17994">
        <ele>377.454467773</ele>
        <time>2014-02-09T15:59:34.735Z</time>
      </trkpt>
      <trkpt lat="47.82966" lon="7.18001">
        <ele>377.369262695</ele>
        <time>2014-02-09T15:59:43.736Z</time>
      </trkpt>
      <trkpt lat="47.82966" lon="7.18002">
        <ele>377.420928955</ele>
        <time>2014-02-09T15:59:44.735Z</time>
      </trkpt>
      <trkpt lat="47.82959" lon="7.1801">
        <ele>377.933441162</ele>
        <time>2014-02-09T15:59:50.736Z</time>
      </trkpt>
      <trkpt lat="47.82958" lon="7.18011">
        <ele>377.981292725</ele>
        <time>2014-02-09T15:59:51.735Z</time>
      </trkpt>
      <trkpt lat="47.82952" lon="7.1802">
        <ele>378.288970947</ele>
        <time>2014-02-09T15:59:58.715Z</time>
      </trkpt>
      <trkpt lat="47.82951" lon="7.1802">
        <ele>378.274688721</ele>
        <time>2014-02-09T15:59:59.736Z</time>
      </trkpt>
      <trkpt lat="47.82944" lon="7.18024">
        <ele>378.114196777</ele>
        <time>2014-02-09T16:00:05.736Z</time>
      </trkpt>
      <trkpt lat="47.82942" lon="7.18025">
        <ele>378.080200195</ele>
        <time>2014-02-09T16:00:06.741Z</time>
      </trkpt>
      <trkpt lat="47.82935" lon="7.18031">
        <ele>377.863342285</ele>
        <time>2014-02-09T16:00:13.736Z</time>
      </trkpt>
      <trkpt lat="47.82934" lon="7.18031">
        <ele>377.855133057</ele>
        <time>2014-02-09T16:00:14.737Z</time>
      </trkpt>
      <trkpt lat="47.82925" lon="7.18036">
        <ele>377.65145874</ele>
        <time>2014-02-09T16:00:20.735Z</time>
      </trkpt>
      <trkpt lat="47.82924" lon="7.18037">
        <ele>377.566070557</ele>
        <time>2014-02-09T16:00:21.732Z</time>
      </trkpt>
      <trkpt lat="47.82917" lon="7.1804">
        <ele>377.084716797</ele>
        <time>2014-02-09T16:00:27.721Z</time>
      </trkpt>
      <trkpt lat="47.82915" lon="7.18041">
        <ele>377.009155273</ele>
        <time>2014-02-09T16:00:28.732Z</time>
      </trkpt>
      <trkpt lat="47.82908" lon="7.18045">
        <ele>376.47543335</ele>
        <time>2014-02-09T16:00:34.737Z</time>
      </trkpt>
      <trkpt lat="47.82907" lon="7.18046">
        <ele>376.384490967</ele>
        <time>2014-02-09T16:00:35.736Z</time>
      </trkpt>
      <trkpt lat="47.82899" lon="7.1805">
        <ele>375.96762085</ele>
        <time>2014-02-09T16:00:43.738Z</time>
      </trkpt>
      <trkpt lat="47.82898" lon="7.18051">
        <ele>375.946380615</ele>
        <time>2014-02-09T16:00:44.737Z</time>
      </trkpt>
      <trkpt lat="47.82891" lon="7.18059">
        <ele>375.474029541</ele>
        <time>2014-02-09T16:00:54.742Z</time>
      </trkpt>
      <trkpt lat="47.8289" lon="7.1806">
        <ele>375.436248779</ele>
        <time>2014-02-09T16:00:55.741Z</time>
      </trkpt>
      <trkpt lat="47.82883" lon="7.18068">
        <ele>375.386993408</ele>
        <time>2014-02-09T16:01:03.74Z</time>
      </trkpt>
      <trkpt lat="47.82882" lon="7.18068">
        <ele>375.369354248</ele>
        <time>2014-02-09T16:01:04.74Z</time>
      </trkpt>
      <trkpt lat="47.82875" lon="7.18072">
        <ele>375.239868164</ele>
        <time>2014-02-09T16:01:11.738Z</time>
      </trkpt>
      <trkpt lat="47.82874" lon="7.18073">
        <ele>375.204711914</ele>
        <time>2014-02-09T16:01:12.733Z</time>
      </trkpt>
      <trkpt lat="47.82865" lon="7.18077">
        <ele>375.010345459</ele>
        <time>2014-02-09T16:01:19.732Z</time>
      </trkpt>
      <trkpt lat="47.82864" lon="7.18077">
        <ele>374.972869873</ele>
        <time>2014-02-09T16:01:20.743Z</time>
      </trkpt>
      <trkpt lat="47.82856" lon="7.1808">
        <ele>374.776306152</ele>
        <time>2014-02-09T16:01:26.739Z</time>
      </trkpt>
      <trkpt lat="47.82855" lon="7.18081">
        <ele>374.752685547</ele>
        <time>2014-02-09T16:01:27.737Z</time>
      </trkpt>
      <trkpt lat="47.82846" lon="7.18083">
        <ele>374.870117188</ele>
        <time>2014-02-09T16:01:35.734Z</time>
      </trkpt>
      <trkpt lat="47.82845" lon="7.18084">
        <ele>374.90435791</ele>
        <time>2014-02-09T16:01:36.741Z</time>
      </trkpt>
      <trkpt lat="47.82837" lon="7.18089">
        <ele>375.394470215</ele>
        <time>2014-02-09T16:01:43.733Z</time>
      </trkpt>
      <trkpt lat="47.82836" lon="7.18089">
        <ele>375.484069824</ele>
        <time>2014-02-09T16:01:44.731Z</time>
      </trkpt>
      <trkpt lat="47.82828" lon="7.18092">
        <ele>375.716156006</ele>
        <time>2014-02-09T16:01:51.731Z</time>
      </trkpt>
      <trkpt lat="47.82827" lon="7.18093">
        <ele>375.768310547</ele>
        <time>2014-02-09T16:01:52.718Z</time>
      </trkpt>
      <trkpt lat="47.82819" lon="7.18099">
        <ele>376.112060547</ele>
        <time>2014-02-09T16:02:00.732Z</time>
      </trkpt>
      <trkpt lat="47.82818" lon="7.18099">
        <ele>376.135955811</ele>
        <time>2014-02-09T16:02:01.732Z</time>
      </trkpt>
      <trkpt lat="47.8281" lon="7.18104">
        <ele>376.117218018</ele>
        <time>2014-02-09T16:02:09.724Z</time>
      </trkpt>
      <trkpt lat="47.82808" lon="7.18105">
        <ele>376.073394775</ele>
        <time>2014-02-09T16:02:10.735Z</time>
      </trkpt>
      <trkpt lat="47.82801" lon="7.18109">
        <ele>375.938079834</ele>
        <time>2014-02-09T16:02:16.729Z</time>
      </trkpt>
      <trkpt lat="47.828" lon="7.18109">
        <ele>375.97277832</ele>
        <time>2014-02-09T16:02:17.732Z</time>
      </trkpt>
      <trkpt lat="47.82792" lon="7.18114">
        <ele>376.140197754</ele>
        <time>2014-02-09T16:02:24.731Z</time>
      </trkpt>
      <trkpt lat="47.82791" lon="7.18114">
        <ele>376.167419434</ele>
        <time>2014-02-09T16:02:25.734Z</time>
      </trkpt>
      <trkpt lat="47.82783" lon="7.18118">
        <ele>376.299194336</ele>
        <time>2014-02-09T16:02:31.741Z</time>
      </trkpt>
      <trkpt lat="47.82781" lon="7.18119">
        <ele>376.30355835</ele>
        <time>2014-02-09T16:02:32.736Z</time>
      </trkpt>
      <trkpt lat="47.82773" lon="7.18123">
        <ele>376.47164917</ele>
        <time>2014-02-09T16:02:39.735Z</time>
      </trkpt>
      <trkpt lat="47.82772" lon="7.18123">
        <ele>376.498535156</ele>
        <time>2014-02-09T16:02:40.737Z</time>
      </trkpt>
      <trkpt lat="47.82778" lon="7.18113">
        <ele>376.801300049</ele>
        <time>2014-02-09T16:03:55.732Z</time>
      </trkpt>
      <trkpt lat="47.82777" lon="7.18113">
        <ele>376.842712402</ele>
        <time>2014-02-09T16:03:56.732Z</time>
      </trkpt>
      <trkpt lat="47.82772" lon="7.18102">
        <ele>377.039703369</ele>
        <time>2014-02-09T16:04:07.716Z</time>
      </trkpt>
      <trkpt lat="47.82771" lon="7.18102">
        <ele>376.981048584</ele>
        <time>2014-02-09T16:04:08.716Z</time>
      </trkpt>
      <trkpt lat="47.82766" lon="7.18093">
        <ele>376.785614014</ele>
        <time>2014-02-09T16:04:15.724Z</time>
      </trkpt>
      <trkpt lat="47.82764" lon="7.18092">
        <ele>376.75592041</ele>
        <time>2014-02-09T16:04:16.731Z</time>
      </trkpt>
      <trkpt lat="47.82757" lon="7.18086">
        <ele>376.660125732</ele>
        <time>2014-02-09T16:04:24.724Z</time>
      </trkpt>
      <trkpt lat="47.82756" lon="7.18085">
        <ele>376.682037354</ele>
        <time>2014-02-09T16:04:25.733Z</time>
      </trkpt>
      <trkpt lat="47.82747" lon="7.18084">
        <ele>377.19631958</ele>
        <time>2014-02-09T16:04:36.738Z</time>
      </trkpt>
      <trkpt lat="47.82747" lon="7.18083">
        <ele>377.253082275</ele>
        <time>2014-02-09T16:04:37.731Z</time>
      </trkpt>
      <trkpt lat="47.82739" lon="7.18079">
        <ele>377.56942749</ele>
        <time>2014-02-09T16:04:44.728Z</time>
      </trkpt>
      <trkpt lat="47.82737" lon="7.18079">
        <ele>377.631439209</ele>
        <time>2014-02-09T16:04:45.731Z</time>
      </trkpt>
      <trkpt lat="47.82729" lon="7.18075">
        <ele>378.561553955</ele>
        <time>2014-02-09T16:04:54.725Z</time>
      </trkpt>
      <trkpt lat="47.82728" lon="7.18075">
        <ele>378.672515869</ele>
        <time>2014-02-09T16:04:55.727Z</time>
      </trkpt>
      <trkpt lat="47.82719" lon="7.18073">
        <ele>379.280090332</ele>
        <time>2014-02-09T16:05:03.724Z</time>
      </trkpt>
      <trkpt lat="47.82717" lon="7.18073">
        <ele>379.36907959</ele>
        <time>2014-02-09T16:05:04.726Z</time>
      </trkpt>
      <trkpt lat="47.82709" lon="7.1807">
        <ele>379.801635742</ele>
        <time>2014-02-09T16:05:11.719Z</time>
      </trkpt>
      <trkpt lat="47.82708" lon="7.1807">
        <ele>379.862335205</ele>
        <time>2014-02-09T16:05:12.726Z</time>
      </trkpt>
      <trkpt lat="47.827" lon="7.18066">
        <ele>380.043548584</ele>
        <time>2014-02-09T16:05:19.726Z</time>
      </trkpt>
      <trkpt lat="47.82698" lon="7.18066">
        <ele>380.056091309</ele>
        <time>2014-02-09T16:05:20.708Z</time>
      </trkpt>
      <trkpt lat="47.82691" lon="7.1806">
        <ele>380.108825684</ele>
        <time>2014-02-09T16:05:27.754Z</time>
      </trkpt>
      <trkpt lat="47.8269" lon="7.1806">
        <ele>380.09866333</ele>
        <time>2014-02-09T16:05:28.72Z</time>
      </trkpt>
      <trkpt lat="47.82682" lon="7.18054">
        <ele>380.181915283</ele>
        <time>2014-02-09T16:05:36.732Z</time>
      </trkpt>
      <trkpt lat="47.82681" lon="7.18053">
        <ele>380.191101074</ele>
        <time>2014-02-09T16:05:37.726Z</time>
      </trkpt>
      <trkpt lat="47.82673" lon="7.18049">
        <ele>380.223937988</ele>
        <time>2014-02-09T16:05:43.728Z</time>
      </trkpt>
      <trkpt lat="47.82672" lon="7.18049">
        <ele>380.255554199</ele>
        <time>2014-02-09T16:05:44.725Z</time>
      </trkpt>
      <trkpt lat="47.82665" lon="7.18045">
        <ele>380.259460449</ele>
        <time>2014-02-09T16:05:50.726Z</time>
      </trkpt>
      <trkpt lat="47.82663" lon="7.18044">
        <ele>380.241851807</ele>
        <time>2014-02-09T16:05:51.723Z</time>
      </trkpt>
      <trkpt lat="47.82656" lon="7.18038">
        <ele>380.405914307</ele>
        <time>2014-02-09T16:05:58.725Z</time>
      </trkpt>
      <trkpt lat="47.82655" lon="7.18038">
        <ele>380.426269531</ele>
        <time>2014-02-09T16:05:59.714Z</time>
      </trkpt>
      <trkpt lat="47.82648" lon="7.18031">
        <ele>380.249023438</ele>
        <time>2014-02-09T16:06:07.717Z</time>
      </trkpt>
      <trkpt lat="47.82647" lon="7.1803">
        <ele>380.194458008</ele>
        <time>2014-02-09T16:06:08.718Z</time>
      </trkpt>
      <trkpt lat="47.82639" lon="7.18023">
        <ele>379.699615479</ele>
        <time>2014-02-09T16:06:16.722Z</time>
      </trkpt>
      <trkpt lat="47.82639" lon="7.18022">
        <ele>379.690429688</ele>
        <time>2014-02-09T16:06:17.719Z</time>
      </trkpt>
      <trkpt lat="47.82631" lon="7.18017">
        <ele>379.485717773</ele>
        <time>2014-02-09T16:06:23.71Z</time>
      </trkpt>
      <trkpt lat="47.8263" lon="7.18016">
        <ele>379.398590088</ele>
        <time>2014-02-09T16:06:24.707Z</time>
      </trkpt>
      <trkpt lat="47.82623" lon="7.18007">
        <ele>378.762817383</ele>
        <time>2014-02-09T16:06:31.708Z</time>
      </trkpt>
      <trkpt lat="47.82622" lon="7.18006">
        <ele>378.646636963</ele>
        <time>2014-02-09T16:06:32.708Z</time>
      </trkpt>
      <trkpt lat="47.82616" lon="7.17998">
        <ele>377.936218262</ele>
        <time>2014-02-09T16:06:39.712Z</time>
      </trkpt>
      <trkpt lat="47.82615" lon="7.17996">
        <ele>377.913299561</ele>
        <time>2014-02-09T16:06:40.704Z</time>
      </trkpt>
      <trkpt lat="47.8261" lon="7.17986">
        <ele>377.416473389</ele>
        <time>2014-02-09T16:06:48.701Z</time>
      </trkpt>
      <trkpt lat="47.8261" lon="7.17984">
        <ele>377.306854248</ele>
        <time>2014-02-09T16:06:49.703Z</time>
      </trkpt>
      <trkpt lat="47.82603" lon="7.17976">
        <ele>376.629608154</ele>
        <time>2014-02-09T16:06:59.728Z</time>
      </trkpt>
      <trkpt lat="47.82602" lon="7.17976">
        <ele>376.627716064</ele>
        <time>2014-02-09T16:07:00.706Z</time>
      </trkpt>
      <trkpt lat="47.82595" lon="7.17969">
        <ele>376.007659912</ele>
        <time>2014-02-09T16:07:08.71Z</time>
      </trkpt>
      <trkpt lat="47.82594" lon="7.17968">
        <ele>375.905700684</ele>
        <time>2014-02-09T16:07:09.71Z</time>
      </trkpt>
      <trkpt lat="47.82586" lon="7.17961">
        <ele>376.361358643</ele>
        <time>2014-02-09T16:07:20.717Z</time>
      </trkpt>
      <trkpt lat="47.82586" lon="7.1796">
        <ele>376.428710938</ele>
        <time>2014-02-09T16:07:21.73Z</time>
      </trkpt>
      <trkpt lat="47.82578" lon="7.17956">
        <ele>376.595611572</ele>
        <time>2014-02-09T16:07:28.751Z</time>
      </trkpt>
      <trkpt lat="47.82577" lon="7.17956">
        <ele>376.615539551</ele>
        <time>2014-02-09T16:07:29.732Z</time>
      </trkpt>
      <trkpt lat="47.82569" lon="7.17953">
        <ele>376.934875488</ele>
        <time>2014-02-09T16:07:36.734Z</time>
      </trkpt>
      <trkpt lat="47.82567" lon="7.17952">
        <ele>376.9793396</ele>
        <time>2014-02-09T16:07:37.731Z</time>
      </trkpt>
      <trkpt lat="47.82559" lon="7.17948">
        <ele>377.111755371</ele>
        <time>2014-02-09T16:07:44.722Z</time>
      </trkpt>
      <trkpt lat="47.82558" lon="7.17948">
        <ele>377.118682861</ele>
        <time>2014-02-09T16:07:45.718Z</time>
      </trkpt>
      <trkpt lat="47.8255" lon="7.17948">
        <ele>377.03112793</ele>
        <time>2014-02-09T16:07:51.721Z</time>
      </trkpt>
      <trkpt lat="47.82548" lon="7.17949">
        <ele>376.990905762</ele>
        <time>2014-02-09T16:07:52.717Z</time>
      </trkpt>
      <trkpt lat="47.82541" lon="7.17956">
        <ele>377.020477295</ele>
        <time>2014-02-09T16:07:59.72Z</time>
      </trkpt>
      <trkpt lat="47.82541" lon="7.17958">
        <ele>377.025299072</ele>
        <time>2014-02-09T16:08:00.717Z</time>
      </trkpt>
      <trkpt lat="47.82536" lon="7.17968">
        <ele>377.246734619</ele>
        <time>2014-02-09T16:08:06.735Z</time>
      </trkpt>
      <trkpt lat="47.82536" lon="7.1797">
        <ele>377.217102051</ele>
        <time>2014-02-09T16:08:07.73Z</time>
      </trkpt>
      <trkpt lat="47.8253" lon="7.17979">
        <ele>376.725830078</ele>
        <time>2014-02-09T16:08:14.727Z</time>
      </trkpt>
      <trkpt lat="47.8253" lon="7.1798">
        <ele>376.606872559</ele>
        <time>2014-02-09T16:08:15.725Z</time>
      </trkpt>
      <trkpt lat="47.82521" lon="7.17983">
        <ele>376.017181396</ele>
        <time>2014-02-09T16:08:23.729Z</time>
      </trkpt>
      <trkpt lat="47.82521" lon="7.17983">
        <ele>375.990539551</ele>
        <time>2014-02-09T16:08:24.73Z</time>
      </trkpt>
      <trkpt lat="47.82513" lon="7.17981">
        <ele>376.025543213</ele>
        <time>2014-02-09T16:08:31.727Z</time>
      </trkpt>
      <trkpt lat="47.82511" lon="7.1798">
        <ele>375.982543945</ele>
        <time>2014-02-09T16:08:32.729Z</time>
      </trkpt>
      <trkpt lat="47.82504" lon="7.17976">
        <ele>376.246337891</ele>
        <time>2014-02-09T16:08:38.71Z</time>
      </trkpt>
      <trkpt lat="47.82503" lon="7.17976">
        <ele>376.292602539</ele>
        <time>2014-02-09T16:08:39.707Z</time>
      </trkpt>
      <trkpt lat="47.82495" lon="7.17975">
        <ele>376.62310791</ele>
        <time>2014-02-09T16:08:45.721Z</time>
      </trkpt>
      <trkpt lat="47.82494" lon="7.17975">
        <ele>376.672546387</ele>
        <time>2014-02-09T16:08:46.724Z</time>
      </trkpt>
      <trkpt lat="47.82486" lon="7.17971">
        <ele>376.625549316</ele>
        <time>2014-02-09T16:08:52.72Z</time>
      </trkpt>
      <trkpt lat="47.82485" lon="7.1797">
        <ele>376.548217773</ele>
        <time>2014-02-09T16:08:53.709Z</time>
      </trkpt>
      <trkpt lat="47.82477" lon="7.17967">
        <ele>376.289916992</ele>
        <time>2014-02-09T16:08:59.714Z</time>
      </trkpt>
      <trkpt lat="47.82476" lon="7.17967">
        <ele>376.242797852</ele>
        <time>2014-02-09T16:09:00.713Z</time>
      </trkpt>
      <trkpt lat="47.82468" lon="7.17964">
        <ele>376.061706543</ele>
        <time>2014-02-09T16:09:07.718Z</time>
      </trkpt>
      <trkpt lat="47.82466" lon="7.17964">
        <ele>376.009887695</ele>
        <time>2014-02-09T16:09:08.717Z</time>
      </trkpt>
      <trkpt lat="47.82458" lon="7.17961">
        <ele>375.79800415</ele>
        <time>2014-02-09T16:09:17.719Z</time>
      </trkpt>
      <trkpt lat="47.82456" lon="7.1796">
        <ele>375.766235352</ele>
        <time>2014-02-09T16:09:18.717Z</time>
      </trkpt>
      <trkpt lat="47.82448" lon="7.17957">
        <ele>375.678253174</ele>
        <time>2014-02-09T16:09:24.721Z</time>
      </trkpt>
      <trkpt lat="47.82447" lon="7.17957">
        <ele>375.615112305</ele>
        <time>2014-02-09T16:09:25.706Z</time>
      </trkpt>
      <trkpt lat="47.82439" lon="7.17957">
        <ele>375.468200684</ele>
        <time>2014-02-09T16:09:33.718Z</time>
      </trkpt>
      <trkpt lat="47.82438" lon="7.17956">
        <ele>375.498260498</ele>
        <time>2014-02-09T16:09:34.718Z</time>
      </trkpt>
      <trkpt lat="47.82429" lon="7.17953">
        <ele>375.549346924</ele>
        <time>2014-02-09T16:09:41.72Z</time>
      </trkpt>
      <trkpt lat="47.82428" lon="7.17952">
        <ele>375.519256592</ele>
        <time>2014-02-09T16:09:42.718Z</time>
      </trkpt>
      <trkpt lat="47.8242" lon="7.17949">
        <ele>375.347473145</ele>
        <time>2014-02-09T16:09:48.712Z</time>
      </trkpt>
      <trkpt lat="47.82419" lon="7.17949">
        <ele>375.31729126</ele>
        <time>2014-02-09T16:09:49.716Z</time>
      </trkpt>
      <trkpt lat="47.82411" lon="7.17946">
        <ele>375.085906982</ele>
        <time>2014-02-09T16:09:55.728Z</time>
      </trkpt>
      <trkpt lat="47.8241" lon="7.17945">
        <ele>375.024536133</ele>
        <time>2014-02-09T16:09:56.73Z</time>
      </trkpt>
      <trkpt lat="47.82401" lon="7.17946">
        <ele>374.229034424</ele>
        <time>2014-02-09T16:10:03.708Z</time>
      </trkpt>
      <trkpt lat="47.824" lon="7.17947">
        <ele>374.081848145</ele>
        <time>2014-02-09T16:10:04.726Z</time>
      </trkpt>
      <trkpt lat="47.82392" lon="7.17951">
        <ele>373.143127441</ele>
        <time>2014-02-09T16:10:11.726Z</time>
      </trkpt>
      <trkpt lat="47.8239" lon="7.17951">
        <ele>373.025268555</ele>
        <time>2014-02-09T16:10:12.726Z</time>
      </trkpt>
      <trkpt lat="47.82383" lon="7.17948">
        <ele>372.396911621</ele>
        <time>2014-02-09T16:10:19.726Z</time>
      </trkpt>
      <trkpt lat="47.82381" lon="7.17948">
        <ele>372.333953857</ele>
        <time>2014-02-09T16:10:20.731Z</time>
      </trkpt>
      <trkpt lat="47.82373" lon="7.17946">
        <ele>371.828308105</ele>
        <time>2014-02-09T16:10:27.731Z</time>
      </trkpt>
      <trkpt lat="47.82371" lon="7.17945">
        <ele>371.728912354</ele>
        <time>2014-02-09T16:10:28.725Z</time>
      </trkpt>
      <trkpt lat="47.82362" lon="7.17942">
        <ele>371.042480469</ele>
        <time>2014-02-09T16:10:34.724Z</time>
      </trkpt>
      <trkpt lat="47.82361" lon="7.17941">
        <ele>370.93560791</ele>
        <time>2014-02-09T16:10:35.725Z</time>
      </trkpt>
      <trkpt lat="47.82354" lon="7.17935">
        <ele>370.262023926</ele>
        <time>2014-02-09T16:10:42.729Z</time>
      </trkpt>
      <trkpt lat="47.82352" lon="7.17935">
        <ele>370.156555176</ele>
        <time>2014-02-09T16:10:43.725Z</time>
      </trkpt>
      <trkpt lat="47.82345" lon="7.17931">
        <ele>369.463287354</ele>
        <time>2014-02-09T16:10:50.725Z</time>
      </trkpt>
      <trkpt lat="47.82343" lon="7.17931">
        <ele>369.346893311</ele>
        <time>2014-02-09T16:10:51.733Z</time>
      </trkpt>
      <trkpt lat="47.82335" lon="7.17928">
        <ele>368.698822021</ele>
        <time>2014-02-09T16:10:58.729Z</time>
      </trkpt>
      <trkpt lat="47.82334" lon="7.17927">
        <ele>368.633087158</ele>
        <time>2014-02-09T16:10:59.73Z</time>
      </trkpt>
      <trkpt lat="47.82326" lon="7.17922">
        <ele>368.097259521</ele>
        <time>2014-02-09T16:11:06.729Z</time>
      </trkpt>
      <trkpt lat="47.82324" lon="7.17921">
        <ele>367.98223877</ele>
        <time>2014-02-09T16:11:07.711Z</time>
      </trkpt>
      <trkpt lat="47.82317" lon="7.17915">
        <ele>367.552368164</ele>
        <time>2014-02-09T16:11:12.719Z</time>
      </trkpt>
      <trkpt lat="47.82315" lon="7.17913">
        <ele>367.480407715</ele>
        <time>2014-02-09T16:11:13.718Z</time>
      </trkpt>
      <trkpt lat="47.82307" lon="7.17909">
        <ele>366.615447998</ele>
        <time>2014-02-09T16:11:20.717Z</time>
      </trkpt>
      <trkpt lat="47.82306" lon="7.17909">
        <ele>366.483734131</ele>
        <time>2014-02-09T16:11:21.715Z</time>
      </trkpt>
      <trkpt lat="47.82299" lon="7.17902">
        <ele>365.846832275</ele>
        <time>2014-02-09T16:11:27.711Z</time>
      </trkpt>
      <trkpt lat="47.82298" lon="7.17902">
        <ele>365.771697998</ele>
        <time>2014-02-09T16:11:28.713Z</time>
      </trkpt>
      <trkpt lat="47.8229" lon="7.17894">
        <ele>365.144073486</ele>
        <time>2014-02-09T16:11:36.715Z</time>
      </trkpt>
      <trkpt lat="47.8229" lon="7.17892">
        <ele>365.039703369</ele>
        <time>2014-02-09T16:11:37.716Z</time>
      </trkpt>
      <trkpt lat="47.82289" lon="7.1788">
        <ele>364.025604248</ele>
        <time>2014-02-09T16:11:45.711Z</time>
      </trkpt>
      <trkpt lat="47.82288" lon="7.17879">
        <ele>363.901519775</ele>
        <time>2014-02-09T16:11:46.714Z</time>
      </trkpt>
      <trkpt lat="47.82285" lon="7.17869">
        <ele>362.381713867</ele>
        <time>2014-02-09T16:11:56.722Z</time>
      </trkpt>
      <trkpt lat="47.82284" lon="7.17867">
        <ele>362.132080078</ele>
        <time>2014-02-09T16:11:57.71Z</time>
      </trkpt>
      <trkpt lat="47.82278" lon="7.17858">
        <ele>361.053955078</ele>
        <time>2014-02-09T16:12:04.712Z</time>
      </trkpt>
      <trkpt lat="47.82277" lon="7.17857">
        <ele>361.055480957</ele>
        <time>2014-02-09T16:12:05.712Z</time>
      </trkpt>
      <trkpt lat="47.8227" lon="7.17849">
        <ele>361.583709717</ele>
        <time>2014-02-09T16:12:13.716Z</time>
      </trkpt>
      <trkpt lat="47.82269" lon="7.17848">
        <ele>361.715118408</ele>
        <time>2014-02-09T16:12:14.711Z</time>
      </trkpt>
      <trkpt lat="47.82261" lon="7.17842">
        <ele>362.370513916</ele>
        <time>2014-02-09T16:12:21.713Z</time>
      </trkpt>
      <trkpt lat="47.8226" lon="7.17841">
        <ele>362.459503174</ele>
        <time>2014-02-09T16:12:22.715Z</time>
      </trkpt>
      <trkpt lat="47.82253" lon="7.17835">
        <ele>362.855438232</ele>
        <time>2014-02-09T16:12:29.713Z</time>
      </trkpt>
      <trkpt lat="47.82252" lon="7.17834">
        <ele>362.874786377</ele>
        <time>2014-02-09T16:12:30.698Z</time>
      </trkpt>
      <trkpt lat="47.82245" lon="7.17827">
        <ele>362.836761475</ele>
        <time>2014-02-09T16:12:38.713Z</time>
      </trkpt>
      <trkpt lat="47.82244" lon="7.17826">
        <ele>362.720367432</ele>
        <time>2014-02-09T16:12:39.713Z</time>
      </trkpt>
      <trkpt lat="47.82238" lon="7.17821">
        <ele>361.97644043</ele>
        <time>2014-02-09T16:12:45.72Z</time>
      </trkpt>
      <trkpt lat="47.82236" lon="7.1782">
        <ele>361.901184082</ele>
        <time>2014-02-09T16:12:46.722Z</time>
      </trkpt>
      <trkpt lat="47.8223" lon="7.17814">
        <ele>361.794281006</ele>
        <time>2014-02-09T16:12:52.713Z</time>
      </trkpt>
      <trkpt lat="47.82228" lon="7.17813">
        <ele>361.838897705</ele>
        <time>2014-02-09T16:12:53.709Z</time>
      </trkpt>
      <trkpt lat="47.82221" lon="7.17806">
        <ele>362.220977783</ele>
        <time>2014-02-09T16:13:02.71Z</time>
      </trkpt>
      <trkpt lat="47.82221" lon="7.17805">
        <ele>362.272674561</ele>
        <time>2014-02-09T16:13:03.708Z</time>
      </trkpt>
      <trkpt lat="47.82213" lon="7.178">
        <ele>362.264007568</ele>
        <time>2014-02-09T16:13:12.71Z</time>
      </trkpt>
      <trkpt lat="47.82213" lon="7.17799">
        <ele>362.237518311</ele>
        <time>2014-02-09T16:13:13.709Z</time>
      </trkpt>
      <trkpt lat="47.82205" lon="7.17792">
        <ele>361.845214844</ele>
        <time>2014-02-09T16:13:22.708Z</time>
      </trkpt>
      <trkpt lat="47.82204" lon="7.17792">
        <ele>361.783996582</ele>
        <time>2014-02-09T16:13:23.712Z</time>
      </trkpt>
      <trkpt lat="47.82196" lon="7.17787">
        <ele>361.460083008</ele>
        <time>2014-02-09T16:13:29.718Z</time>
      </trkpt>
      <trkpt lat="47.82195" lon="7.17786">
        <ele>361.415435791</ele>
        <time>2014-02-09T16:13:30.72Z</time>
      </trkpt>
      <trkpt lat="47.82188" lon="7.1778">
        <ele>361.811187744</ele>
        <time>2014-02-09T16:13:37.705Z</time>
      </trkpt>
      <trkpt lat="47.82187" lon="7.17779">
        <ele>361.896636963</ele>
        <time>2014-02-09T16:13:38.71Z</time>
      </trkpt>
      <trkpt lat="47.8218" lon="7.17772">
        <ele>362.256378174</ele>
        <time>2014-02-09T16:13:45.71Z</time>
      </trkpt>
      <trkpt lat="47.82179" lon="7.1777">
        <ele>362.239959717</ele>
        <time>2014-02-09T16:13:46.712Z</time>
      </trkpt>
      <trkpt lat="47.82172" lon="7.17763">
        <ele>361.930633545</ele>
        <time>2014-02-09T16:13:52.7Z</time>
      </trkpt>
      <trkpt lat="47.82171" lon="7.17762">
        <ele>361.877532959</ele>
        <time>2014-02-09T16:13:53.72Z</time>
      </trkpt>
      <trkpt lat="47.82164" lon="7.17754">
        <ele>361.577270508</ele>
        <time>2014-02-09T16:13:58.71Z</time>
      </trkpt>
      <trkpt lat="47.82163" lon="7.17753">
        <ele>361.494354248</ele>
        <time>2014-02-09T16:13:59.713Z</time>
      </trkpt>
      <trkpt lat="47.82156" lon="7.17747">
        <ele>361.688964844</ele>
        <time>2014-02-09T16:14:07.712Z</time>
      </trkpt>
      <trkpt lat="47.82155" lon="7.17746">
        <ele>361.851013184</ele>
        <time>2014-02-09T16:14:08.71Z</time>
      </trkpt>
      <trkpt lat="47.82147" lon="7.17739">
        <ele>363.386993408</ele>
        <time>2014-02-09T16:14:16.707Z</time>
      </trkpt>
      <trkpt lat="47.82147" lon="7.17739">
        <ele>363.507507324</ele>
        <time>2014-02-09T16:14:17.72Z</time>
      </trkpt>
      <trkpt lat="47.82139" lon="7.17735">
        <ele>363.845825195</ele>
        <time>2014-02-09T16:14:25.703Z</time>
      </trkpt>
      <trkpt lat="47.82138" lon="7.17734">
        <ele>363.935241699</ele>
        <time>2014-02-09T16:14:26.723Z</time>
      </trkpt>
      <trkpt lat="47.8213" lon="7.17729">
        <ele>364.294036865</ele>
        <time>2014-02-09T16:14:32.707Z</time>
      </trkpt>
      <trkpt lat="47.82129" lon="7.17729">
        <ele>364.375396729</ele>
        <time>2014-02-09T16:14:33.708Z</time>
      </trkpt>
      <trkpt lat="47.8212" lon="7.17725">
        <ele>365.213653564</ele>
        <time>2014-02-09T16:14:39.711Z</time>
      </trkpt>
      <trkpt lat="47.82119" lon="7.17724">
        <ele>365.40057373</ele>
        <time>2014-02-09T16:14:40.711Z</time>
      </trkpt>
      <trkpt lat="47.82111" lon="7.17721">
        <ele>366.1640625</ele>
        <time>2014-02-09T16:14:47.709Z</time>
      </trkpt>
      <trkpt lat="47.82109" lon="7.1772">
        <ele>366.27355957</ele>
        <time>2014-02-09T16:14:48.707Z</time>
      </trkpt>
      <trkpt lat="47.82101" lon="7.17714">
        <ele>366.926757812</ele>
        <time>2014-02-09T16:14:56.713Z</time>
      </trkpt>
      <trkpt lat="47.821" lon="7.17713">
        <ele>366.952941895</ele>
        <time>2014-02-09T16:14:57.706Z</time>
      </trkpt>
      <trkpt lat="47.82094" lon="7.17708">
        <ele>366.786071777</ele>
        <time>2014-02-09T16:15:02.695Z</time>
      </trkpt>
      <trkpt lat="47.82092" lon="7.17707">
        <ele>366.679046631</ele>
        <time>2014-02-09T16:15:03.708Z</time>
      </trkpt>
      <trkpt lat="47.82085" lon="7.17699">
        <ele>365.544189453</ele>
        <time>2014-02-09T16:15:38.704Z</time>
      </trkpt>
      <trkpt lat="47.82085" lon="7.17698">
        <ele>365.546142578</ele>
        <time>2014-02-09T16:15:39.704Z</time>
      </trkpt>
      <trkpt lat="47.82076" lon="7.17697">
        <ele>365.208984375</ele>
        <time>2014-02-09T16:17:45.699Z</time>
      </trkpt>
      <trkpt lat="47.82075" lon="7.17696">
        <ele>365.145202637</ele>
        <time>2014-02-09T16:17:46.702Z</time>
      </trkpt>
      <trkpt lat="47.82067" lon="7.17691">
        <ele>364.471038818</ele>
        <time>2014-02-09T16:17:53.706Z</time>
      </trkpt>
      <trkpt lat="47.82066" lon="7.17689">
        <ele>364.345367432</ele>
        <time>2014-02-09T16:17:54.719Z</time>
      </trkpt>
      <trkpt lat="47.82058" lon="7.17688">
        <ele>363.702789307</ele>
        <time>2014-02-09T16:18:06.706Z</time>
      </trkpt>
      <trkpt lat="47.82057" lon="7.1769">
        <ele>363.74029541</ele>
        <time>2014-02-09T16:18:07.702Z</time>
      </trkpt>
      <trkpt lat="47.82049" lon="7.17697">
        <ele>363.781860352</ele>
        <time>2014-02-09T16:18:14.699Z</time>
      </trkpt>
      <trkpt lat="47.82048" lon="7.17699">
        <ele>363.777923584</ele>
        <time>2014-02-09T16:18:15.7Z</time>
      </trkpt>
      <trkpt lat="47.82042" lon="7.17707">
        <ele>363.578063965</ele>
        <time>2014-02-09T16:18:22.702Z</time>
      </trkpt>
      <trkpt lat="47.82041" lon="7.17709">
        <ele>363.514709473</ele>
        <time>2014-02-09T16:18:23.698Z</time>
      </trkpt>
      <trkpt lat="47.82034" lon="7.17716">
        <ele>363.174102783</ele>
        <time>2014-02-09T16:18:30.7Z</time>
      </trkpt>
      <trkpt lat="47.82033" lon="7.17717">
        <ele>363.128387451</ele>
        <time>2014-02-09T16:18:31.699Z</time>
      </trkpt>
      <trkpt lat="47.82027" lon="7.17726">
        <ele>362.696289062</ele>
        <time>2014-02-09T16:18:39.697Z</time>
      </trkpt>
      <trkpt lat="47.82026" lon="7.17727">
        <ele>362.619812012</ele>
        <time>2014-02-09T16:18:40.699Z</time>
      </trkpt>
      <trkpt lat="47.82019" lon="7.17735">
        <ele>362.091094971</ele>
        <time>2014-02-09T16:18:47.69Z</time>
      </trkpt>
      <trkpt lat="47.82018" lon="7.17737">
        <ele>362.064086914</ele>
        <time>2014-02-09T16:18:48.702Z</time>
      </trkpt>
      <trkpt lat="47.82012" lon="7.17746">
        <ele>362.087524414</ele>
        <time>2014-02-09T16:18:56.703Z</time>
      </trkpt>
      <trkpt lat="47.82011" lon="7.17747">
        <ele>362.115753174</ele>
        <time>2014-02-09T16:18:57.704Z</time>
      </trkpt>
      <trkpt lat="47.82006" lon="7.17756">
        <ele>362.742156982</ele>
        <time>2014-02-09T16:19:06.7Z</time>
      </trkpt>
      <trkpt lat="47.82005" lon="7.17758">
        <ele>362.76550293</ele>
        <time>2014-02-09T16:19:07.687Z</time>
      </trkpt>
      <trkpt lat="47.82" lon="7.17769">
        <ele>362.956665039</ele>
        <time>2014-02-09T16:19:16.702Z</time>
      </trkpt>
      <trkpt lat="47.82" lon="7.17771">
        <ele>363.085845947</ele>
        <time>2014-02-09T16:19:17.699Z</time>
      </trkpt>
      <trkpt lat="47.81995" lon="7.17782">
        <ele>363.38104248</ele>
        <time>2014-02-09T16:20:06.708Z</time>
      </trkpt>
      <trkpt lat="47.81994" lon="7.17782">
        <ele>363.355865479</ele>
        <time>2014-02-09T16:20:07.699Z</time>
      </trkpt>
      <trkpt lat="47.81988" lon="7.17789">
        <ele>363.559234619</ele>
        <time>2014-02-09T16:21:18.695Z</time>
      </trkpt>
      <trkpt lat="47.81987" lon="7.1779">
        <ele>363.602264404</ele>
        <time>2014-02-09T16:21:19.694Z</time>
      </trkpt>
      <trkpt lat="47.81982" lon="7.178">
        <ele>364.0546875</ele>
        <time>2014-02-09T16:21:29.697Z</time>
      </trkpt>
      <trkpt lat="47.81981" lon="7.17801">
        <ele>364.068878174</ele>
        <time>2014-02-09T16:21:30.694Z</time>
      </trkpt>
      <trkpt lat="47.81976" lon="7.17811">
        <ele>364.397674561</ele>
        <time>2014-02-09T16:21:38.693Z</time>
      </trkpt>
      <trkpt lat="47.81975" lon="7.17813">
        <ele>364.436889648</ele>
        <time>2014-02-09T16:21:39.706Z</time>
      </trkpt>
      <trkpt lat="47.81971" lon="7.17823">
        <ele>364.815887451</ele>
        <time>2014-02-09T16:21:48.679Z</time>
      </trkpt>
      <trkpt lat="47.8197" lon="7.17825">
        <ele>364.848510742</ele>
        <time>2014-02-09T16:21:49.695Z</time>
      </trkpt>
      <trkpt lat="47.81967" lon="7.17835">
        <ele>365.088928223</ele>
        <time>2014-02-09T16:21:54.694Z</time>
      </trkpt>
      <trkpt lat="47.81966" lon="7.17837">
        <ele>365.111083984</ele>
        <time>2014-02-09T16:21:55.679Z</time>
      </trkpt>
      <trkpt lat="47.81962" lon="7.17848">
        <ele>364.158538818</ele>
        <time>2014-02-09T16:22:07.693Z</time>
      </trkpt>
      <trkpt lat="47.81961" lon="7.17849">
        <ele>364.062164307</ele>
        <time>2014-02-09T16:22:08.693Z</time>
      </trkpt>
      <trkpt lat="47.81965" lon="7.1786">
        <ele>361.455230713</ele>
        <time>2014-02-09T16:23:44.693Z</time>
      </trkpt>
      <trkpt lat="47.81966" lon="7.1786">
        <ele>361.263427734</ele>
        <time>2014-02-09T16:23:45.68Z</time>
      </trkpt>
      <trkpt lat="47.81961" lon="7.17849">
        <ele>358.998504639</ele>
        <time>2014-02-09T16:25:43.673Z</time>
      </trkpt>
      <trkpt lat="47.81961" lon="7.17848">
        <ele>358.980712891</ele>
        <time>2014-02-09T16:25:44.687Z</time>
      </trkpt>
      <trkpt lat="47.81953" lon="7.17843">
        <ele>359.528198242</ele>
        <time>2014-02-09T16:27:12.685Z</time>
      </trkpt>
      <trkpt lat="47.81953" lon="7.17843">
        <ele>359.520141602</ele>
        <time>2014-02-09T16:27:13.684Z</time>
      </trkpt>
      <trkpt lat="47.81961" lon="7.17845">
        <ele>359.402587891</ele>
        <time>2014-02-09T16:27:54.678Z</time>
      </trkpt>
      <trkpt lat="47.81962" lon="7.17845">
        <ele>359.42578125</ele>
        <time>2014-02-09T16:27:55.676Z</time>
      </trkpt>
      <trkpt lat="47.81969" lon="7.17837">
        <ele>358.996826172</ele>
        <time>2014-02-09T16:36:02.664Z</time>
      </trkpt>
      <trkpt lat="47.81969" lon="7.17835">
        <ele>358.991638184</ele>
        <time>2014-02-09T16:36:03.649Z</time>
      </trkpt>
      <trkpt lat="47.81974" lon="7.17825">
        <ele>359.067565918</ele>
        <time>2014-02-09T16:36:09.661Z</time>
      </trkpt>
      <trkpt lat="47.81974" lon="7.17823">
        <ele>359.1144104</ele>
        <time>2014-02-09T16:36:10.66Z</time>
      </trkpt>
      <trkpt lat="47.81979" lon="7.17813">
        <ele>358.783843994</ele>
        <time>2014-02-09T16:36:19.662Z</time>
      </trkpt>
      <trkpt lat="47.81979" lon="7.17811">
        <ele>358.795593262</ele>
        <time>2014-02-09T16:36:20.667Z</time>
      </trkpt>
      <trkpt lat="47.81984" lon="7.17801">
        <ele>359.129547119</ele>
        <time>2014-02-09T16:36:26.679Z</time>
      </trkpt>
      <trkpt lat="47.81984" lon="7.178">
        <ele>359.178588867</ele>
        <time>2014-02-09T16:36:27.675Z</time>
      </trkpt>
      <trkpt lat="47.81991" lon="7.17792">
        <ele>358.70199585</ele>
        <time>2014-02-09T16:36:52.655Z</time>
      </trkpt>
      <trkpt lat="47.81992" lon="7.17791">
        <ele>358.718536377</ele>
        <time>2014-02-09T16:36:53.654Z</time>
      </trkpt>
      <trkpt lat="47.8199" lon="7.17778">
        <ele>360.248626709</ele>
        <time>2014-02-09T16:37:05.652Z</time>
      </trkpt>
      <trkpt lat="47.8199" lon="7.17777">
        <ele>360.263305664</ele>
        <time>2014-02-09T16:37:06.657Z</time>
      </trkpt>
      <trkpt lat="47.81982" lon="7.17774">
        <ele>360.307098389</ele>
        <time>2014-02-09T16:37:12.665Z</time>
      </trkpt>
      <trkpt lat="47.81981" lon="7.17775">
        <ele>360.308044434</ele>
        <time>2014-02-09T16:37:13.663Z</time>
      </trkpt>
      <trkpt lat="47.81973" lon="7.17774">
        <ele>359.785064697</ele>
        <time>2014-02-09T16:37:27.688Z</time>
      </trkpt>
      <trkpt lat="47.81972" lon="7.17775">
        <ele>359.750946045</ele>
        <time>2014-02-09T16:37:28.678Z</time>
      </trkpt>
      <trkpt lat="47.8198" lon="7.17779">
        <ele>358.927856445</ele>
        <time>2014-02-09T16:40:02.661Z</time>
      </trkpt>
      <trkpt lat="47.81982" lon="7.17781">
        <ele>358.949279785</ele>
        <time>2014-02-09T16:40:03.659Z</time>
      </trkpt>
      <trkpt lat="47.8198" lon="7.17789">
        <ele>358.963348389</ele>
        <time>2014-02-09T16:40:06.668Z</time>
      </trkpt>
      <trkpt lat="47.81978" lon="7.17794">
        <ele>359.231536865</ele>
        <time>2014-02-09T16:40:07.645Z</time>
      </trkpt>
      <trkpt lat="47.81974" lon="7.178">
        <ele>359.719085693</ele>
        <time>2014-02-09T16:40:08.666Z</time>
      </trkpt>
      <trkpt lat="47.81971" lon="7.17811">
        <ele>360.340576172</ele>
        <time>2014-02-09T16:40:09.662Z</time>
      </trkpt>
      <trkpt lat="47.81967" lon="7.17822">
        <ele>361.199279785</ele>
        <time>2014-02-09T16:40:10.658Z</time>
      </trkpt>
      <trkpt lat="47.81964" lon="7.17833">
        <ele>362.094726562</ele>
        <time>2014-02-09T16:40:11.659Z</time>
      </trkpt>
      <trkpt lat="47.8196" lon="7.17842">
        <ele>362.871643066</ele>
        <time>2014-02-09T16:40:12.664Z</time>
      </trkpt>
      <trkpt lat="47.81957" lon="7.17852">
        <ele>363.662963867</ele>
        <time>2014-02-09T16:40:13.659Z</time>
      </trkpt>
      <trkpt lat="47.81953" lon="7.17863">
        <ele>364.141571045</ele>
        <time>2014-02-09T16:40:14.659Z</time>
      </trkpt>
      <trkpt lat="47.81949" lon="7.17873">
        <ele>364.327087402</ele>
        <time>2014-02-09T16:40:15.651Z</time>
      </trkpt>
      <trkpt lat="47.81945" lon="7.17884">
        <ele>364.846984863</ele>
        <time>2014-02-09T16:40:16.662Z</time>
      </trkpt>
      <trkpt lat="47.8194" lon="7.17895">
        <ele>365.729675293</ele>
        <time>2014-02-09T16:40:17.661Z</time>
      </trkpt>
      <trkpt lat="47.81935" lon="7.17906">
        <ele>367.012176514</ele>
        <time>2014-02-09T16:40:18.66Z</time>
      </trkpt>
      <trkpt lat="47.8193" lon="7.17917">
        <ele>367.843933105</ele>
        <time>2014-02-09T16:40:19.658Z</time>
      </trkpt>
      <trkpt lat="47.81923" lon="7.17928">
        <ele>368.082733154</ele>
        <time>2014-02-09T16:40:20.67Z</time>
      </trkpt>
      <trkpt lat="47.81916" lon="7.17938">
        <ele>367.829986572</ele>
        <time>2014-02-09T16:40:21.667Z</time>
      </trkpt>
      <trkpt lat="47.81908" lon="7.17948">
        <ele>367.200897217</ele>
        <time>2014-02-09T16:40:22.665Z</time>
      </trkpt>
      <trkpt lat="47.81899" lon="7.17957">
        <ele>366.285980225</ele>
        <time>2014-02-09T16:40:23.657Z</time>
      </trkpt>
      <trkpt lat="47.81891" lon="7.17966">
        <ele>365.350250244</ele>
        <time>2014-02-09T16:40:24.669Z</time>
      </trkpt>
      <trkpt lat="47.81883" lon="7.17974">
        <ele>364.085174561</ele>
        <time>2014-02-09T16:40:25.666Z</time>
      </trkpt>
      <trkpt lat="47.81874" lon="7.17982">
        <ele>362.835693359</ele>
        <time>2014-02-09T16:40:26.675Z</time>
      </trkpt>
      <trkpt lat="47.81866" lon="7.1799">
        <ele>361.711303711</ele>
        <time>2014-02-09T16:40:27.657Z</time>
      </trkpt>
      <trkpt lat="47.81857" lon="7.17998">
        <ele>360.821838379</ele>
        <time>2014-02-09T16:40:28.665Z</time>
      </trkpt>
      <trkpt lat="47.8185" lon="7.18006">
        <ele>360.079376221</ele>
        <time>2014-02-09T16:40:29.667Z</time>
      </trkpt>
      <trkpt lat="47.81842" lon="7.18013">
        <ele>359.456420898</ele>
        <time>2014-02-09T16:40:30.671Z</time>
      </trkpt>
      <trkpt lat="47.81835" lon="7.18021">
        <ele>358.801971436</ele>
        <time>2014-02-09T16:40:31.667Z</time>
      </trkpt>
      <trkpt lat="47.81829" lon="7.18028">
        <ele>358.122497559</ele>
        <time>2014-02-09T16:40:32.666Z</time>
      </trkpt>
      <trkpt lat="47.81824" lon="7.18033">
        <ele>357.354400635</ele>
        <time>2014-02-09T16:40:33.667Z</time>
      </trkpt>
      <trkpt lat="47.8182" lon="7.18037">
        <ele>356.596710205</ele>
        <time>2014-02-09T16:40:34.67Z</time>
      </trkpt>
      <trkpt lat="47.81816" lon="7.18041">
        <ele>356.009277344</ele>
        <time>2014-02-09T16:40:35.662Z</time>
      </trkpt>
      <trkpt lat="47.81809" lon="7.18043">
        <ele>356.114074707</ele>
        <time>2014-02-09T16:40:40.659Z</time>
      </trkpt>
      <trkpt lat="47.81807" lon="7.18042">
        <ele>356.168426514</ele>
        <time>2014-02-09T16:40:41.674Z</time>
      </trkpt>
      <trkpt lat="47.81801" lon="7.18032">
        <ele>356.121368408</ele>
        <time>2014-02-09T16:40:43.659Z</time>
      </trkpt>
      <trkpt lat="47.81796" lon="7.18025">
        <ele>356.198394775</ele>
        <time>2014-02-09T16:40:44.658Z</time>
      </trkpt>
      <trkpt lat="47.81791" lon="7.18017">
        <ele>356.088989258</ele>
        <time>2014-02-09T16:40:45.657Z</time>
      </trkpt>
      <trkpt lat="47.81787" lon="7.1801">
        <ele>355.916931152</ele>
        <time>2014-02-09T16:40:46.662Z</time>
      </trkpt>
      <trkpt lat="47.81783" lon="7.18002">
        <ele>355.678771973</ele>
        <time>2014-02-09T16:40:47.657Z</time>
      </trkpt>
      <trkpt lat="47.81777" lon="7.17992">
        <ele>355.29574585</ele>
        <time>2014-02-09T16:40:48.657Z</time>
      </trkpt>
      <trkpt lat="47.81773" lon="7.17983">
        <ele>354.68939209</ele>
        <time>2014-02-09T16:40:49.659Z</time>
      </trkpt>
      <trkpt lat="47.81768" lon="7.17972">
        <ele>353.917297363</ele>
        <time>2014-02-09T16:40:50.668Z</time>
      </trkpt>
      <trkpt lat="47.81762" lon="7.17961">
        <ele>353.120147705</ele>
        <time>2014-02-09T16:40:51.667Z</time>
      </trkpt>
      <trkpt lat="47.81757" lon="7.1795">
        <ele>352.166168213</ele>
        <time>2014-02-09T16:40:52.665Z</time>
      </trkpt>
      <trkpt lat="47.81751" lon="7.17939">
        <ele>351.373901367</ele>
        <time>2014-02-09T16:40:53.666Z</time>
      </trkpt>
      <trkpt lat="47.81746" lon="7.17928">
        <ele>350.569976807</ele>
        <time>2014-02-09T16:40:54.667Z</time>
      </trkpt>
      <trkpt lat="47.81741" lon="7.17917">
        <ele>349.814239502</ele>
        <time>2014-02-09T16:40:55.665Z</time>
      </trkpt>
      <trkpt lat="47.81735" lon="7.17906">
        <ele>349.125030518</ele>
        <time>2014-02-09T16:40:56.669Z</time>
      </trkpt>
      <trkpt lat="47.8173" lon="7.17895">
        <ele>348.331451416</ele>
        <time>2014-02-09T16:40:57.666Z</time>
      </trkpt>
      <trkpt lat="47.81724" lon="7.17885">
        <ele>347.437927246</ele>
        <time>2014-02-09T16:40:58.668Z</time>
      </trkpt>
      <trkpt lat="47.81718" lon="7.17875">
        <ele>346.564971924</ele>
        <time>2014-02-09T16:40:59.675Z</time>
      </trkpt>
      <trkpt lat="47.81712" lon="7.17865">
        <ele>345.58996582</ele>
        <time>2014-02-09T16:41:00.65Z</time>
      </trkpt>
      <trkpt lat="47.81706" lon="7.17856">
        <ele>344.828399658</ele>
        <time>2014-02-09T16:41:01.669Z</time>
      </trkpt>
      <trkpt lat="47.817" lon="7.17848">
        <ele>344.436920166</ele>
        <time>2014-02-09T16:41:02.663Z</time>
      </trkpt>
      <trkpt lat="47.81696" lon="7.17842">
        <ele>344.397216797</ele>
        <time>2014-02-09T16:41:03.668Z</time>
      </trkpt>
      <trkpt lat="47.81693" lon="7.17837">
        <ele>344.527282715</ele>
        <time>2014-02-09T16:41:04.676Z</time>
      </trkpt>
      <trkpt lat="47.81686" lon="7.1783">
        <ele>344.885070801</ele>
        <time>2014-02-09T16:41:06.673Z</time>
      </trkpt>
      <trkpt lat="47.8168" lon="7.17826">
        <ele>345.280151367</ele>
        <time>2014-02-09T16:41:07.666Z</time>
      </trkpt>
      <trkpt lat="47.81674" lon="7.17821">
        <ele>345.749969482</ele>
        <time>2014-02-09T16:41:08.668Z</time>
      </trkpt>
      <trkpt lat="47.81669" lon="7.17817">
        <ele>345.843048096</ele>
        <time>2014-02-09T16:41:09.669Z</time>
      </trkpt>
      <trkpt lat="47.81662" lon="7.17815">
        <ele>345.505096436</ele>
        <time>2014-02-09T16:41:10.667Z</time>
      </trkpt>
      <trkpt lat="47.81654" lon="7.17812">
        <ele>344.943908691</ele>
        <time>2014-02-09T16:41:11.666Z</time>
      </trkpt>
      <trkpt lat="47.81645" lon="7.17809">
        <ele>344.51071167</ele>
        <time>2014-02-09T16:41:12.667Z</time>
      </trkpt>
      <trkpt lat="47.81634" lon="7.17807">
        <ele>344.549743652</ele>
        <time>2014-02-09T16:41:13.668Z</time>
      </trkpt>
      <trkpt lat="47.81623" lon="7.17806">
        <ele>344.977233887</ele>
        <time>2014-02-09T16:41:14.665Z</time>
      </trkpt>
      <trkpt lat="47.81613" lon="7.17805">
        <ele>345.442199707</ele>
        <time>2014-02-09T16:41:15.674Z</time>
      </trkpt>
      <trkpt lat="47.81603" lon="7.17806">
        <ele>345.734924316</ele>
        <time>2014-02-09T16:41:16.672Z</time>
      </trkpt>
      <trkpt lat="47.81593" lon="7.17807">
        <ele>345.838012695</ele>
        <time>2014-02-09T16:41:17.66Z</time>
      </trkpt>
      <trkpt lat="47.81583" lon="7.17808">
        <ele>346.187133789</ele>
        <time>2014-02-09T16:41:18.648Z</time>
      </trkpt>
      <trkpt lat="47.81575" lon="7.17809">
        <ele>346.525665283</ele>
        <time>2014-02-09T16:41:19.657Z</time>
      </trkpt>
      <trkpt lat="47.81566" lon="7.17809">
        <ele>347.126678467</ele>
        <time>2014-02-09T16:41:20.656Z</time>
      </trkpt>
      <trkpt lat="47.81558" lon="7.1781">
        <ele>347.742340088</ele>
        <time>2014-02-09T16:41:21.657Z</time>
      </trkpt>
      <trkpt lat="47.8155" lon="7.17811">
        <ele>348.185211182</ele>
        <time>2014-02-09T16:41:22.66Z</time>
      </trkpt>
      <trkpt lat="47.81543" lon="7.17813">
        <ele>348.120849609</ele>
        <time>2014-02-09T16:41:23.658Z</time>
      </trkpt>
      <trkpt lat="47.81535" lon="7.17814">
        <ele>348.217163086</ele>
        <time>2014-02-09T16:41:24.663Z</time>
      </trkpt>
      <trkpt lat="47.81529" lon="7.17815">
        <ele>348.544342041</ele>
        <time>2014-02-09T16:41:25.666Z</time>
      </trkpt>
      <trkpt lat="47.81523" lon="7.17817">
        <ele>348.992645264</ele>
        <time>2014-02-09T16:41:26.673Z</time>
      </trkpt>
      <trkpt lat="47.81517" lon="7.17818">
        <ele>349.46585083</ele>
        <time>2014-02-09T16:41:27.674Z</time>
      </trkpt>
      <trkpt lat="47.8151" lon="7.1782">
        <ele>349.631713867</ele>
        <time>2014-02-09T16:41:28.672Z</time>
      </trkpt>
      <trkpt lat="47.81503" lon="7.17823">
        <ele>349.818695068</ele>
        <time>2014-02-09T16:41:29.669Z</time>
      </trkpt>
      <trkpt lat="47.81497" lon="7.17825">
        <ele>350.40411377</ele>
        <time>2014-02-09T16:41:30.667Z</time>
      </trkpt>
      <trkpt lat="47.81492" lon="7.17827">
        <ele>350.59475708</ele>
        <time>2014-02-09T16:41:31.665Z</time>
      </trkpt>
      <trkpt lat="47.81486" lon="7.17826">
        <ele>351.270599365</ele>
        <time>2014-02-09T16:41:32.653Z</time>
      </trkpt>
      <trkpt lat="47.81481" lon="7.17825">
        <ele>351.630249023</ele>
        <time>2014-02-09T16:41:33.649Z</time>
      </trkpt>
      <trkpt lat="47.81476" lon="7.17825">
        <ele>352.032104492</ele>
        <time>2014-02-09T16:41:34.664Z</time>
      </trkpt>
      <trkpt lat="47.81472" lon="7.17829">
        <ele>351.986846924</ele>
        <time>2014-02-09T16:41:35.665Z</time>
      </trkpt>
      <trkpt lat="47.81469" lon="7.17834">
        <ele>351.658599854</ele>
        <time>2014-02-09T16:41:36.671Z</time>
      </trkpt>
      <trkpt lat="47.81468" lon="7.17842">
        <ele>351.055938721</ele>
        <time>2014-02-09T16:41:37.665Z</time>
      </trkpt>
      <trkpt lat="47.81466" lon="7.17851">
        <ele>350.569793701</ele>
        <time>2014-02-09T16:41:38.664Z</time>
      </trkpt>
      <trkpt lat="47.81464" lon="7.17863">
        <ele>350.238525391</ele>
        <time>2014-02-09T16:41:39.663Z</time>
      </trkpt>
      <trkpt lat="47.81461" lon="7.17875">
        <ele>349.908843994</ele>
        <time>2014-02-09T16:41:40.664Z</time>
      </trkpt>
      <trkpt lat="47.81457" lon="7.17883">
        <ele>349.358551025</ele>
        <time>2014-02-09T16:41:41.663Z</time>
      </trkpt>
      <trkpt lat="47.81452" lon="7.17892">
        <ele>349.145599365</ele>
        <time>2014-02-09T16:41:42.661Z</time>
      </trkpt>
      <trkpt lat="47.81444" lon="7.17899">
        <ele>348.887420654</ele>
        <time>2014-02-09T16:41:43.665Z</time>
      </trkpt>
      <trkpt lat="47.81436" lon="7.17907">
        <ele>348.588806152</ele>
        <time>2014-02-09T16:41:44.661Z</time>
      </trkpt>
      <trkpt lat="47.81428" lon="7.17914">
        <ele>348.190307617</ele>
        <time>2014-02-09T16:41:45.664Z</time>
      </trkpt>
      <trkpt lat="47.81419" lon="7.1792">
        <ele>347.773712158</ele>
        <time>2014-02-09T16:41:46.668Z</time>
      </trkpt>
      <trkpt lat="47.8141" lon="7.17922">
        <ele>347.338623047</ele>
        <time>2014-02-09T16:41:47.648Z</time>
      </trkpt>
      <trkpt lat="47.81401" lon="7.17923">
        <ele>347.209564209</ele>
        <time>2014-02-09T16:41:48.66Z</time>
      </trkpt>
      <trkpt lat="47.8139" lon="7.17923">
        <ele>347.144744873</ele>
        <time>2014-02-09T16:41:49.664Z</time>
      </trkpt>
      <trkpt lat="47.81379" lon="7.17922">
        <ele>347.233154297</ele>
        <time>2014-02-09T16:41:50.666Z</time>
      </trkpt>
      <trkpt lat="47.81369" lon="7.1792">
        <ele>347.402130127</ele>
        <time>2014-02-09T16:41:51.666Z</time>
      </trkpt>
      <trkpt lat="47.81358" lon="7.17918">
        <ele>347.678771973</ele>
        <time>2014-02-09T16:41:52.666Z</time>
      </trkpt>
      <trkpt lat="47.81346" lon="7.17917">
        <ele>348.273681641</ele>
        <time>2014-02-09T16:41:53.671Z</time>
      </trkpt>
      <trkpt lat="47.81335" lon="7.17915">
        <ele>348.557678223</ele>
        <time>2014-02-09T16:41:54.666Z</time>
      </trkpt>
      <trkpt lat="47.81325" lon="7.17915">
        <ele>348.503051758</ele>
        <time>2014-02-09T16:41:55.653Z</time>
      </trkpt>
      <trkpt lat="47.81314" lon="7.17916">
        <ele>348.640106201</ele>
        <time>2014-02-09T16:41:56.672Z</time>
      </trkpt>
      <trkpt lat="47.81304" lon="7.17918">
        <ele>348.41015625</ele>
        <time>2014-02-09T16:41:57.658Z</time>
      </trkpt>
      <trkpt lat="47.81295" lon="7.17921">
        <ele>347.728424072</ele>
        <time>2014-02-09T16:41:58.667Z</time>
      </trkpt>
      <trkpt lat="47.81285" lon="7.17924">
        <ele>346.907287598</ele>
        <time>2014-02-09T16:41:59.666Z</time>
      </trkpt>
      <trkpt lat="47.81275" lon="7.17927">
        <ele>346.261291504</ele>
        <time>2014-02-09T16:42:00.665Z</time>
      </trkpt>
      <trkpt lat="47.81265" lon="7.1793">
        <ele>345.37197876</ele>
        <time>2014-02-09T16:42:01.669Z</time>
      </trkpt>
      <trkpt lat="47.81253" lon="7.17933">
        <ele>344.318664551</ele>
        <time>2014-02-09T16:42:02.668Z</time>
      </trkpt>
      <trkpt lat="47.81242" lon="7.17937">
        <ele>343.490905762</ele>
        <time>2014-02-09T16:42:03.666Z</time>
      </trkpt>
      <trkpt lat="47.8123" lon="7.17941">
        <ele>342.84463501</ele>
        <time>2014-02-09T16:42:04.663Z</time>
      </trkpt>
      <trkpt lat="47.81218" lon="7.17943">
        <ele>342.259643555</ele>
        <time>2014-02-09T16:42:05.664Z</time>
      </trkpt>
      <trkpt lat="47.81208" lon="7.17943">
        <ele>341.844848633</ele>
        <time>2014-02-09T16:42:06.671Z</time>
      </trkpt>
      <trkpt lat="47.81197" lon="7.17943">
        <ele>341.767547607</ele>
        <time>2014-02-09T16:42:07.666Z</time>
      </trkpt>
      <trkpt lat="47.81185" lon="7.17943">
        <ele>341.668426514</ele>
        <time>2014-02-09T16:42:08.652Z</time>
      </trkpt>
      <trkpt lat="47.81175" lon="7.17941">
        <ele>341.181274414</ele>
        <time>2014-02-09T16:42:09.67Z</time>
      </trkpt>
      <trkpt lat="47.81164" lon="7.17939">
        <ele>340.671051025</ele>
        <time>2014-02-09T16:42:10.656Z</time>
      </trkpt>
      <trkpt lat="47.81154" lon="7.17937">
        <ele>340.295471191</ele>
        <time>2014-02-09T16:42:11.665Z</time>
      </trkpt>
      <trkpt lat="47.81143" lon="7.17935">
        <ele>340.229949951</ele>
        <time>2014-02-09T16:42:12.659Z</time>
      </trkpt>
      <trkpt lat="47.81133" lon="7.17931">
        <ele>339.865753174</ele>
        <time>2014-02-09T16:42:13.664Z</time>
      </trkpt>
      <trkpt lat="47.81123" lon="7.17927">
        <ele>339.705200195</ele>
        <time>2014-02-09T16:42:14.654Z</time>
      </trkpt>
      <trkpt lat="47.81113" lon="7.17923">
        <ele>340.207855225</ele>
        <time>2014-02-09T16:42:15.665Z</time>
      </trkpt>
      <trkpt lat="47.81104" lon="7.17919">
        <ele>340.896728516</ele>
        <time>2014-02-09T16:42:16.669Z</time>
      </trkpt>
      <trkpt lat="47.81093" lon="7.17915">
        <ele>341.639373779</ele>
        <time>2014-02-09T16:42:17.662Z</time>
      </trkpt>
      <trkpt lat="47.81083" lon="7.17911">
        <ele>341.981781006</ele>
        <time>2014-02-09T16:42:18.661Z</time>
      </trkpt>
      <trkpt lat="47.81073" lon="7.17905">
        <ele>342.126220703</ele>
        <time>2014-02-09T16:42:19.664Z</time>
      </trkpt>
      <trkpt lat="47.81063" lon="7.17899">
        <ele>342.516571045</ele>
        <time>2014-02-09T16:42:20.665Z</time>
      </trkpt>
      <trkpt lat="47.81052" lon="7.17893">
        <ele>343.508728027</ele>
        <time>2014-02-09T16:42:21.665Z</time>
      </trkpt>
      <trkpt lat="47.81042" lon="7.17887">
        <ele>344.126983643</ele>
        <time>2014-02-09T16:42:22.649Z</time>
      </trkpt>
      <trkpt lat="47.81033" lon="7.17882">
        <ele>344.043792725</ele>
        <time>2014-02-09T16:42:23.665Z</time>
      </trkpt>
      <trkpt lat="47.81024" lon="7.17877">
        <ele>343.617126465</ele>
        <time>2014-02-09T16:42:24.665Z</time>
      </trkpt>
      <trkpt lat="47.81014" lon="7.17872">
        <ele>342.828308105</ele>
        <time>2014-02-09T16:42:25.652Z</time>
      </trkpt>
      <trkpt lat="47.81004" lon="7.17867">
        <ele>341.972351074</ele>
        <time>2014-02-09T16:42:26.67Z</time>
      </trkpt>
      <trkpt lat="47.80993" lon="7.17862">
        <ele>341.178222656</ele>
        <time>2014-02-09T16:42:27.649Z</time>
      </trkpt>
      <trkpt lat="47.80982" lon="7.17858">
        <ele>340.360473633</ele>
        <time>2014-02-09T16:42:28.662Z</time>
      </trkpt>
      <trkpt lat="47.80971" lon="7.17853">
        <ele>339.755554199</ele>
        <time>2014-02-09T16:42:29.665Z</time>
      </trkpt>
      <trkpt lat="47.80959" lon="7.17849">
        <ele>339.802307129</ele>
        <time>2014-02-09T16:42:30.664Z</time>
      </trkpt>
      <trkpt lat="47.80949" lon="7.17845">
        <ele>339.398010254</ele>
        <time>2014-02-09T16:42:31.666Z</time>
      </trkpt>
      <trkpt lat="47.8094" lon="7.17841">
        <ele>338.757598877</ele>
        <time>2014-02-09T16:42:32.655Z</time>
      </trkpt>
      <trkpt lat="47.8093" lon="7.17838">
        <ele>339.130554199</ele>
        <time>2014-02-09T16:42:33.664Z</time>
      </trkpt>
      <trkpt lat="47.80923" lon="7.17835">
        <ele>339.912017822</ele>
        <time>2014-02-09T16:42:34.664Z</time>
      </trkpt>
      <trkpt lat="47.80917" lon="7.17833">
        <ele>340.884216309</ele>
        <time>2014-02-09T16:42:35.654Z</time>
      </trkpt>
      <trkpt lat="47.80909" lon="7.1783">
        <ele>343.704467773</ele>
        <time>2014-02-09T16:43:14.663Z</time>
      </trkpt>
      <trkpt lat="47.80906" lon="7.1783">
        <ele>344.030181885</ele>
        <time>2014-02-09T16:43:15.664Z</time>
      </trkpt>
      <trkpt lat="47.80897" lon="7.1783">
        <ele>347.416107178</ele>
        <time>2014-02-09T16:43:17.645Z</time>
      </trkpt>
      <trkpt lat="47.80893" lon="7.1783">
        <ele>347.568359375</ele>
        <time>2014-02-09T16:43:18.661Z</time>
      </trkpt>
      <trkpt lat="47.80888" lon="7.17825">
        <ele>347.781005859</ele>
        <time>2014-02-09T16:43:20.657Z</time>
      </trkpt>
      <trkpt lat="47.80887" lon="7.1782">
        <ele>348.487915039</ele>
        <time>2014-02-09T16:43:21.658Z</time>
      </trkpt>
      <trkpt lat="47.80887" lon="7.17813">
        <ele>349.0652771</ele>
        <time>2014-02-09T16:43:22.659Z</time>
      </trkpt>
      <trkpt lat="47.80887" lon="7.17806">
        <ele>349.585632324</ele>
        <time>2014-02-09T16:43:23.66Z</time>
      </trkpt>
      <trkpt lat="47.80887" lon="7.17795">
        <ele>350.083892822</ele>
        <time>2014-02-09T16:43:24.653Z</time>
      </trkpt>
      <trkpt lat="47.80888" lon="7.17783">
        <ele>350.80380249</ele>
        <time>2014-02-09T16:43:25.653Z</time>
      </trkpt>
      <trkpt lat="47.8089" lon="7.17769">
        <ele>351.659576416</ele>
        <time>2014-02-09T16:43:26.657Z</time>
      </trkpt>
      <trkpt lat="47.80891" lon="7.17755">
        <ele>352.522003174</ele>
        <time>2014-02-09T16:43:27.648Z</time>
      </trkpt>
      <trkpt lat="47.80892" lon="7.17742">
        <ele>353.0859375</ele>
        <time>2014-02-09T16:43:28.65Z</time>
      </trkpt>
      <trkpt lat="47.80893" lon="7.17729">
        <ele>353.329650879</ele>
        <time>2014-02-09T16:43:29.655Z</time>
      </trkpt>
      <trkpt lat="47.80895" lon="7.17716">
        <ele>353.376342773</ele>
        <time>2014-02-09T16:43:30.66Z</time>
      </trkpt>
      <trkpt lat="47.80896" lon="7.17704">
        <ele>353.432678223</ele>
        <time>2014-02-09T16:43:31.663Z</time>
      </trkpt>
      <trkpt lat="47.80897" lon="7.17692">
        <ele>353.593444824</ele>
        <time>2014-02-09T16:43:32.642Z</time>
      </trkpt>
      <trkpt lat="47.80898" lon="7.17681">
        <ele>353.694549561</ele>
        <time>2014-02-09T16:43:33.66Z</time>
      </trkpt>
      <trkpt lat="47.80899" lon="7.1767">
        <ele>353.301269531</ele>
        <time>2014-02-09T16:43:34.656Z</time>
      </trkpt>
      <trkpt lat="47.809" lon="7.17659">
        <ele>352.884155273</ele>
        <time>2014-02-09T16:43:35.661Z</time>
      </trkpt>
      <trkpt lat="47.80901" lon="7.17649">
        <ele>352.287811279</ele>
        <time>2014-02-09T16:43:36.658Z</time>
      </trkpt>
      <trkpt lat="47.80901" lon="7.17638">
        <ele>351.937072754</ele>
        <time>2014-02-09T16:43:37.652Z</time>
      </trkpt>
      <trkpt lat="47.809" lon="7.17628">
        <ele>351.800964355</ele>
        <time>2014-02-09T16:43:38.653Z</time>
      </trkpt>
      <trkpt lat="47.809" lon="7.1762">
        <ele>351.81362915</ele>
        <time>2014-02-09T16:43:39.655Z</time>
      </trkpt>
      <trkpt lat="47.809" lon="7.17611">
        <ele>351.694396973</ele>
        <time>2014-02-09T16:43:40.655Z</time>
      </trkpt>
      <trkpt lat="47.80899" lon="7.17603">
        <ele>351.210723877</ele>
        <time>2014-02-09T16:43:41.652Z</time>
      </trkpt>
      <trkpt lat="47.80898" lon="7.17596">
        <ele>350.796386719</ele>
        <time>2014-02-09T16:43:42.654Z</time>
      </trkpt>
      <trkpt lat="47.80897" lon="7.1759">
        <ele>350.646606445</ele>
        <time>2014-02-09T16:43:43.653Z</time>
      </trkpt>
      <trkpt lat="47.80896" lon="7.17582">
        <ele>350.560455322</ele>
        <time>2014-02-09T16:43:44.664Z</time>
      </trkpt>
      <trkpt lat="47.80895" lon="7.17574">
        <ele>350.433410645</ele>
        <time>2014-02-09T16:43:45.659Z</time>
      </trkpt>
      <trkpt lat="47.80892" lon="7.17569">
        <ele>350.21081543</ele>
        <time>2014-02-09T16:43:46.66Z</time>
      </trkpt>
      <trkpt lat="47.80888" lon="7.17565">
        <ele>350.391540527</ele>
        <time>2014-02-09T16:43:47.657Z</time>
      </trkpt>
      <trkpt lat="47.80883" lon="7.17564">
        <ele>350.398376465</ele>
        <time>2014-02-09T16:43:48.658Z</time>
      </trkpt>
      <trkpt lat="47.80878" lon="7.17563">
        <ele>351.086975098</ele>
        <time>2014-02-09T16:43:49.659Z</time>
      </trkpt>
      <trkpt lat="47.80873" lon="7.17562">
        <ele>351.182525635</ele>
        <time>2014-02-09T16:43:50.66Z</time>
      </trkpt>
      <trkpt lat="47.80868" lon="7.17561">
        <ele>351.123321533</ele>
        <time>2014-02-09T16:43:51.666Z</time>
      </trkpt>
      <trkpt lat="47.80863" lon="7.17561">
        <ele>350.992492676</ele>
        <time>2014-02-09T16:43:52.669Z</time>
      </trkpt>
      <trkpt lat="47.80857" lon="7.17561">
        <ele>350.839172363</ele>
        <time>2014-02-09T16:43:53.669Z</time>
      </trkpt>
      <trkpt lat="47.80851" lon="7.17561">
        <ele>350.489624023</ele>
        <time>2014-02-09T16:43:54.661Z</time>
      </trkpt>
      <trkpt lat="47.80844" lon="7.17561">
        <ele>350.214599609</ele>
        <time>2014-02-09T16:43:55.66Z</time>
      </trkpt>
      <trkpt lat="47.80838" lon="7.17561">
        <ele>350.249053955</ele>
        <time>2014-02-09T16:43:56.662Z</time>
      </trkpt>
      <trkpt lat="47.80832" lon="7.1756">
        <ele>350.205627441</ele>
        <time>2014-02-09T16:43:57.661Z</time>
      </trkpt>
      <trkpt lat="47.80825" lon="7.1756">
        <ele>351.465545654</ele>
        <time>2014-02-09T16:44:26.661Z</time>
      </trkpt>
    </trkseg>
  </trk>
</gpx>